<?xml version='1.0' encoding='UTF-8'?><gpx version="1.1" creator="JPX - https://github.com/jenetics/jpx" xmlns="http://www.topografix.com/GPX/1/1"><trk><trkseg><trkpt lat="39.1699049" lon="8.572322"><ele>201.99999999999997</ele><time>2026-04-18T13:15:18.266Z</time></trkpt><trkpt lat="39.1700076" lon="8.5722251"><ele>202.0</ele><time>2026-04-18T13:15:20.22Z</time></trkpt><trkpt lat="39.1700724" lon="8.5721746"><ele>202.0</ele><time>2026-04-18T13:15:21.248Z</time></trkpt><trkpt lat="39.1701452" lon="8.5721422"><ele>202.0</ele><time>2026-04-18T13:15:22.212Z</time></trkpt><trkpt lat="39.1702259" lon="8.5721145"><ele>201.99999999999997</ele><time>2026-04-18T13:15:23.226Z</time></trkpt><trkpt lat="39.1703058" lon="8.5720913"><ele>202.0</ele><time>2026-04-18T13:15:24.271Z</time></trkpt><trkpt lat="39.1703867" lon="8.5720763"><ele>201.99999999999997</ele><time>2026-04-18T13:15:25.195Z</time></trkpt><trkpt lat="39.1704662" lon="8.5720694"><ele>202.0</ele><time>2026-04-18T13:15:26.223Z</time></trkpt><trkpt lat="39.1705462" lon="8.5720632"><ele>202.0</ele><time>2026-04-18T13:15:27.25Z</time></trkpt><trkpt lat="39.1706216" lon="8.5720574"><ele>202.0</ele><time>2026-04-18T13:15:28.265Z</time></trkpt><trkpt lat="39.1706967" lon="8.5720469"><ele>201.99999999999997</ele><time>2026-04-18T13:15:29.256Z</time></trkpt><trkpt lat="39.1707694" lon="8.5720406"><ele>202.0</ele><time>2026-04-18T13:15:30.26Z</time></trkpt><trkpt lat="39.1708505" lon="8.572028"><ele>204.0</ele><time>2026-04-18T13:15:31.231Z</time></trkpt><trkpt lat="39.1709486" lon="8.5720235"><ele>206.0</ele><time>2026-04-18T13:15:32.198Z</time></trkpt><trkpt lat="39.1710516" lon="8.5720313"><ele>208.0</ele><time>2026-04-18T13:15:33.2Z</time></trkpt><trkpt lat="39.1711384" lon="8.5720422"><ele>210.0</ele><time>2026-04-18T13:15:34.211Z</time></trkpt><trkpt lat="39.171218" lon="8.5720582"><ele>212.0</ele><time>2026-04-18T13:15:35.199Z</time></trkpt><trkpt lat="39.1713066" lon="8.5720862"><ele>212.0</ele><time>2026-04-18T13:15:36.209Z</time></trkpt><trkpt lat="39.1713922" lon="8.5721319"><ele>212.0</ele><time>2026-04-18T13:15:37.199Z</time></trkpt><trkpt lat="39.1714785" lon="8.5721776"><ele>212.0</ele><time>2026-04-18T13:15:38.198Z</time></trkpt><trkpt lat="39.1715623" lon="8.5722278"><ele>212.0</ele><time>2026-04-18T13:15:39.197Z</time></trkpt><trkpt lat="39.1716545" lon="8.5722731"><ele>212.0</ele><time>2026-04-18T13:15:40.2Z</time></trkpt><trkpt lat="39.1717474" lon="8.5723171"><ele>213.39999999999998</ele><time>2026-04-18T13:15:41.209Z</time></trkpt><trkpt lat="39.1718385" lon="8.5723494"><ele>214.79999999999998</ele><time>2026-04-18T13:15:42.203Z</time></trkpt><trkpt lat="39.1719348" lon="8.5723518"><ele>216.2</ele><time>2026-04-18T13:15:43.204Z</time></trkpt><trkpt lat="39.1720517" lon="8.5723439"><ele>217.6</ele><time>2026-04-18T13:15:44.193Z</time></trkpt><trkpt lat="39.172168" lon="8.5723131"><ele>219.0</ele><time>2026-04-18T13:15:45.195Z</time></trkpt><trkpt lat="39.172283" lon="8.5723039"><ele>220.2</ele><time>2026-04-18T13:15:46.257Z</time></trkpt><trkpt lat="39.1723858" lon="8.5723014"><ele>221.39999999999998</ele><time>2026-04-18T13:15:47.207Z</time></trkpt><trkpt lat="39.1724838" lon="8.5723392"><ele>222.6</ele><time>2026-04-18T13:15:48.266Z</time></trkpt><trkpt lat="39.1725789" lon="8.5724108"><ele>223.8</ele><time>2026-04-18T13:15:49.234Z</time></trkpt><trkpt lat="39.1726631" lon="8.5725156"><ele>225.0</ele><time>2026-04-18T13:15:50.234Z</time></trkpt><trkpt lat="39.172747" lon="8.5726216"><ele>225.0</ele><time>2026-04-18T13:15:51.265Z</time></trkpt><trkpt lat="39.1728215" lon="8.5727251"><ele>225.0</ele><time>2026-04-18T13:15:52.218Z</time></trkpt><trkpt lat="39.172889" lon="8.5728198"><ele>225.0</ele><time>2026-04-18T13:15:53.249Z</time></trkpt><trkpt lat="39.1729672" lon="8.5729017"><ele>225.0</ele><time>2026-04-18T13:15:54.276Z</time></trkpt><trkpt lat="39.1730676" lon="8.5729698"><ele>225.0</ele><time>2026-04-18T13:15:55.264Z</time></trkpt><trkpt lat="39.173176" lon="8.5729933"><ele>227.0</ele><time>2026-04-18T13:15:56.248Z</time></trkpt><trkpt lat="39.1732995" lon="8.5729728"><ele>229.0</ele><time>2026-04-18T13:15:57.277Z</time></trkpt><trkpt lat="39.1734275" lon="8.5729494"><ele>231.0</ele><time>2026-04-18T13:15:58.245Z</time></trkpt><trkpt lat="39.1735595" lon="8.5729103"><ele>233.0</ele><time>2026-04-18T13:15:59.26Z</time></trkpt><trkpt lat="39.1736896" lon="8.5728698"><ele>233.60000000000002</ele><time>2026-04-18T13:16:00.216Z</time></trkpt><trkpt lat="39.1738108" lon="8.5728399"><ele>234.20000000000002</ele><time>2026-04-18T13:16:01.255Z</time></trkpt><trkpt lat="39.173916" lon="8.5728177"><ele>234.8</ele><time>2026-04-18T13:16:02.263Z</time></trkpt><trkpt lat="39.1740201" lon="8.5727956"><ele>235.4</ele><time>2026-04-18T13:16:03.258Z</time></trkpt><trkpt lat="39.1741287" lon="8.5727711"><ele>236.0</ele><time>2026-04-18T13:16:04.245Z</time></trkpt><trkpt lat="39.1742464" lon="8.5727383"><ele>239.0</ele><time>2026-04-18T13:16:05.268Z</time></trkpt><trkpt lat="39.1743616" lon="8.5726851"><ele>242.0</ele><time>2026-04-18T13:16:06.259Z</time></trkpt><trkpt lat="39.174466" lon="8.5726251"><ele>245.0</ele><time>2026-04-18T13:16:07.28Z</time></trkpt><trkpt lat="39.1745625" lon="8.5725545"><ele>248.0</ele><time>2026-04-18T13:16:08.266Z</time></trkpt><trkpt lat="39.1746565" lon="8.5724812"><ele>248.0</ele><time>2026-04-18T13:16:09.282Z</time></trkpt><trkpt lat="39.1747467" lon="8.5723968"><ele>248.0</ele><time>2026-04-18T13:16:10.259Z</time></trkpt><trkpt lat="39.1748409" lon="8.5722761"><ele>248.0</ele><time>2026-04-18T13:16:11.249Z</time></trkpt><trkpt lat="39.1749267" lon="8.5721734"><ele>248.0</ele><time>2026-04-18T13:16:12.257Z</time></trkpt><trkpt lat="39.1750152" lon="8.5720896"><ele>251.33333333333334</ele><time>2026-04-18T13:16:13.25Z</time></trkpt><trkpt lat="39.1752579" lon="8.5719799"><ele>254.66666666666669</ele><time>2026-04-18T13:16:15.225Z</time></trkpt><trkpt lat="39.1753772" lon="8.5719237"><ele>258.0</ele><time>2026-04-18T13:16:16.235Z</time></trkpt><trkpt lat="39.1754958" lon="8.571871"><ele>258.0</ele><time>2026-04-18T13:16:17.232Z</time></trkpt><trkpt lat="39.1755972" lon="8.5718114"><ele>258.0</ele><time>2026-04-18T13:16:18.257Z</time></trkpt><trkpt lat="39.175695" lon="8.5717545"><ele>258.0</ele><time>2026-04-18T13:16:19.269Z</time></trkpt><trkpt lat="39.1757889" lon="8.5716918"><ele>258.0</ele><time>2026-04-18T13:16:20.249Z</time></trkpt><trkpt lat="39.1758731" lon="8.5716085"><ele>258.0</ele><time>2026-04-18T13:16:21.252Z</time></trkpt><trkpt lat="39.1759531" lon="8.5714825"><ele>260.0</ele><time>2026-04-18T13:16:22.259Z</time></trkpt><trkpt lat="39.176024" lon="8.5713596"><ele>262.0</ele><time>2026-04-18T13:16:23.277Z</time></trkpt><trkpt lat="39.1760904" lon="8.5712328"><ele>264.0</ele><time>2026-04-18T13:16:24.282Z</time></trkpt><trkpt lat="39.1761525" lon="8.5711063"><ele>266.0</ele><time>2026-04-18T13:16:25.273Z</time></trkpt><trkpt lat="39.1762054" lon="8.5709933"><ele>266.0</ele><time>2026-04-18T13:16:26.257Z</time></trkpt><trkpt lat="39.1762605" lon="8.570885"><ele>266.0</ele><time>2026-04-18T13:16:27.265Z</time></trkpt><trkpt lat="39.176309" lon="8.5707741"><ele>266.0</ele><time>2026-04-18T13:16:28.271Z</time></trkpt><trkpt lat="39.1763417" lon="8.5706499"><ele>266.0</ele><time>2026-04-18T13:16:29.249Z</time></trkpt><trkpt lat="39.1763667" lon="8.5705101"><ele>266.0</ele><time>2026-04-18T13:16:30.265Z</time></trkpt><trkpt lat="39.1763844" lon="8.5703628"><ele>266.6</ele><time>2026-04-18T13:16:31.268Z</time></trkpt><trkpt lat="39.1763811" lon="8.5702296"><ele>267.20000000000005</ele><time>2026-04-18T13:16:32.273Z</time></trkpt><trkpt lat="39.1763763" lon="8.5701322"><ele>267.79999999999995</ele><time>2026-04-18T13:16:33.264Z</time></trkpt><trkpt lat="39.1763986" lon="8.5700006"><ele>268.4</ele><time>2026-04-18T13:16:35.232Z</time></trkpt><trkpt lat="39.1765091" lon="8.5699389"><ele>269.0</ele><time>2026-04-18T13:16:37.267Z</time></trkpt><trkpt lat="39.1765796" lon="8.5699144"><ele>271.1666666666667</ele><time>2026-04-18T13:16:38.258Z</time></trkpt><trkpt lat="39.1766475" lon="8.5698789"><ele>273.33333333333337</ele><time>2026-04-18T13:16:39.241Z</time></trkpt><trkpt lat="39.1767055" lon="8.5698444"><ele>275.5</ele><time>2026-04-18T13:16:40.29Z</time></trkpt><trkpt lat="39.1767939" lon="8.5698735"><ele>277.6666666666667</ele><time>2026-04-18T13:16:42.27Z</time></trkpt><trkpt lat="39.1768373" lon="8.569958"><ele>279.8333333333333</ele><time>2026-04-18T13:16:43.253Z</time></trkpt><trkpt lat="39.1768653" lon="8.5700647"><ele>282.0</ele><time>2026-04-18T13:16:44.252Z</time></trkpt><trkpt lat="39.1768986" lon="8.5701858"><ele>282.0</ele><time>2026-04-18T13:16:45.275Z</time></trkpt><trkpt lat="39.1769561" lon="8.5703195"><ele>282.0</ele><time>2026-04-18T13:16:46.265Z</time></trkpt><trkpt lat="39.1770324" lon="8.5704589"><ele>282.0</ele><time>2026-04-18T13:16:47.274Z</time></trkpt><trkpt lat="39.1771027" lon="8.570593"><ele>282.0</ele><time>2026-04-18T13:16:48.268Z</time></trkpt><trkpt lat="39.1771712" lon="8.5707184"><ele>281.25</ele><time>2026-04-18T13:16:49.281Z</time></trkpt><trkpt lat="39.1772493" lon="8.5708298"><ele>280.5</ele><time>2026-04-18T13:16:50.266Z</time></trkpt><trkpt lat="39.1773375" lon="8.5709381"><ele>279.75</ele><time>2026-04-18T13:16:51.25Z</time></trkpt><trkpt lat="39.1774337" lon="8.5710306"><ele>279.0</ele><time>2026-04-18T13:16:52.268Z</time></trkpt><trkpt lat="39.1775395" lon="8.5711181"><ele>280.75</ele><time>2026-04-18T13:16:53.263Z</time></trkpt><trkpt lat="39.1776532" lon="8.5711889"><ele>282.5</ele><time>2026-04-18T13:16:54.251Z</time></trkpt><trkpt lat="39.1777777" lon="8.5712624"><ele>284.25</ele><time>2026-04-18T13:16:55.276Z</time></trkpt><trkpt lat="39.1779069" lon="8.5713283"><ele>286.0</ele><time>2026-04-18T13:16:56.265Z</time></trkpt><trkpt lat="39.1780364" lon="8.5713976"><ele>286.0</ele><time>2026-04-18T13:16:57.218Z</time></trkpt><trkpt lat="39.1781651" lon="8.5714673"><ele>286.0</ele><time>2026-04-18T13:16:58.272Z</time></trkpt><trkpt lat="39.1782939" lon="8.5715276"><ele>286.0</ele><time>2026-04-18T13:16:59.263Z</time></trkpt><trkpt lat="39.1784103" lon="8.5715864"><ele>286.0</ele><time>2026-04-18T13:17:00.251Z</time></trkpt><trkpt lat="39.1785211" lon="8.5716505"><ele>288.0</ele><time>2026-04-18T13:17:01.275Z</time></trkpt><trkpt lat="39.1786378" lon="8.5717322"><ele>290.0</ele><time>2026-04-18T13:17:02.292Z</time></trkpt><trkpt lat="39.1787547" lon="8.5718064"><ele>292.0</ele><time>2026-04-18T13:17:03.3Z</time></trkpt><trkpt lat="39.1788577" lon="8.5718789"><ele>294.0</ele><time>2026-04-18T13:17:04.278Z</time></trkpt><trkpt lat="39.1789543" lon="8.5719798"><ele>295.2</ele><time>2026-04-18T13:17:05.257Z</time></trkpt><trkpt lat="39.1790332" lon="8.5720921"><ele>296.4</ele><time>2026-04-18T13:17:06.26Z</time></trkpt><trkpt lat="39.1790977" lon="8.5722077"><ele>297.6</ele><time>2026-04-18T13:17:07.248Z</time></trkpt><trkpt lat="39.1791655" lon="8.5723155"><ele>298.8</ele><time>2026-04-18T13:17:08.267Z</time></trkpt><trkpt lat="39.1792502" lon="8.5724113"><ele>300.0</ele><time>2026-04-18T13:17:09.269Z</time></trkpt><trkpt lat="39.1793357" lon="8.5724885"><ele>300.0</ele><time>2026-04-18T13:17:10.262Z</time></trkpt><trkpt lat="39.1794269" lon="8.5725564"><ele>300.0</ele><time>2026-04-18T13:17:11.273Z</time></trkpt><trkpt lat="39.179521" lon="8.5725957"><ele>300.0</ele><time>2026-04-18T13:17:12.29Z</time></trkpt><trkpt lat="39.1796235" lon="8.5726214"><ele>300.0</ele><time>2026-04-18T13:17:13.249Z</time></trkpt><trkpt lat="39.1797394" lon="8.5726424"><ele>300.0</ele><time>2026-04-18T13:17:14.251Z</time></trkpt><trkpt lat="39.1798658" lon="8.5726702"><ele>301.25</ele><time>2026-04-18T13:17:15.274Z</time></trkpt><trkpt lat="39.1800029" lon="8.5726976"><ele>302.5</ele><time>2026-04-18T13:17:16.264Z</time></trkpt><trkpt lat="39.1801251" lon="8.5727323"><ele>303.75</ele><time>2026-04-18T13:17:17.277Z</time></trkpt><trkpt lat="39.1802482" lon="8.5727466"><ele>305.0</ele><time>2026-04-18T13:17:18.267Z</time></trkpt><trkpt lat="39.1803693" lon="8.572743"><ele>305.0</ele><time>2026-04-18T13:17:19.254Z</time></trkpt><trkpt lat="39.1804848" lon="8.5727343"><ele>305.0</ele><time>2026-04-18T13:17:20.283Z</time></trkpt><trkpt lat="39.1805981" lon="8.5727339"><ele>305.0</ele><time>2026-04-18T13:17:21.271Z</time></trkpt><trkpt lat="39.1807115" lon="8.5727573"><ele>305.0</ele><time>2026-04-18T13:17:22.28Z</time></trkpt><trkpt lat="39.1808199" lon="8.5727992"><ele>305.0</ele><time>2026-04-18T13:17:23.257Z</time></trkpt><trkpt lat="39.1809229" lon="8.5728491"><ele>305.0</ele><time>2026-04-18T13:17:24.263Z</time></trkpt><trkpt lat="39.1810136" lon="8.5728933"><ele>305.0</ele><time>2026-04-18T13:17:25.264Z</time></trkpt><trkpt lat="39.1810793" lon="8.5729703"><ele>305.0</ele><time>2026-04-18T13:17:26.273Z</time></trkpt><trkpt lat="39.1811306" lon="8.5730472"><ele>305.0</ele><time>2026-04-18T13:17:27.277Z</time></trkpt><trkpt lat="39.1811676" lon="8.5731222"><ele>305.0</ele><time>2026-04-18T13:17:28.285Z</time></trkpt><trkpt lat="39.1812064" lon="8.5731984"><ele>304.5</ele><time>2026-04-18T13:17:29.237Z</time></trkpt><trkpt lat="39.181239" lon="8.5732697"><ele>304.0</ele><time>2026-04-18T13:17:30.217Z</time></trkpt><trkpt lat="39.1812611" lon="8.5733476"><ele>303.5</ele><time>2026-04-18T13:17:31.259Z</time></trkpt><trkpt lat="39.1812795" lon="8.5734355"><ele>303.0</ele><time>2026-04-18T13:17:32.257Z</time></trkpt><trkpt lat="39.1813039" lon="8.5735524"><ele>302.5</ele><time>2026-04-18T13:17:33.253Z</time></trkpt><trkpt lat="39.1813264" lon="8.573674"><ele>302.0</ele><time>2026-04-18T13:17:34.271Z</time></trkpt><trkpt lat="39.181353" lon="8.5737957"><ele>300.8</ele><time>2026-04-18T13:17:35.239Z</time></trkpt><trkpt lat="39.1813733" lon="8.5739257"><ele>299.6</ele><time>2026-04-18T13:17:36.257Z</time></trkpt><trkpt lat="39.1813838" lon="8.5740549"><ele>298.40000000000003</ele><time>2026-04-18T13:17:37.264Z</time></trkpt><trkpt lat="39.1813937" lon="8.5741757"><ele>297.2</ele><time>2026-04-18T13:17:38.264Z</time></trkpt><trkpt lat="39.1814093" lon="8.5742944"><ele>296.0</ele><time>2026-04-18T13:17:39.26Z</time></trkpt><trkpt lat="39.1814334" lon="8.5744178"><ele>297.6</ele><time>2026-04-18T13:17:40.258Z</time></trkpt><trkpt lat="39.1814576" lon="8.5745484"><ele>299.20000000000005</ele><time>2026-04-18T13:17:41.251Z</time></trkpt><trkpt lat="39.181494" lon="8.5746673"><ele>300.79999999999995</ele><time>2026-04-18T13:17:42.236Z</time></trkpt><trkpt lat="39.1815407" lon="8.5747874"><ele>302.4</ele><time>2026-04-18T13:17:43.232Z</time></trkpt><trkpt lat="39.1815928" lon="8.5749141"><ele>304.0</ele><time>2026-04-18T13:17:44.264Z</time></trkpt><trkpt lat="39.1816436" lon="8.5750365"><ele>305.0</ele><time>2026-04-18T13:17:45.26Z</time></trkpt><trkpt lat="39.1816977" lon="8.5751526"><ele>306.0</ele><time>2026-04-18T13:17:46.261Z</time></trkpt><trkpt lat="39.1817468" lon="8.5752644"><ele>307.0</ele><time>2026-04-18T13:17:47.25Z</time></trkpt><trkpt lat="39.1817896" lon="8.5753671"><ele>308.0</ele><time>2026-04-18T13:17:48.254Z</time></trkpt><trkpt lat="39.1818349" lon="8.5754614"><ele>309.0</ele><time>2026-04-18T13:17:49.252Z</time></trkpt><trkpt lat="39.181881" lon="8.5755585"><ele>309.1666666666667</ele><time>2026-04-18T13:17:50.258Z</time></trkpt><trkpt lat="39.1819356" lon="8.5756463"><ele>309.3333333333333</ele><time>2026-04-18T13:17:51.269Z</time></trkpt><trkpt lat="39.1819978" lon="8.5757119"><ele>309.5</ele><time>2026-04-18T13:17:52.259Z</time></trkpt><trkpt lat="39.1820795" lon="8.575772"><ele>309.66666666666663</ele><time>2026-04-18T13:17:53.25Z</time></trkpt><trkpt lat="39.1821653" lon="8.5758245"><ele>309.8333333333333</ele><time>2026-04-18T13:17:54.271Z</time></trkpt><trkpt lat="39.1822459" lon="8.5758727"><ele>310.0</ele><time>2026-04-18T13:17:55.272Z</time></trkpt><trkpt lat="39.1823077" lon="8.5759125"><ele>310.0</ele><time>2026-04-18T13:17:56.269Z</time></trkpt><trkpt lat="39.1823612" lon="8.5759711"><ele>310.0</ele><time>2026-04-18T13:17:59.261Z</time></trkpt><trkpt lat="39.1823291" lon="8.5760503"><ele>310.0</ele><time>2026-04-18T13:18:04.253Z</time></trkpt><trkpt lat="39.1823686" lon="8.5759591"><ele>310.0</ele><time>2026-04-18T13:18:11.263Z</time></trkpt><trkpt lat="39.1824368" lon="8.5759249"><ele>310.0</ele><time>2026-04-18T13:18:12.252Z</time></trkpt><trkpt lat="39.1825275" lon="8.5759073"><ele>310.0</ele><time>2026-04-18T13:18:13.254Z</time></trkpt><trkpt lat="39.1826319" lon="8.57591"><ele>310.25</ele><time>2026-04-18T13:18:14.268Z</time></trkpt><trkpt lat="39.1827614" lon="8.575909"><ele>310.5</ele><time>2026-04-18T13:18:15.256Z</time></trkpt><trkpt lat="39.1829041" lon="8.5759388"><ele>310.75</ele><time>2026-04-18T13:18:16.256Z</time></trkpt><trkpt lat="39.1830356" lon="8.5759775"><ele>311.0</ele><time>2026-04-18T13:18:17.208Z</time></trkpt><trkpt lat="39.1831663" lon="8.5760056"><ele>311.75</ele><time>2026-04-18T13:18:18.23Z</time></trkpt><trkpt lat="39.1832941" lon="8.5760219"><ele>312.5</ele><time>2026-04-18T13:18:19.256Z</time></trkpt><trkpt lat="39.1834094" lon="8.5760215"><ele>313.25</ele><time>2026-04-18T13:18:20.258Z</time></trkpt><trkpt lat="39.1835331" lon="8.5760249"><ele>314.0</ele><time>2026-04-18T13:18:21.26Z</time></trkpt><trkpt lat="39.1836494" lon="8.5760394"><ele>314.0</ele><time>2026-04-18T13:18:22.239Z</time></trkpt><trkpt lat="39.1837652" lon="8.5760734"><ele>314.0</ele><time>2026-04-18T13:18:23.234Z</time></trkpt><trkpt lat="39.1838873" lon="8.576101"><ele>314.0</ele><time>2026-04-18T13:18:24.257Z</time></trkpt><trkpt lat="39.1840063" lon="8.5761348"><ele>314.0</ele><time>2026-04-18T13:18:25.253Z</time></trkpt><trkpt lat="39.1841192" lon="8.5761489"><ele>314.75</ele><time>2026-04-18T13:18:26.252Z</time></trkpt><trkpt lat="39.1842412" lon="8.57615"><ele>315.5</ele><time>2026-04-18T13:18:27.243Z</time></trkpt><trkpt lat="39.1843549" lon="8.5761564"><ele>316.25</ele><time>2026-04-18T13:18:28.26Z</time></trkpt><trkpt lat="39.1844601" lon="8.5761939"><ele>317.0</ele><time>2026-04-18T13:18:29.26Z</time></trkpt><trkpt lat="39.184571" lon="8.5762683"><ele>317.0</ele><time>2026-04-18T13:18:30.252Z</time></trkpt><trkpt lat="39.1846931" lon="8.5763466"><ele>317.0</ele><time>2026-04-18T13:18:31.255Z</time></trkpt><trkpt lat="39.184806" lon="8.5764245"><ele>317.0</ele><time>2026-04-18T13:18:32.265Z</time></trkpt><trkpt lat="39.184909" lon="8.5765025"><ele>317.0</ele><time>2026-04-18T13:18:33.248Z</time></trkpt><trkpt lat="39.1850115" lon="8.5765858"><ele>317.75</ele><time>2026-04-18T13:18:34.254Z</time></trkpt><trkpt lat="39.1851151" lon="8.5766654"><ele>318.5</ele><time>2026-04-18T13:18:35.255Z</time></trkpt><trkpt lat="39.1852218" lon="8.5767489"><ele>319.25</ele><time>2026-04-18T13:18:36.244Z</time></trkpt><trkpt lat="39.185333" lon="8.5768175"><ele>320.0</ele><time>2026-04-18T13:18:37.263Z</time></trkpt><trkpt lat="39.1854486" lon="8.576875"><ele>320.0</ele><time>2026-04-18T13:18:38.239Z</time></trkpt><trkpt lat="39.1855523" lon="8.5769329"><ele>320.0</ele><time>2026-04-18T13:18:39.275Z</time></trkpt><trkpt lat="39.1856556" lon="8.576999"><ele>320.0</ele><time>2026-04-18T13:18:40.269Z</time></trkpt><trkpt lat="39.1857551" lon="8.5770679"><ele>320.0</ele><time>2026-04-18T13:18:41.248Z</time></trkpt><trkpt lat="39.1858546" lon="8.5771347"><ele>319.33333333333337</ele><time>2026-04-18T13:18:42.258Z</time></trkpt><trkpt lat="39.1859405" lon="8.5771957"><ele>318.6666666666667</ele><time>2026-04-18T13:18:43.26Z</time></trkpt><trkpt lat="39.1860222" lon="8.577247"><ele>318.0</ele><time>2026-04-18T13:18:44.258Z</time></trkpt><trkpt lat="39.186085" lon="8.5772703"><ele>317.3333333333333</ele><time>2026-04-18T13:18:45.26Z</time></trkpt><trkpt lat="39.1861701" lon="8.5773009"><ele>316.66666666666663</ele><time>2026-04-18T13:18:47.254Z</time></trkpt><trkpt lat="39.1862379" lon="8.5773437"><ele>316.0</ele><time>2026-04-18T13:18:49.249Z</time></trkpt><trkpt lat="39.1863066" lon="8.5774417"><ele>316.0</ele><time>2026-04-18T13:18:52.288Z</time></trkpt><trkpt lat="39.1863625" lon="8.577534"><ele>316.0</ele><time>2026-04-18T13:18:54.268Z</time></trkpt><trkpt lat="39.1864056" lon="8.5776012"><ele>316.0</ele><time>2026-04-18T13:18:57.254Z</time></trkpt><trkpt lat="39.1864779" lon="8.5776817"><ele>316.0</ele><time>2026-04-18T13:19:52.268Z</time></trkpt><trkpt lat="39.1865598" lon="8.5777726"><ele>316.0</ele><time>2026-04-18T13:19:54.254Z</time></trkpt><trkpt lat="39.1866479" lon="8.5778849"><ele>316.0</ele><time>2026-04-18T13:19:56.261Z</time></trkpt><trkpt lat="39.1867062" lon="8.5780171"><ele>316.0</ele><time>2026-04-18T13:19:58.261Z</time></trkpt><trkpt lat="39.1866868" lon="8.5781677"><ele>316.0</ele><time>2026-04-18T13:20:00.257Z</time></trkpt><trkpt lat="39.1866472" lon="8.5782592"><ele>316.0</ele><time>2026-04-18T13:20:01.249Z</time></trkpt><trkpt lat="39.1865961" lon="8.5783628"><ele>316.0</ele><time>2026-04-18T13:20:02.263Z</time></trkpt><trkpt lat="39.1865353" lon="8.57846"><ele>315.2</ele><time>2026-04-18T13:20:03.258Z</time></trkpt><trkpt lat="39.1864626" lon="8.5785394"><ele>314.40000000000003</ele><time>2026-04-18T13:20:04.267Z</time></trkpt><trkpt lat="39.1863831" lon="8.5786141"><ele>313.6</ele><time>2026-04-18T13:20:05.254Z</time></trkpt><trkpt lat="39.1863062" lon="8.5786823"><ele>312.8</ele><time>2026-04-18T13:20:06.235Z</time></trkpt><trkpt lat="39.186233" lon="8.5787472"><ele>312.0</ele><time>2026-04-18T13:20:07.267Z</time></trkpt><trkpt lat="39.186169" lon="8.5788261"><ele>311.8</ele><time>2026-04-18T13:20:08.264Z</time></trkpt><trkpt lat="39.1861154" lon="8.5789211"><ele>311.6</ele><time>2026-04-18T13:20:09.251Z</time></trkpt><trkpt lat="39.1860775" lon="8.579022"><ele>311.40000000000003</ele><time>2026-04-18T13:20:10.265Z</time></trkpt><trkpt lat="39.1860646" lon="8.5791417"><ele>311.2</ele><time>2026-04-18T13:20:11.253Z</time></trkpt><trkpt lat="39.1860516" lon="8.5792679"><ele>311.0</ele><time>2026-04-18T13:20:12.267Z</time></trkpt><trkpt lat="39.1860373" lon="8.5793914"><ele>311.0</ele><time>2026-04-18T13:20:13.249Z</time></trkpt><trkpt lat="39.1860141" lon="8.5795061"><ele>311.0</ele><time>2026-04-18T13:20:14.254Z</time></trkpt><trkpt lat="39.1859954" lon="8.5796172"><ele>311.0</ele><time>2026-04-18T13:20:15.256Z</time></trkpt><trkpt lat="39.1859755" lon="8.579726"><ele>311.0</ele><time>2026-04-18T13:20:16.259Z</time></trkpt><trkpt lat="39.1859529" lon="8.5798176"><ele>311.0</ele><time>2026-04-18T13:20:17.255Z</time></trkpt><trkpt lat="39.1859378" lon="8.5799064"><ele>311.0</ele><time>2026-04-18T13:20:18.258Z</time></trkpt><trkpt lat="39.1859237" lon="8.5799882"><ele>310.5</ele><time>2026-04-18T13:20:19.264Z</time></trkpt><trkpt lat="39.1859296" lon="8.5800764"><ele>310.0</ele><time>2026-04-18T13:20:20.26Z</time></trkpt><trkpt lat="39.1859416" lon="8.5801642"><ele>309.5</ele><time>2026-04-18T13:20:21.265Z</time></trkpt><trkpt lat="39.1859701" lon="8.5802897"><ele>309.0</ele><time>2026-04-18T13:20:23.244Z</time></trkpt><trkpt lat="39.1860471" lon="8.5803545"><ele>308.5</ele><time>2026-04-18T13:20:25.249Z</time></trkpt><trkpt lat="39.1861139" lon="8.5803939"><ele>308.0</ele><time>2026-04-18T13:20:26.245Z</time></trkpt><trkpt lat="39.1861947" lon="8.5804149"><ele>308.2</ele><time>2026-04-18T13:20:27.267Z</time></trkpt><trkpt lat="39.1862724" lon="8.5804171"><ele>308.4</ele><time>2026-04-18T13:20:28.243Z</time></trkpt><trkpt lat="39.1863578" lon="8.5804178"><ele>308.59999999999997</ele><time>2026-04-18T13:20:29.215Z</time></trkpt><trkpt lat="39.1864518" lon="8.580408"><ele>308.8</ele><time>2026-04-18T13:20:30.277Z</time></trkpt><trkpt lat="39.1865535" lon="8.5804037"><ele>309.0</ele><time>2026-04-18T13:20:31.255Z</time></trkpt><trkpt lat="39.1866461" lon="8.5804193"><ele>309.0</ele><time>2026-04-18T13:20:32.249Z</time></trkpt><trkpt lat="39.1867197" lon="8.5804064"><ele>309.0</ele><time>2026-04-18T13:20:33.246Z</time></trkpt><trkpt lat="39.1867969" lon="8.58037"><ele>309.0</ele><time>2026-04-18T13:20:34.256Z</time></trkpt><trkpt lat="39.1868847" lon="8.580326"><ele>309.0</ele><time>2026-04-18T13:20:35.262Z</time></trkpt><trkpt lat="39.1869933" lon="8.580268"><ele>309.0</ele><time>2026-04-18T13:20:36.242Z</time></trkpt><trkpt lat="39.1870944" lon="8.580227"><ele>309.5</ele><time>2026-04-18T13:20:37.251Z</time></trkpt><trkpt lat="39.187186" lon="8.580194"><ele>310.0</ele><time>2026-04-18T13:20:38.253Z</time></trkpt><trkpt lat="39.1872861" lon="8.5801715"><ele>310.5</ele><time>2026-04-18T13:20:39.257Z</time></trkpt><trkpt lat="39.1873734" lon="8.5801486"><ele>311.0</ele><time>2026-04-18T13:20:40.255Z</time></trkpt><trkpt lat="39.187443" lon="8.5801279"><ele>311.5</ele><time>2026-04-18T13:20:41.249Z</time></trkpt><trkpt lat="39.187521" lon="8.5801004"><ele>312.0</ele><time>2026-04-18T13:20:42.256Z</time></trkpt><trkpt lat="39.1875903" lon="8.5800787"><ele>312.4</ele><time>2026-04-18T13:20:43.23Z</time></trkpt><trkpt lat="39.1876938" lon="8.5800354"><ele>312.79999999999995</ele><time>2026-04-18T13:20:45.248Z</time></trkpt><trkpt lat="39.1878034" lon="8.5799877"><ele>313.2</ele><time>2026-04-18T13:20:47.233Z</time></trkpt><trkpt lat="39.187908" lon="8.5799602"><ele>313.59999999999997</ele><time>2026-04-18T13:20:49.255Z</time></trkpt><trkpt lat="39.1880128" lon="8.5799194"><ele>314.0</ele><time>2026-04-18T13:20:51.278Z</time></trkpt><trkpt lat="39.188108" lon="8.5798675"><ele>312.6666666666667</ele><time>2026-04-18T13:20:53.235Z</time></trkpt><trkpt lat="39.1882061" lon="8.5798381"><ele>311.33333333333337</ele><time>2026-04-18T13:20:55.242Z</time></trkpt><trkpt lat="39.1883033" lon="8.5798312"><ele>310.0</ele><time>2026-04-18T13:20:57.253Z</time></trkpt><trkpt lat="39.188402" lon="8.5798383"><ele>308.6666666666667</ele><time>2026-04-18T13:20:59.257Z</time></trkpt><trkpt lat="39.1884658" lon="8.5798405"><ele>307.3333333333333</ele><time>2026-04-18T13:21:00.228Z</time></trkpt><trkpt lat="39.1885362" lon="8.5798435"><ele>306.0</ele><time>2026-04-18T13:21:01.248Z</time></trkpt><trkpt lat="39.1886037" lon="8.5798334"><ele>306.0</ele><time>2026-04-18T13:21:02.249Z</time></trkpt><trkpt lat="39.1886746" lon="8.5798194"><ele>306.0</ele><time>2026-04-18T13:21:03.226Z</time></trkpt><trkpt lat="39.1887508" lon="8.579811"><ele>306.0</ele><time>2026-04-18T13:21:04.246Z</time></trkpt><trkpt lat="39.1888293" lon="8.5798044"><ele>306.0</ele><time>2026-04-18T13:21:05.249Z</time></trkpt><trkpt lat="39.1889014" lon="8.5798036"><ele>306.0</ele><time>2026-04-18T13:21:06.237Z</time></trkpt><trkpt lat="39.188971" lon="8.5797965"><ele>306.0</ele><time>2026-04-18T13:21:07.233Z</time></trkpt><trkpt lat="39.1890453" lon="8.5797841"><ele>306.0</ele><time>2026-04-18T13:21:08.222Z</time></trkpt><trkpt lat="39.1891241" lon="8.5797669"><ele>305.57142857142856</ele><time>2026-04-18T13:21:09.255Z</time></trkpt><trkpt lat="39.1891888" lon="8.5797272"><ele>305.14285714285717</ele><time>2026-04-18T13:21:10.242Z</time></trkpt><trkpt lat="39.1892505" lon="8.5796572"><ele>304.7142857142857</ele><time>2026-04-18T13:21:11.236Z</time></trkpt><trkpt lat="39.1893179" lon="8.5796003"><ele>304.2857142857143</ele><time>2026-04-18T13:21:12.256Z</time></trkpt><trkpt lat="39.1893795" lon="8.5795367"><ele>303.85714285714283</ele><time>2026-04-18T13:21:13.236Z</time></trkpt><trkpt lat="39.1894367" lon="8.5794869"><ele>303.42857142857144</ele><time>2026-04-18T13:21:14.25Z</time></trkpt><trkpt lat="39.1894949" lon="8.5794481"><ele>303.0</ele><time>2026-04-18T13:21:15.247Z</time></trkpt><trkpt lat="39.1895561" lon="8.5794246"><ele>303.0</ele><time>2026-04-18T13:21:16.252Z</time></trkpt><trkpt lat="39.1896278" lon="8.5794305"><ele>303.0</ele><time>2026-04-18T13:21:18.23Z</time></trkpt><trkpt lat="39.1896359" lon="8.5795181"><ele>303.0</ele><time>2026-04-18T13:21:21.236Z</time></trkpt><trkpt lat="39.1896066" lon="8.5796436"><ele>303.0</ele><time>2026-04-18T13:21:23.238Z</time></trkpt><trkpt lat="39.1895693" lon="8.5797789"><ele>303.0</ele><time>2026-04-18T13:21:25.243Z</time></trkpt><trkpt lat="39.1895447" lon="8.5799039"><ele>299.4</ele><time>2026-04-18T13:21:27.216Z</time></trkpt><trkpt lat="39.1895065" lon="8.5800522"><ele>295.8</ele><time>2026-04-18T13:21:29.248Z</time></trkpt><trkpt lat="39.1894995" lon="8.5801692"><ele>292.2</ele><time>2026-04-18T13:21:31.256Z</time></trkpt><trkpt lat="39.1895262" lon="8.5802892"><ele>288.6</ele><time>2026-04-18T13:21:33.252Z</time></trkpt><trkpt lat="39.1895826" lon="8.5804233"><ele>285.0</ele><time>2026-04-18T13:21:35.246Z</time></trkpt><trkpt lat="39.1896157" lon="8.5805627"><ele>283.25</ele><time>2026-04-18T13:21:37.237Z</time></trkpt><trkpt lat="39.1896028" lon="8.580717"><ele>281.5</ele><time>2026-04-18T13:21:39.255Z</time></trkpt><trkpt lat="39.1895876" lon="8.5808652"><ele>279.75</ele><time>2026-04-18T13:21:41.247Z</time></trkpt><trkpt lat="39.1895725" lon="8.5810265"><ele>278.0</ele><time>2026-04-18T13:21:43.254Z</time></trkpt><trkpt lat="39.189558" lon="8.5811423"><ele>276.1666666666667</ele><time>2026-04-18T13:21:45.254Z</time></trkpt><trkpt lat="39.1895481" lon="8.58125"><ele>274.33333333333337</ele><time>2026-04-18T13:21:47.261Z</time></trkpt><trkpt lat="39.189547" lon="8.5813695"><ele>272.5</ele><time>2026-04-18T13:21:49.239Z</time></trkpt><trkpt lat="39.1895254" lon="8.5814728"><ele>270.6666666666667</ele><time>2026-04-18T13:21:51.23Z</time></trkpt><trkpt lat="39.1895145" lon="8.5815777"><ele>268.8333333333333</ele><time>2026-04-18T13:21:53.243Z</time></trkpt><trkpt lat="39.1895265" lon="8.5816803"><ele>267.0</ele><time>2026-04-18T13:21:55.247Z</time></trkpt><trkpt lat="39.1895539" lon="8.581807"><ele>267.0</ele><time>2026-04-18T13:21:57.232Z</time></trkpt><trkpt lat="39.1895724" lon="8.5819654"><ele>267.0</ele><time>2026-04-18T13:21:59.245Z</time></trkpt><trkpt lat="39.1895776" lon="8.582053"><ele>267.0</ele><time>2026-04-18T13:22:00.233Z</time></trkpt><trkpt lat="39.1895718" lon="8.5821341"><ele>267.0</ele><time>2026-04-18T13:22:01.244Z</time></trkpt><trkpt lat="39.1895486" lon="8.582275"><ele>267.0</ele><time>2026-04-18T13:22:03.24Z</time></trkpt><trkpt lat="39.1895131" lon="8.5823886"><ele>264.5</ele><time>2026-04-18T13:22:05.23Z</time></trkpt><trkpt lat="39.1895046" lon="8.5825159"><ele>262.0</ele><time>2026-04-18T13:22:07.246Z</time></trkpt><trkpt lat="39.1895162" lon="8.5826407"><ele>259.5</ele><time>2026-04-18T13:22:09.234Z</time></trkpt><trkpt lat="39.18951" lon="8.5827444"><ele>257.0</ele><time>2026-04-18T13:22:11.229Z</time></trkpt><trkpt lat="39.1895313" lon="8.5828315"><ele>254.5</ele><time>2026-04-18T13:22:13.235Z</time></trkpt><trkpt lat="39.189562" lon="8.5829273"><ele>252.0</ele><time>2026-04-18T13:22:16.235Z</time></trkpt><trkpt lat="39.1895949" lon="8.5830117"><ele>250.83333333333334</ele><time>2026-04-18T13:22:18.234Z</time></trkpt><trkpt lat="39.1895942" lon="8.5831148"><ele>249.66666666666669</ele><time>2026-04-18T13:22:20.241Z</time></trkpt><trkpt lat="39.1895953" lon="8.5831994"><ele>248.5</ele><time>2026-04-18T13:22:22.252Z</time></trkpt><trkpt lat="39.1896021" lon="8.5832837"><ele>247.33333333333334</ele><time>2026-04-18T13:22:24.25Z</time></trkpt><trkpt lat="39.1895986" lon="8.583389"><ele>246.16666666666669</ele><time>2026-04-18T13:22:26.243Z</time></trkpt><trkpt lat="39.1895988" lon="8.5834841"><ele>245.0</ele><time>2026-04-18T13:22:28.262Z</time></trkpt><trkpt lat="39.1895982" lon="8.5835958"><ele>243.33333333333334</ele><time>2026-04-18T13:22:31.24Z</time></trkpt><trkpt lat="39.1895829" lon="8.5837078"><ele>241.66666666666669</ele><time>2026-04-18T13:22:33.239Z</time></trkpt><trkpt lat="39.1895757" lon="8.583809"><ele>240.0</ele><time>2026-04-18T13:22:34.238Z</time></trkpt><trkpt lat="39.1895623" lon="8.5839131"><ele>238.33333333333331</ele><time>2026-04-18T13:22:35.238Z</time></trkpt><trkpt lat="39.1895492" lon="8.5840083"><ele>236.66666666666666</ele><time>2026-04-18T13:22:36.214Z</time></trkpt><trkpt lat="39.1895377" lon="8.5840923"><ele>235.0</ele><time>2026-04-18T13:22:37.248Z</time></trkpt><trkpt lat="39.1895215" lon="8.5842202"><ele>234.99999999999997</ele><time>2026-04-18T13:22:39.241Z</time></trkpt><trkpt lat="39.189552" lon="8.5843245"><ele>235.0</ele><time>2026-04-18T13:22:41.26Z</time></trkpt><trkpt lat="39.1895864" lon="8.5844003"><ele>235.0</ele><time>2026-04-18T13:25:42.245Z</time></trkpt><trkpt lat="39.1896121" lon="8.584506"><ele>235.0</ele><time>2026-04-18T13:25:46.227Z</time></trkpt><trkpt lat="39.1896441" lon="8.5845942"><ele>234.99999999999997</ele><time>2026-04-18T13:25:48.248Z</time></trkpt><trkpt lat="39.1896801" lon="8.5847358"><ele>235.0</ele><time>2026-04-18T13:25:50.25Z</time></trkpt><trkpt lat="39.1897327" lon="8.5848386"><ele>230.5</ele><time>2026-04-18T13:25:52.242Z</time></trkpt><trkpt lat="39.189774" lon="8.5849766"><ele>226.0</ele><time>2026-04-18T13:25:54.241Z</time></trkpt><trkpt lat="39.1898207" lon="8.5851101"><ele>221.5</ele><time>2026-04-18T13:25:56.251Z</time></trkpt><trkpt lat="39.1898871" lon="8.5852219"><ele>217.0</ele><time>2026-04-18T13:25:58.257Z</time></trkpt><trkpt lat="39.1899938" lon="8.5852756"><ele>216.5</ele><time>2026-04-18T13:26:00.233Z</time></trkpt><trkpt lat="39.1900986" lon="8.5852678"><ele>216.0</ele><time>2026-04-18T13:26:02.22Z</time></trkpt><trkpt lat="39.1902015" lon="8.5852891"><ele>215.5</ele><time>2026-04-18T13:26:04.265Z</time></trkpt><trkpt lat="39.1903038" lon="8.5853617"><ele>215.0</ele><time>2026-04-18T13:26:06.238Z</time></trkpt><trkpt lat="39.1904215" lon="8.5854132"><ele>213.6</ele><time>2026-04-18T13:26:08.254Z</time></trkpt><trkpt lat="39.1905028" lon="8.5854249"><ele>212.2</ele><time>2026-04-18T13:26:09.261Z</time></trkpt><trkpt lat="39.1905765" lon="8.5854328"><ele>210.8</ele><time>2026-04-18T13:26:10.265Z</time></trkpt><trkpt lat="39.1906645" lon="8.5855168"><ele>209.4</ele><time>2026-04-18T13:26:12.253Z</time></trkpt><trkpt lat="39.1907542" lon="8.5856198"><ele>208.0</ele><time>2026-04-18T13:26:14.256Z</time></trkpt><trkpt lat="39.1908126" lon="8.585656"><ele>207.99999999999997</ele><time>2026-04-18T13:26:15.267Z</time></trkpt><trkpt lat="39.1908889" lon="8.5857022"><ele>208.0</ele><time>2026-04-18T13:26:16.254Z</time></trkpt><trkpt lat="39.1909669" lon="8.5857282"><ele>208.0</ele><time>2026-04-18T13:26:17.264Z</time></trkpt><trkpt lat="39.191092" lon="8.5857546"><ele>208.0</ele><time>2026-04-18T13:26:19.258Z</time></trkpt><trkpt lat="39.1911638" lon="8.5857861"><ele>207.99999999999997</ele><time>2026-04-18T13:26:20.203Z</time></trkpt><trkpt lat="39.1912365" lon="8.5858246"><ele>208.0</ele><time>2026-04-18T13:26:21.236Z</time></trkpt><trkpt lat="39.1912998" lon="8.5858568"><ele>207.99999999999997</ele><time>2026-04-18T13:26:22.236Z</time></trkpt><trkpt lat="39.1913638" lon="8.5858913"><ele>208.0</ele><time>2026-04-18T13:26:23.267Z</time></trkpt><trkpt lat="39.1914834" lon="8.5858477"><ele>208.0</ele><time>2026-04-18T13:26:25.243Z</time></trkpt><trkpt lat="39.1915429" lon="8.5857931"><ele>208.0</ele><time>2026-04-18T13:26:26.206Z</time></trkpt><trkpt lat="39.1915896" lon="8.5857335"><ele>207.99999999999997</ele><time>2026-04-18T13:26:27.249Z</time></trkpt><trkpt lat="39.1916656" lon="8.5856858"><ele>208.0</ele><time>2026-04-18T13:26:29.245Z</time></trkpt><trkpt lat="39.1917445" lon="8.585661"><ele>208.99999999999997</ele><time>2026-04-18T13:26:31.237Z</time></trkpt><trkpt lat="39.1918655" lon="8.5856154"><ele>210.0</ele><time>2026-04-18T13:26:33.25Z</time></trkpt><trkpt lat="39.1919328" lon="8.5855946"><ele>211.0</ele><time>2026-04-18T13:26:34.244Z</time></trkpt><trkpt lat="39.1920005" lon="8.5855947"><ele>212.0</ele><time>2026-04-18T13:26:35.251Z</time></trkpt><trkpt lat="39.1920814" lon="8.5855914"><ele>212.99999999999997</ele><time>2026-04-18T13:26:36.238Z</time></trkpt><trkpt lat="39.1921545" lon="8.5855698"><ele>214.0</ele><time>2026-04-18T13:26:37.251Z</time></trkpt><trkpt lat="39.1922288" lon="8.5855455"><ele>214.0</ele><time>2026-04-18T13:26:38.243Z</time></trkpt><trkpt lat="39.1923043" lon="8.5855161"><ele>213.99999999999997</ele><time>2026-04-18T13:26:39.258Z</time></trkpt><trkpt lat="39.1923621" lon="8.5854786"><ele>213.99999999999997</ele><time>2026-04-18T13:26:40.249Z</time></trkpt><trkpt lat="39.1924579" lon="8.5853762"><ele>214.0</ele><time>2026-04-18T13:26:42.248Z</time></trkpt><trkpt lat="39.192557" lon="8.5852622"><ele>214.0</ele><time>2026-04-18T13:26:44.248Z</time></trkpt><trkpt lat="39.1926172" lon="8.5851839"><ele>214.79999999999998</ele><time>2026-04-18T13:26:45.256Z</time></trkpt><trkpt lat="39.1926619" lon="8.585119"><ele>215.59999999999997</ele><time>2026-04-18T13:26:46.249Z</time></trkpt><trkpt lat="39.1926907" lon="8.5850457"><ele>216.4</ele><time>2026-04-18T13:26:47.25Z</time></trkpt><trkpt lat="39.1927478" lon="8.5848969"><ele>217.2</ele><time>2026-04-18T13:26:49.251Z</time></trkpt><trkpt lat="39.1928105" lon="8.5847534"><ele>218.0</ele><time>2026-04-18T13:26:51.254Z</time></trkpt><trkpt lat="39.1928635" lon="8.5846117"><ele>218.0</ele><time>2026-04-18T13:26:53.265Z</time></trkpt><trkpt lat="39.1928866" lon="8.5845308"><ele>218.0</ele><time>2026-04-18T13:26:54.255Z</time></trkpt><trkpt lat="39.1929021" lon="8.5844449"><ele>218.0</ele><time>2026-04-18T13:26:55.241Z</time></trkpt><trkpt lat="39.1929151" lon="8.5843561"><ele>218.0</ele><time>2026-04-18T13:26:56.213Z</time></trkpt><trkpt lat="39.192926" lon="8.5842599"><ele>218.0</ele><time>2026-04-18T13:26:57.257Z</time></trkpt><trkpt lat="39.192933" lon="8.5841688"><ele>218.0</ele><time>2026-04-18T13:26:58.265Z</time></trkpt><trkpt lat="39.192957" lon="8.5840712"><ele>218.0</ele><time>2026-04-18T13:26:59.259Z</time></trkpt><trkpt lat="39.192983" lon="8.5839812"><ele>219.00000000000003</ele><time>2026-04-18T13:27:00.242Z</time></trkpt><trkpt lat="39.1930539" lon="8.5838605"><ele>220.0</ele><time>2026-04-18T13:27:02.239Z</time></trkpt><trkpt lat="39.1931063" lon="8.5837934"><ele>221.0</ele><time>2026-04-18T13:27:03.259Z</time></trkpt><trkpt lat="39.1931596" lon="8.5837457"><ele>222.0</ele><time>2026-04-18T13:27:04.258Z</time></trkpt><trkpt lat="39.1932368" lon="8.5836335"><ele>223.00000000000003</ele><time>2026-04-18T13:27:06.257Z</time></trkpt><trkpt lat="39.1932721" lon="8.5835654"><ele>224.0</ele><time>2026-04-18T13:27:07.224Z</time></trkpt><trkpt lat="39.1933251" lon="8.5835019"><ele>224.0</ele><time>2026-04-18T13:27:08.247Z</time></trkpt><trkpt lat="39.193385" lon="8.5834488"><ele>224.0</ele><time>2026-04-18T13:27:09.247Z</time></trkpt><trkpt lat="39.1934468" lon="8.5833979"><ele>224.0</ele><time>2026-04-18T13:27:10.257Z</time></trkpt><trkpt lat="39.1935124" lon="8.5833688"><ele>224.0</ele><time>2026-04-18T13:27:11.23Z</time></trkpt><trkpt lat="39.1935758" lon="8.5833559"><ele>224.0</ele><time>2026-04-18T13:27:12.246Z</time></trkpt><trkpt lat="39.1936586" lon="8.5833451"><ele>224.0</ele><time>2026-04-18T13:27:13.243Z</time></trkpt><trkpt lat="39.1937271" lon="8.5833441"><ele>224.0</ele><time>2026-04-18T13:27:14.24Z</time></trkpt><trkpt lat="39.1938384" lon="8.5833812"><ele>224.0</ele><time>2026-04-18T13:27:16.249Z</time></trkpt><trkpt lat="39.1939446" lon="8.5834226"><ele>223.99999999999997</ele><time>2026-04-18T13:27:18.245Z</time></trkpt><trkpt lat="39.1940641" lon="8.5834475"><ele>223.99999999999997</ele><time>2026-04-18T13:27:20.24Z</time></trkpt><trkpt lat="39.1941348" lon="8.5834448"><ele>224.0</ele><time>2026-04-18T13:27:21.247Z</time></trkpt><trkpt lat="39.1942047" lon="8.5834398"><ele>224.0</ele><time>2026-04-18T13:27:22.244Z</time></trkpt><trkpt lat="39.1943235" lon="8.5834035"><ele>224.66666666666669</ele><time>2026-04-18T13:27:24.247Z</time></trkpt><trkpt lat="39.1943849" lon="8.5833767"><ele>225.33333333333334</ele><time>2026-04-18T13:27:25.249Z</time></trkpt><trkpt lat="39.1944622" lon="8.5833646"><ele>226.0</ele><time>2026-04-18T13:27:27.25Z</time></trkpt><trkpt lat="39.1945178" lon="8.5832814"><ele>226.66666666666669</ele><time>2026-04-18T13:27:30.253Z</time></trkpt><trkpt lat="39.1945877" lon="8.583263"><ele>227.33333333333334</ele><time>2026-04-18T13:27:32.253Z</time></trkpt><trkpt lat="39.1946556" lon="8.5832532"><ele>228.0</ele><time>2026-04-18T13:27:33.26Z</time></trkpt><trkpt lat="39.1947702" lon="8.5832867"><ele>228.66666666666666</ele><time>2026-04-18T13:27:35.233Z</time></trkpt><trkpt lat="39.1948401" lon="8.583298"><ele>229.33333333333331</ele><time>2026-04-18T13:27:36.256Z</time></trkpt><trkpt lat="39.194917" lon="8.5833014"><ele>230.0</ele><time>2026-04-18T13:27:37.259Z</time></trkpt><trkpt lat="39.1949807" lon="8.5833075"><ele>230.66666666666666</ele><time>2026-04-18T13:27:38.26Z</time></trkpt><trkpt lat="39.1950995" lon="8.5833372"><ele>231.33333333333331</ele><time>2026-04-18T13:27:40.219Z</time></trkpt><trkpt lat="39.1952002" lon="8.5833755"><ele>232.0</ele><time>2026-04-18T13:27:42.195Z</time></trkpt><trkpt lat="39.195272" lon="8.5834599"><ele>232.0</ele><time>2026-04-18T13:27:44.213Z</time></trkpt><trkpt lat="39.1953583" lon="8.5835169"><ele>232.0</ele><time>2026-04-18T13:27:47.209Z</time></trkpt><trkpt lat="39.1954613" lon="8.5835287"><ele>232.0</ele><time>2026-04-18T13:27:49.22Z</time></trkpt><trkpt lat="39.195533" lon="8.5835453"><ele>232.0</ele><time>2026-04-18T13:27:51.208Z</time></trkpt><trkpt lat="39.1956148" lon="8.583602"><ele>232.0</ele><time>2026-04-18T13:27:54.203Z</time></trkpt><trkpt lat="39.1956947" lon="8.5835399"><ele>232.83333333333331</ele><time>2026-04-18T13:27:56.207Z</time></trkpt><trkpt lat="39.19574" lon="8.5834661"><ele>233.66666666666666</ele><time>2026-04-18T13:27:58.214Z</time></trkpt><trkpt lat="39.1958171" lon="8.5834255"><ele>234.5</ele><time>2026-04-18T13:28:01.212Z</time></trkpt><trkpt lat="39.1958828" lon="8.5834141"><ele>235.33333333333331</ele><time>2026-04-18T13:28:03.202Z</time></trkpt><trkpt lat="39.195905" lon="8.5833165"><ele>236.16666666666666</ele><time>2026-04-18T13:28:05.245Z</time></trkpt><trkpt lat="39.1959468" lon="8.583247"><ele>237.0</ele><time>2026-04-18T13:28:07.257Z</time></trkpt><trkpt lat="39.1960379" lon="8.5832139"><ele>237.0</ele><time>2026-04-18T13:28:10.205Z</time></trkpt><trkpt lat="39.1961094" lon="8.5831339"><ele>237.0</ele><time>2026-04-18T13:28:12.218Z</time></trkpt><trkpt lat="39.196193" lon="8.5830906"><ele>237.0</ele><time>2026-04-18T13:28:14.24Z</time></trkpt><trkpt lat="39.1962428" lon="8.5830165"><ele>237.0</ele><time>2026-04-18T13:28:16.216Z</time></trkpt><trkpt lat="39.1962653" lon="8.582917"><ele>237.0</ele><time>2026-04-18T13:28:18.244Z</time></trkpt><trkpt lat="39.1962447" lon="8.5828227"><ele>237.0</ele><time>2026-04-18T13:28:20.243Z</time></trkpt><trkpt lat="39.1962078" lon="8.5827369"><ele>238.99999999999997</ele><time>2026-04-18T13:28:28.237Z</time></trkpt><trkpt lat="39.1962057" lon="8.5826503"><ele>241.0</ele><time>2026-04-18T13:28:30.247Z</time></trkpt><trkpt lat="39.1962066" lon="8.5825411"><ele>242.99999999999997</ele><time>2026-04-18T13:28:33.234Z</time></trkpt><trkpt lat="39.1962474" lon="8.582472"><ele>244.99999999999997</ele><time>2026-04-18T13:28:35.24Z</time></trkpt><trkpt lat="39.1963149" lon="8.582416"><ele>247.0</ele><time>2026-04-18T13:28:36.244Z</time></trkpt><trkpt lat="39.1963725" lon="8.5823747"><ele>248.99999999999997</ele><time>2026-04-18T13:28:37.257Z</time></trkpt><trkpt lat="39.1964221" lon="8.5823227"><ele>250.99999999999997</ele><time>2026-04-18T13:28:38.248Z</time></trkpt><trkpt lat="39.1965075" lon="8.5822077"><ele>251.60000000000002</ele><time>2026-04-18T13:28:40.242Z</time></trkpt><trkpt lat="39.1965696" lon="8.5821002"><ele>252.20000000000002</ele><time>2026-04-18T13:28:42.232Z</time></trkpt><trkpt lat="39.1966205" lon="8.5820249"><ele>252.79999999999998</ele><time>2026-04-18T13:28:44.256Z</time></trkpt><trkpt lat="39.1966956" lon="8.5819453"><ele>253.39999999999998</ele><time>2026-04-18T13:28:46.24Z</time></trkpt><trkpt lat="39.1967591" lon="8.5818471"><ele>254.0</ele><time>2026-04-18T13:28:48.237Z</time></trkpt><trkpt lat="39.1967905" lon="8.581696"><ele>254.33333333333334</ele><time>2026-04-18T13:28:50.237Z</time></trkpt><trkpt lat="39.1968147" lon="8.5815982"><ele>254.66666666666669</ele><time>2026-04-18T13:28:52.236Z</time></trkpt><trkpt lat="39.1968456" lon="8.581511"><ele>255.0</ele><time>2026-04-18T13:28:54.244Z</time></trkpt><trkpt lat="39.1969076" lon="8.5814345"><ele>255.33333333333331</ele><time>2026-04-18T13:28:56.246Z</time></trkpt><trkpt lat="39.1969669" lon="8.5813906"><ele>255.66666666666666</ele><time>2026-04-18T13:28:58.245Z</time></trkpt><trkpt lat="39.1970549" lon="8.5812998"><ele>256.0</ele><time>2026-04-18T13:29:00.198Z</time></trkpt><trkpt lat="39.1971283" lon="8.5812331"><ele>256.0</ele><time>2026-04-18T13:29:02.235Z</time></trkpt><trkpt lat="39.1972305" lon="8.5811896"><ele>256.0</ele><time>2026-04-18T13:29:04.258Z</time></trkpt><trkpt lat="39.1973211" lon="8.581127"><ele>256.0</ele><time>2026-04-18T13:29:06.235Z</time></trkpt><trkpt lat="39.1973744" lon="8.5810532"><ele>256.0</ele><time>2026-04-18T13:29:08.25Z</time></trkpt><trkpt lat="39.1974221" lon="8.5809735"><ele>256.0</ele><time>2026-04-18T13:29:10.24Z</time></trkpt><trkpt lat="39.1974925" lon="8.5809087"><ele>258.0</ele><time>2026-04-18T13:29:13.233Z</time></trkpt><trkpt lat="39.1975751" lon="8.5809009"><ele>260.0</ele><time>2026-04-18T13:29:15.234Z</time></trkpt><trkpt lat="39.1976679" lon="8.5808469"><ele>262.0</ele><time>2026-04-18T13:29:17.237Z</time></trkpt><trkpt lat="39.197784" lon="8.5807803"><ele>264.0</ele><time>2026-04-18T13:29:19.234Z</time></trkpt><trkpt lat="39.1978486" lon="8.5807469"><ele>266.0</ele><time>2026-04-18T13:29:20.25Z</time></trkpt><trkpt lat="39.1979505" lon="8.580673"><ele>266.0</ele><time>2026-04-18T13:29:22.242Z</time></trkpt><trkpt lat="39.1980402" lon="8.5805896"><ele>266.0</ele><time>2026-04-18T13:29:24.244Z</time></trkpt><trkpt lat="39.1981215" lon="8.5805031"><ele>266.0</ele><time>2026-04-18T13:29:26.249Z</time></trkpt><trkpt lat="39.1982373" lon="8.5804484"><ele>266.0</ele><time>2026-04-18T13:29:28.25Z</time></trkpt><trkpt lat="39.1983554" lon="8.5804064"><ele>267.5</ele><time>2026-04-18T13:29:30.262Z</time></trkpt><trkpt lat="39.1984215" lon="8.5803646"><ele>269.0</ele><time>2026-04-18T13:29:31.234Z</time></trkpt><trkpt lat="39.1984853" lon="8.5803211"><ele>270.5</ele><time>2026-04-18T13:29:32.235Z</time></trkpt><trkpt lat="39.1985661" lon="8.5802581"><ele>272.0</ele><time>2026-04-18T13:29:33.255Z</time></trkpt><trkpt lat="39.1986569" lon="8.5802037"><ele>273.5</ele><time>2026-04-18T13:29:34.242Z</time></trkpt><trkpt lat="39.1987419" lon="8.5801623"><ele>275.0</ele><time>2026-04-18T13:29:35.234Z</time></trkpt><trkpt lat="39.1988464" lon="8.5800895"><ele>275.6</ele><time>2026-04-18T13:29:37.24Z</time></trkpt><trkpt lat="39.1989281" lon="8.5800107"><ele>276.2</ele><time>2026-04-18T13:29:39.276Z</time></trkpt><trkpt lat="39.1990265" lon="8.5799188"><ele>276.8</ele><time>2026-04-18T13:29:41.2Z</time></trkpt><trkpt lat="39.1991035" lon="8.5798099"><ele>277.4</ele><time>2026-04-18T13:29:43.219Z</time></trkpt><trkpt lat="39.1991869" lon="8.5797401"><ele>278.0</ele><time>2026-04-18T13:29:45.198Z</time></trkpt><trkpt lat="39.1992673" lon="8.5796239"><ele>278.0</ele><time>2026-04-18T13:29:47.215Z</time></trkpt><trkpt lat="39.1993185" lon="8.5795692"><ele>278.0</ele><time>2026-04-18T13:29:48.232Z</time></trkpt><trkpt lat="39.1994218" lon="8.5794673"><ele>278.0</ele><time>2026-04-18T13:29:50.237Z</time></trkpt><trkpt lat="39.1995425" lon="8.579399"><ele>278.0</ele><time>2026-04-18T13:29:52.237Z</time></trkpt><trkpt lat="39.1996006" lon="8.5793632"><ele>278.0</ele><time>2026-04-18T13:29:53.242Z</time></trkpt><trkpt lat="39.1996594" lon="8.5793205"><ele>279.33333333333337</ele><time>2026-04-18T13:29:54.249Z</time></trkpt><trkpt lat="39.1997222" lon="8.5792723"><ele>280.6666666666667</ele><time>2026-04-18T13:29:55.247Z</time></trkpt><trkpt lat="39.1997817" lon="8.5792221"><ele>282.0</ele><time>2026-04-18T13:29:56.259Z</time></trkpt><trkpt lat="39.1998292" lon="8.5791674"><ele>283.3333333333333</ele><time>2026-04-18T13:29:57.248Z</time></trkpt><trkpt lat="39.1999152" lon="8.5790957"><ele>284.66666666666663</ele><time>2026-04-18T13:29:59.239Z</time></trkpt><trkpt lat="39.2000018" lon="8.5790015"><ele>286.0</ele><time>2026-04-18T13:30:01.265Z</time></trkpt><trkpt lat="39.2000918" lon="8.578902"><ele>286.0</ele><time>2026-04-18T13:30:03.198Z</time></trkpt><trkpt lat="39.2001751" lon="8.5788144"><ele>286.0</ele><time>2026-04-18T13:30:05.251Z</time></trkpt><trkpt lat="39.2002149" lon="8.5787514"><ele>286.0</ele><time>2026-04-18T13:30:06.228Z</time></trkpt><trkpt lat="39.2002589" lon="8.5786922"><ele>286.0</ele><time>2026-04-18T13:30:07.219Z</time></trkpt><trkpt lat="39.2003093" lon="8.5786333"><ele>286.0</ele><time>2026-04-18T13:30:08.247Z</time></trkpt><trkpt lat="39.2003648" lon="8.5785844"><ele>286.0</ele><time>2026-04-18T13:30:09.232Z</time></trkpt><trkpt lat="39.2004668" lon="8.5784928"><ele>287.0</ele><time>2026-04-18T13:30:11.224Z</time></trkpt><trkpt lat="39.2005146" lon="8.5784282"><ele>288.0</ele><time>2026-04-18T13:30:12.237Z</time></trkpt><trkpt lat="39.2005659" lon="8.5783503"><ele>289.0</ele><time>2026-04-18T13:30:13.229Z</time></trkpt><trkpt lat="39.2006036" lon="8.5782801"><ele>290.0</ele><time>2026-04-18T13:30:14.241Z</time></trkpt><trkpt lat="39.200687" lon="8.5781538"><ele>291.0</ele><time>2026-04-18T13:30:16.244Z</time></trkpt><trkpt lat="39.2007338" lon="8.5780892"><ele>292.0</ele><time>2026-04-18T13:30:17.236Z</time></trkpt><trkpt lat="39.2008372" lon="8.578005"><ele>292.0</ele><time>2026-04-18T13:30:19.254Z</time></trkpt><trkpt lat="39.2009644" lon="8.5779017"><ele>292.0</ele><time>2026-04-18T13:30:21.251Z</time></trkpt><trkpt lat="39.2010332" lon="8.5778406"><ele>292.0</ele><time>2026-04-18T13:30:22.226Z</time></trkpt><trkpt lat="39.2010887" lon="8.5777818"><ele>292.0</ele><time>2026-04-18T13:30:23.265Z</time></trkpt><trkpt lat="39.2011499" lon="8.577724"><ele>292.0</ele><time>2026-04-18T13:30:24.242Z</time></trkpt><trkpt lat="39.2012153" lon="8.5776832"><ele>294.0</ele><time>2026-04-18T13:30:25.25Z</time></trkpt><trkpt lat="39.2012739" lon="8.577648"><ele>296.0</ele><time>2026-04-18T13:30:26.257Z</time></trkpt><trkpt lat="39.201339" lon="8.5776033"><ele>298.0</ele><time>2026-04-18T13:30:27.205Z</time></trkpt><trkpt lat="39.2014326" lon="8.5775042"><ele>300.0</ele><time>2026-04-18T13:30:29.229Z</time></trkpt><trkpt lat="39.2014718" lon="8.5773727"><ele>302.0</ele><time>2026-04-18T13:30:31.202Z</time></trkpt><trkpt lat="39.201452" lon="8.5772872"><ele>304.0</ele><time>2026-04-18T13:30:32.238Z</time></trkpt><trkpt lat="39.20142" lon="8.5772094"><ele>304.0</ele><time>2026-04-18T13:30:33.207Z</time></trkpt><trkpt lat="39.2013566" lon="8.5770939"><ele>304.0</ele><time>2026-04-18T13:30:35.236Z</time></trkpt><trkpt lat="39.2013745" lon="8.5769845"><ele>304.0</ele><time>2026-04-18T13:30:37.217Z</time></trkpt><trkpt lat="39.2014391" lon="8.5769447"><ele>304.0</ele><time>2026-04-18T13:30:38.248Z</time></trkpt><trkpt lat="39.2015119" lon="8.5768812"><ele>304.0</ele><time>2026-04-18T13:30:39.21Z</time></trkpt><trkpt lat="39.2015821" lon="8.5768133"><ele>304.0</ele><time>2026-04-18T13:30:40.253Z</time></trkpt><trkpt lat="39.2016393" lon="8.5767507"><ele>305.4</ele><time>2026-04-18T13:30:41.214Z</time></trkpt><trkpt lat="39.2017504" lon="8.5766796"><ele>306.79999999999995</ele><time>2026-04-18T13:30:43.237Z</time></trkpt><trkpt lat="39.2018353" lon="8.5766186"><ele>308.20000000000005</ele><time>2026-04-18T13:30:45.242Z</time></trkpt><trkpt lat="39.2018717" lon="8.5765486"><ele>309.6</ele><time>2026-04-18T13:30:47.229Z</time></trkpt><trkpt lat="39.2019276" lon="8.5764647"><ele>311.0</ele><time>2026-04-18T13:30:49.226Z</time></trkpt><trkpt lat="39.2019649" lon="8.5763357"><ele>311.0</ele><time>2026-04-18T13:30:51.206Z</time></trkpt><trkpt lat="39.2020436" lon="8.5763939"><ele>311.0</ele><time>2026-04-18T13:30:54.197Z</time></trkpt><trkpt lat="39.2021271" lon="8.5764425"><ele>311.0</ele><time>2026-04-18T13:30:56.202Z</time></trkpt><trkpt lat="39.2022548" lon="8.57646"><ele>311.0</ele><time>2026-04-18T13:30:58.197Z</time></trkpt><trkpt lat="39.2023214" lon="8.5764626"><ele>311.0</ele><time>2026-04-18T13:30:59.201Z</time></trkpt><trkpt lat="39.2024427" lon="8.57646"><ele>313.0</ele><time>2026-04-18T13:31:01.188Z</time></trkpt><trkpt lat="39.2025449" lon="8.576446"><ele>315.0</ele><time>2026-04-18T13:31:03.199Z</time></trkpt><trkpt lat="39.2026787" lon="8.5764409"><ele>317.0</ele><time>2026-04-18T13:31:05.212Z</time></trkpt><trkpt lat="39.2027453" lon="8.5764385"><ele>319.0</ele><time>2026-04-18T13:31:06.203Z</time></trkpt><trkpt lat="39.2028148" lon="8.5764363"><ele>321.0</ele><time>2026-04-18T13:31:07.21Z</time></trkpt><trkpt lat="39.2028828" lon="8.576427"><ele>323.0</ele><time>2026-04-18T13:31:08.209Z</time></trkpt><trkpt lat="39.2029464" lon="8.5763888"><ele>323.0</ele><time>2026-04-18T13:31:10.199Z</time></trkpt><trkpt lat="39.2029207" lon="8.5763145"><ele>323.0</ele><time>2026-04-18T13:31:16.206Z</time></trkpt><trkpt lat="39.2028399" lon="8.5762689"><ele>323.0</ele><time>2026-04-18T13:31:18.206Z</time></trkpt><trkpt lat="39.2027677" lon="8.5762384"><ele>323.0</ele><time>2026-04-18T13:31:21.227Z</time></trkpt><trkpt lat="39.2026969" lon="8.5762623"><ele>323.0</ele><time>2026-04-18T13:42:40.212Z</time></trkpt><trkpt lat="39.2025789" lon="8.5762162"><ele>323.0</ele><time>2026-04-18T13:42:42.221Z</time></trkpt><trkpt lat="39.2025123" lon="8.5761881"><ele>324.4</ele><time>2026-04-18T13:42:43.219Z</time></trkpt><trkpt lat="39.2024162" lon="8.5761182"><ele>325.79999999999995</ele><time>2026-04-18T13:42:45.216Z</time></trkpt><trkpt lat="39.2023711" lon="8.5760147"><ele>327.2</ele><time>2026-04-18T13:42:47.218Z</time></trkpt><trkpt lat="39.2023864" lon="8.5758919"><ele>328.6</ele><time>2026-04-18T13:42:49.207Z</time></trkpt><trkpt lat="39.2024106" lon="8.5758084"><ele>330.0</ele><time>2026-04-18T13:42:50.226Z</time></trkpt><trkpt lat="39.2024055" lon="8.5756548"><ele>330.0</ele><time>2026-04-18T13:42:52.215Z</time></trkpt><trkpt lat="39.2023764" lon="8.5755654"><ele>330.0</ele><time>2026-04-18T13:42:53.218Z</time></trkpt><trkpt lat="39.2023543" lon="8.5754626"><ele>330.0</ele><time>2026-04-18T13:42:54.206Z</time></trkpt><trkpt lat="39.2023431" lon="8.5753557"><ele>330.0</ele><time>2026-04-18T13:42:55.207Z</time></trkpt><trkpt lat="39.202339" lon="8.5752464"><ele>330.0</ele><time>2026-04-18T13:42:56.216Z</time></trkpt><trkpt lat="39.20235" lon="8.5751417"><ele>330.0</ele><time>2026-04-18T13:42:57.226Z</time></trkpt><trkpt lat="39.2023589" lon="8.5750433"><ele>331.5</ele><time>2026-04-18T13:42:58.217Z</time></trkpt><trkpt lat="39.2023633" lon="8.5749387"><ele>333.0</ele><time>2026-04-18T13:42:59.217Z</time></trkpt><trkpt lat="39.202355" lon="8.5748345"><ele>334.5</ele><time>2026-04-18T13:43:00.21Z</time></trkpt><trkpt lat="39.2023378" lon="8.574719"><ele>336.0</ele><time>2026-04-18T13:43:01.227Z</time></trkpt><trkpt lat="39.2023256" lon="8.5746024"><ele>337.5</ele><time>2026-04-18T13:43:02.223Z</time></trkpt><trkpt lat="39.2022988" lon="8.5744844"><ele>339.0</ele><time>2026-04-18T13:43:03.217Z</time></trkpt><trkpt lat="39.202261" lon="8.5743733"><ele>341.0</ele><time>2026-04-18T13:43:04.216Z</time></trkpt><trkpt lat="39.2022126" lon="8.5742623"><ele>343.0</ele><time>2026-04-18T13:43:05.208Z</time></trkpt><trkpt lat="39.2021661" lon="8.5741545"><ele>345.0</ele><time>2026-04-18T13:43:06.214Z</time></trkpt><trkpt lat="39.2021427" lon="8.5740642"><ele>347.0</ele><time>2026-04-18T13:43:07.216Z</time></trkpt><trkpt lat="39.2021512" lon="8.5739741"><ele>349.0</ele><time>2026-04-18T13:43:08.219Z</time></trkpt><trkpt lat="39.2021711" lon="8.5738852"><ele>351.0</ele><time>2026-04-18T13:43:09.218Z</time></trkpt><trkpt lat="39.2021973" lon="8.5738072"><ele>351.0</ele><time>2026-04-18T13:43:10.209Z</time></trkpt><trkpt lat="39.2022466" lon="8.5737435"><ele>351.0</ele><time>2026-04-18T13:43:11.22Z</time></trkpt><trkpt lat="39.2023154" lon="8.5737188"><ele>351.0</ele><time>2026-04-18T13:43:12.218Z</time></trkpt><trkpt lat="39.2023937" lon="8.5737032"><ele>351.0</ele><time>2026-04-18T13:43:13.221Z</time></trkpt><trkpt lat="39.2024901" lon="8.5736787"><ele>351.0</ele><time>2026-04-18T13:43:14.221Z</time></trkpt><trkpt lat="39.2025794" lon="8.5736363"><ele>351.0</ele><time>2026-04-18T13:43:15.227Z</time></trkpt><trkpt lat="39.2026624" lon="8.5735832"><ele>351.3333333333333</ele><time>2026-04-18T13:43:16.222Z</time></trkpt><trkpt lat="39.2027221" lon="8.573528"><ele>351.6666666666667</ele><time>2026-04-18T13:43:17.218Z</time></trkpt><trkpt lat="39.2027869" lon="8.5734604"><ele>352.0</ele><time>2026-04-18T13:43:19.211Z</time></trkpt><trkpt lat="39.2028552" lon="8.573414"><ele>352.33333333333337</ele><time>2026-04-18T13:43:26.224Z</time></trkpt><trkpt lat="39.2029236" lon="8.5733909"><ele>352.6666666666667</ele><time>2026-04-18T13:43:31.24Z</time></trkpt><trkpt lat="39.2030065" lon="8.5734214"><ele>353.0</ele><time>2026-04-18T13:43:35.211Z</time></trkpt><trkpt lat="39.2030741" lon="8.5734627"><ele>353.0</ele><time>2026-04-18T13:43:37.221Z</time></trkpt><trkpt lat="39.2031632" lon="8.5734984"><ele>353.0</ele><time>2026-04-18T13:43:39.223Z</time></trkpt><trkpt lat="39.203253" lon="8.5735621"><ele>353.0</ele><time>2026-04-18T13:43:41.226Z</time></trkpt><trkpt lat="39.2033406" lon="8.5736009"><ele>353.0</ele><time>2026-04-18T13:43:43.216Z</time></trkpt><trkpt lat="39.2034468" lon="8.5736355"><ele>353.0</ele><time>2026-04-18T13:43:45.228Z</time></trkpt><trkpt lat="39.2035593" lon="8.573682"><ele>352.83333333333337</ele><time>2026-04-18T13:43:47.235Z</time></trkpt><trkpt lat="39.2036737" lon="8.5737343"><ele>352.6666666666667</ele><time>2026-04-18T13:43:49.234Z</time></trkpt><trkpt lat="39.2037313" lon="8.5737692"><ele>352.5</ele><time>2026-04-18T13:43:50.238Z</time></trkpt><trkpt lat="39.2037978" lon="8.573811"><ele>352.3333333333333</ele><time>2026-04-18T13:43:51.228Z</time></trkpt><trkpt lat="39.2038742" lon="8.5738476"><ele>352.16666666666663</ele><time>2026-04-18T13:43:52.212Z</time></trkpt><trkpt lat="39.2039437" lon="8.5739011"><ele>352.0</ele><time>2026-04-18T13:43:53.224Z</time></trkpt><trkpt lat="39.2040254" lon="8.5739503"><ele>353.42857142857144</ele><time>2026-04-18T13:43:54.224Z</time></trkpt><trkpt lat="39.20409" lon="8.5739679"><ele>354.85714285714283</ele><time>2026-04-18T13:43:55.21Z</time></trkpt><trkpt lat="39.2041574" lon="8.5739754"><ele>356.2857142857143</ele><time>2026-04-18T13:43:56.222Z</time></trkpt><trkpt lat="39.2042322" lon="8.5739827"><ele>357.7142857142857</ele><time>2026-04-18T13:43:57.219Z</time></trkpt><trkpt lat="39.2043056" lon="8.5739807"><ele>359.1428571428571</ele><time>2026-04-18T13:43:58.217Z</time></trkpt><trkpt lat="39.2043874" lon="8.5739877"><ele>360.57142857142856</ele><time>2026-04-18T13:43:59.222Z</time></trkpt><trkpt lat="39.2044637" lon="8.5740159"><ele>362.0</ele><time>2026-04-18T13:44:00.223Z</time></trkpt><trkpt lat="39.2045236" lon="8.5740414"><ele>362.0</ele><time>2026-04-18T13:44:01.213Z</time></trkpt><trkpt lat="39.2045933" lon="8.5740741"><ele>362.0</ele><time>2026-04-18T13:44:02.231Z</time></trkpt><trkpt lat="39.2046783" lon="8.5741044"><ele>362.0</ele><time>2026-04-18T13:44:03.216Z</time></trkpt><trkpt lat="39.2047923" lon="8.5741213"><ele>362.0</ele><time>2026-04-18T13:44:05.223Z</time></trkpt><trkpt lat="39.2048946" lon="8.5741653"><ele>362.0</ele><time>2026-04-18T13:44:07.223Z</time></trkpt><trkpt lat="39.2049692" lon="8.5742114"><ele>361.85714285714283</ele><time>2026-04-18T13:44:08.211Z</time></trkpt><trkpt lat="39.205029" lon="8.574267"><ele>361.71428571428567</ele><time>2026-04-18T13:44:09.218Z</time></trkpt><trkpt lat="39.2050722" lon="8.5743279"><ele>361.57142857142856</ele><time>2026-04-18T13:44:10.213Z</time></trkpt><trkpt lat="39.2051277" lon="8.5743893"><ele>361.42857142857144</ele><time>2026-04-18T13:44:11.225Z</time></trkpt><trkpt lat="39.2051825" lon="8.5744456"><ele>361.2857142857143</ele><time>2026-04-18T13:44:12.227Z</time></trkpt><trkpt lat="39.2052421" lon="8.5744955"><ele>361.14285714285717</ele><time>2026-04-18T13:44:13.232Z</time></trkpt><trkpt lat="39.2052988" lon="8.5745408"><ele>361.0</ele><time>2026-04-18T13:44:14.217Z</time></trkpt><trkpt lat="39.2053912" lon="8.574599"><ele>360.3333333333333</ele><time>2026-04-18T13:44:16.217Z</time></trkpt><trkpt lat="39.2054518" lon="8.5746253"><ele>359.66666666666663</ele><time>2026-04-18T13:44:18.21Z</time></trkpt><trkpt lat="39.205537" lon="8.5746481"><ele>359.0</ele><time>2026-04-18T13:44:30.227Z</time></trkpt><trkpt lat="39.2056411" lon="8.5747125"><ele>358.3333333333333</ele><time>2026-04-18T13:44:32.229Z</time></trkpt><trkpt lat="39.2057086" lon="8.5747355"><ele>357.6666666666667</ele><time>2026-04-18T13:44:33.22Z</time></trkpt><trkpt lat="39.2057792" lon="8.5747527"><ele>357.0</ele><time>2026-04-18T13:44:34.223Z</time></trkpt><trkpt lat="39.2058703" lon="8.5747713"><ele>359.8</ele><time>2026-04-18T13:44:36.211Z</time></trkpt><trkpt lat="39.2059224" lon="8.5748232"><ele>362.6</ele><time>2026-04-18T13:44:50.215Z</time></trkpt><trkpt lat="39.2059764" lon="8.5749721"><ele>365.40000000000003</ele><time>2026-04-18T13:44:52.222Z</time></trkpt><trkpt lat="39.20601" lon="8.5750744"><ele>368.20000000000005</ele><time>2026-04-18T13:44:53.213Z</time></trkpt><trkpt lat="39.2060519" lon="8.5751854"><ele>371.0</ele><time>2026-04-18T13:44:54.24Z</time></trkpt><trkpt lat="39.2060801" lon="8.5753018"><ele>372.20000000000005</ele><time>2026-04-18T13:44:55.235Z</time></trkpt><trkpt lat="39.2060982" lon="8.5754214"><ele>373.40000000000003</ele><time>2026-04-18T13:44:56.221Z</time></trkpt><trkpt lat="39.2061153" lon="8.5755441"><ele>374.6</ele><time>2026-04-18T13:44:57.245Z</time></trkpt><trkpt lat="39.2061189" lon="8.575661"><ele>375.8</ele><time>2026-04-18T13:44:58.214Z</time></trkpt><trkpt lat="39.2061155" lon="8.5757755"><ele>377.0</ele><time>2026-04-18T13:44:59.219Z</time></trkpt><trkpt lat="39.206109" lon="8.575896"><ele>377.0</ele><time>2026-04-18T13:45:00.216Z</time></trkpt><trkpt lat="39.2060985" lon="8.5760204"><ele>377.0</ele><time>2026-04-18T13:45:01.227Z</time></trkpt><trkpt lat="39.2060853" lon="8.5761506"><ele>377.0</ele><time>2026-04-18T13:45:02.226Z</time></trkpt><trkpt lat="39.2060696" lon="8.5762814"><ele>377.0</ele><time>2026-04-18T13:45:03.221Z</time></trkpt><trkpt lat="39.2060517" lon="8.5764048"><ele>377.0</ele><time>2026-04-18T13:45:04.228Z</time></trkpt><trkpt lat="39.2060294" lon="8.5765231"><ele>378.0</ele><time>2026-04-18T13:45:05.232Z</time></trkpt><trkpt lat="39.2060121" lon="8.5766341"><ele>379.0</ele><time>2026-04-18T13:45:06.23Z</time></trkpt><trkpt lat="39.2060057" lon="8.576732"><ele>380.0</ele><time>2026-04-18T13:45:07.221Z</time></trkpt><trkpt lat="39.2059988" lon="8.5768358"><ele>381.0</ele><time>2026-04-18T13:45:08.215Z</time></trkpt><trkpt lat="39.2059856" lon="8.5769486"><ele>382.0</ele><time>2026-04-18T13:45:09.22Z</time></trkpt><trkpt lat="39.2059737" lon="8.5770433"><ele>383.0</ele><time>2026-04-18T13:45:10.22Z</time></trkpt><trkpt lat="39.2059582" lon="8.5771267"><ele>383.0</ele><time>2026-04-18T13:45:11.225Z</time></trkpt><trkpt lat="39.2059376" lon="8.5772125"><ele>383.0</ele><time>2026-04-18T13:45:12.227Z</time></trkpt><trkpt lat="39.2059445" lon="8.5773031"><ele>383.0</ele><time>2026-04-18T13:45:13.226Z</time></trkpt><trkpt lat="39.2059845" lon="8.5773869"><ele>383.0</ele><time>2026-04-18T13:45:14.223Z</time></trkpt><trkpt lat="39.2060253" lon="8.5774515"><ele>383.0</ele><time>2026-04-18T13:45:15.213Z</time></trkpt><trkpt lat="39.2060798" lon="8.5776038"><ele>383.0</ele><time>2026-04-18T13:45:17.226Z</time></trkpt><trkpt lat="39.2060848" lon="8.5777139"><ele>383.0</ele><time>2026-04-18T13:45:18.232Z</time></trkpt><trkpt lat="39.206111" lon="8.5778281"><ele>383.0</ele><time>2026-04-18T13:45:19.216Z</time></trkpt><trkpt lat="39.2061453" lon="8.5779442"><ele>383.0</ele><time>2026-04-18T13:45:20.216Z</time></trkpt><trkpt lat="39.2061643" lon="8.5780721"><ele>383.0</ele><time>2026-04-18T13:45:21.216Z</time></trkpt><trkpt lat="39.2061626" lon="8.5782023"><ele>383.0</ele><time>2026-04-18T13:45:22.235Z</time></trkpt><trkpt lat="39.2061542" lon="8.578345"><ele>382.2</ele><time>2026-04-18T13:45:23.222Z</time></trkpt><trkpt lat="39.2061426" lon="8.5784769"><ele>381.4</ele><time>2026-04-18T13:45:24.215Z</time></trkpt><trkpt lat="39.2061356" lon="8.5785984"><ele>380.59999999999997</ele><time>2026-04-18T13:45:25.227Z</time></trkpt><trkpt lat="39.2061356" lon="8.5787138"><ele>379.79999999999995</ele><time>2026-04-18T13:45:26.249Z</time></trkpt><trkpt lat="39.2061337" lon="8.5788422"><ele>379.0</ele><time>2026-04-18T13:45:27.219Z</time></trkpt><trkpt lat="39.2061348" lon="8.5789555"><ele>379.0</ele><time>2026-04-18T13:45:28.219Z</time></trkpt><trkpt lat="39.2061303" lon="8.5790615"><ele>379.0</ele><time>2026-04-18T13:45:29.218Z</time></trkpt><trkpt lat="39.2061352" lon="8.5791511"><ele>379.0</ele><time>2026-04-18T13:45:30.219Z</time></trkpt><trkpt lat="39.2061755" lon="8.5792229"><ele>379.0</ele><time>2026-04-18T13:45:31.22Z</time></trkpt><trkpt lat="39.2062299" lon="8.5792928"><ele>379.0</ele><time>2026-04-18T13:45:32.234Z</time></trkpt><trkpt lat="39.2062855" lon="8.5793459"><ele>379.0</ele><time>2026-04-18T13:45:33.233Z</time></trkpt><trkpt lat="39.2063898" lon="8.5793863"><ele>378.8333333333333</ele><time>2026-04-18T13:45:35.226Z</time></trkpt><trkpt lat="39.2065176" lon="8.579386"><ele>378.66666666666663</ele><time>2026-04-18T13:45:37.227Z</time></trkpt><trkpt lat="39.2065957" lon="8.5793656"><ele>378.5</ele><time>2026-04-18T13:45:38.232Z</time></trkpt><trkpt lat="39.2066607" lon="8.5793658"><ele>378.3333333333333</ele><time>2026-04-18T13:45:39.222Z</time></trkpt><trkpt lat="39.2067334" lon="8.579417"><ele>378.1666666666667</ele><time>2026-04-18T13:45:41.219Z</time></trkpt><trkpt lat="39.2067529" lon="8.5795051"><ele>378.0</ele><time>2026-04-18T13:45:43.218Z</time></trkpt><trkpt lat="39.2067305" lon="8.5795936"><ele>378.0</ele><time>2026-04-18T13:45:46.234Z</time></trkpt><trkpt lat="39.2067162" lon="8.5796737"><ele>378.0</ele><time>2026-04-18T13:45:51.223Z</time></trkpt><trkpt lat="39.2067182" lon="8.5797566"><ele>378.0</ele><time>2026-04-18T13:45:52.225Z</time></trkpt><trkpt lat="39.2067345" lon="8.5798555"><ele>378.0</ele><time>2026-04-18T13:45:53.211Z</time></trkpt><trkpt lat="39.2067521" lon="8.5799546"><ele>378.0</ele><time>2026-04-18T13:45:54.217Z</time></trkpt><trkpt lat="39.2067663" lon="8.5800552"><ele>378.0</ele><time>2026-04-18T13:45:55.234Z</time></trkpt><trkpt lat="39.2067707" lon="8.5801763"><ele>378.0</ele><time>2026-04-18T13:45:56.215Z</time></trkpt><trkpt lat="39.2067687" lon="8.5802981"><ele>378.0</ele><time>2026-04-18T13:45:57.226Z</time></trkpt><trkpt lat="39.2067576" lon="8.5804357"><ele>378.0</ele><time>2026-04-18T13:45:58.222Z</time></trkpt><trkpt lat="39.2067395" lon="8.580574"><ele>378.0</ele><time>2026-04-18T13:45:59.227Z</time></trkpt><trkpt lat="39.2067162" lon="8.5807269"><ele>378.0</ele><time>2026-04-18T13:46:00.228Z</time></trkpt><trkpt lat="39.206702" lon="8.580901"><ele>378.0</ele><time>2026-04-18T13:46:01.233Z</time></trkpt><trkpt lat="39.2066838" lon="8.58106"><ele>378.0</ele><time>2026-04-18T13:46:02.23Z</time></trkpt><trkpt lat="39.206659" lon="8.5812012"><ele>378.0</ele><time>2026-04-18T13:46:03.22Z</time></trkpt><trkpt lat="39.2066248" lon="8.5813429"><ele>378.0</ele><time>2026-04-18T13:46:04.225Z</time></trkpt><trkpt lat="39.2066012" lon="8.581496"><ele>378.59999999999997</ele><time>2026-04-18T13:46:05.229Z</time></trkpt><trkpt lat="39.2065905" lon="8.5816592"><ele>379.2</ele><time>2026-04-18T13:46:06.227Z</time></trkpt><trkpt lat="39.2065909" lon="8.5817995"><ele>379.8</ele><time>2026-04-18T13:46:07.235Z</time></trkpt><trkpt lat="39.2065843" lon="8.5819248"><ele>380.4</ele><time>2026-04-18T13:46:08.224Z</time></trkpt><trkpt lat="39.206566" lon="8.5820438"><ele>381.0</ele><time>2026-04-18T13:46:09.217Z</time></trkpt><trkpt lat="39.2065452" lon="8.5821645"><ele>381.0</ele><time>2026-04-18T13:46:10.227Z</time></trkpt><trkpt lat="39.2065224" lon="8.5822865"><ele>381.0</ele><time>2026-04-18T13:46:11.227Z</time></trkpt><trkpt lat="39.2064966" lon="8.5824132"><ele>381.0</ele><time>2026-04-18T13:46:12.232Z</time></trkpt><trkpt lat="39.2064774" lon="8.5825385"><ele>381.0</ele><time>2026-04-18T13:46:13.229Z</time></trkpt><trkpt lat="39.2064664" lon="8.5826894"><ele>381.0</ele><time>2026-04-18T13:46:14.213Z</time></trkpt><trkpt lat="39.2064665" lon="8.5828612"><ele>379.6</ele><time>2026-04-18T13:46:15.21Z</time></trkpt><trkpt lat="39.2064676" lon="8.5830187"><ele>378.20000000000005</ele><time>2026-04-18T13:46:16.224Z</time></trkpt><trkpt lat="39.2064635" lon="8.5831548"><ele>376.79999999999995</ele><time>2026-04-18T13:46:17.224Z</time></trkpt><trkpt lat="39.2064348" lon="8.5832752"><ele>375.4</ele><time>2026-04-18T13:46:18.208Z</time></trkpt><trkpt lat="39.2064002" lon="8.5833871"><ele>374.0</ele><time>2026-04-18T13:46:19.255Z</time></trkpt><trkpt lat="39.2063505" lon="8.5834831"><ele>374.0</ele><time>2026-04-18T13:46:20.217Z</time></trkpt><trkpt lat="39.2062998" lon="8.5835698"><ele>374.0</ele><time>2026-04-18T13:46:21.22Z</time></trkpt><trkpt lat="39.206255" lon="8.5836506"><ele>374.0</ele><time>2026-04-18T13:46:22.232Z</time></trkpt><trkpt lat="39.2062209" lon="8.5837332"><ele>374.0</ele><time>2026-04-18T13:46:23.23Z</time></trkpt><trkpt lat="39.206185" lon="8.5838111"><ele>374.0</ele><time>2026-04-18T13:46:24.222Z</time></trkpt><trkpt lat="39.2061418" lon="8.5838918"><ele>374.0</ele><time>2026-04-18T13:46:25.227Z</time></trkpt><trkpt lat="39.2060911" lon="8.5839697"><ele>374.0</ele><time>2026-04-18T13:46:26.211Z</time></trkpt><trkpt lat="39.2060469" lon="8.5840367"><ele>374.0</ele><time>2026-04-18T13:46:27.23Z</time></trkpt><trkpt lat="39.205978" lon="8.5841529"><ele>374.0</ele><time>2026-04-18T13:46:29.226Z</time></trkpt><trkpt lat="39.2059012" lon="8.5842678"><ele>374.0</ele><time>2026-04-18T13:46:31.217Z</time></trkpt><trkpt lat="39.205877" lon="8.5843438"><ele>374.0</ele><time>2026-04-18T13:46:32.22Z</time></trkpt><trkpt lat="39.2058557" lon="8.5844629"><ele>372.6666666666667</ele><time>2026-04-18T13:46:34.227Z</time></trkpt><trkpt lat="39.2058441" lon="8.58458"><ele>371.33333333333337</ele><time>2026-04-18T13:46:36.216Z</time></trkpt><trkpt lat="39.2058217" lon="8.584728"><ele>370.0</ele><time>2026-04-18T13:46:38.234Z</time></trkpt><trkpt lat="39.2058139" lon="8.5848102"><ele>368.6666666666667</ele><time>2026-04-18T13:46:39.216Z</time></trkpt><trkpt lat="39.2058046" lon="8.5848924"><ele>367.3333333333333</ele><time>2026-04-18T13:46:40.2Z</time></trkpt><trkpt lat="39.2057937" lon="8.5849725"><ele>366.0</ele><time>2026-04-18T13:46:41.218Z</time></trkpt><trkpt lat="39.2057681" lon="8.585129"><ele>366.0</ele><time>2026-04-18T13:46:43.222Z</time></trkpt><trkpt lat="39.2057302" lon="8.5852724"><ele>366.0</ele><time>2026-04-18T13:46:45.217Z</time></trkpt><trkpt lat="39.2056944" lon="8.5854146"><ele>366.0</ele><time>2026-04-18T13:46:47.228Z</time></trkpt><trkpt lat="39.2056605" lon="8.5855483"><ele>366.0</ele><time>2026-04-18T13:46:49.228Z</time></trkpt><trkpt lat="39.2056335" lon="8.5856819"><ele>366.0</ele><time>2026-04-18T13:46:51.227Z</time></trkpt><trkpt lat="39.2056064" lon="8.5858295"><ele>364.3333333333333</ele><time>2026-04-18T13:46:53.223Z</time></trkpt><trkpt lat="39.2055903" lon="8.5859131"><ele>362.6666666666667</ele><time>2026-04-18T13:46:54.232Z</time></trkpt><trkpt lat="39.2055716" lon="8.5859994"><ele>361.0</ele><time>2026-04-18T13:46:55.219Z</time></trkpt><trkpt lat="39.2055556" lon="8.586094"><ele>359.33333333333337</ele><time>2026-04-18T13:46:56.248Z</time></trkpt><trkpt lat="39.2055397" lon="8.5861737"><ele>357.6666666666667</ele><time>2026-04-18T13:46:57.232Z</time></trkpt><trkpt lat="39.2055181" lon="8.5862502"><ele>356.0</ele><time>2026-04-18T13:46:58.223Z</time></trkpt><trkpt lat="39.2054746" lon="8.5863976"><ele>353.83333333333337</ele><time>2026-04-18T13:47:00.217Z</time></trkpt><trkpt lat="39.2054546" lon="8.5864857"><ele>351.6666666666667</ele><time>2026-04-18T13:47:01.23Z</time></trkpt><trkpt lat="39.2054346" lon="8.5866289"><ele>349.5</ele><time>2026-04-18T13:47:03.213Z</time></trkpt><trkpt lat="39.2054168" lon="8.5867117"><ele>347.3333333333333</ele><time>2026-04-18T13:47:04.211Z</time></trkpt><trkpt lat="39.2053719" lon="8.5867804"><ele>345.16666666666663</ele><time>2026-04-18T13:47:07.214Z</time></trkpt><trkpt lat="39.2053114" lon="8.5867446"><ele>343.0</ele><time>2026-04-18T13:48:57.226Z</time></trkpt><trkpt lat="39.2052483" lon="8.5866728"><ele>343.0</ele><time>2026-04-18T13:48:59.212Z</time></trkpt><trkpt lat="39.2051764" lon="8.5865664"><ele>343.0</ele><time>2026-04-18T13:49:01.227Z</time></trkpt><trkpt lat="39.2050852" lon="8.5864911"><ele>343.0</ele><time>2026-04-18T13:49:03.228Z</time></trkpt><trkpt lat="39.2050272" lon="8.5864468"><ele>343.0</ele><time>2026-04-18T13:49:04.228Z</time></trkpt><trkpt lat="39.2049647" lon="8.5864148"><ele>343.0</ele><time>2026-04-18T13:49:05.223Z</time></trkpt><trkpt lat="39.2048919" lon="8.5863971"><ele>343.0</ele><time>2026-04-18T13:49:06.223Z</time></trkpt><trkpt lat="39.204818" lon="8.5863763"><ele>342.79999999999995</ele><time>2026-04-18T13:49:07.247Z</time></trkpt><trkpt lat="39.2047282" lon="8.5863468"><ele>342.6</ele><time>2026-04-18T13:49:08.232Z</time></trkpt><trkpt lat="39.2046367" lon="8.5863141"><ele>342.4</ele><time>2026-04-18T13:49:09.233Z</time></trkpt><trkpt lat="39.2045489" lon="8.5862855"><ele>342.20000000000005</ele><time>2026-04-18T13:49:10.224Z</time></trkpt><trkpt lat="39.2044757" lon="8.5862713"><ele>342.0</ele><time>2026-04-18T13:49:11.233Z</time></trkpt><trkpt lat="39.2043707" lon="8.5862651"><ele>342.0</ele><time>2026-04-18T13:49:13.23Z</time></trkpt><trkpt lat="39.2042929" lon="8.586235"><ele>342.0</ele><time>2026-04-18T13:49:15.22Z</time></trkpt><trkpt lat="39.2042886" lon="8.5861235"><ele>342.0</ele><time>2026-04-18T13:49:17.225Z</time></trkpt><trkpt lat="39.2043221" lon="8.5860508"><ele>342.0</ele><time>2026-04-18T13:49:18.231Z</time></trkpt><trkpt lat="39.2044058" lon="8.5859381"><ele>342.0</ele><time>2026-04-18T13:49:20.224Z</time></trkpt><trkpt lat="39.2044588" lon="8.5858814"><ele>342.0</ele><time>2026-04-18T13:49:21.223Z</time></trkpt><trkpt lat="39.2045187" lon="8.5858024"><ele>344.3333333333333</ele><time>2026-04-18T13:49:22.231Z</time></trkpt><trkpt lat="39.204578" lon="8.5857111"><ele>346.6666666666667</ele><time>2026-04-18T13:49:23.22Z</time></trkpt><trkpt lat="39.2046444" lon="8.585633"><ele>349.0</ele><time>2026-04-18T13:49:24.234Z</time></trkpt><trkpt lat="39.2047348" lon="8.5856062"><ele>351.33333333333337</ele><time>2026-04-18T13:49:25.214Z</time></trkpt><trkpt lat="39.2048163" lon="8.5855858"><ele>353.6666666666667</ele><time>2026-04-18T13:49:26.233Z</time></trkpt><trkpt lat="39.2048795" lon="8.5855642"><ele>356.0</ele><time>2026-04-18T13:49:27.228Z</time></trkpt><trkpt lat="39.2049863" lon="8.5854626"><ele>356.0</ele><time>2026-04-18T13:49:29.225Z</time></trkpt><trkpt lat="39.2050503" lon="8.5853898"><ele>356.0</ele><time>2026-04-18T13:49:30.216Z</time></trkpt><trkpt lat="39.2051295" lon="8.5853031"><ele>356.0</ele><time>2026-04-18T13:49:31.21Z</time></trkpt><trkpt lat="39.2052232" lon="8.5851926"><ele>356.0</ele><time>2026-04-18T13:49:32.218Z</time></trkpt><trkpt lat="39.2053217" lon="8.5850869"><ele>356.0</ele><time>2026-04-18T13:49:33.221Z</time></trkpt><trkpt lat="39.2054207" lon="8.5849815"><ele>359.20000000000005</ele><time>2026-04-18T13:49:34.232Z</time></trkpt><trkpt lat="39.2055009" lon="8.5848854"><ele>362.40000000000003</ele><time>2026-04-18T13:49:35.233Z</time></trkpt><trkpt lat="39.2055547" lon="8.58479"><ele>365.6</ele><time>2026-04-18T13:49:36.215Z</time></trkpt><trkpt lat="39.2055994" lon="8.5846916"><ele>368.8</ele><time>2026-04-18T13:49:37.207Z</time></trkpt><trkpt lat="39.2056473" lon="8.5845975"><ele>372.0</ele><time>2026-04-18T13:49:38.235Z</time></trkpt><trkpt lat="39.2056958" lon="8.5845085"><ele>372.3333333333333</ele><time>2026-04-18T13:49:39.227Z</time></trkpt><trkpt lat="39.2057392" lon="8.5844287"><ele>372.6666666666667</ele><time>2026-04-18T13:49:40.229Z</time></trkpt><trkpt lat="39.2057705" lon="8.5843582"><ele>373.0</ele><time>2026-04-18T13:49:41.215Z</time></trkpt><trkpt lat="39.2058218" lon="8.5842634"><ele>373.33333333333337</ele><time>2026-04-18T13:49:43.239Z</time></trkpt><trkpt lat="39.2058449" lon="8.5841848"><ele>373.6666666666667</ele><time>2026-04-18T13:49:46.231Z</time></trkpt><trkpt lat="39.205824" lon="8.5842976"><ele>374.0</ele><time>2026-04-18T13:50:07.215Z</time></trkpt><trkpt lat="39.2057874" lon="8.5843698"><ele>374.0</ele><time>2026-04-18T13:50:11.219Z</time></trkpt><trkpt lat="39.205826" lon="8.584456"><ele>374.0</ele><time>2026-04-18T13:50:42.214Z</time></trkpt><trkpt lat="39.2058449" lon="8.5845388"><ele>374.0</ele><time>2026-04-18T13:50:46.252Z</time></trkpt><trkpt lat="39.2058193" lon="8.5846591"><ele>374.0</ele><time>2026-04-18T13:50:48.227Z</time></trkpt><trkpt lat="39.2058034" lon="8.5847944"><ele>374.0</ele><time>2026-04-18T13:50:50.225Z</time></trkpt><trkpt lat="39.2057801" lon="8.584935"><ele>372.4</ele><time>2026-04-18T13:50:52.228Z</time></trkpt><trkpt lat="39.2057566" lon="8.5850752"><ele>370.79999999999995</ele><time>2026-04-18T13:50:54.226Z</time></trkpt><trkpt lat="39.2057255" lon="8.5852182"><ele>369.20000000000005</ele><time>2026-04-18T13:50:56.233Z</time></trkpt><trkpt lat="39.2056865" lon="8.5853565"><ele>367.6</ele><time>2026-04-18T13:50:58.228Z</time></trkpt><trkpt lat="39.2056691" lon="8.5854407"><ele>366.0</ele><time>2026-04-18T13:50:59.222Z</time></trkpt><trkpt lat="39.2056458" lon="8.5855985"><ele>364.3333333333333</ele><time>2026-04-18T13:51:01.215Z</time></trkpt><trkpt lat="39.2056271" lon="8.5856771"><ele>362.6666666666667</ele><time>2026-04-18T13:51:02.219Z</time></trkpt><trkpt lat="39.2056036" lon="8.585843"><ele>361.0</ele><time>2026-04-18T13:51:04.227Z</time></trkpt><trkpt lat="39.2055834" lon="8.5859358"><ele>359.33333333333337</ele><time>2026-04-18T13:51:05.223Z</time></trkpt><trkpt lat="39.2055636" lon="8.5860272"><ele>357.6666666666667</ele><time>2026-04-18T13:51:06.221Z</time></trkpt><trkpt lat="39.2055476" lon="8.5861191"><ele>356.0</ele><time>2026-04-18T13:51:07.221Z</time></trkpt><trkpt lat="39.2055062" lon="8.586259"><ele>353.4</ele><time>2026-04-18T13:51:09.214Z</time></trkpt><trkpt lat="39.205459" lon="8.5864029"><ele>350.8</ele><time>2026-04-18T13:51:11.227Z</time></trkpt><trkpt lat="39.2054438" lon="8.5864843"><ele>348.2</ele><time>2026-04-18T13:51:12.23Z</time></trkpt><trkpt lat="39.2054229" lon="8.5865652"><ele>345.59999999999997</ele><time>2026-04-18T13:51:13.234Z</time></trkpt><trkpt lat="39.2053893" lon="8.5867239"><ele>343.0</ele><time>2026-04-18T13:51:15.228Z</time></trkpt><trkpt lat="39.2053568" lon="8.5868149"><ele>343.0</ele><time>2026-04-18T13:51:16.225Z</time></trkpt><trkpt lat="39.2053179" lon="8.5869036"><ele>343.0</ele><time>2026-04-18T13:51:17.231Z</time></trkpt><trkpt lat="39.205283" lon="8.5869975"><ele>343.0</ele><time>2026-04-18T13:51:18.209Z</time></trkpt><trkpt lat="39.2052406" lon="8.5870907"><ele>343.0</ele><time>2026-04-18T13:51:19.218Z</time></trkpt><trkpt lat="39.2052065" lon="8.5871852"><ele>343.0</ele><time>2026-04-18T13:51:20.218Z</time></trkpt><trkpt lat="39.2051639" lon="8.587276"><ele>343.0</ele><time>2026-04-18T13:51:21.22Z</time></trkpt><trkpt lat="39.2051126" lon="8.5873642"><ele>343.0</ele><time>2026-04-18T13:51:22.233Z</time></trkpt><trkpt lat="39.2050526" lon="8.5874515"><ele>343.0</ele><time>2026-04-18T13:51:23.222Z</time></trkpt><trkpt lat="39.204999" lon="8.58754"><ele>343.0</ele><time>2026-04-18T13:51:24.225Z</time></trkpt><trkpt lat="39.2049521" lon="8.587651"><ele>343.0</ele><time>2026-04-18T13:51:25.227Z</time></trkpt><trkpt lat="39.2049084" lon="8.5877756"><ele>343.0</ele><time>2026-04-18T13:51:26.23Z</time></trkpt><trkpt lat="39.2048712" lon="8.5878976"><ele>344.0</ele><time>2026-04-18T13:51:27.22Z</time></trkpt><trkpt lat="39.2048426" lon="8.5880096"><ele>345.0</ele><time>2026-04-18T13:51:28.21Z</time></trkpt><trkpt lat="39.2048227" lon="8.5881256"><ele>346.0</ele><time>2026-04-18T13:51:29.236Z</time></trkpt><trkpt lat="39.2048248" lon="8.5882447"><ele>347.0</ele><time>2026-04-18T13:51:30.224Z</time></trkpt><trkpt lat="39.2048169" lon="8.5883725"><ele>348.0</ele><time>2026-04-18T13:51:31.222Z</time></trkpt><trkpt lat="39.2048144" lon="8.5884841"><ele>348.4</ele><time>2026-04-18T13:51:32.225Z</time></trkpt><trkpt lat="39.204814" lon="8.5885916"><ele>348.79999999999995</ele><time>2026-04-18T13:51:33.224Z</time></trkpt><trkpt lat="39.2048159" lon="8.5887005"><ele>349.2</ele><time>2026-04-18T13:51:34.221Z</time></trkpt><trkpt lat="39.2048172" lon="8.5888258"><ele>349.6</ele><time>2026-04-18T13:51:35.22Z</time></trkpt><trkpt lat="39.2048068" lon="8.5889582"><ele>350.0</ele><time>2026-04-18T13:51:36.225Z</time></trkpt><trkpt lat="39.2048007" lon="8.5890857"><ele>352.0</ele><time>2026-04-18T13:51:37.219Z</time></trkpt><trkpt lat="39.2047944" lon="8.5891958"><ele>354.0</ele><time>2026-04-18T13:51:38.225Z</time></trkpt><trkpt lat="39.2047764" lon="8.5893205"><ele>356.0</ele><time>2026-04-18T13:51:39.222Z</time></trkpt><trkpt lat="39.2047481" lon="8.5894615"><ele>358.0</ele><time>2026-04-18T13:51:40.245Z</time></trkpt><trkpt lat="39.2047187" lon="8.5896046"><ele>360.0</ele><time>2026-04-18T13:51:41.219Z</time></trkpt><trkpt lat="39.2046814" lon="8.589733"><ele>361.0</ele><time>2026-04-18T13:51:42.239Z</time></trkpt><trkpt lat="39.2046467" lon="8.5898515"><ele>362.0</ele><time>2026-04-18T13:51:43.219Z</time></trkpt><trkpt lat="39.2046044" lon="8.5899532"><ele>363.0</ele><time>2026-04-18T13:51:44.226Z</time></trkpt><trkpt lat="39.2045615" lon="8.5900543"><ele>364.0</ele><time>2026-04-18T13:51:45.222Z</time></trkpt><trkpt lat="39.204522" lon="8.5901606"><ele>365.0</ele><time>2026-04-18T13:51:46.231Z</time></trkpt><trkpt lat="39.2044833" lon="8.5902773"><ele>365.6</ele><time>2026-04-18T13:51:47.222Z</time></trkpt><trkpt lat="39.2044393" lon="8.5903926"><ele>366.2</ele><time>2026-04-18T13:51:48.211Z</time></trkpt><trkpt lat="39.2043966" lon="8.59052"><ele>366.79999999999995</ele><time>2026-04-18T13:51:49.212Z</time></trkpt><trkpt lat="39.2043445" lon="8.590649"><ele>367.4</ele><time>2026-04-18T13:51:50.227Z</time></trkpt><trkpt lat="39.2042968" lon="8.5907775"><ele>368.0</ele><time>2026-04-18T13:51:51.214Z</time></trkpt><trkpt lat="39.2042559" lon="8.5908781"><ele>368.0</ele><time>2026-04-18T13:51:52.215Z</time></trkpt><trkpt lat="39.2042173" lon="8.5909738"><ele>368.0</ele><time>2026-04-18T13:51:53.222Z</time></trkpt><trkpt lat="39.2041875" lon="8.5910616"><ele>368.0</ele><time>2026-04-18T13:51:54.227Z</time></trkpt><trkpt lat="39.2041511" lon="8.591152"><ele>368.0</ele><time>2026-04-18T13:51:55.22Z</time></trkpt><trkpt lat="39.2041023" lon="8.5912441"><ele>368.0</ele><time>2026-04-18T13:51:56.23Z</time></trkpt><trkpt lat="39.2040513" lon="8.5913309"><ele>368.0</ele><time>2026-04-18T13:51:57.23Z</time></trkpt><trkpt lat="39.203988" lon="8.5914101"><ele>367.83333333333337</ele><time>2026-04-18T13:51:58.231Z</time></trkpt><trkpt lat="39.2039301" lon="8.5914899"><ele>367.6666666666667</ele><time>2026-04-18T13:51:59.233Z</time></trkpt><trkpt lat="39.203883" lon="8.5915735"><ele>367.5</ele><time>2026-04-18T13:52:00.239Z</time></trkpt><trkpt lat="39.2038552" lon="8.5916523"><ele>367.3333333333333</ele><time>2026-04-18T13:52:01.219Z</time></trkpt><trkpt lat="39.2038524" lon="8.5917524"><ele>367.16666666666663</ele><time>2026-04-18T13:52:03.234Z</time></trkpt><trkpt lat="39.2038337" lon="8.5918542"><ele>367.0</ele><time>2026-04-18T13:52:24.228Z</time></trkpt><trkpt lat="39.2037891" lon="8.5919573"><ele>366.0</ele><time>2026-04-18T13:52:27.211Z</time></trkpt><trkpt lat="39.2037402" lon="8.5920196"><ele>365.0</ele><time>2026-04-18T13:52:28.217Z</time></trkpt><trkpt lat="39.2036673" lon="8.5920972"><ele>364.0</ele><time>2026-04-18T13:52:29.222Z</time></trkpt><trkpt lat="39.2035996" lon="8.5921723"><ele>363.0</ele><time>2026-04-18T13:52:30.226Z</time></trkpt><trkpt lat="39.2035359" lon="8.5922511"><ele>362.0</ele><time>2026-04-18T13:52:31.215Z</time></trkpt><trkpt lat="39.2034804" lon="8.5923216"><ele>361.0</ele><time>2026-04-18T13:52:32.232Z</time></trkpt><trkpt lat="39.2034449" lon="8.5923952"><ele>361.0</ele><time>2026-04-18T13:52:33.214Z</time></trkpt><trkpt lat="39.2034054" lon="8.5924686"><ele>361.0</ele><time>2026-04-18T13:52:34.224Z</time></trkpt><trkpt lat="39.2033477" lon="8.5925595"><ele>361.0</ele><time>2026-04-18T13:52:36.227Z</time></trkpt><trkpt lat="39.2032935" lon="8.5926246"><ele>361.0</ele><time>2026-04-18T13:52:38.221Z</time></trkpt><trkpt lat="39.2032425" lon="8.5926938"><ele>361.0</ele><time>2026-04-18T13:52:40.231Z</time></trkpt><trkpt lat="39.203141" lon="8.592794"><ele>361.0</ele><time>2026-04-18T13:52:42.233Z</time></trkpt><trkpt lat="39.2030687" lon="8.5928743"><ele>360.0</ele><time>2026-04-18T13:52:43.226Z</time></trkpt><trkpt lat="39.2030039" lon="8.5929521"><ele>359.0</ele><time>2026-04-18T13:52:44.225Z</time></trkpt><trkpt lat="39.2029554" lon="8.5930286"><ele>358.0</ele><time>2026-04-18T13:52:45.237Z</time></trkpt><trkpt lat="39.2029081" lon="8.5930869"><ele>357.0</ele><time>2026-04-18T13:52:46.23Z</time></trkpt><trkpt lat="39.2028228" lon="8.5931452"><ele>356.0</ele><time>2026-04-18T13:52:48.226Z</time></trkpt><trkpt lat="39.2027363" lon="8.5932399"><ele>355.0</ele><time>2026-04-18T13:52:50.218Z</time></trkpt><trkpt lat="39.2026716" lon="8.5932995"><ele>355.0</ele><time>2026-04-18T13:52:51.21Z</time></trkpt><trkpt lat="39.2025984" lon="8.5933627"><ele>355.0</ele><time>2026-04-18T13:52:52.224Z</time></trkpt><trkpt lat="39.2025282" lon="8.5934171"><ele>355.0</ele><time>2026-04-18T13:52:53.229Z</time></trkpt><trkpt lat="39.2024521" lon="8.5934487"><ele>355.0</ele><time>2026-04-18T13:52:54.22Z</time></trkpt><trkpt lat="39.2023737" lon="8.5934554"><ele>355.0</ele><time>2026-04-18T13:52:55.213Z</time></trkpt><trkpt lat="39.202287" lon="8.5934326"><ele>355.0</ele><time>2026-04-18T13:52:56.223Z</time></trkpt><trkpt lat="39.202208" lon="8.593392"><ele>354.42857142857144</ele><time>2026-04-18T13:52:57.228Z</time></trkpt><trkpt lat="39.2021365" lon="8.5933584"><ele>353.8571428571429</ele><time>2026-04-18T13:52:58.225Z</time></trkpt><trkpt lat="39.202065" lon="8.5933433"><ele>353.28571428571433</ele><time>2026-04-18T13:52:59.214Z</time></trkpt><trkpt lat="39.2019962" lon="8.5933351"><ele>352.7142857142857</ele><time>2026-04-18T13:53:00.219Z</time></trkpt><trkpt lat="39.2019231" lon="8.5933155"><ele>352.14285714285717</ele><time>2026-04-18T13:53:01.219Z</time></trkpt><trkpt lat="39.2018499" lon="8.59328"><ele>351.5714285714286</ele><time>2026-04-18T13:53:02.219Z</time></trkpt><trkpt lat="39.2017801" lon="8.5932404"><ele>351.0</ele><time>2026-04-18T13:53:03.217Z</time></trkpt><trkpt lat="39.2017165" lon="8.5931897"><ele>351.0</ele><time>2026-04-18T13:53:04.231Z</time></trkpt><trkpt lat="39.201653" lon="8.5931123"><ele>351.0</ele><time>2026-04-18T13:53:05.225Z</time></trkpt><trkpt lat="39.2015916" lon="8.5930192"><ele>351.0</ele><time>2026-04-18T13:53:06.225Z</time></trkpt><trkpt lat="39.2015289" lon="8.5929289"><ele>351.0</ele><time>2026-04-18T13:53:07.233Z</time></trkpt><trkpt lat="39.201466" lon="8.5928424"><ele>351.0</ele><time>2026-04-18T13:53:08.228Z</time></trkpt><trkpt lat="39.2014004" lon="8.5927641"><ele>347.8333333333333</ele><time>2026-04-18T13:53:09.221Z</time></trkpt><trkpt lat="39.2013294" lon="8.5926918"><ele>344.6666666666667</ele><time>2026-04-18T13:53:10.218Z</time></trkpt><trkpt lat="39.2012587" lon="8.5926292"><ele>341.5</ele><time>2026-04-18T13:53:11.221Z</time></trkpt><trkpt lat="39.2011987" lon="8.5925673"><ele>338.33333333333337</ele><time>2026-04-18T13:53:12.224Z</time></trkpt><trkpt lat="39.2011412" lon="8.5925118"><ele>335.1666666666667</ele><time>2026-04-18T13:53:13.232Z</time></trkpt><trkpt lat="39.2010936" lon="8.5924574"><ele>332.0</ele><time>2026-04-18T13:53:14.218Z</time></trkpt><trkpt lat="39.201044" lon="8.5924018"><ele>332.0</ele><time>2026-04-18T13:53:15.225Z</time></trkpt><trkpt lat="39.2009992" lon="8.5923441"><ele>332.0</ele><time>2026-04-18T13:53:16.228Z</time></trkpt><trkpt lat="39.2009396" lon="8.5922101"><ele>332.0</ele><time>2026-04-18T13:53:18.23Z</time></trkpt><trkpt lat="39.2009261" lon="8.5921306"><ele>332.0</ele><time>2026-04-18T13:53:19.211Z</time></trkpt><trkpt lat="39.2009184" lon="8.5920481"><ele>332.0</ele><time>2026-04-18T13:53:20.228Z</time></trkpt><trkpt lat="39.2009234" lon="8.5919663"><ele>332.0</ele><time>2026-04-18T13:53:21.216Z</time></trkpt><trkpt lat="39.2009464" lon="8.591883"><ele>332.0</ele><time>2026-04-18T13:53:22.225Z</time></trkpt><trkpt lat="39.2009938" lon="8.5917748"><ele>332.20000000000005</ele><time>2026-04-18T13:53:24.209Z</time></trkpt><trkpt lat="39.2009346" lon="8.5916131"><ele>332.4</ele><time>2026-04-18T13:53:26.226Z</time></trkpt><trkpt lat="39.2008669" lon="8.5915371"><ele>332.6</ele><time>2026-04-18T13:53:27.222Z</time></trkpt><trkpt lat="39.2007994" lon="8.5914607"><ele>332.79999999999995</ele><time>2026-04-18T13:53:28.227Z</time></trkpt><trkpt lat="39.2007344" lon="8.5913854"><ele>333.0</ele><time>2026-04-18T13:53:29.223Z</time></trkpt><trkpt lat="39.2006698" lon="8.5913368"><ele>332.2</ele><time>2026-04-18T13:53:30.247Z</time></trkpt><trkpt lat="39.2005988" lon="8.5913342"><ele>331.4</ele><time>2026-04-18T13:53:31.226Z</time></trkpt><trkpt lat="39.2005205" lon="8.5913801"><ele>330.59999999999997</ele><time>2026-04-18T13:53:32.225Z</time></trkpt><trkpt lat="39.2004321" lon="8.5914339"><ele>329.79999999999995</ele><time>2026-04-18T13:53:33.22Z</time></trkpt><trkpt lat="39.2003254" lon="8.5914727"><ele>329.0</ele><time>2026-04-18T13:53:34.227Z</time></trkpt><trkpt lat="39.2002227" lon="8.5914985"><ele>329.0</ele><time>2026-04-18T13:53:35.226Z</time></trkpt><trkpt lat="39.2001341" lon="8.5914989"><ele>329.0</ele><time>2026-04-18T13:53:36.224Z</time></trkpt><trkpt lat="39.2000495" lon="8.5915095"><ele>329.0</ele><time>2026-04-18T13:53:37.201Z</time></trkpt><trkpt lat="39.1999645" lon="8.5915377"><ele>329.0</ele><time>2026-04-18T13:53:38.22Z</time></trkpt><trkpt lat="39.1998778" lon="8.5915838"><ele>329.0</ele><time>2026-04-18T13:53:39.207Z</time></trkpt><trkpt lat="39.1998044" lon="8.5916239"><ele>329.0</ele><time>2026-04-18T13:53:40.221Z</time></trkpt><trkpt lat="39.1997305" lon="8.5916505"><ele>328.6666666666667</ele><time>2026-04-18T13:53:41.22Z</time></trkpt><trkpt lat="39.1996574" lon="8.5916724"><ele>328.33333333333337</ele><time>2026-04-18T13:53:42.225Z</time></trkpt><trkpt lat="39.1995482" lon="8.591717"><ele>328.0</ele><time>2026-04-18T13:53:44.237Z</time></trkpt><trkpt lat="39.1994694" lon="8.5917677"><ele>327.6666666666667</ele><time>2026-04-18T13:53:46.232Z</time></trkpt><trkpt lat="39.1993956" lon="8.5918356"><ele>327.3333333333333</ele><time>2026-04-18T13:53:48.227Z</time></trkpt><trkpt lat="39.1993372" lon="8.5918781"><ele>327.0</ele><time>2026-04-18T13:55:39.218Z</time></trkpt><trkpt lat="39.1992734" lon="8.591917"><ele>327.0</ele><time>2026-04-18T13:55:45.239Z</time></trkpt><trkpt lat="39.1992152" lon="8.5919566"><ele>327.0</ele><time>2026-04-18T13:56:23.233Z</time></trkpt><trkpt lat="39.1991303" lon="8.5919542"><ele>327.0</ele><time>2026-04-18T13:56:25.226Z</time></trkpt><trkpt lat="39.1990532" lon="8.5919175"><ele>327.0</ele><time>2026-04-18T13:56:27.234Z</time></trkpt><trkpt lat="39.1989595" lon="8.5919757"><ele>327.0</ele><time>2026-04-18T13:56:29.23Z</time></trkpt><trkpt lat="39.198906" lon="8.5920628"><ele>327.0</ele><time>2026-04-18T13:56:31.227Z</time></trkpt><trkpt lat="39.1989431" lon="8.5921526"><ele>327.0</ele><time>2026-04-18T13:56:33.22Z</time></trkpt><trkpt lat="39.1989881" lon="8.5922547"><ele>327.0</ele><time>2026-04-18T13:56:35.22Z</time></trkpt><trkpt lat="39.1990299" lon="8.592361"><ele>327.0</ele><time>2026-04-18T13:56:37.223Z</time></trkpt><trkpt lat="39.1990597" lon="8.5924758"><ele>327.0</ele><time>2026-04-18T13:56:39.227Z</time></trkpt><trkpt lat="39.1990939" lon="8.5925773"><ele>327.0</ele><time>2026-04-18T13:56:41.229Z</time></trkpt><trkpt lat="39.1991298" lon="8.5926859"><ele>326.0</ele><time>2026-04-18T13:56:43.237Z</time></trkpt><trkpt lat="39.1991355" lon="8.59281"><ele>325.0</ele><time>2026-04-18T13:56:45.234Z</time></trkpt><trkpt lat="39.1991357" lon="8.5929294"><ele>324.0</ele><time>2026-04-18T13:56:47.215Z</time></trkpt><trkpt lat="39.1991457" lon="8.5930353"><ele>323.0</ele><time>2026-04-18T13:56:49.226Z</time></trkpt><trkpt lat="39.199168" lon="8.5931381"><ele>322.0</ele><time>2026-04-18T13:56:51.225Z</time></trkpt><trkpt lat="39.1991723" lon="8.5932418"><ele>321.0</ele><time>2026-04-18T13:56:53.222Z</time></trkpt><trkpt lat="39.1991322" lon="8.5933369"><ele>321.8333333333333</ele><time>2026-04-18T13:56:55.225Z</time></trkpt><trkpt lat="39.1991035" lon="8.5934392"><ele>322.6666666666667</ele><time>2026-04-18T13:56:57.23Z</time></trkpt><trkpt lat="39.1990798" lon="8.5935359"><ele>323.5</ele><time>2026-04-18T13:56:59.228Z</time></trkpt><trkpt lat="39.1990421" lon="8.5936186"><ele>324.33333333333337</ele><time>2026-04-18T13:57:01.227Z</time></trkpt><trkpt lat="39.1990227" lon="8.5937372"><ele>325.1666666666667</ele><time>2026-04-18T13:57:04.223Z</time></trkpt><trkpt lat="39.1989763" lon="8.5938312"><ele>326.0</ele><time>2026-04-18T13:57:07.224Z</time></trkpt><trkpt lat="39.1989437" lon="8.5939082"><ele>326.0</ele><time>2026-04-18T13:57:09.211Z</time></trkpt><trkpt lat="39.198931" lon="8.5940125"><ele>326.0</ele><time>2026-04-18T13:57:11.229Z</time></trkpt><trkpt lat="39.1989577" lon="8.594123"><ele>326.0</ele><time>2026-04-18T13:57:13.216Z</time></trkpt><trkpt lat="39.1989807" lon="8.5942465"><ele>326.0</ele><time>2026-04-18T13:57:15.227Z</time></trkpt><trkpt lat="39.1990298" lon="8.5943882"><ele>326.0</ele><time>2026-04-18T13:57:17.222Z</time></trkpt><trkpt lat="39.1990521" lon="8.5944757"><ele>322.33333333333337</ele><time>2026-04-18T13:57:18.216Z</time></trkpt><trkpt lat="39.1990632" lon="8.5945643"><ele>318.6666666666667</ele><time>2026-04-18T13:57:19.218Z</time></trkpt><trkpt lat="39.1990729" lon="8.5946513"><ele>315.0</ele><time>2026-04-18T13:57:20.232Z</time></trkpt><trkpt lat="39.19909" lon="8.5947998"><ele>311.3333333333333</ele><time>2026-04-18T13:57:22.221Z</time></trkpt><trkpt lat="39.1991031" lon="8.594924"><ele>307.66666666666663</ele><time>2026-04-18T13:57:24.219Z</time></trkpt><trkpt lat="39.1991049" lon="8.5950481"><ele>304.0</ele><time>2026-04-18T13:57:26.221Z</time></trkpt><trkpt lat="39.1990992" lon="8.5951716"><ele>304.0</ele><time>2026-04-18T13:57:28.219Z</time></trkpt><trkpt lat="39.1990861" lon="8.5953189"><ele>304.0</ele><time>2026-04-18T13:57:30.23Z</time></trkpt><trkpt lat="39.1990411" lon="8.5954265"><ele>304.0</ele><time>2026-04-18T13:57:32.214Z</time></trkpt><trkpt lat="39.1990174" lon="8.5955408"><ele>304.0</ele><time>2026-04-18T13:57:34.223Z</time></trkpt><trkpt lat="39.1989905" lon="8.5956639"><ele>304.0</ele><time>2026-04-18T13:57:36.229Z</time></trkpt><trkpt lat="39.1989279" lon="8.5957768"><ele>304.3333333333333</ele><time>2026-04-18T13:57:38.217Z</time></trkpt><trkpt lat="39.1988674" lon="8.5958925"><ele>304.66666666666663</ele><time>2026-04-18T13:57:40.234Z</time></trkpt><trkpt lat="39.198817" lon="8.5959684"><ele>305.0</ele><time>2026-04-18T13:57:42.222Z</time></trkpt><trkpt lat="39.1987865" lon="8.5960507"><ele>305.3333333333333</ele><time>2026-04-18T13:57:50.213Z</time></trkpt><trkpt lat="39.1987415" lon="8.5961507"><ele>305.6666666666667</ele><time>2026-04-18T13:57:55.213Z</time></trkpt><trkpt lat="39.1987234" lon="8.596263"><ele>306.0</ele><time>2026-04-18T13:57:58.223Z</time></trkpt><trkpt lat="39.198703" lon="8.5963404"><ele>303.42857142857144</ele><time>2026-04-18T13:58:01.205Z</time></trkpt><trkpt lat="39.1986447" lon="8.5964239"><ele>300.8571428571429</ele><time>2026-04-18T13:58:04.236Z</time></trkpt><trkpt lat="39.198612" lon="8.596501"><ele>298.28571428571433</ele><time>2026-04-18T13:58:19.22Z</time></trkpt><trkpt lat="39.1985788" lon="8.5965758"><ele>295.7142857142857</ele><time>2026-04-18T13:58:22.223Z</time></trkpt><trkpt lat="39.1985133" lon="8.5966082"><ele>293.14285714285717</ele><time>2026-04-18T13:58:26.221Z</time></trkpt><trkpt lat="39.1984554" lon="8.5966706"><ele>290.5714285714286</ele><time>2026-04-18T14:06:08.216Z</time></trkpt><trkpt lat="39.1985076" lon="8.5966135"><ele>288.0</ele><time>2026-04-18T14:07:41.209Z</time></trkpt><trkpt lat="39.1985693" lon="8.5965641"><ele>288.0</ele><time>2026-04-18T14:07:50.221Z</time></trkpt><trkpt lat="39.1986198" lon="8.5964942"><ele>288.0</ele><time>2026-04-18T14:08:24.23Z</time></trkpt><trkpt lat="39.1986617" lon="8.5964259"><ele>288.0</ele><time>2026-04-18T14:08:26.229Z</time></trkpt><trkpt lat="39.1987147" lon="8.5963466"><ele>288.0</ele><time>2026-04-18T14:08:29.222Z</time></trkpt><trkpt lat="39.1987348" lon="8.5962557"><ele>288.0</ele><time>2026-04-18T14:08:31.223Z</time></trkpt><trkpt lat="39.1987649" lon="8.59614"><ele>288.0</ele><time>2026-04-18T14:08:34.232Z</time></trkpt><trkpt lat="39.1987947" lon="8.5960656"><ele>290.8</ele><time>2026-04-18T14:08:36.241Z</time></trkpt><trkpt lat="39.1987977" lon="8.5959664"><ele>293.6</ele><time>2026-04-18T14:08:41.223Z</time></trkpt><trkpt lat="39.1988711" lon="8.5958563"><ele>296.4</ele><time>2026-04-18T14:08:44.218Z</time></trkpt><trkpt lat="39.1989139" lon="8.5957951"><ele>299.2</ele><time>2026-04-18T14:08:45.213Z</time></trkpt><trkpt lat="39.1989895" lon="8.5956733"><ele>302.0</ele><time>2026-04-18T14:08:47.222Z</time></trkpt><trkpt lat="39.1990215" lon="8.5955711"><ele>302.0</ele><time>2026-04-18T14:08:49.218Z</time></trkpt><trkpt lat="39.1990407" lon="8.5954327"><ele>302.0</ele><time>2026-04-18T14:08:51.209Z</time></trkpt><trkpt lat="39.1990817" lon="8.5953182"><ele>302.0</ele><time>2026-04-18T14:08:53.213Z</time></trkpt><trkpt lat="39.1991017" lon="8.5951857"><ele>302.0</ele><time>2026-04-18T14:08:56.222Z</time></trkpt><trkpt lat="39.1990988" lon="8.5950414"><ele>302.0</ele><time>2026-04-18T14:08:58.227Z</time></trkpt><trkpt lat="39.1990983" lon="8.5949556"><ele>302.33333333333337</ele><time>2026-04-18T14:08:59.224Z</time></trkpt><trkpt lat="39.1990892" lon="8.5948364"><ele>302.6666666666667</ele><time>2026-04-18T14:09:01.217Z</time></trkpt><trkpt lat="39.1990617" lon="8.5947193"><ele>303.0</ele><time>2026-04-18T14:09:03.213Z</time></trkpt><trkpt lat="39.19904" lon="8.5945659"><ele>303.3333333333333</ele><time>2026-04-18T14:09:05.217Z</time></trkpt><trkpt lat="39.1990245" lon="8.5944856"><ele>303.66666666666663</ele><time>2026-04-18T14:09:06.227Z</time></trkpt><trkpt lat="39.1990058" lon="8.5944031"><ele>304.0</ele><time>2026-04-18T14:09:07.215Z</time></trkpt><trkpt lat="39.1989868" lon="8.5942749"><ele>305.16666666666663</ele><time>2026-04-18T14:09:09.224Z</time></trkpt><trkpt lat="39.1989737" lon="8.5941684"><ele>306.3333333333333</ele><time>2026-04-18T14:09:11.225Z</time></trkpt><trkpt lat="39.1989573" lon="8.594061"><ele>307.5</ele><time>2026-04-18T14:09:13.218Z</time></trkpt><trkpt lat="39.1989362" lon="8.5939232"><ele>308.6666666666667</ele><time>2026-04-18T14:09:15.23Z</time></trkpt><trkpt lat="39.1989737" lon="8.5937961"><ele>309.83333333333337</ele><time>2026-04-18T14:09:17.215Z</time></trkpt><trkpt lat="39.1990035" lon="8.5937244"><ele>311.0</ele><time>2026-04-18T14:09:19.221Z</time></trkpt><trkpt lat="39.1990181" lon="8.5936152"><ele>311.40000000000003</ele><time>2026-04-18T14:09:21.213Z</time></trkpt><trkpt lat="39.1990549" lon="8.5935082"><ele>311.8</ele><time>2026-04-18T14:09:23.21Z</time></trkpt><trkpt lat="39.1990939" lon="8.5933913"><ele>312.20000000000005</ele><time>2026-04-18T14:09:25.233Z</time></trkpt><trkpt lat="39.1991296" lon="8.5932655"><ele>312.6</ele><time>2026-04-18T14:09:27.211Z</time></trkpt><trkpt lat="39.1991623" lon="8.5931593"><ele>313.0</ele><time>2026-04-18T14:09:29.213Z</time></trkpt><trkpt lat="39.1991642" lon="8.5930529"><ele>313.0</ele><time>2026-04-18T14:09:31.215Z</time></trkpt><trkpt lat="39.1991411" lon="8.5928851"><ele>313.0</ele><time>2026-04-18T14:09:33.224Z</time></trkpt><trkpt lat="39.1991255" lon="8.5927645"><ele>313.0</ele><time>2026-04-18T14:09:34.193Z</time></trkpt><trkpt lat="39.1991025" lon="8.5926508"><ele>313.0</ele><time>2026-04-18T14:09:35.231Z</time></trkpt><trkpt lat="39.1990786" lon="8.5925565"><ele>313.0</ele><time>2026-04-18T14:09:36.215Z</time></trkpt><trkpt lat="39.1990476" lon="8.5924579"><ele>314.3333333333333</ele><time>2026-04-18T14:09:37.226Z</time></trkpt><trkpt lat="39.1990154" lon="8.5923501"><ele>315.66666666666663</ele><time>2026-04-18T14:09:38.231Z</time></trkpt><trkpt lat="39.198991" lon="8.5922493"><ele>317.0</ele><time>2026-04-18T14:09:39.214Z</time></trkpt><trkpt lat="39.198968" lon="8.5921688"><ele>318.3333333333333</ele><time>2026-04-18T14:09:40.234Z</time></trkpt><trkpt lat="39.1989488" lon="8.5920796"><ele>319.6666666666667</ele><time>2026-04-18T14:09:41.218Z</time></trkpt><trkpt lat="39.1989499" lon="8.5919886"><ele>321.0</ele><time>2026-04-18T14:09:43.229Z</time></trkpt><trkpt lat="39.1990086" lon="8.5919326"><ele>321.0</ele><time>2026-04-18T14:09:45.23Z</time></trkpt><trkpt lat="39.1990903" lon="8.5919123"><ele>321.0</ele><time>2026-04-18T14:09:47.214Z</time></trkpt><trkpt lat="39.1991604" lon="8.5919529"><ele>321.0</ele><time>2026-04-18T14:09:49.225Z</time></trkpt><trkpt lat="39.1992385" lon="8.591982"><ele>321.0</ele><time>2026-04-18T14:09:51.225Z</time></trkpt><trkpt lat="39.1991455" lon="8.5919619"><ele>321.0</ele><time>2026-04-18T14:10:53.229Z</time></trkpt><trkpt lat="39.199083" lon="8.5919261"><ele>321.0</ele><time>2026-04-18T14:10:55.22Z</time></trkpt><trkpt lat="39.1989659" lon="8.5919589"><ele>322.0</ele><time>2026-04-18T14:10:57.225Z</time></trkpt><trkpt lat="39.1988866" lon="8.5920743"><ele>323.0</ele><time>2026-04-18T14:10:59.216Z</time></trkpt><trkpt lat="39.1988214" lon="8.5921118"><ele>324.0</ele><time>2026-04-18T14:11:01.207Z</time></trkpt><trkpt lat="39.1987603" lon="8.5921633"><ele>325.0</ele><time>2026-04-18T14:11:03.206Z</time></trkpt><trkpt lat="39.1987054" lon="8.5922791"><ele>326.0</ele><time>2026-04-18T14:11:05.211Z</time></trkpt><trkpt lat="39.1986607" lon="8.5923624"><ele>327.0</ele><time>2026-04-18T14:11:07.212Z</time></trkpt><trkpt lat="39.1986236" lon="8.5924356"><ele>327.0</ele><time>2026-04-18T14:12:50.22Z</time></trkpt><trkpt lat="39.1986017" lon="8.5925471"><ele>327.0</ele><time>2026-04-18T14:12:52.213Z</time></trkpt><trkpt lat="39.1985796" lon="8.5926404"><ele>327.0</ele><time>2026-04-18T14:12:54.225Z</time></trkpt><trkpt lat="39.1985218" lon="8.592736"><ele>327.0</ele><time>2026-04-18T14:12:56.234Z</time></trkpt><trkpt lat="39.1984715" lon="8.5927964"><ele>327.0</ele><time>2026-04-18T14:12:57.217Z</time></trkpt><trkpt lat="39.1984311" lon="8.5928656"><ele>327.0</ele><time>2026-04-18T14:12:58.226Z</time></trkpt><trkpt lat="39.1983823" lon="8.5929278"><ele>327.6</ele><time>2026-04-18T14:12:59.225Z</time></trkpt><trkpt lat="39.1983316" lon="8.5930094"><ele>328.20000000000005</ele><time>2026-04-18T14:13:00.238Z</time></trkpt><trkpt lat="39.1982931" lon="8.5930852"><ele>328.8</ele><time>2026-04-18T14:13:01.236Z</time></trkpt><trkpt lat="39.1982303" lon="8.5931778"><ele>329.4</ele><time>2026-04-18T14:13:03.228Z</time></trkpt><trkpt lat="39.1981504" lon="8.5932571"><ele>330.0</ele><time>2026-04-18T14:13:05.218Z</time></trkpt><trkpt lat="39.1980892" lon="8.5933808"><ele>330.0</ele><time>2026-04-18T14:13:07.217Z</time></trkpt><trkpt lat="39.1980662" lon="8.5934609"><ele>330.0</ele><time>2026-04-18T14:13:08.224Z</time></trkpt><trkpt lat="39.1980521" lon="8.5935464"><ele>330.0</ele><time>2026-04-18T14:13:09.23Z</time></trkpt><trkpt lat="39.1980311" lon="8.5936991"><ele>330.0</ele><time>2026-04-18T14:13:11.227Z</time></trkpt><trkpt lat="39.1980196" lon="8.5937809"><ele>330.0</ele><time>2026-04-18T14:13:12.214Z</time></trkpt><trkpt lat="39.1980102" lon="8.5938688"><ele>330.0</ele><time>2026-04-18T14:13:13.223Z</time></trkpt><trkpt lat="39.1979929" lon="8.5939559"><ele>331.1666666666667</ele><time>2026-04-18T14:13:14.224Z</time></trkpt><trkpt lat="39.1979219" lon="8.5940815"><ele>332.3333333333333</ele><time>2026-04-18T14:13:16.241Z</time></trkpt><trkpt lat="39.1978331" lon="8.5941838"><ele>333.5</ele><time>2026-04-18T14:13:18.225Z</time></trkpt><trkpt lat="39.1977877" lon="8.5942471"><ele>334.66666666666663</ele><time>2026-04-18T14:13:19.222Z</time></trkpt><trkpt lat="39.1977484" lon="8.5943128"><ele>335.8333333333333</ele><time>2026-04-18T14:13:20.2Z</time></trkpt><trkpt lat="39.1977083" lon="8.5943848"><ele>337.0</ele><time>2026-04-18T14:13:21.232Z</time></trkpt><trkpt lat="39.1976526" lon="8.5944824"><ele>337.0</ele><time>2026-04-18T14:13:23.231Z</time></trkpt><trkpt lat="39.1976295" lon="8.5945701"><ele>337.0</ele><time>2026-04-18T14:13:27.214Z</time></trkpt><trkpt lat="39.1976256" lon="8.5946537"><ele>337.0</ele><time>2026-04-18T14:13:30.227Z</time></trkpt><trkpt lat="39.1976215" lon="8.594758"><ele>337.0</ele><time>2026-04-18T14:13:33.202Z</time></trkpt><trkpt lat="39.1976029" lon="8.5948741"><ele>337.0</ele><time>2026-04-18T14:13:36.221Z</time></trkpt><trkpt lat="39.1975794" lon="8.594992"><ele>337.0</ele><time>2026-04-18T14:13:39.225Z</time></trkpt><trkpt lat="39.197565" lon="8.5950722"><ele>337.0</ele><time>2026-04-18T14:13:41.216Z</time></trkpt><trkpt lat="39.1975456" lon="8.595157"><ele>337.0</ele><time>2026-04-18T14:13:43.217Z</time></trkpt><trkpt lat="39.1975427" lon="8.5952768"><ele>337.0</ele><time>2026-04-18T14:13:46.23Z</time></trkpt><trkpt lat="39.1975198" lon="8.5953669"><ele>337.0</ele><time>2026-04-18T14:13:48.215Z</time></trkpt><trkpt lat="39.1974848" lon="8.5954448"><ele>337.0</ele><time>2026-04-18T14:13:50.208Z</time></trkpt><trkpt lat="39.1974417" lon="8.5955196"><ele>337.0</ele><time>2026-04-18T14:13:52.228Z</time></trkpt><trkpt lat="39.1973951" lon="8.5956038"><ele>337.00000000000006</ele><time>2026-04-18T14:13:54.231Z</time></trkpt><trkpt lat="39.1973581" lon="8.5956793"><ele>337.0</ele><time>2026-04-18T14:14:06.188Z</time></trkpt><trkpt lat="39.1973003" lon="8.595636"><ele>337.0</ele><time>2026-04-18T14:14:14.206Z</time></trkpt><trkpt lat="39.1973198" lon="8.5955471"><ele>337.0</ele><time>2026-04-18T14:14:17.219Z</time></trkpt><trkpt lat="39.1973656" lon="8.5954575"><ele>337.0</ele><time>2026-04-18T14:14:19.205Z</time></trkpt><trkpt lat="39.1973966" lon="8.5953778"><ele>337.00000000000006</ele><time>2026-04-18T14:14:20.212Z</time></trkpt><trkpt lat="39.197428" lon="8.5952954"><ele>337.0</ele><time>2026-04-18T14:14:21.229Z</time></trkpt><trkpt lat="39.1974806" lon="8.5951763"><ele>337.0</ele><time>2026-04-18T14:14:23.2Z</time></trkpt><trkpt lat="39.1975257" lon="8.5950628"><ele>337.0</ele><time>2026-04-18T14:14:25.206Z</time></trkpt><trkpt lat="39.1975427" lon="8.5949625"><ele>337.0</ele><time>2026-04-18T14:14:27.221Z</time></trkpt><trkpt lat="39.1975241" lon="8.5948607"><ele>337.0</ele><time>2026-04-18T14:14:29.236Z</time></trkpt><trkpt lat="39.1974755" lon="8.5947877"><ele>337.0</ele><time>2026-04-18T14:14:31.222Z</time></trkpt><trkpt lat="39.197408" lon="8.5947406"><ele>337.0</ele><time>2026-04-18T14:14:33.225Z</time></trkpt><trkpt lat="39.1973098" lon="8.594791"><ele>337.5714285714286</ele><time>2026-04-18T14:14:35.217Z</time></trkpt><trkpt lat="39.1972454" lon="8.5948276"><ele>338.14285714285717</ele><time>2026-04-18T14:14:36.227Z</time></trkpt><trkpt lat="39.19718" lon="8.5948494"><ele>338.7142857142857</ele><time>2026-04-18T14:14:37.23Z</time></trkpt><trkpt lat="39.1971019" lon="8.5948582"><ele>339.28571428571433</ele><time>2026-04-18T14:14:39.211Z</time></trkpt><trkpt lat="39.1970191" lon="8.5948792"><ele>339.8571428571429</ele><time>2026-04-18T14:14:42.211Z</time></trkpt><trkpt lat="39.1970788" lon="8.594853"><ele>340.42857142857144</ele><time>2026-04-18T14:15:05.235Z</time></trkpt><trkpt lat="39.1971522" lon="8.5948293"><ele>341.0</ele><time>2026-04-18T14:15:17.264Z</time></trkpt><trkpt lat="39.19722" lon="8.5948176"><ele>341.0</ele><time>2026-04-18T14:15:23.221Z</time></trkpt><trkpt lat="39.1973182" lon="8.5947617"><ele>341.0</ele><time>2026-04-18T14:15:26.226Z</time></trkpt><trkpt lat="39.1973717" lon="8.5947188"><ele>341.0</ele><time>2026-04-18T14:15:27.223Z</time></trkpt><trkpt lat="39.1974703" lon="8.5946511"><ele>341.0</ele><time>2026-04-18T14:15:29.191Z</time></trkpt><trkpt lat="39.1975593" lon="8.5945788"><ele>341.0</ele><time>2026-04-18T14:15:31.216Z</time></trkpt><trkpt lat="39.1976279" lon="8.5944898"><ele>340.20000000000005</ele><time>2026-04-18T14:15:33.204Z</time></trkpt><trkpt lat="39.1976973" lon="8.5943701"><ele>339.40000000000003</ele><time>2026-04-18T14:15:35.232Z</time></trkpt><trkpt lat="39.1977393" lon="8.5942889"><ele>338.6</ele><time>2026-04-18T14:15:36.223Z</time></trkpt><trkpt lat="39.1977846" lon="8.5942174"><ele>337.8</ele><time>2026-04-18T14:15:37.225Z</time></trkpt><trkpt lat="39.1978384" lon="8.5941527"><ele>337.0</ele><time>2026-04-18T14:15:38.228Z</time></trkpt><trkpt lat="39.1979207" lon="8.5940451"><ele>337.0</ele><time>2026-04-18T14:15:40.23Z</time></trkpt><trkpt lat="39.1979793" lon="8.5939199"><ele>337.0</ele><time>2026-04-18T14:15:42.213Z</time></trkpt><trkpt lat="39.1980069" lon="8.5937931"><ele>337.0</ele><time>2026-04-18T14:15:44.203Z</time></trkpt><trkpt lat="39.1980265" lon="8.5936395"><ele>337.0</ele><time>2026-04-18T14:15:46.229Z</time></trkpt><trkpt lat="39.1980489" lon="8.5934886"><ele>335.6</ele><time>2026-04-18T14:15:48.208Z</time></trkpt><trkpt lat="39.1980724" lon="8.5934084"><ele>334.20000000000005</ele><time>2026-04-18T14:15:49.225Z</time></trkpt><trkpt lat="39.1981305" lon="8.5932725"><ele>332.8</ele><time>2026-04-18T14:15:51.198Z</time></trkpt><trkpt lat="39.1981975" lon="8.5931717"><ele>331.4</ele><time>2026-04-18T14:15:53.218Z</time></trkpt><trkpt lat="39.1982748" lon="8.5930914"><ele>330.0</ele><time>2026-04-18T14:15:55.232Z</time></trkpt><trkpt lat="39.1983436" lon="8.5929373"><ele>330.0</ele><time>2026-04-18T14:15:57.219Z</time></trkpt><trkpt lat="39.1983956" lon="8.5928602"><ele>330.0</ele><time>2026-04-18T14:15:58.218Z</time></trkpt><trkpt lat="39.1984524" lon="8.592795"><ele>330.0</ele><time>2026-04-18T14:15:59.248Z</time></trkpt><trkpt lat="39.1985057" lon="8.5927364"><ele>330.0</ele><time>2026-04-18T14:16:00.218Z</time></trkpt><trkpt lat="39.1985817" lon="8.5926168"><ele>330.0</ele><time>2026-04-18T14:16:02.216Z</time></trkpt><trkpt lat="39.1986043" lon="8.5925377"><ele>330.0</ele><time>2026-04-18T14:16:03.207Z</time></trkpt><trkpt lat="39.1986235" lon="8.592452"><ele>329.5</ele><time>2026-04-18T14:16:04.225Z</time></trkpt><trkpt lat="39.1986442" lon="8.592369"><ele>329.0</ele><time>2026-04-18T14:16:05.221Z</time></trkpt><trkpt lat="39.1986774" lon="8.5922997"><ele>328.5</ele><time>2026-04-18T14:16:06.221Z</time></trkpt><trkpt lat="39.1987567" lon="8.5921749"><ele>328.0</ele><time>2026-04-18T14:16:08.217Z</time></trkpt><trkpt lat="39.1988484" lon="8.5920757"><ele>327.5</ele><time>2026-04-18T14:16:10.221Z</time></trkpt><trkpt lat="39.1989138" lon="8.5920324"><ele>327.0</ele><time>2026-04-18T14:16:11.232Z</time></trkpt><trkpt lat="39.1989704" lon="8.591966"><ele>327.0</ele><time>2026-04-18T14:16:12.232Z</time></trkpt><trkpt lat="39.199068" lon="8.5919053"><ele>327.0</ele><time>2026-04-18T14:16:14.202Z</time></trkpt><trkpt lat="39.1991728" lon="8.5919515"><ele>327.0</ele><time>2026-04-18T14:16:16.212Z</time></trkpt><trkpt lat="39.1992723" lon="8.591962"><ele>327.0</ele><time>2026-04-18T14:16:18.195Z</time></trkpt><trkpt lat="39.1993302" lon="8.5919022"><ele>327.0</ele><time>2026-04-18T14:16:39.206Z</time></trkpt><trkpt lat="39.1993865" lon="8.5918594"><ele>327.0</ele><time>2026-04-18T14:17:52.21Z</time></trkpt><trkpt lat="39.1994587" lon="8.5917978"><ele>327.0</ele><time>2026-04-18T14:17:56.227Z</time></trkpt><trkpt lat="39.1995174" lon="8.5917532"><ele>327.0</ele><time>2026-04-18T14:17:59.232Z</time></trkpt><trkpt lat="39.1995922" lon="8.591714"><ele>327.0</ele><time>2026-04-18T14:18:03.228Z</time></trkpt><trkpt lat="39.1996516" lon="8.5916848"><ele>327.0</ele><time>2026-04-18T14:18:06.215Z</time></trkpt><trkpt lat="39.1997426" lon="8.5916573"><ele>327.0</ele><time>2026-04-18T14:18:09.231Z</time></trkpt><trkpt lat="39.1998297" lon="8.5916127"><ele>327.3333333333333</ele><time>2026-04-18T14:18:12.202Z</time></trkpt><trkpt lat="39.1998979" lon="8.5915794"><ele>327.6666666666667</ele><time>2026-04-18T14:18:14.246Z</time></trkpt><trkpt lat="39.2000099" lon="8.5915312"><ele>328.0</ele><time>2026-04-18T14:18:16.218Z</time></trkpt><trkpt lat="39.2000801" lon="8.5915108"><ele>328.33333333333337</ele><time>2026-04-18T14:18:17.211Z</time></trkpt><trkpt lat="39.200146" lon="8.5915039"><ele>328.6666666666667</ele><time>2026-04-18T14:18:18.242Z</time></trkpt><trkpt lat="39.2002092" lon="8.5914952"><ele>329.0</ele><time>2026-04-18T14:18:19.219Z</time></trkpt><trkpt lat="39.2002727" lon="8.5914846"><ele>329.0</ele><time>2026-04-18T14:18:20.22Z</time></trkpt><trkpt lat="39.2003379" lon="8.5914656"><ele>329.0</ele><time>2026-04-18T14:18:21.206Z</time></trkpt><trkpt lat="39.2004056" lon="8.5914422"><ele>329.0</ele><time>2026-04-18T14:18:22.203Z</time></trkpt><trkpt lat="39.20047" lon="8.5914172"><ele>329.0</ele><time>2026-04-18T14:18:23.209Z</time></trkpt><trkpt lat="39.2005343" lon="8.5913891"><ele>329.0</ele><time>2026-04-18T14:18:24.213Z</time></trkpt><trkpt lat="39.2006412" lon="8.5913294"><ele>329.0</ele><time>2026-04-18T14:18:26.222Z</time></trkpt><trkpt lat="39.2007369" lon="8.5913877"><ele>329.6666666666667</ele><time>2026-04-18T14:18:28.216Z</time></trkpt><trkpt lat="39.2007904" lon="8.5914572"><ele>330.33333333333337</ele><time>2026-04-18T14:18:29.223Z</time></trkpt><trkpt lat="39.2008583" lon="8.591544"><ele>331.0</ele><time>2026-04-18T14:18:30.205Z</time></trkpt><trkpt lat="39.2009224" lon="8.5916197"><ele>331.6666666666667</ele><time>2026-04-18T14:18:31.213Z</time></trkpt><trkpt lat="39.2009703" lon="8.5916778"><ele>332.3333333333333</ele><time>2026-04-18T14:18:32.2Z</time></trkpt><trkpt lat="39.2010065" lon="8.591745"><ele>333.0</ele><time>2026-04-18T14:18:33.222Z</time></trkpt><trkpt lat="39.2009922" lon="8.5918823"><ele>333.0</ele><time>2026-04-18T14:18:35.218Z</time></trkpt><trkpt lat="39.200951" lon="8.5919921"><ele>333.0</ele><time>2026-04-18T14:18:37.208Z</time></trkpt><trkpt lat="39.2009469" lon="8.5921357"><ele>333.0</ele><time>2026-04-18T14:18:39.235Z</time></trkpt><trkpt lat="39.2009742" lon="8.592277"><ele>333.0</ele><time>2026-04-18T14:18:41.219Z</time></trkpt><trkpt lat="39.2010304" lon="8.5923996"><ele>333.0</ele><time>2026-04-18T14:18:43.207Z</time></trkpt><trkpt lat="39.2011281" lon="8.5924964"><ele>332.75</ele><time>2026-04-18T14:18:45.221Z</time></trkpt><trkpt lat="39.2012207" lon="8.5925893"><ele>332.5</ele><time>2026-04-18T14:18:47.216Z</time></trkpt><trkpt lat="39.2013302" lon="8.5927047"><ele>332.25</ele><time>2026-04-18T14:18:49.225Z</time></trkpt><trkpt lat="39.2014141" lon="8.5927846"><ele>332.0</ele><time>2026-04-18T14:18:50.234Z</time></trkpt><trkpt lat="39.2014908" lon="8.5928571"><ele>335.1666666666667</ele><time>2026-04-18T14:18:51.196Z</time></trkpt><trkpt lat="39.2015537" lon="8.5929349"><ele>338.33333333333337</ele><time>2026-04-18T14:18:52.225Z</time></trkpt><trkpt lat="39.2016135" lon="8.5930249"><ele>341.5</ele><time>2026-04-18T14:18:53.223Z</time></trkpt><trkpt lat="39.2016675" lon="8.5931115"><ele>344.6666666666667</ele><time>2026-04-18T14:18:54.215Z</time></trkpt><trkpt lat="39.201724" lon="8.5931825"><ele>347.8333333333333</ele><time>2026-04-18T14:18:55.217Z</time></trkpt><trkpt lat="39.2017943" lon="8.593242"><ele>351.0</ele><time>2026-04-18T14:18:56.223Z</time></trkpt><trkpt lat="39.2018696" lon="8.5932761"><ele>351.0</ele><time>2026-04-18T14:18:57.214Z</time></trkpt><trkpt lat="39.2019424" lon="8.5933109"><ele>351.0</ele><time>2026-04-18T14:18:58.224Z</time></trkpt><trkpt lat="39.2020132" lon="8.5933484"><ele>351.0</ele><time>2026-04-18T14:18:59.206Z</time></trkpt><trkpt lat="39.2020827" lon="8.5933629"><ele>351.0</ele><time>2026-04-18T14:19:00.217Z</time></trkpt><trkpt lat="39.202161" lon="8.5933732"><ele>351.0</ele><time>2026-04-18T14:19:01.218Z</time></trkpt><trkpt lat="39.2022428" lon="8.5934017"><ele>351.0</ele><time>2026-04-18T14:19:02.213Z</time></trkpt><trkpt lat="39.2023188" lon="8.5934359"><ele>351.5714285714286</ele><time>2026-04-18T14:19:03.212Z</time></trkpt><trkpt lat="39.2023923" lon="8.5934467"><ele>352.14285714285717</ele><time>2026-04-18T14:19:04.23Z</time></trkpt><trkpt lat="39.2024622" lon="8.5934546"><ele>352.7142857142857</ele><time>2026-04-18T14:19:05.224Z</time></trkpt><trkpt lat="39.20253" lon="8.5934457"><ele>353.28571428571433</ele><time>2026-04-18T14:19:06.21Z</time></trkpt><trkpt lat="39.2025915" lon="8.5934104"><ele>353.8571428571429</ele><time>2026-04-18T14:19:07.23Z</time></trkpt><trkpt lat="39.20265" lon="8.5933624"><ele>354.42857142857144</ele><time>2026-04-18T14:19:08.209Z</time></trkpt><trkpt lat="39.2027048" lon="8.5932989"><ele>355.0</ele><time>2026-04-18T14:19:09.216Z</time></trkpt><trkpt lat="39.202784" lon="8.593202"><ele>355.0</ele><time>2026-04-18T14:19:11.213Z</time></trkpt><trkpt lat="39.2028503" lon="8.5931478"><ele>355.0</ele><time>2026-04-18T14:19:13.225Z</time></trkpt><trkpt lat="39.2029221" lon="8.5930649"><ele>355.0</ele><time>2026-04-18T14:19:15.208Z</time></trkpt><trkpt lat="39.2029652" lon="8.5930022"><ele>355.0</ele><time>2026-04-18T14:19:16.237Z</time></trkpt><trkpt lat="39.203022" lon="8.5929313"><ele>355.0</ele><time>2026-04-18T14:19:17.216Z</time></trkpt><trkpt lat="39.2030786" lon="8.5928557"><ele>355.0</ele><time>2026-04-18T14:19:18.206Z</time></trkpt><trkpt lat="39.203132" lon="8.5927889"><ele>356.2</ele><time>2026-04-18T14:19:19.216Z</time></trkpt><trkpt lat="39.2031988" lon="8.5927197"><ele>357.4</ele><time>2026-04-18T14:19:21.215Z</time></trkpt><trkpt lat="39.2032452" lon="8.5926634"><ele>358.6</ele><time>2026-04-18T14:19:25.204Z</time></trkpt><trkpt lat="39.2033115" lon="8.5925841"><ele>359.8</ele><time>2026-04-18T14:19:32.236Z</time></trkpt><trkpt lat="39.2034169" lon="8.5924402"><ele>361.0</ele><time>2026-04-18T14:19:34.218Z</time></trkpt><trkpt lat="39.203469" lon="8.5923496"><ele>361.0</ele><time>2026-04-18T14:19:35.207Z</time></trkpt><trkpt lat="39.203512" lon="8.592267"><ele>361.0</ele><time>2026-04-18T14:19:36.206Z</time></trkpt><trkpt lat="39.203563" lon="8.5922015"><ele>361.0</ele><time>2026-04-18T14:19:37.224Z</time></trkpt><trkpt lat="39.2036112" lon="8.5921329"><ele>361.0</ele><time>2026-04-18T14:19:38.224Z</time></trkpt><trkpt lat="39.2036667" lon="8.5920703"><ele>361.0</ele><time>2026-04-18T14:19:39.209Z</time></trkpt><trkpt lat="39.2037216" lon="8.5920177"><ele>361.0</ele><time>2026-04-18T14:19:40.195Z</time></trkpt><trkpt lat="39.203797" lon="8.5919232"><ele>361.0</ele><time>2026-04-18T14:19:42.228Z</time></trkpt><trkpt lat="39.203826" lon="8.5918483"><ele>361.0</ele><time>2026-04-18T14:19:45.203Z</time></trkpt><trkpt lat="39.2038645" lon="8.5919367"><ele>361.0</ele><time>2026-04-18T14:19:55.203Z</time></trkpt><trkpt lat="39.20382" lon="8.592065"><ele>361.0</ele><time>2026-04-18T14:19:57.205Z</time></trkpt><trkpt lat="39.2037628" lon="8.5921912"><ele>361.0</ele><time>2026-04-18T14:19:59.233Z</time></trkpt><trkpt lat="39.2037591" lon="8.5923526"><ele>361.0</ele><time>2026-04-18T14:20:01.209Z</time></trkpt><trkpt lat="39.2037123" lon="8.5924747"><ele>361.0</ele><time>2026-04-18T14:20:03.208Z</time></trkpt><trkpt lat="39.2036453" lon="8.5925943"><ele>361.0</ele><time>2026-04-18T14:20:05.226Z</time></trkpt><trkpt lat="39.203632" lon="8.5926826"><ele>361.0</ele><time>2026-04-18T14:20:06.217Z</time></trkpt><trkpt lat="39.2036042" lon="8.5927753"><ele>361.0</ele><time>2026-04-18T14:20:07.199Z</time></trkpt><trkpt lat="39.2035791" lon="8.5928553"><ele>361.0</ele><time>2026-04-18T14:20:08.228Z</time></trkpt><trkpt lat="39.2035505" lon="8.5929283"><ele>359.0</ele><time>2026-04-18T14:20:09.213Z</time></trkpt><trkpt lat="39.2035146" lon="8.5930087"><ele>357.0</ele><time>2026-04-18T14:20:10.213Z</time></trkpt><trkpt lat="39.2034685" lon="8.5930951"><ele>355.0</ele><time>2026-04-18T14:20:11.204Z</time></trkpt><trkpt lat="39.2034091" lon="8.5931914"><ele>353.0</ele><time>2026-04-18T14:20:12.215Z</time></trkpt><trkpt lat="39.2033576" lon="8.5932815"><ele>351.0</ele><time>2026-04-18T14:20:13.205Z</time></trkpt><trkpt lat="39.2033142" lon="8.5933706"><ele>349.0</ele><time>2026-04-18T14:20:14.208Z</time></trkpt><trkpt lat="39.2032739" lon="8.5934618"><ele>348.99999999999994</ele><time>2026-04-18T14:20:15.215Z</time></trkpt><trkpt lat="39.2032306" lon="8.5935399"><ele>349.0</ele><time>2026-04-18T14:20:16.2Z</time></trkpt><trkpt lat="39.2031837" lon="8.5936075"><ele>349.0</ele><time>2026-04-18T14:20:17.222Z</time></trkpt><trkpt lat="39.2031367" lon="8.5936692"><ele>349.0</ele><time>2026-04-18T14:20:18.211Z</time></trkpt><trkpt lat="39.2030864" lon="8.5937264"><ele>349.0</ele><time>2026-04-18T14:20:19.22Z</time></trkpt><trkpt lat="39.203033" lon="8.5937802"><ele>348.99999999999994</ele><time>2026-04-18T14:20:20.221Z</time></trkpt><trkpt lat="39.202981" lon="8.5938423"><ele>349.0</ele><time>2026-04-18T14:20:21.217Z</time></trkpt><trkpt lat="39.2029381" lon="8.5939048"><ele>347.6</ele><time>2026-04-18T14:20:22.211Z</time></trkpt><trkpt lat="39.202899" lon="8.5939755"><ele>346.2</ele><time>2026-04-18T14:20:23.216Z</time></trkpt><trkpt lat="39.2028415" lon="8.5941087"><ele>344.8</ele><time>2026-04-18T14:20:25.228Z</time></trkpt><trkpt lat="39.2027612" lon="8.594208"><ele>343.40000000000003</ele><time>2026-04-18T14:20:27.213Z</time></trkpt><trkpt lat="39.2027062" lon="8.5943112"><ele>342.0</ele><time>2026-04-18T14:20:29.21Z</time></trkpt><trkpt lat="39.2027182" lon="8.5944608"><ele>340.8</ele><time>2026-04-18T14:20:31.233Z</time></trkpt><trkpt lat="39.2027113" lon="8.5946083"><ele>339.6</ele><time>2026-04-18T14:20:33.233Z</time></trkpt><trkpt lat="39.2026804" lon="8.5946962"><ele>338.40000000000003</ele><time>2026-04-18T14:20:34.197Z</time></trkpt><trkpt lat="39.2026506" lon="8.5947836"><ele>337.20000000000005</ele><time>2026-04-18T14:20:35.232Z</time></trkpt><trkpt lat="39.2026221" lon="8.5948615"><ele>336.0</ele><time>2026-04-18T14:20:36.232Z</time></trkpt><trkpt lat="39.2025779" lon="8.5950124"><ele>336.0</ele><time>2026-04-18T14:20:38.222Z</time></trkpt><trkpt lat="39.2025212" lon="8.5951364"><ele>336.0</ele><time>2026-04-18T14:20:40.202Z</time></trkpt><trkpt lat="39.2024893" lon="8.5952666"><ele>336.0</ele><time>2026-04-18T14:20:42.216Z</time></trkpt><trkpt lat="39.2024587" lon="8.5954073"><ele>336.0</ele><time>2026-04-18T14:20:44.209Z</time></trkpt><trkpt lat="39.2024133" lon="8.5955538"><ele>334.8333333333333</ele><time>2026-04-18T14:20:46.205Z</time></trkpt><trkpt lat="39.2024061" lon="8.5956385"><ele>333.6666666666667</ele><time>2026-04-18T14:20:47.211Z</time></trkpt><trkpt lat="39.202404" lon="8.5957273"><ele>332.5</ele><time>2026-04-18T14:20:48.2Z</time></trkpt><trkpt lat="39.2024012" lon="8.59582"><ele>331.33333333333337</ele><time>2026-04-18T14:20:49.218Z</time></trkpt><trkpt lat="39.2023833" lon="8.5959736"><ele>330.1666666666667</ele><time>2026-04-18T14:20:51.218Z</time></trkpt><trkpt lat="39.2023726" lon="8.5960539"><ele>329.0</ele><time>2026-04-18T14:20:52.218Z</time></trkpt><trkpt lat="39.2023656" lon="8.5961372"><ele>327.4</ele><time>2026-04-18T14:20:53.228Z</time></trkpt><trkpt lat="39.202364" lon="8.5962308"><ele>325.79999999999995</ele><time>2026-04-18T14:20:54.205Z</time></trkpt><trkpt lat="39.2023644" lon="8.5963701"><ele>324.20000000000005</ele><time>2026-04-18T14:20:56.213Z</time></trkpt><trkpt lat="39.2023276" lon="8.5965369"><ele>322.6</ele><time>2026-04-18T14:20:58.211Z</time></trkpt><trkpt lat="39.2022835" lon="8.5966285"><ele>321.0</ele><time>2026-04-18T14:20:59.221Z</time></trkpt><trkpt lat="39.2022484" lon="8.5967001"><ele>321.0</ele><time>2026-04-18T14:21:00.203Z</time></trkpt><trkpt lat="39.2022271" lon="8.5967872"><ele>321.0</ele><time>2026-04-18T14:21:02.211Z</time></trkpt><trkpt lat="39.2022504" lon="8.5968827"><ele>321.0</ele><time>2026-04-18T14:21:05.209Z</time></trkpt><trkpt lat="39.2022976" lon="8.5969665"><ele>321.0</ele><time>2026-04-18T14:21:08.204Z</time></trkpt><trkpt lat="39.2023287" lon="8.5970403"><ele>321.0</ele><time>2026-04-18T14:21:10.221Z</time></trkpt><trkpt lat="39.2023843" lon="8.5971068"><ele>321.0</ele><time>2026-04-18T14:21:13.206Z</time></trkpt><trkpt lat="39.2024638" lon="8.5971592"><ele>320.5</ele><time>2026-04-18T14:21:16.209Z</time></trkpt><trkpt lat="39.202546" lon="8.5972163"><ele>320.0</ele><time>2026-04-18T14:21:18.225Z</time></trkpt><trkpt lat="39.2026135" lon="8.5972546"><ele>319.5</ele><time>2026-04-18T14:21:20.233Z</time></trkpt><trkpt lat="39.2026905" lon="8.597322"><ele>319.0</ele><time>2026-04-18T14:21:23.214Z</time></trkpt><trkpt lat="39.2027541" lon="8.5973742"><ele>318.5</ele><time>2026-04-18T14:21:25.217Z</time></trkpt><trkpt lat="39.2028208" lon="8.5974135"><ele>318.0</ele><time>2026-04-18T14:21:27.221Z</time></trkpt><trkpt lat="39.2028821" lon="8.5974322"><ele>318.0</ele><time>2026-04-18T14:21:29.218Z</time></trkpt><trkpt lat="39.2029872" lon="8.5975008"><ele>318.0</ele><time>2026-04-18T14:21:31.203Z</time></trkpt><trkpt lat="39.2030376" lon="8.5975508"><ele>318.0</ele><time>2026-04-18T14:21:32.214Z</time></trkpt><trkpt lat="39.2031255" lon="8.5975916"><ele>318.0</ele><time>2026-04-18T14:21:34.201Z</time></trkpt><trkpt lat="39.2031884" lon="8.5976373"><ele>318.0</ele><time>2026-04-18T14:21:36.234Z</time></trkpt><trkpt lat="39.2032497" lon="8.5976723"><ele>318.0</ele><time>2026-04-18T14:21:37.214Z</time></trkpt><trkpt lat="39.2033595" lon="8.5977182"><ele>318.1666666666667</ele><time>2026-04-18T14:21:39.23Z</time></trkpt><trkpt lat="39.203451" lon="8.5977535"><ele>318.3333333333333</ele><time>2026-04-18T14:21:41.233Z</time></trkpt><trkpt lat="39.2035045" lon="8.5978125"><ele>318.5</ele><time>2026-04-18T14:21:43.192Z</time></trkpt><trkpt lat="39.2034875" lon="8.5978992"><ele>318.66666666666663</ele><time>2026-04-18T14:22:57.208Z</time></trkpt><trkpt lat="39.2034916" lon="8.5980102"><ele>318.8333333333333</ele><time>2026-04-18T14:22:59.219Z</time></trkpt><trkpt lat="39.2035117" lon="8.5980935"><ele>319.0</ele><time>2026-04-18T14:23:00.206Z</time></trkpt><trkpt lat="39.2035409" lon="8.5981968"><ele>318.42857142857144</ele><time>2026-04-18T14:23:01.214Z</time></trkpt><trkpt lat="39.2035591" lon="8.598284"><ele>317.85714285714283</ele><time>2026-04-18T14:23:02.213Z</time></trkpt><trkpt lat="39.2035813" lon="8.5983619"><ele>317.2857142857143</ele><time>2026-04-18T14:23:03.21Z</time></trkpt><trkpt lat="39.2036044" lon="8.598439"><ele>316.7142857142857</ele><time>2026-04-18T14:23:04.223Z</time></trkpt><trkpt lat="39.2036499" lon="8.5985056"><ele>316.1428571428571</ele><time>2026-04-18T14:23:05.243Z</time></trkpt><trkpt lat="39.2037145" lon="8.5985542"><ele>315.57142857142856</ele><time>2026-04-18T14:23:06.22Z</time></trkpt><trkpt lat="39.203797" lon="8.5986114"><ele>315.0</ele><time>2026-04-18T14:23:07.222Z</time></trkpt><trkpt lat="39.2038822" lon="8.5986788"><ele>315.6666666666667</ele><time>2026-04-18T14:23:08.215Z</time></trkpt><trkpt lat="39.2039602" lon="8.5987592"><ele>316.3333333333333</ele><time>2026-04-18T14:23:09.205Z</time></trkpt><trkpt lat="39.2040327" lon="8.5988459"><ele>317.0</ele><time>2026-04-18T14:23:10.214Z</time></trkpt><trkpt lat="39.2040891" lon="8.5989197"><ele>317.66666666666663</ele><time>2026-04-18T14:23:11.231Z</time></trkpt><trkpt lat="39.2041343" lon="8.598993"><ele>318.3333333333333</ele><time>2026-04-18T14:23:12.233Z</time></trkpt><trkpt lat="39.2041855" lon="8.599071"><ele>319.0</ele><time>2026-04-18T14:23:13.237Z</time></trkpt><trkpt lat="39.2042523" lon="8.5991324"><ele>319.0</ele><time>2026-04-18T14:23:14.211Z</time></trkpt><trkpt lat="39.2043157" lon="8.5991872"><ele>319.0</ele><time>2026-04-18T14:23:15.217Z</time></trkpt><trkpt lat="39.20437" lon="8.5992489"><ele>319.0</ele><time>2026-04-18T14:23:16.224Z</time></trkpt><trkpt lat="39.2044086" lon="8.5993596"><ele>319.0</ele><time>2026-04-18T14:23:18.221Z</time></trkpt><trkpt lat="39.2043577" lon="8.5994156"><ele>319.0</ele><time>2026-04-18T14:23:21.218Z</time></trkpt><trkpt lat="39.204295" lon="8.5994903"><ele>319.0</ele><time>2026-04-18T14:23:23.223Z</time></trkpt><trkpt lat="39.2042253" lon="8.5995053"><ele>321.79999999999995</ele><time>2026-04-18T14:23:24.23Z</time></trkpt><trkpt lat="39.2041396" lon="8.5995284"><ele>324.59999999999997</ele><time>2026-04-18T14:23:25.231Z</time></trkpt><trkpt lat="39.2040303" lon="8.5995426"><ele>327.4</ele><time>2026-04-18T14:23:26.235Z</time></trkpt><trkpt lat="39.2039422" lon="8.5995571"><ele>330.2</ele><time>2026-04-18T14:23:27.246Z</time></trkpt><trkpt lat="39.2038734" lon="8.5995789"><ele>333.0</ele><time>2026-04-18T14:23:28.232Z</time></trkpt><trkpt lat="39.2037921" lon="8.5996773"><ele>333.0</ele><time>2026-04-18T14:23:30.22Z</time></trkpt><trkpt lat="39.2037622" lon="8.5997722"><ele>333.0</ele><time>2026-04-18T14:23:31.218Z</time></trkpt><trkpt lat="39.2037291" lon="8.5998865"><ele>333.0</ele><time>2026-04-18T14:23:32.241Z</time></trkpt><trkpt lat="39.2036988" lon="8.5999793"><ele>333.0</ele><time>2026-04-18T14:23:33.232Z</time></trkpt><trkpt lat="39.2036159" lon="8.6000533"><ele>333.0</ele><time>2026-04-18T14:23:35.221Z</time></trkpt><trkpt lat="39.2034963" lon="8.5999942"><ele>333.0</ele><time>2026-04-18T14:23:37.225Z</time></trkpt><trkpt lat="39.203418" lon="8.5999513"><ele>333.0</ele><time>2026-04-18T14:23:38.223Z</time></trkpt><trkpt lat="39.2033462" lon="8.599914"><ele>333.0</ele><time>2026-04-18T14:23:39.26Z</time></trkpt><trkpt lat="39.2032686" lon="8.5998986"><ele>333.0</ele><time>2026-04-18T14:23:40.237Z</time></trkpt><trkpt lat="39.2031837" lon="8.5998909"><ele>333.0</ele><time>2026-04-18T14:23:41.222Z</time></trkpt><trkpt lat="39.2031076" lon="8.5998983"><ele>333.0</ele><time>2026-04-18T14:23:42.236Z</time></trkpt><trkpt lat="39.2030262" lon="8.5999108"><ele>333.8333333333333</ele><time>2026-04-18T14:23:43.22Z</time></trkpt><trkpt lat="39.2029374" lon="8.5999277"><ele>334.6666666666667</ele><time>2026-04-18T14:23:44.194Z</time></trkpt><trkpt lat="39.2028601" lon="8.5999352"><ele>335.5</ele><time>2026-04-18T14:23:45.223Z</time></trkpt><trkpt lat="39.2027957" lon="8.5999259"><ele>336.33333333333337</ele><time>2026-04-18T14:23:47.223Z</time></trkpt><trkpt lat="39.2027082" lon="8.5999505"><ele>337.1666666666667</ele><time>2026-04-18T14:26:08.224Z</time></trkpt><trkpt lat="39.2026471" lon="8.6000054"><ele>338.0</ele><time>2026-04-18T14:26:10.224Z</time></trkpt><trkpt lat="39.2025769" lon="8.6000728"><ele>338.0</ele><time>2026-04-18T14:26:12.228Z</time></trkpt><trkpt lat="39.2025043" lon="8.6001329"><ele>338.0</ele><time>2026-04-18T14:26:14.219Z</time></trkpt><trkpt lat="39.2024454" lon="8.600219"><ele>338.0</ele><time>2026-04-18T14:26:16.228Z</time></trkpt><trkpt lat="39.2024045" lon="8.6003288"><ele>338.0</ele><time>2026-04-18T14:26:18.23Z</time></trkpt><trkpt lat="39.2023563" lon="8.6004689"><ele>338.0</ele><time>2026-04-18T14:26:20.228Z</time></trkpt><trkpt lat="39.2023286" lon="8.6005439"><ele>336.5</ele><time>2026-04-18T14:26:21.213Z</time></trkpt><trkpt lat="39.2022987" lon="8.6006831"><ele>335.0</ele><time>2026-04-18T14:26:23.218Z</time></trkpt><trkpt lat="39.2022944" lon="8.6007853"><ele>333.5</ele><time>2026-04-18T14:26:25.211Z</time></trkpt><trkpt lat="39.2023061" lon="8.6008827"><ele>332.0</ele><time>2026-04-18T14:26:27.215Z</time></trkpt><trkpt lat="39.2023227" lon="8.6009899"><ele>330.5</ele><time>2026-04-18T14:26:30.226Z</time></trkpt><trkpt lat="39.2023077" lon="8.6010691"><ele>329.0</ele><time>2026-04-18T14:26:32.208Z</time></trkpt><trkpt lat="39.2022419" lon="8.601122"><ele>325.0</ele><time>2026-04-18T14:26:34.23Z</time></trkpt><trkpt lat="39.2021595" lon="8.6011714"><ele>321.0</ele><time>2026-04-18T14:26:36.214Z</time></trkpt><trkpt lat="39.2020633" lon="8.6012352"><ele>317.0</ele><time>2026-04-18T14:26:38.211Z</time></trkpt><trkpt lat="39.2019809" lon="8.6013214"><ele>313.0</ele><time>2026-04-18T14:26:40.197Z</time></trkpt><trkpt lat="39.2019374" lon="8.601389"><ele>309.0</ele><time>2026-04-18T14:26:41.211Z</time></trkpt><trkpt lat="39.2018563" lon="8.6015097"><ele>309.0</ele><time>2026-04-18T14:26:43.214Z</time></trkpt><trkpt lat="39.2017607" lon="8.6016092"><ele>309.0</ele><time>2026-04-18T14:26:45.217Z</time></trkpt><trkpt lat="39.2017128" lon="8.6016649"><ele>309.0</ele><time>2026-04-18T14:26:46.211Z</time></trkpt><trkpt lat="39.2016619" lon="8.6017301"><ele>309.0</ele><time>2026-04-18T14:26:47.22Z</time></trkpt><trkpt lat="39.2016156" lon="8.6017956"><ele>309.0</ele><time>2026-04-18T14:26:48.227Z</time></trkpt><trkpt lat="39.2015187" lon="8.6018964"><ele>308.4</ele><time>2026-04-18T14:26:50.218Z</time></trkpt><trkpt lat="39.2014257" lon="8.6019937"><ele>307.79999999999995</ele><time>2026-04-18T14:26:52.217Z</time></trkpt><trkpt lat="39.2013662" lon="8.6020681"><ele>307.20000000000005</ele><time>2026-04-18T14:26:53.212Z</time></trkpt><trkpt lat="39.2013138" lon="8.6021455"><ele>306.6</ele><time>2026-04-18T14:26:54.238Z</time></trkpt><trkpt lat="39.2012585" lon="8.6022359"><ele>306.0</ele><time>2026-04-18T14:26:55.236Z</time></trkpt><trkpt lat="39.201203" lon="8.6023422"><ele>306.0</ele><time>2026-04-18T14:26:56.222Z</time></trkpt><trkpt lat="39.2011266" lon="8.6024508"><ele>306.0</ele><time>2026-04-18T14:26:57.212Z</time></trkpt><trkpt lat="39.201064" lon="8.6025616"><ele>306.0</ele><time>2026-04-18T14:26:58.224Z</time></trkpt><trkpt lat="39.2010076" lon="8.6026501"><ele>306.0</ele><time>2026-04-18T14:26:59.224Z</time></trkpt><trkpt lat="39.2009613" lon="8.6027227"><ele>306.0</ele><time>2026-04-18T14:27:00.233Z</time></trkpt><trkpt lat="39.2009299" lon="8.6028003"><ele>306.0</ele><time>2026-04-18T14:27:01.228Z</time></trkpt><trkpt lat="39.200905" lon="8.602891"><ele>306.3333333333333</ele><time>2026-04-18T14:27:02.226Z</time></trkpt><trkpt lat="39.2008678" lon="8.6029896"><ele>306.6666666666667</ele><time>2026-04-18T14:27:03.232Z</time></trkpt><trkpt lat="39.2008241" lon="8.6030863"><ele>307.0</ele><time>2026-04-18T14:27:04.221Z</time></trkpt><trkpt lat="39.2007706" lon="8.6031636"><ele>307.33333333333337</ele><time>2026-04-18T14:27:05.222Z</time></trkpt><trkpt lat="39.2007079" lon="8.6032273"><ele>307.6666666666667</ele><time>2026-04-18T14:27:06.218Z</time></trkpt><trkpt lat="39.2006501" lon="8.6032884"><ele>308.0</ele><time>2026-04-18T14:27:07.218Z</time></trkpt><trkpt lat="39.2006015" lon="8.6033534"><ele>308.0</ele><time>2026-04-18T14:27:08.214Z</time></trkpt><trkpt lat="39.2005534" lon="8.6034169"><ele>308.0</ele><time>2026-04-18T14:27:09.21Z</time></trkpt><trkpt lat="39.200464" lon="8.6035394"><ele>308.0</ele><time>2026-04-18T14:27:11.213Z</time></trkpt><trkpt lat="39.2004251" lon="8.603606"><ele>308.0</ele><time>2026-04-18T14:27:12.219Z</time></trkpt><trkpt lat="39.2004006" lon="8.603758"><ele>308.0</ele><time>2026-04-18T14:27:14.222Z</time></trkpt><trkpt lat="39.2003601" lon="8.6038914"><ele>304.6</ele><time>2026-04-18T14:27:16.22Z</time></trkpt><trkpt lat="39.2003139" lon="8.6039852"><ele>301.20000000000005</ele><time>2026-04-18T14:27:17.215Z</time></trkpt><trkpt lat="39.2002511" lon="8.6041125"><ele>297.8</ele><time>2026-04-18T14:27:18.212Z</time></trkpt><trkpt lat="39.2001841" lon="8.6042374"><ele>294.40000000000003</ele><time>2026-04-18T14:27:19.214Z</time></trkpt><trkpt lat="39.2001169" lon="8.6043467"><ele>291.0</ele><time>2026-04-18T14:27:20.227Z</time></trkpt><trkpt lat="39.2000489" lon="8.6044554"><ele>291.0</ele><time>2026-04-18T14:27:21.202Z</time></trkpt><trkpt lat="39.199973" lon="8.6045576"><ele>291.0</ele><time>2026-04-18T14:27:22.209Z</time></trkpt><trkpt lat="39.1998854" lon="8.6046657"><ele>291.0</ele><time>2026-04-18T14:27:23.217Z</time></trkpt><trkpt lat="39.1997938" lon="8.604762"><ele>291.0</ele><time>2026-04-18T14:27:24.219Z</time></trkpt><trkpt lat="39.1997075" lon="8.6048529"><ele>290.5</ele><time>2026-04-18T14:27:25.209Z</time></trkpt><trkpt lat="39.199629" lon="8.6049419"><ele>290.0</ele><time>2026-04-18T14:27:26.214Z</time></trkpt><trkpt lat="39.1995474" lon="8.6050538"><ele>289.5</ele><time>2026-04-18T14:27:27.218Z</time></trkpt><trkpt lat="39.1994709" lon="8.6051918"><ele>289.0</ele><time>2026-04-18T14:27:28.215Z</time></trkpt><trkpt lat="39.199397" lon="8.6053401"><ele>289.0</ele><time>2026-04-18T14:27:29.203Z</time></trkpt><trkpt lat="39.199339" lon="8.60548"><ele>289.0</ele><time>2026-04-18T14:27:30.227Z</time></trkpt><trkpt lat="39.1992846" lon="8.6056146"><ele>289.0</ele><time>2026-04-18T14:27:31.216Z</time></trkpt><trkpt lat="39.1992434" lon="8.6057562"><ele>289.0</ele><time>2026-04-18T14:27:32.215Z</time></trkpt><trkpt lat="39.1992045" lon="8.6059005"><ele>289.0</ele><time>2026-04-18T14:27:33.211Z</time></trkpt><trkpt lat="39.1991744" lon="8.6060471"><ele>289.0</ele><time>2026-04-18T14:27:34.221Z</time></trkpt><trkpt lat="39.1991344" lon="8.6061816"><ele>289.0</ele><time>2026-04-18T14:27:35.223Z</time></trkpt><trkpt lat="39.1990828" lon="8.6062886"><ele>289.0</ele><time>2026-04-18T14:27:36.207Z</time></trkpt><trkpt lat="39.1990338" lon="8.6063916"><ele>289.0</ele><time>2026-04-18T14:27:37.223Z</time></trkpt><trkpt lat="39.1989768" lon="8.6064777"><ele>289.0</ele><time>2026-04-18T14:27:38.203Z</time></trkpt><trkpt lat="39.1989032" lon="8.6065438"><ele>289.0</ele><time>2026-04-18T14:27:39.232Z</time></trkpt><trkpt lat="39.1988131" lon="8.6066373"><ele>289.0</ele><time>2026-04-18T14:27:40.215Z</time></trkpt><trkpt lat="39.1987223" lon="8.6067362"><ele>289.0</ele><time>2026-04-18T14:27:41.212Z</time></trkpt><trkpt lat="39.1986303" lon="8.6068364"><ele>289.0</ele><time>2026-04-18T14:27:42.225Z</time></trkpt><trkpt lat="39.1985365" lon="8.6069292"><ele>288.5</ele><time>2026-04-18T14:27:43.213Z</time></trkpt><trkpt lat="39.1984315" lon="8.6070124"><ele>288.0</ele><time>2026-04-18T14:27:44.213Z</time></trkpt><trkpt lat="39.1983181" lon="8.6070822"><ele>287.5</ele><time>2026-04-18T14:27:45.222Z</time></trkpt><trkpt lat="39.1982107" lon="8.607141"><ele>287.0</ele><time>2026-04-18T14:27:46.232Z</time></trkpt><trkpt lat="39.1981051" lon="8.6071998"><ele>286.8</ele><time>2026-04-18T14:27:47.202Z</time></trkpt><trkpt lat="39.198006" lon="8.6072593"><ele>286.6</ele><time>2026-04-18T14:27:48.224Z</time></trkpt><trkpt lat="39.1979193" lon="8.6073122"><ele>286.40000000000003</ele><time>2026-04-18T14:27:49.211Z</time></trkpt><trkpt lat="39.197833" lon="8.6073727"><ele>286.2</ele><time>2026-04-18T14:27:50.221Z</time></trkpt><trkpt lat="39.1977439" lon="8.6074322"><ele>286.0</ele><time>2026-04-18T14:27:51.205Z</time></trkpt><trkpt lat="39.1976665" lon="8.6074863"><ele>286.0</ele><time>2026-04-18T14:27:52.231Z</time></trkpt><trkpt lat="39.1975962" lon="8.6075445"><ele>286.0</ele><time>2026-04-18T14:27:53.222Z</time></trkpt><trkpt lat="39.1975415" lon="8.6076112"><ele>286.0</ele><time>2026-04-18T14:27:54.217Z</time></trkpt><trkpt lat="39.1974883" lon="8.6077213"><ele>286.0</ele><time>2026-04-18T14:27:55.216Z</time></trkpt><trkpt lat="39.1974306" lon="8.6078546"><ele>286.0</ele><time>2026-04-18T14:27:56.221Z</time></trkpt><trkpt lat="39.1973719" lon="8.6079854"><ele>287.0</ele><time>2026-04-18T14:27:57.219Z</time></trkpt><trkpt lat="39.1973184" lon="8.6080973"><ele>288.0</ele><time>2026-04-18T14:27:58.224Z</time></trkpt><trkpt lat="39.1972692" lon="8.6081989"><ele>289.0</ele><time>2026-04-18T14:27:59.213Z</time></trkpt><trkpt lat="39.1972213" lon="8.6082725"><ele>290.0</ele><time>2026-04-18T14:28:00.221Z</time></trkpt><trkpt lat="39.1971529" lon="8.6083258"><ele>291.0</ele><time>2026-04-18T14:28:01.204Z</time></trkpt><trkpt lat="39.1970803" lon="8.6083686"><ele>292.0</ele><time>2026-04-18T14:28:02.227Z</time></trkpt><trkpt lat="39.1970032" lon="8.6084124"><ele>292.0</ele><time>2026-04-18T14:28:03.215Z</time></trkpt><trkpt lat="39.196925" lon="8.6084836"><ele>292.0</ele><time>2026-04-18T14:28:04.205Z</time></trkpt><trkpt lat="39.1968451" lon="8.6085764"><ele>292.0</ele><time>2026-04-18T14:28:05.218Z</time></trkpt><trkpt lat="39.1967649" lon="8.6086886"><ele>292.0</ele><time>2026-04-18T14:28:06.214Z</time></trkpt><trkpt lat="39.1966875" lon="8.60877"><ele>292.0</ele><time>2026-04-18T14:28:07.209Z</time></trkpt><trkpt lat="39.1966273" lon="8.6088379"><ele>290.66666666666663</ele><time>2026-04-18T14:28:08.226Z</time></trkpt><trkpt lat="39.1965414" lon="8.6089651"><ele>289.3333333333333</ele><time>2026-04-18T14:28:10.235Z</time></trkpt><trkpt lat="39.1964997" lon="8.6090403"><ele>288.0</ele><time>2026-04-18T14:28:11.225Z</time></trkpt><trkpt lat="39.1964535" lon="8.6091218"><ele>286.6666666666667</ele><time>2026-04-18T14:28:12.211Z</time></trkpt><trkpt lat="39.1964066" lon="8.6092079"><ele>285.33333333333337</ele><time>2026-04-18T14:28:13.215Z</time></trkpt><trkpt lat="39.1963491" lon="8.6092821"><ele>284.0</ele><time>2026-04-18T14:28:14.215Z</time></trkpt><trkpt lat="39.1962842" lon="8.6093589"><ele>286.4</ele><time>2026-04-18T14:28:15.22Z</time></trkpt><trkpt lat="39.196211" lon="8.6094408"><ele>288.79999999999995</ele><time>2026-04-18T14:28:16.238Z</time></trkpt><trkpt lat="39.1961305" lon="8.6095242"><ele>291.20000000000005</ele><time>2026-04-18T14:28:17.231Z</time></trkpt><trkpt lat="39.1960434" lon="8.6096118"><ele>293.6</ele><time>2026-04-18T14:28:18.209Z</time></trkpt><trkpt lat="39.1959522" lon="8.609697"><ele>296.0</ele><time>2026-04-18T14:28:19.223Z</time></trkpt><trkpt lat="39.1958797" lon="8.609771"><ele>296.0</ele><time>2026-04-18T14:28:20.21Z</time></trkpt><trkpt lat="39.1958338" lon="8.6098384"><ele>296.0</ele><time>2026-04-18T14:28:21.214Z</time></trkpt><trkpt lat="39.1957676" lon="8.6099426"><ele>296.0</ele><time>2026-04-18T14:28:23.217Z</time></trkpt><trkpt lat="39.1957288" lon="8.6100152"><ele>296.0</ele><time>2026-04-18T14:29:42.213Z</time></trkpt><trkpt lat="39.19569" lon="8.6101638"><ele>296.0</ele><time>2026-04-18T14:29:44.233Z</time></trkpt><trkpt lat="39.1956627" lon="8.610301"><ele>295.0</ele><time>2026-04-18T14:29:46.215Z</time></trkpt><trkpt lat="39.1956327" lon="8.6103835"><ele>294.0</ele><time>2026-04-18T14:29:47.245Z</time></trkpt><trkpt lat="39.1955999" lon="8.6104588"><ele>293.0</ele><time>2026-04-18T14:29:48.235Z</time></trkpt><trkpt lat="39.1955134" lon="8.610574"><ele>292.0</ele><time>2026-04-18T14:29:50.227Z</time></trkpt><trkpt lat="39.1954593" lon="8.61062"><ele>291.0</ele><time>2026-04-18T14:29:51.216Z</time></trkpt><trkpt lat="39.1953975" lon="8.6106498"><ele>290.0</ele><time>2026-04-18T14:29:52.242Z</time></trkpt><trkpt lat="39.1953227" lon="8.6106558"><ele>290.0</ele><time>2026-04-18T14:29:53.207Z</time></trkpt><trkpt lat="39.1952348" lon="8.6106498"><ele>290.0</ele><time>2026-04-18T14:29:54.223Z</time></trkpt><trkpt lat="39.1951556" lon="8.6106358"><ele>290.0</ele><time>2026-04-18T14:29:55.205Z</time></trkpt><trkpt lat="39.1950876" lon="8.6106222"><ele>290.0</ele><time>2026-04-18T14:29:56.213Z</time></trkpt><trkpt lat="39.1950179" lon="8.610613"><ele>290.0</ele><time>2026-04-18T14:29:57.224Z</time></trkpt><trkpt lat="39.1949537" lon="8.6106058"><ele>290.0</ele><time>2026-04-18T14:29:58.208Z</time></trkpt><trkpt lat="39.1948312" lon="8.6106323"><ele>286.42857142857144</ele><time>2026-04-18T14:30:00.211Z</time></trkpt><trkpt lat="39.1947678" lon="8.6106559"><ele>282.8571428571429</ele><time>2026-04-18T14:30:01.219Z</time></trkpt><trkpt lat="39.1947102" lon="8.6106943"><ele>279.2857142857143</ele><time>2026-04-18T14:30:02.227Z</time></trkpt><trkpt lat="39.1946622" lon="8.6107486"><ele>275.7142857142857</ele><time>2026-04-18T14:30:03.218Z</time></trkpt><trkpt lat="39.1945942" lon="8.6108629"><ele>272.1428571428571</ele><time>2026-04-18T14:30:05.209Z</time></trkpt><trkpt lat="39.194537" lon="8.6109052"><ele>268.57142857142856</ele><time>2026-04-18T14:30:06.228Z</time></trkpt><trkpt lat="39.1944672" lon="8.6109324"><ele>265.0</ele><time>2026-04-18T14:30:07.211Z</time></trkpt><trkpt lat="39.1943943" lon="8.6109563"><ele>265.0</ele><time>2026-04-18T14:30:08.227Z</time></trkpt><trkpt lat="39.1943175" lon="8.6109744"><ele>265.0</ele><time>2026-04-18T14:30:09.189Z</time></trkpt><trkpt lat="39.1942528" lon="8.6110114"><ele>265.0</ele><time>2026-04-18T14:30:10.221Z</time></trkpt><trkpt lat="39.1942054" lon="8.6111175"><ele>265.0</ele><time>2026-04-18T14:30:12.21Z</time></trkpt><trkpt lat="39.1942134" lon="8.6112437"><ele>265.0</ele><time>2026-04-18T14:30:14.204Z</time></trkpt><trkpt lat="39.1941606" lon="8.6113861"><ele>266.3333333333333</ele><time>2026-04-18T14:30:16.22Z</time></trkpt><trkpt lat="39.1941024" lon="8.6114302"><ele>267.66666666666663</ele><time>2026-04-18T14:30:17.219Z</time></trkpt><trkpt lat="39.1940311" lon="8.611477"><ele>269.0</ele><time>2026-04-18T14:30:18.214Z</time></trkpt><trkpt lat="39.1939538" lon="8.611507"><ele>270.3333333333333</ele><time>2026-04-18T14:30:19.223Z</time></trkpt><trkpt lat="39.19387" lon="8.6115262"><ele>271.6666666666667</ele><time>2026-04-18T14:30:20.222Z</time></trkpt><trkpt lat="39.1937993" lon="8.6115327"><ele>273.0</ele><time>2026-04-18T14:30:21.226Z</time></trkpt><trkpt lat="39.1937341" lon="8.6115423"><ele>268.3333333333333</ele><time>2026-04-18T14:30:22.226Z</time></trkpt><trkpt lat="39.1936282" lon="8.611554"><ele>263.6666666666667</ele><time>2026-04-18T14:30:24.208Z</time></trkpt><trkpt lat="39.193574" lon="8.6116106"><ele>259.0</ele><time>2026-04-18T14:30:26.219Z</time></trkpt><trkpt lat="39.193614" lon="8.6117306"><ele>254.33333333333334</ele><time>2026-04-18T14:30:29.209Z</time></trkpt><trkpt lat="39.193667" lon="8.6118041"><ele>249.66666666666669</ele><time>2026-04-18T14:30:30.207Z</time></trkpt><trkpt lat="39.1937245" lon="8.6118686"><ele>245.0</ele><time>2026-04-18T14:30:31.208Z</time></trkpt><trkpt lat="39.1937892" lon="8.611936"><ele>245.33333333333334</ele><time>2026-04-18T14:30:32.229Z</time></trkpt><trkpt lat="39.1938549" lon="8.6120088"><ele>245.66666666666669</ele><time>2026-04-18T14:30:33.198Z</time></trkpt><trkpt lat="39.1939194" lon="8.6120789"><ele>246.0</ele><time>2026-04-18T14:30:34.213Z</time></trkpt><trkpt lat="39.1939812" lon="8.6121533"><ele>246.33333333333331</ele><time>2026-04-18T14:30:35.219Z</time></trkpt><trkpt lat="39.1940347" lon="8.6122286"><ele>246.66666666666666</ele><time>2026-04-18T14:30:36.211Z</time></trkpt><trkpt lat="39.1940733" lon="8.61231"><ele>247.0</ele><time>2026-04-18T14:30:37.219Z</time></trkpt><trkpt lat="39.1941017" lon="8.6123859"><ele>247.0</ele><time>2026-04-18T14:30:38.208Z</time></trkpt><trkpt lat="39.1941289" lon="8.6124846"><ele>247.0</ele><time>2026-04-18T14:30:40.22Z</time></trkpt><trkpt lat="39.194069" lon="8.6125142"><ele>247.0</ele><time>2026-04-18T14:30:58.215Z</time></trkpt><trkpt lat="39.1940257" lon="8.6124315"><ele>247.0</ele><time>2026-04-18T14:31:00.217Z</time></trkpt><trkpt lat="39.1939822" lon="8.6123654"><ele>247.0</ele><time>2026-04-18T14:31:01.209Z</time></trkpt><trkpt lat="39.193926" lon="8.6122872"><ele>247.0</ele><time>2026-04-18T14:31:02.208Z</time></trkpt><trkpt lat="39.193873" lon="8.6122191"><ele>247.0</ele><time>2026-04-18T14:31:03.216Z</time></trkpt><trkpt lat="39.1938176" lon="8.6121588"><ele>247.0</ele><time>2026-04-18T14:31:04.194Z</time></trkpt><trkpt lat="39.1937606" lon="8.6120942"><ele>247.0</ele><time>2026-04-18T14:31:05.203Z</time></trkpt><trkpt lat="39.1937055" lon="8.6120417"><ele>247.0</ele><time>2026-04-18T14:31:06.199Z</time></trkpt><trkpt lat="39.193641" lon="8.6120042"><ele>247.0</ele><time>2026-04-18T14:31:07.193Z</time></trkpt><trkpt lat="39.1935717" lon="8.6119774"><ele>247.0</ele><time>2026-04-18T14:31:08.209Z</time></trkpt><trkpt lat="39.1934965" lon="8.6119576"><ele>247.0</ele><time>2026-04-18T14:31:09.224Z</time></trkpt><trkpt lat="39.1934261" lon="8.6119504"><ele>247.0</ele><time>2026-04-18T14:31:10.211Z</time></trkpt><trkpt lat="39.1933468" lon="8.611937"><ele>246.71428571428572</ele><time>2026-04-18T14:31:11.217Z</time></trkpt><trkpt lat="39.1932842" lon="8.6119111"><ele>246.42857142857142</ele><time>2026-04-18T14:31:12.203Z</time></trkpt><trkpt lat="39.1932234" lon="8.6118558"><ele>246.14285714285714</ele><time>2026-04-18T14:31:13.203Z</time></trkpt><trkpt lat="39.1931596" lon="8.611793"><ele>245.85714285714286</ele><time>2026-04-18T14:31:14.208Z</time></trkpt><trkpt lat="39.1931059" lon="8.6117323"><ele>245.57142857142856</ele><time>2026-04-18T14:31:15.212Z</time></trkpt><trkpt lat="39.1930612" lon="8.6116536"><ele>245.28571428571428</ele><time>2026-04-18T14:31:16.228Z</time></trkpt><trkpt lat="39.1930186" lon="8.6115697"><ele>245.0</ele><time>2026-04-18T14:31:17.213Z</time></trkpt><trkpt lat="39.1929793" lon="8.611465"><ele>243.8</ele><time>2026-04-18T14:31:18.214Z</time></trkpt><trkpt lat="39.1929327" lon="8.6113633"><ele>242.6</ele><time>2026-04-18T14:31:19.219Z</time></trkpt><trkpt lat="39.1928885" lon="8.6112847"><ele>241.39999999999998</ele><time>2026-04-18T14:31:20.219Z</time></trkpt><trkpt lat="39.1928432" lon="8.6112225"><ele>240.2</ele><time>2026-04-18T14:31:21.207Z</time></trkpt><trkpt lat="39.192761" lon="8.6111191"><ele>239.0</ele><time>2026-04-18T14:31:23.217Z</time></trkpt><trkpt lat="39.1927253" lon="8.6109832"><ele>238.33333333333334</ele><time>2026-04-18T14:31:25.216Z</time></trkpt><trkpt lat="39.1926869" lon="8.6108484"><ele>237.66666666666669</ele><time>2026-04-18T14:31:27.23Z</time></trkpt><trkpt lat="39.1926583" lon="8.6107368"><ele>237.0</ele><time>2026-04-18T14:31:29.221Z</time></trkpt><trkpt lat="39.1925866" lon="8.6106663"><ele>236.33333333333331</ele><time>2026-04-18T14:31:31.212Z</time></trkpt><trkpt lat="39.1925528" lon="8.6105714"><ele>235.66666666666666</ele><time>2026-04-18T14:31:33.208Z</time></trkpt><trkpt lat="39.1925494" lon="8.6104839"><ele>235.0</ele><time>2026-04-18T14:31:35.213Z</time></trkpt><trkpt lat="39.1925275" lon="8.6104068"><ele>235.0</ele><time>2026-04-18T14:31:37.224Z</time></trkpt><trkpt lat="39.1924225" lon="8.6103387"><ele>235.0</ele><time>2026-04-18T14:31:39.211Z</time></trkpt><trkpt lat="39.1923166" lon="8.6102762"><ele>235.0</ele><time>2026-04-18T14:31:41.205Z</time></trkpt><trkpt lat="39.1921932" lon="8.6102133"><ele>235.0</ele><time>2026-04-18T14:31:43.22Z</time></trkpt><trkpt lat="39.1921339" lon="8.6101767"><ele>235.0</ele><time>2026-04-18T14:31:44.207Z</time></trkpt><trkpt lat="39.1920351" lon="8.6101806"><ele>233.2</ele><time>2026-04-18T14:31:46.199Z</time></trkpt><trkpt lat="39.1919561" lon="8.6102204"><ele>231.4</ele><time>2026-04-18T14:31:49.229Z</time></trkpt><trkpt lat="39.1918923" lon="8.610251"><ele>229.60000000000002</ele><time>2026-04-18T14:31:51.231Z</time></trkpt><trkpt lat="39.1918021" lon="8.6102956"><ele>227.8</ele><time>2026-04-18T14:31:53.199Z</time></trkpt><trkpt lat="39.1916918" lon="8.6103081"><ele>226.0</ele><time>2026-04-18T14:31:55.214Z</time></trkpt><trkpt lat="39.1915819" lon="8.6103585"><ele>225.99999999999997</ele><time>2026-04-18T14:31:57.208Z</time></trkpt><trkpt lat="39.1915266" lon="8.6103985"><ele>226.0</ele><time>2026-04-18T14:31:58.244Z</time></trkpt><trkpt lat="39.1914716" lon="8.6104583"><ele>226.0</ele><time>2026-04-18T14:31:59.211Z</time></trkpt><trkpt lat="39.1914126" lon="8.610518"><ele>226.0</ele><time>2026-04-18T14:32:00.219Z</time></trkpt><trkpt lat="39.1913496" lon="8.6105746"><ele>225.99999999999997</ele><time>2026-04-18T14:32:01.208Z</time></trkpt><trkpt lat="39.1912843" lon="8.6106404"><ele>226.0</ele><time>2026-04-18T14:32:02.211Z</time></trkpt><trkpt lat="39.1912234" lon="8.6107067"><ele>225.60000000000002</ele><time>2026-04-18T14:32:03.21Z</time></trkpt><trkpt lat="39.1911743" lon="8.6107745"><ele>225.20000000000002</ele><time>2026-04-18T14:32:04.214Z</time></trkpt><trkpt lat="39.1911344" lon="8.6108476"><ele>224.79999999999998</ele><time>2026-04-18T14:32:05.203Z</time></trkpt><trkpt lat="39.1910865" lon="8.6110002"><ele>224.39999999999998</ele><time>2026-04-18T14:32:07.212Z</time></trkpt><trkpt lat="39.1910964" lon="8.6111343"><ele>224.0</ele><time>2026-04-18T14:32:09.211Z</time></trkpt><trkpt lat="39.1910523" lon="8.611231"><ele>222.00000000000003</ele><time>2026-04-18T14:32:13.219Z</time></trkpt><trkpt lat="39.1909583" lon="8.6112517"><ele>220.0</ele><time>2026-04-18T14:32:16.211Z</time></trkpt><trkpt lat="39.1908946" lon="8.6112724"><ele>218.0</ele><time>2026-04-18T14:32:19.216Z</time></trkpt><trkpt lat="39.1908255" lon="8.6113056"><ele>216.0</ele><time>2026-04-18T14:32:22.201Z</time></trkpt><trkpt lat="39.1907431" lon="8.6113579"><ele>214.00000000000003</ele><time>2026-04-18T14:32:25.208Z</time></trkpt><trkpt lat="39.1906775" lon="8.611406"><ele>212.0</ele><time>2026-04-18T14:32:27.216Z</time></trkpt><trkpt lat="39.1906002" lon="8.6114537"><ele>212.00000000000003</ele><time>2026-04-18T14:32:29.219Z</time></trkpt><trkpt lat="39.1905328" lon="8.6114758"><ele>212.0</ele><time>2026-04-18T14:32:31.213Z</time></trkpt><trkpt lat="39.1904507" lon="8.6115154"><ele>212.0</ele><time>2026-04-18T14:32:33.223Z</time></trkpt><trkpt lat="39.1903754" lon="8.6115586"><ele>212.0</ele><time>2026-04-18T14:32:34.22Z</time></trkpt><trkpt lat="39.1903186" lon="8.611605"><ele>212.00000000000003</ele><time>2026-04-18T14:32:35.215Z</time></trkpt><trkpt lat="39.1902647" lon="8.6116513"><ele>212.0</ele><time>2026-04-18T14:32:36.213Z</time></trkpt><trkpt lat="39.190167" lon="8.6117558"><ele>212.00000000000003</ele><time>2026-04-18T14:32:38.217Z</time></trkpt><trkpt lat="39.190078" lon="8.6118723"><ele>212.0</ele><time>2026-04-18T14:32:40.204Z</time></trkpt><trkpt lat="39.1900308" lon="8.6119391"><ele>212.0</ele><time>2026-04-18T14:32:41.224Z</time></trkpt><trkpt lat="39.189985" lon="8.6119978"><ele>212.0</ele><time>2026-04-18T14:32:42.201Z</time></trkpt><trkpt lat="39.1899396" lon="8.6120583"><ele>212.00000000000003</ele><time>2026-04-18T14:32:43.201Z</time></trkpt><trkpt lat="39.1898855" lon="8.6121362"><ele>212.0</ele><time>2026-04-18T14:32:44.236Z</time></trkpt><trkpt lat="39.1898036" lon="8.6122608"><ele>212.71428571428572</ele><time>2026-04-18T14:32:46.228Z</time></trkpt><trkpt lat="39.189765" lon="8.6123275"><ele>213.42857142857142</ele><time>2026-04-18T14:32:47.202Z</time></trkpt><trkpt lat="39.1897189" lon="8.6123839"><ele>214.14285714285714</ele><time>2026-04-18T14:32:48.21Z</time></trkpt><trkpt lat="39.1896719" lon="8.6124457"><ele>214.85714285714286</ele><time>2026-04-18T14:32:49.211Z</time></trkpt><trkpt lat="39.1896221" lon="8.6125147"><ele>215.57142857142856</ele><time>2026-04-18T14:32:50.201Z</time></trkpt><trkpt lat="39.189579" lon="8.6125839"><ele>216.28571428571428</ele><time>2026-04-18T14:32:51.211Z</time></trkpt><trkpt lat="39.189541" lon="8.6126604"><ele>217.0</ele><time>2026-04-18T14:32:52.222Z</time></trkpt><trkpt lat="39.1895113" lon="8.6127393"><ele>217.0</ele><time>2026-04-18T14:32:53.225Z</time></trkpt><trkpt lat="39.1894952" lon="8.6128181"><ele>217.0</ele><time>2026-04-18T14:32:54.196Z</time></trkpt><trkpt lat="39.1894693" lon="8.6129015"><ele>217.0</ele><time>2026-04-18T14:32:55.227Z</time></trkpt><trkpt lat="39.1894416" lon="8.6130112"><ele>217.0</ele><time>2026-04-18T14:32:56.207Z</time></trkpt><trkpt lat="39.1894129" lon="8.6131041"><ele>217.0</ele><time>2026-04-18T14:32:57.214Z</time></trkpt><trkpt lat="39.1893932" lon="8.6131878"><ele>217.0</ele><time>2026-04-18T14:32:58.214Z</time></trkpt><trkpt lat="39.1893766" lon="8.613269"><ele>217.0</ele><time>2026-04-18T14:32:59.226Z</time></trkpt><trkpt lat="39.1893742" lon="8.6133593"><ele>214.16666666666666</ele><time>2026-04-18T14:33:00.226Z</time></trkpt><trkpt lat="39.1893721" lon="8.6134411"><ele>211.33333333333331</ele><time>2026-04-18T14:33:01.218Z</time></trkpt><trkpt lat="39.1893573" lon="8.6135248"><ele>208.5</ele><time>2026-04-18T14:33:02.229Z</time></trkpt><trkpt lat="39.1893056" lon="8.61362"><ele>205.66666666666669</ele><time>2026-04-18T14:33:04.23Z</time></trkpt><trkpt lat="39.1892085" lon="8.613656"><ele>202.83333333333334</ele><time>2026-04-18T14:33:06.201Z</time></trkpt><trkpt lat="39.1891052" lon="8.6136958"><ele>200.0</ele><time>2026-04-18T14:33:08.215Z</time></trkpt><trkpt lat="39.1890093" lon="8.6137247"><ele>198.0</ele><time>2026-04-18T14:33:10.206Z</time></trkpt><trkpt lat="39.1889008" lon="8.6137487"><ele>196.0</ele><time>2026-04-18T14:33:12.214Z</time></trkpt><trkpt lat="39.1887736" lon="8.6137544"><ele>194.0</ele><time>2026-04-18T14:33:14.22Z</time></trkpt><trkpt lat="39.1886564" lon="8.613755"><ele>192.0</ele><time>2026-04-18T14:33:16.232Z</time></trkpt><trkpt lat="39.1885318" lon="8.6137752"><ele>192.0</ele><time>2026-04-18T14:33:18.2Z</time></trkpt><trkpt lat="39.1884617" lon="8.6138017"><ele>192.0</ele><time>2026-04-18T14:33:19.214Z</time></trkpt><trkpt lat="39.1883933" lon="8.6138296"><ele>192.0</ele><time>2026-04-18T14:33:20.204Z</time></trkpt><trkpt lat="39.1883284" lon="8.6138509"><ele>192.0</ele><time>2026-04-18T14:33:21.217Z</time></trkpt><trkpt lat="39.1882125" lon="8.6138616"><ele>192.0</ele><time>2026-04-18T14:33:23.22Z</time></trkpt><trkpt lat="39.188109" lon="8.6138173"><ele>192.0</ele><time>2026-04-18T14:33:25.215Z</time></trkpt><trkpt lat="39.1880474" lon="8.6137248"><ele>192.0</ele><time>2026-04-18T14:33:27.222Z</time></trkpt><trkpt lat="39.1879924" lon="8.6136051"><ele>192.0</ele><time>2026-04-18T14:33:29.205Z</time></trkpt><trkpt lat="39.1879264" lon="8.6134773"><ele>192.0</ele><time>2026-04-18T14:33:31.22Z</time></trkpt><trkpt lat="39.1878644" lon="8.6133697"><ele>192.0</ele><time>2026-04-18T14:33:33.224Z</time></trkpt><trkpt lat="39.1878159" lon="8.6132649"><ele>192.0</ele><time>2026-04-18T14:33:35.214Z</time></trkpt><trkpt lat="39.187828" lon="8.6131334"><ele>192.0</ele><time>2026-04-18T14:33:37.219Z</time></trkpt><trkpt lat="39.1878422" lon="8.6129856"><ele>192.0</ele><time>2026-04-18T14:33:39.226Z</time></trkpt><trkpt lat="39.1878502" lon="8.6128892"><ele>192.0</ele><time>2026-04-18T14:33:40.227Z</time></trkpt><trkpt lat="39.1878842" lon="8.612785"><ele>192.0</ele><time>2026-04-18T14:33:41.206Z</time></trkpt><trkpt lat="39.1879092" lon="8.6126941"><ele>192.0</ele><time>2026-04-18T14:33:42.227Z</time></trkpt><trkpt lat="39.1879235" lon="8.6126094"><ele>192.0</ele><time>2026-04-18T14:33:43.255Z</time></trkpt><trkpt lat="39.1879065" lon="8.6125083"><ele>190.66666666666666</ele><time>2026-04-18T14:33:44.209Z</time></trkpt><trkpt lat="39.1878697" lon="8.6124054"><ele>189.33333333333334</ele><time>2026-04-18T14:33:45.234Z</time></trkpt><trkpt lat="39.1878194" lon="8.6123178"><ele>188.0</ele><time>2026-04-18T14:33:46.19Z</time></trkpt><trkpt lat="39.1877644" lon="8.6122568"><ele>186.66666666666669</ele><time>2026-04-18T14:33:47.214Z</time></trkpt><trkpt lat="39.1877062" lon="8.6122153"><ele>185.33333333333334</ele><time>2026-04-18T14:33:48.201Z</time></trkpt><trkpt lat="39.1876418" lon="8.6121665"><ele>184.0</ele><time>2026-04-18T14:33:49.218Z</time></trkpt><trkpt lat="39.187574" lon="8.6121277"><ele>184.0</ele><time>2026-04-18T14:33:50.213Z</time></trkpt><trkpt lat="39.1875021" lon="8.6120985"><ele>184.0</ele><time>2026-04-18T14:33:51.231Z</time></trkpt><trkpt lat="39.1874198" lon="8.6120744"><ele>184.0</ele><time>2026-04-18T14:33:52.203Z</time></trkpt><trkpt lat="39.1873397" lon="8.612043"><ele>184.0</ele><time>2026-04-18T14:33:53.214Z</time></trkpt><trkpt lat="39.1872753" lon="8.6119879"><ele>184.0</ele><time>2026-04-18T14:33:54.21Z</time></trkpt><trkpt lat="39.1872223" lon="8.6119062"><ele>184.0</ele><time>2026-04-18T14:33:55.211Z</time></trkpt><trkpt lat="39.1871816" lon="8.6118378"><ele>183.6</ele><time>2026-04-18T14:33:56.217Z</time></trkpt><trkpt lat="39.1870846" lon="8.6117526"><ele>183.2</ele><time>2026-04-18T14:33:58.217Z</time></trkpt><trkpt lat="39.1869874" lon="8.6117512"><ele>182.79999999999998</ele><time>2026-04-18T14:34:00.212Z</time></trkpt><trkpt lat="39.1868894" lon="8.6117752"><ele>182.39999999999998</ele><time>2026-04-18T14:34:02.216Z</time></trkpt><trkpt lat="39.1868118" lon="8.6116505"><ele>182.0</ele><time>2026-04-18T14:34:04.233Z</time></trkpt><trkpt lat="39.1867565" lon="8.6115522"><ele>182.0</ele><time>2026-04-18T14:34:05.209Z</time></trkpt><trkpt lat="39.1866956" lon="8.6114833"><ele>182.0</ele><time>2026-04-18T14:34:06.218Z</time></trkpt><trkpt lat="39.1866083" lon="8.6114387"><ele>182.0</ele><time>2026-04-18T14:34:07.21Z</time></trkpt><trkpt lat="39.1865065" lon="8.6114156"><ele>182.0</ele><time>2026-04-18T14:34:08.214Z</time></trkpt><trkpt lat="39.1863979" lon="8.6113972"><ele>182.0</ele><time>2026-04-18T14:34:09.202Z</time></trkpt><trkpt lat="39.1862994" lon="8.6114004"><ele>181.0</ele><time>2026-04-18T14:34:10.221Z</time></trkpt><trkpt lat="39.1862112" lon="8.6113927"><ele>180.0</ele><time>2026-04-18T14:34:11.207Z</time></trkpt><trkpt lat="39.1861252" lon="8.6113903"><ele>179.0</ele><time>2026-04-18T14:34:12.209Z</time></trkpt><trkpt lat="39.1860357" lon="8.611405"><ele>178.0</ele><time>2026-04-18T14:34:13.205Z</time></trkpt><trkpt lat="39.1859421" lon="8.6114205"><ele>177.0</ele><time>2026-04-18T14:34:14.205Z</time></trkpt><trkpt lat="39.1858366" lon="8.6114204"><ele>177.0</ele><time>2026-04-18T14:34:15.219Z</time></trkpt><trkpt lat="39.1857324" lon="8.6114098"><ele>177.0</ele><time>2026-04-18T14:34:16.225Z</time></trkpt><trkpt lat="39.1856254" lon="8.6114062"><ele>177.0</ele><time>2026-04-18T14:34:17.209Z</time></trkpt><trkpt lat="39.1855109" lon="8.6114127"><ele>177.0</ele><time>2026-04-18T14:34:18.223Z</time></trkpt><trkpt lat="39.1853931" lon="8.6114185"><ele>177.0</ele><time>2026-04-18T14:34:19.219Z</time></trkpt><trkpt lat="39.18528" lon="8.6114299"><ele>176.2</ele><time>2026-04-18T14:34:20.215Z</time></trkpt><trkpt lat="39.1851808" lon="8.6114515"><ele>175.39999999999998</ele><time>2026-04-18T14:34:21.21Z</time></trkpt><trkpt lat="39.1850874" lon="8.6114697"><ele>174.60000000000002</ele><time>2026-04-18T14:34:22.207Z</time></trkpt><trkpt lat="39.184997" lon="8.6114851"><ele>173.8</ele><time>2026-04-18T14:34:23.192Z</time></trkpt><trkpt lat="39.1848948" lon="8.611502"><ele>173.0</ele><time>2026-04-18T14:34:24.208Z</time></trkpt><trkpt lat="39.1847967" lon="8.6115052"><ele>172.83333333333331</ele><time>2026-04-18T14:34:25.214Z</time></trkpt><trkpt lat="39.1847294" lon="8.6115022"><ele>172.66666666666666</ele><time>2026-04-18T14:34:26.199Z</time></trkpt><trkpt lat="39.184635" lon="8.6114983"><ele>172.5</ele><time>2026-04-18T14:34:28.2Z</time></trkpt><trkpt lat="39.1845731" lon="8.6115303"><ele>172.33333333333334</ele><time>2026-04-18T14:34:30.249Z</time></trkpt><trkpt lat="39.1845006" lon="8.6115603"><ele>172.16666666666669</ele><time>2026-04-18T14:34:32.219Z</time></trkpt><trkpt lat="39.1844174" lon="8.6115868"><ele>172.0</ele><time>2026-04-18T14:34:34.221Z</time></trkpt><trkpt lat="39.1843526" lon="8.6116099"><ele>172.0</ele><time>2026-04-18T14:34:37.221Z</time></trkpt><trkpt lat="39.1842609" lon="8.6116259"><ele>172.0</ele><time>2026-04-18T14:35:55.197Z</time></trkpt><trkpt lat="39.1841882" lon="8.6116472"><ele>172.0</ele><time>2026-04-18T14:35:57.223Z</time></trkpt><trkpt lat="39.1841085" lon="8.6116781"><ele>172.0</ele><time>2026-04-18T14:35:59.209Z</time></trkpt><trkpt lat="39.1840013" lon="8.6117312"><ele>172.0</ele><time>2026-04-18T14:36:01.229Z</time></trkpt><trkpt lat="39.1839386" lon="8.6117631"><ele>172.0</ele><time>2026-04-18T14:36:02.22Z</time></trkpt><trkpt lat="39.183872" lon="8.6118172"><ele>171.39999999999998</ele><time>2026-04-18T14:36:03.22Z</time></trkpt><trkpt lat="39.1838005" lon="8.6118802"><ele>170.79999999999998</ele><time>2026-04-18T14:36:04.218Z</time></trkpt><trkpt lat="39.1837368" lon="8.6119611"><ele>170.2</ele><time>2026-04-18T14:36:05.217Z</time></trkpt><trkpt lat="39.1836751" lon="8.6120416"><ele>169.6</ele><time>2026-04-18T14:36:06.211Z</time></trkpt><trkpt lat="39.183608" lon="8.6121297"><ele>169.0</ele><time>2026-04-18T14:36:07.217Z</time></trkpt><trkpt lat="39.1835438" lon="8.6122249"><ele>169.0</ele><time>2026-04-18T14:36:08.226Z</time></trkpt><trkpt lat="39.1834764" lon="8.6123257"><ele>169.0</ele><time>2026-04-18T14:36:09.216Z</time></trkpt><trkpt lat="39.1834165" lon="8.612441"><ele>169.0</ele><time>2026-04-18T14:36:10.221Z</time></trkpt><trkpt lat="39.1833603" lon="8.6125545"><ele>169.0</ele><time>2026-04-18T14:36:11.223Z</time></trkpt><trkpt lat="39.1832949" lon="8.612618"><ele>169.0</ele><time>2026-04-18T14:36:12.248Z</time></trkpt><trkpt lat="39.1832412" lon="8.6127087"><ele>169.66666666666669</ele><time>2026-04-18T14:36:13.229Z</time></trkpt><trkpt lat="39.1831768" lon="8.6127633"><ele>170.33333333333334</ele><time>2026-04-18T14:36:14.223Z</time></trkpt><trkpt lat="39.1831107" lon="8.6128164"><ele>171.0</ele><time>2026-04-18T14:36:15.204Z</time></trkpt><trkpt lat="39.1830378" lon="8.6128396"><ele>171.66666666666666</ele><time>2026-04-18T14:36:16.213Z</time></trkpt><trkpt lat="39.1829373" lon="8.6129083"><ele>172.33333333333331</ele><time>2026-04-18T14:36:18.195Z</time></trkpt><trkpt lat="39.1828683" lon="8.6128899"><ele>173.0</ele><time>2026-04-18T14:36:19.219Z</time></trkpt><trkpt lat="39.182796" lon="8.612844"><ele>173.0</ele><time>2026-04-18T14:36:20.189Z</time></trkpt><trkpt lat="39.1827031" lon="8.6128276"><ele>173.0</ele><time>2026-04-18T14:36:21.193Z</time></trkpt><trkpt lat="39.1826048" lon="8.6128024"><ele>173.0</ele><time>2026-04-18T14:36:22.216Z</time></trkpt><trkpt lat="39.1825137" lon="8.61278"><ele>173.0</ele><time>2026-04-18T14:36:23.214Z</time></trkpt><trkpt lat="39.1824471" lon="8.6127715"><ele>173.0</ele><time>2026-04-18T14:36:24.217Z</time></trkpt><trkpt lat="39.182364" lon="8.6127654"><ele>173.0</ele><time>2026-04-18T14:36:25.231Z</time></trkpt><trkpt lat="39.1822668" lon="8.6127642"><ele>174.4</ele><time>2026-04-18T14:36:26.206Z</time></trkpt><trkpt lat="39.1821893" lon="8.6127596"><ele>175.8</ele><time>2026-04-18T14:36:27.21Z</time></trkpt><trkpt lat="39.1821145" lon="8.6127638"><ele>177.2</ele><time>2026-04-18T14:36:28.208Z</time></trkpt><trkpt lat="39.1819936" lon="8.6127912"><ele>178.6</ele><time>2026-04-18T14:36:30.205Z</time></trkpt><trkpt lat="39.181894" lon="8.6128329"><ele>180.0</ele><time>2026-04-18T14:36:32.209Z</time></trkpt><trkpt lat="39.181808" lon="8.612902"><ele>177.0</ele><time>2026-04-18T14:36:34.209Z</time></trkpt><trkpt lat="39.1817412" lon="8.6130279"><ele>174.0</ele><time>2026-04-18T14:36:36.205Z</time></trkpt><trkpt lat="39.1817053" lon="8.6131028"><ele>171.0</ele><time>2026-04-18T14:36:37.199Z</time></trkpt><trkpt lat="39.1816782" lon="8.6131937"><ele>168.0</ele><time>2026-04-18T14:36:38.199Z</time></trkpt><trkpt lat="39.1816598" lon="8.6132991"><ele>165.0</ele><time>2026-04-18T14:36:39.194Z</time></trkpt><trkpt lat="39.181647" lon="8.6134012"><ele>162.0</ele><time>2026-04-18T14:36:40.198Z</time></trkpt><trkpt lat="39.1816453" lon="8.6135076"><ele>162.0</ele><time>2026-04-18T14:36:41.196Z</time></trkpt><trkpt lat="39.1816362" lon="8.6136057"><ele>162.0</ele><time>2026-04-18T14:36:42.205Z</time></trkpt><trkpt lat="39.1816047" lon="8.6137511"><ele>162.0</ele><time>2026-04-18T14:36:44.199Z</time></trkpt><trkpt lat="39.1815223" lon="8.6138435"><ele>162.0</ele><time>2026-04-18T14:36:46.187Z</time></trkpt><trkpt lat="39.1814586" lon="8.6138661"><ele>162.0</ele><time>2026-04-18T14:36:47.206Z</time></trkpt><trkpt lat="39.1813729" lon="8.6138786"><ele>159.4</ele><time>2026-04-18T14:36:48.192Z</time></trkpt><trkpt lat="39.1812663" lon="8.6138693"><ele>156.79999999999998</ele><time>2026-04-18T14:36:49.192Z</time></trkpt><trkpt lat="39.181168" lon="8.6138619"><ele>154.2</ele><time>2026-04-18T14:36:50.223Z</time></trkpt><trkpt lat="39.1810644" lon="8.6138614"><ele>151.6</ele><time>2026-04-18T14:36:51.195Z</time></trkpt><trkpt lat="39.1809705" lon="8.6138564"><ele>149.0</ele><time>2026-04-18T14:36:52.202Z</time></trkpt><trkpt lat="39.1808889" lon="8.6138456"><ele>149.0</ele><time>2026-04-18T14:36:53.226Z</time></trkpt><trkpt lat="39.1808161" lon="8.6138481"><ele>149.0</ele><time>2026-04-18T14:36:54.248Z</time></trkpt><trkpt lat="39.180738" lon="8.6138705"><ele>149.0</ele><time>2026-04-18T14:36:55.196Z</time></trkpt><trkpt lat="39.1806651" lon="8.613903"><ele>149.0</ele><time>2026-04-18T14:36:56.199Z</time></trkpt><trkpt lat="39.1805959" lon="8.6139598"><ele>149.0</ele><time>2026-04-18T14:36:57.196Z</time></trkpt><trkpt lat="39.1805321" lon="8.614026"><ele>149.0</ele><time>2026-04-18T14:36:58.189Z</time></trkpt><trkpt lat="39.1804633" lon="8.614071"><ele>148.83333333333331</ele><time>2026-04-18T14:36:59.224Z</time></trkpt><trkpt lat="39.1803891" lon="8.614095"><ele>148.66666666666666</ele><time>2026-04-18T14:37:00.208Z</time></trkpt><trkpt lat="39.180323" lon="8.6140866"><ele>148.5</ele><time>2026-04-18T14:37:01.201Z</time></trkpt><trkpt lat="39.1802556" lon="8.6140446"><ele>148.33333333333334</ele><time>2026-04-18T14:37:02.215Z</time></trkpt><trkpt lat="39.1801862" lon="8.6139859"><ele>148.16666666666669</ele><time>2026-04-18T14:37:03.2Z</time></trkpt><trkpt lat="39.1801262" lon="8.6139042"><ele>148.0</ele><time>2026-04-18T14:37:04.196Z</time></trkpt><trkpt lat="39.1800749" lon="8.6138245"><ele>148.0</ele><time>2026-04-18T14:37:05.218Z</time></trkpt><trkpt lat="39.1800315" lon="8.6137402"><ele>148.0</ele><time>2026-04-18T14:37:06.212Z</time></trkpt><trkpt lat="39.1799918" lon="8.6136371"><ele>148.0</ele><time>2026-04-18T14:37:07.22Z</time></trkpt><trkpt lat="39.1799601" lon="8.6135296"><ele>148.0</ele><time>2026-04-18T14:37:08.205Z</time></trkpt><trkpt lat="39.1799394" lon="8.6134256"><ele>148.0</ele><time>2026-04-18T14:37:09.214Z</time></trkpt><trkpt lat="39.1799429" lon="8.6133165"><ele>148.0</ele><time>2026-04-18T14:37:10.216Z</time></trkpt><trkpt lat="39.1799496" lon="8.6132043"><ele>148.6</ele><time>2026-04-18T14:37:11.217Z</time></trkpt><trkpt lat="39.1799423" lon="8.61308"><ele>149.20000000000002</ele><time>2026-04-18T14:37:12.205Z</time></trkpt><trkpt lat="39.1799208" lon="8.6129411"><ele>149.8</ele><time>2026-04-18T14:37:13.219Z</time></trkpt><trkpt lat="39.1799022" lon="8.6128009"><ele>150.4</ele><time>2026-04-18T14:37:14.22Z</time></trkpt><trkpt lat="39.1798669" lon="8.6126543"><ele>151.0</ele><time>2026-04-18T14:37:15.224Z</time></trkpt><trkpt lat="39.1798351" lon="8.6125215"><ele>149.4</ele><time>2026-04-18T14:37:16.213Z</time></trkpt><trkpt lat="39.1797968" lon="8.6124177"><ele>147.8</ele><time>2026-04-18T14:37:17.214Z</time></trkpt><trkpt lat="39.1797545" lon="8.6123167"><ele>146.20000000000002</ele><time>2026-04-18T14:37:18.207Z</time></trkpt><trkpt lat="39.1796852" lon="8.612229"><ele>144.6</ele><time>2026-04-18T14:37:19.228Z</time></trkpt><trkpt lat="39.1796084" lon="8.6121453"><ele>143.0</ele><time>2026-04-18T14:37:20.219Z</time></trkpt><trkpt lat="39.1795424" lon="8.6120642"><ele>143.0</ele><time>2026-04-18T14:37:21.206Z</time></trkpt><trkpt lat="39.179481" lon="8.6119846"><ele>143.0</ele><time>2026-04-18T14:37:22.207Z</time></trkpt><trkpt lat="39.1794219" lon="8.6119369"><ele>143.0</ele><time>2026-04-18T14:37:23.205Z</time></trkpt><trkpt lat="39.1793612" lon="8.6119139"><ele>143.0</ele><time>2026-04-18T14:37:24.194Z</time></trkpt><trkpt lat="39.1792897" lon="8.6119208"><ele>143.0</ele><time>2026-04-18T14:37:25.198Z</time></trkpt><trkpt lat="39.1792132" lon="8.6119523"><ele>143.0</ele><time>2026-04-18T14:37:26.199Z</time></trkpt><trkpt lat="39.1791363" lon="8.6119944"><ele>143.0</ele><time>2026-04-18T14:37:27.197Z</time></trkpt><trkpt lat="39.1790658" lon="8.6120411"><ele>143.0</ele><time>2026-04-18T14:37:28.204Z</time></trkpt><trkpt lat="39.1790137" lon="8.6121053"><ele>143.0</ele><time>2026-04-18T14:37:29.206Z</time></trkpt><trkpt lat="39.1789728" lon="8.6121756"><ele>143.0</ele><time>2026-04-18T14:37:30.23Z</time></trkpt><trkpt lat="39.1789236" lon="8.612252"><ele>143.0</ele><time>2026-04-18T14:37:31.207Z</time></trkpt><trkpt lat="39.1788674" lon="8.6123212"><ele>143.0</ele><time>2026-04-18T14:37:32.211Z</time></trkpt><trkpt lat="39.1788001" lon="8.6123918"><ele>143.83333333333331</ele><time>2026-04-18T14:37:33.201Z</time></trkpt><trkpt lat="39.1787443" lon="8.6124619"><ele>144.66666666666666</ele><time>2026-04-18T14:37:34.238Z</time></trkpt><trkpt lat="39.1786815" lon="8.6125263"><ele>145.5</ele><time>2026-04-18T14:37:35.218Z</time></trkpt><trkpt lat="39.178607" lon="8.6125812"><ele>146.33333333333334</ele><time>2026-04-18T14:37:36.201Z</time></trkpt><trkpt lat="39.1785302" lon="8.6126228"><ele>147.16666666666669</ele><time>2026-04-18T14:37:37.215Z</time></trkpt><trkpt lat="39.1784731" lon="8.6126612"><ele>148.0</ele><time>2026-04-18T14:37:38.206Z</time></trkpt><trkpt lat="39.1783838" lon="8.6127381"><ele>148.0</ele><time>2026-04-18T14:37:40.192Z</time></trkpt><trkpt lat="39.1783214" lon="8.6127631"><ele>148.0</ele><time>2026-04-18T14:37:41.217Z</time></trkpt><trkpt lat="39.1782318" lon="8.6127879"><ele>148.0</ele><time>2026-04-18T14:37:42.214Z</time></trkpt><trkpt lat="39.1781299" lon="8.6127974"><ele>148.0</ele><time>2026-04-18T14:37:43.208Z</time></trkpt><trkpt lat="39.1780264" lon="8.6127979"><ele>148.0</ele><time>2026-04-18T14:37:44.209Z</time></trkpt><trkpt lat="39.1779444" lon="8.6127967"><ele>148.0</ele><time>2026-04-18T14:37:45.201Z</time></trkpt><trkpt lat="39.17787" lon="8.6127927"><ele>148.83333333333334</ele><time>2026-04-18T14:37:46.213Z</time></trkpt><trkpt lat="39.1778042" lon="8.612775"><ele>149.66666666666669</ele><time>2026-04-18T14:37:47.207Z</time></trkpt><trkpt lat="39.1776978" lon="8.6127555"><ele>150.5</ele><time>2026-04-18T14:37:49.203Z</time></trkpt><trkpt lat="39.1776325" lon="8.6127848"><ele>151.33333333333334</ele><time>2026-04-18T14:37:50.213Z</time></trkpt><trkpt lat="39.1775603" lon="8.612815"><ele>152.16666666666666</ele><time>2026-04-18T14:37:51.21Z</time></trkpt><trkpt lat="39.1774777" lon="8.6128541"><ele>153.0</ele><time>2026-04-18T14:37:52.208Z</time></trkpt><trkpt lat="39.1774078" lon="8.6128751"><ele>151.4</ele><time>2026-04-18T14:37:53.213Z</time></trkpt><trkpt lat="39.1773197" lon="8.612876"><ele>149.8</ele><time>2026-04-18T14:37:54.206Z</time></trkpt><trkpt lat="39.177207" lon="8.6128598"><ele>148.2</ele><time>2026-04-18T14:37:55.197Z</time></trkpt><trkpt lat="39.17709" lon="8.6128461"><ele>146.6</ele><time>2026-04-18T14:37:56.202Z</time></trkpt><trkpt lat="39.1769864" lon="8.6128389"><ele>145.0</ele><time>2026-04-18T14:37:57.211Z</time></trkpt><trkpt lat="39.1768726" lon="8.6128198"><ele>145.0</ele><time>2026-04-18T14:37:58.21Z</time></trkpt><trkpt lat="39.1767724" lon="8.6127787"><ele>145.0</ele><time>2026-04-18T14:37:59.211Z</time></trkpt><trkpt lat="39.1766763" lon="8.6127147"><ele>145.0</ele><time>2026-04-18T14:38:00.218Z</time></trkpt><trkpt lat="39.1765847" lon="8.6126707"><ele>145.0</ele><time>2026-04-18T14:38:01.225Z</time></trkpt><trkpt lat="39.1764929" lon="8.6126366"><ele>145.0</ele><time>2026-04-18T14:38:02.213Z</time></trkpt><trkpt lat="39.17639" lon="8.6126181"><ele>142.25</ele><time>2026-04-18T14:38:03.223Z</time></trkpt><trkpt lat="39.1762785" lon="8.6125913"><ele>139.5</ele><time>2026-04-18T14:38:04.219Z</time></trkpt><trkpt lat="39.1761642" lon="8.6125697"><ele>136.75</ele><time>2026-04-18T14:38:05.22Z</time></trkpt><trkpt lat="39.1760445" lon="8.6125493"><ele>134.0</ele><time>2026-04-18T14:38:06.216Z</time></trkpt><trkpt lat="39.1759272" lon="8.6125163"><ele>134.0</ele><time>2026-04-18T14:38:07.204Z</time></trkpt><trkpt lat="39.1758095" lon="8.6124863"><ele>134.0</ele><time>2026-04-18T14:38:08.218Z</time></trkpt><trkpt lat="39.1757007" lon="8.6124498"><ele>134.0</ele><time>2026-04-18T14:38:09.215Z</time></trkpt><trkpt lat="39.1755955" lon="8.6124077"><ele>134.0</ele><time>2026-04-18T14:38:10.209Z</time></trkpt><trkpt lat="39.1755036" lon="8.6123545"><ele>134.0</ele><time>2026-04-18T14:38:11.22Z</time></trkpt><trkpt lat="39.1754143" lon="8.6123145"><ele>132.5</ele><time>2026-04-18T14:38:12.213Z</time></trkpt><trkpt lat="39.175326" lon="8.612284"><ele>131.0</ele><time>2026-04-18T14:38:13.214Z</time></trkpt><trkpt lat="39.175253" lon="8.6122533"><ele>129.5</ele><time>2026-04-18T14:38:14.222Z</time></trkpt><trkpt lat="39.1751737" lon="8.6122276"><ele>128.0</ele><time>2026-04-18T14:38:16.212Z</time></trkpt><trkpt lat="39.1751232" lon="8.612172"><ele>126.49999999999999</ele><time>2026-04-18T14:38:21.215Z</time></trkpt><trkpt lat="39.1750541" lon="8.6120942"><ele>125.0</ele><time>2026-04-18T14:38:24.22Z</time></trkpt><trkpt lat="39.1749719" lon="8.6120005"><ele>125.8</ele><time>2026-04-18T14:38:26.238Z</time></trkpt><trkpt lat="39.1748959" lon="8.6118764"><ele>126.6</ele><time>2026-04-18T14:38:28.218Z</time></trkpt><trkpt lat="39.1748121" lon="8.6117417"><ele>127.4</ele><time>2026-04-18T14:38:30.21Z</time></trkpt><trkpt lat="39.1747532" lon="8.6116552"><ele>128.2</ele><time>2026-04-18T14:38:31.218Z</time></trkpt><trkpt lat="39.174708" lon="8.611569"><ele>129.0</ele><time>2026-04-18T14:38:32.225Z</time></trkpt><trkpt lat="39.1746742" lon="8.6114875"><ele>127.42857142857142</ele><time>2026-04-18T14:38:33.217Z</time></trkpt><trkpt lat="39.1746187" lon="8.6114227"><ele>125.85714285714286</ele><time>2026-04-18T14:38:35.224Z</time></trkpt><trkpt lat="39.1745562" lon="8.6113902"><ele>124.28571428571428</ele><time>2026-04-18T14:38:45.213Z</time></trkpt><trkpt lat="39.1744929" lon="8.6113574"><ele>122.71428571428571</ele><time>2026-04-18T14:39:51.22Z</time></trkpt><trkpt lat="39.1744228" lon="8.6113092"><ele>121.14285714285714</ele><time>2026-04-18T14:46:55.231Z</time></trkpt><trkpt lat="39.1743625" lon="8.6113577"><ele>119.57142857142857</ele><time>2026-04-18T14:46:59.185Z</time></trkpt><trkpt lat="39.1743049" lon="8.6114104"><ele>118.0</ele><time>2026-04-18T14:47:02.203Z</time></trkpt><trkpt lat="39.1742492" lon="8.6114689"><ele>118.00000000000001</ele><time>2026-04-18T14:47:04.221Z</time></trkpt><trkpt lat="39.174178" lon="8.6115392"><ele>118.0</ele><time>2026-04-18T14:47:06.211Z</time></trkpt><trkpt lat="39.1741196" lon="8.6116188"><ele>118.0</ele><time>2026-04-18T14:47:08.215Z</time></trkpt><trkpt lat="39.1740618" lon="8.6116955"><ele>118.0</ele><time>2026-04-18T14:47:10.213Z</time></trkpt><trkpt lat="39.1740107" lon="8.6117731"><ele>118.00000000000001</ele><time>2026-04-18T14:47:12.22Z</time></trkpt><trkpt lat="39.1739549" lon="8.6118573"><ele>118.0</ele><time>2026-04-18T14:47:14.216Z</time></trkpt><trkpt lat="39.1738693" lon="8.6119959"><ele>119.50000000000001</ele><time>2026-04-18T14:47:16.216Z</time></trkpt><trkpt lat="39.1738376" lon="8.6120832"><ele>121.0</ele><time>2026-04-18T14:47:17.214Z</time></trkpt><trkpt lat="39.1738052" lon="8.6121742"><ele>122.5</ele><time>2026-04-18T14:47:18.213Z</time></trkpt><trkpt lat="39.1737757" lon="8.6122727"><ele>124.0</ele><time>2026-04-18T14:47:19.216Z</time></trkpt><trkpt lat="39.1737517" lon="8.6123507"><ele>125.50000000000001</ele><time>2026-04-18T14:47:20.221Z</time></trkpt><trkpt lat="39.1736817" lon="8.6124431"><ele>127.0</ele><time>2026-04-18T14:47:22.23Z</time></trkpt><trkpt lat="39.173548" lon="8.6125025"><ele>127.00000000000001</ele><time>2026-04-18T14:47:24.235Z</time></trkpt><trkpt lat="39.1734473" lon="8.6125329"><ele>127.0</ele><time>2026-04-18T14:47:25.224Z</time></trkpt><trkpt lat="39.1733462" lon="8.6125678"><ele>127.0</ele><time>2026-04-18T14:47:26.235Z</time></trkpt><trkpt lat="39.1732677" lon="8.6126125"><ele>127.0</ele><time>2026-04-18T14:47:27.197Z</time></trkpt><trkpt lat="39.1732004" lon="8.61264"><ele>127.00000000000001</ele><time>2026-04-18T14:47:28.217Z</time></trkpt><trkpt lat="39.1731302" lon="8.6126629"><ele>127.0</ele><time>2026-04-18T14:47:29.224Z</time></trkpt><trkpt lat="39.173039" lon="8.6127129"><ele>127.83333333333334</ele><time>2026-04-18T14:47:31.231Z</time></trkpt><trkpt lat="39.1729402" lon="8.6127478"><ele>128.66666666666669</ele><time>2026-04-18T14:47:52.201Z</time></trkpt><trkpt lat="39.172851" lon="8.6127575"><ele>129.5</ele><time>2026-04-18T14:47:53.208Z</time></trkpt><trkpt lat="39.1727593" lon="8.6127606"><ele>130.33333333333334</ele><time>2026-04-18T14:47:54.218Z</time></trkpt><trkpt lat="39.1726732" lon="8.6127577"><ele>131.16666666666666</ele><time>2026-04-18T14:47:55.206Z</time></trkpt><trkpt lat="39.1726051" lon="8.612795"><ele>132.0</ele><time>2026-04-18T14:47:56.22Z</time></trkpt><trkpt lat="39.1725809" lon="8.6129176"><ele>132.0</ele><time>2026-04-18T14:47:58.217Z</time></trkpt><trkpt lat="39.172592" lon="8.6130055"><ele>132.0</ele><time>2026-04-18T14:47:59.226Z</time></trkpt><trkpt lat="39.1726103" lon="8.6131437"><ele>132.0</ele><time>2026-04-18T14:48:01.204Z</time></trkpt><trkpt lat="39.1726398" lon="8.6132336"><ele>132.0</ele><time>2026-04-18T14:48:03.206Z</time></trkpt><trkpt lat="39.1727637" lon="8.613332"><ele>132.0</ele><time>2026-04-18T14:48:05.214Z</time></trkpt><trkpt lat="39.1728463" lon="8.6134153"><ele>132.0</ele><time>2026-04-18T14:48:06.208Z</time></trkpt><trkpt lat="39.1729131" lon="8.6134969"><ele>132.0</ele><time>2026-04-18T14:48:07.203Z</time></trkpt><trkpt lat="39.1729722" lon="8.6135853"><ele>132.0</ele><time>2026-04-18T14:48:08.22Z</time></trkpt><trkpt lat="39.17302" lon="8.6136591"><ele>132.0</ele><time>2026-04-18T14:48:09.213Z</time></trkpt><trkpt lat="39.1730744" lon="8.6137509"><ele>132.0</ele><time>2026-04-18T14:48:10.212Z</time></trkpt><trkpt lat="39.1731302" lon="8.6138652"><ele>131.25</ele><time>2026-04-18T14:48:11.219Z</time></trkpt><trkpt lat="39.173184" lon="8.6140101"><ele>130.5</ele><time>2026-04-18T14:48:12.203Z</time></trkpt><trkpt lat="39.1732444" lon="8.6141487"><ele>129.75</ele><time>2026-04-18T14:48:13.223Z</time></trkpt><trkpt lat="39.1733126" lon="8.614264"><ele>129.0</ele><time>2026-04-18T14:48:14.21Z</time></trkpt><trkpt lat="39.1734113" lon="8.614379"><ele>130.0</ele><time>2026-04-18T14:48:15.213Z</time></trkpt><trkpt lat="39.1735024" lon="8.614487"><ele>131.0</ele><time>2026-04-18T14:48:16.22Z</time></trkpt><trkpt lat="39.1735899" lon="8.6145985"><ele>132.0</ele><time>2026-04-18T14:48:17.201Z</time></trkpt><trkpt lat="39.1736744" lon="8.6147111"><ele>133.0</ele><time>2026-04-18T14:48:18.223Z</time></trkpt><trkpt lat="39.1737739" lon="8.6148464"><ele>133.0</ele><time>2026-04-18T14:48:19.208Z</time></trkpt><trkpt lat="39.1738717" lon="8.6149762"><ele>133.0</ele><time>2026-04-18T14:48:20.212Z</time></trkpt><trkpt lat="39.1739652" lon="8.6150927"><ele>133.0</ele><time>2026-04-18T14:48:21.199Z</time></trkpt><trkpt lat="39.1740585" lon="8.6152053"><ele>133.0</ele><time>2026-04-18T14:48:22.201Z</time></trkpt><trkpt lat="39.1741541" lon="8.6153222"><ele>135.25</ele><time>2026-04-18T14:48:23.217Z</time></trkpt><trkpt lat="39.1742573" lon="8.6154496"><ele>137.5</ele><time>2026-04-18T14:48:24.206Z</time></trkpt><trkpt lat="39.1743512" lon="8.6155696"><ele>139.75</ele><time>2026-04-18T14:48:25.21Z</time></trkpt><trkpt lat="39.1744496" lon="8.6156874"><ele>142.0</ele><time>2026-04-18T14:48:26.205Z</time></trkpt><trkpt lat="39.1745354" lon="8.6158014"><ele>142.0</ele><time>2026-04-18T14:48:27.221Z</time></trkpt><trkpt lat="39.1746251" lon="8.6159114"><ele>142.0</ele><time>2026-04-18T14:48:28.207Z</time></trkpt><trkpt lat="39.1747103" lon="8.6160238"><ele>142.0</ele><time>2026-04-18T14:48:29.202Z</time></trkpt><trkpt lat="39.1747777" lon="8.616148"><ele>142.0</ele><time>2026-04-18T14:48:30.21Z</time></trkpt><trkpt lat="39.1748295" lon="8.6162871"><ele>142.4</ele><time>2026-04-18T14:48:31.213Z</time></trkpt><trkpt lat="39.1748456" lon="8.6164276"><ele>142.79999999999998</ele><time>2026-04-18T14:48:32.206Z</time></trkpt><trkpt lat="39.174822" lon="8.6165598"><ele>143.2</ele><time>2026-04-18T14:48:33.201Z</time></trkpt><trkpt lat="39.1747749" lon="8.6166848"><ele>143.6</ele><time>2026-04-18T14:48:34.192Z</time></trkpt><trkpt lat="39.1747214" lon="8.6168304"><ele>144.0</ele><time>2026-04-18T14:48:35.218Z</time></trkpt><trkpt lat="39.1746633" lon="8.6169733"><ele>145.25</ele><time>2026-04-18T14:48:36.205Z</time></trkpt><trkpt lat="39.1745965" lon="8.6171215"><ele>146.5</ele><time>2026-04-18T14:48:37.217Z</time></trkpt><trkpt lat="39.1745324" lon="8.617257"><ele>147.75</ele><time>2026-04-18T14:48:38.221Z</time></trkpt><trkpt lat="39.1744878" lon="8.6173823"><ele>149.0</ele><time>2026-04-18T14:48:39.212Z</time></trkpt><trkpt lat="39.1744517" lon="8.6174946"><ele>149.0</ele><time>2026-04-18T14:48:40.211Z</time></trkpt><trkpt lat="39.1744167" lon="8.6175993"><ele>149.0</ele><time>2026-04-18T14:48:41.235Z</time></trkpt><trkpt lat="39.1743875" lon="8.6176939"><ele>149.0</ele><time>2026-04-18T14:48:42.209Z</time></trkpt><trkpt lat="39.1743705" lon="8.6177802"><ele>149.0</ele><time>2026-04-18T14:48:43.208Z</time></trkpt><trkpt lat="39.1743453" lon="8.617868"><ele>149.0</ele><time>2026-04-18T14:48:44.205Z</time></trkpt><trkpt lat="39.1743199" lon="8.6179611"><ele>149.0</ele><time>2026-04-18T14:48:45.211Z</time></trkpt><trkpt lat="39.1742921" lon="8.6180416"><ele>149.4</ele><time>2026-04-18T14:48:46.23Z</time></trkpt><trkpt lat="39.1742817" lon="8.6181306"><ele>149.8</ele><time>2026-04-18T14:48:47.213Z</time></trkpt><trkpt lat="39.1742713" lon="8.6182412"><ele>150.2</ele><time>2026-04-18T14:48:48.224Z</time></trkpt><trkpt lat="39.1742538" lon="8.6183778"><ele>150.6</ele><time>2026-04-18T14:48:49.208Z</time></trkpt><trkpt lat="39.1742439" lon="8.6185044"><ele>151.0</ele><time>2026-04-18T14:48:50.209Z</time></trkpt><trkpt lat="39.1742428" lon="8.6186287"><ele>150.6</ele><time>2026-04-18T14:48:51.23Z</time></trkpt><trkpt lat="39.1742359" lon="8.6187528"><ele>150.2</ele><time>2026-04-18T14:48:52.197Z</time></trkpt><trkpt lat="39.1742263" lon="8.6188802"><ele>149.8</ele><time>2026-04-18T14:48:53.191Z</time></trkpt><trkpt lat="39.1742182" lon="8.6190129"><ele>149.4</ele><time>2026-04-18T14:48:54.207Z</time></trkpt><trkpt lat="39.1742101" lon="8.6191437"><ele>149.0</ele><time>2026-04-18T14:48:55.229Z</time></trkpt><trkpt lat="39.1742005" lon="8.6192855"><ele>149.0</ele><time>2026-04-18T14:48:56.21Z</time></trkpt><trkpt lat="39.1741896" lon="8.6194361"><ele>149.0</ele><time>2026-04-18T14:48:57.218Z</time></trkpt><trkpt lat="39.1741859" lon="8.6195794"><ele>149.0</ele><time>2026-04-18T14:48:58.202Z</time></trkpt><trkpt lat="39.1741791" lon="8.6197194"><ele>149.0</ele><time>2026-04-18T14:48:59.213Z</time></trkpt><trkpt lat="39.1741766" lon="8.6198555"><ele>149.0</ele><time>2026-04-18T14:49:00.2Z</time></trkpt><trkpt lat="39.1741735" lon="8.6199774"><ele>149.5</ele><time>2026-04-18T14:49:01.224Z</time></trkpt><trkpt lat="39.1741702" lon="8.6200868"><ele>150.0</ele><time>2026-04-18T14:49:02.224Z</time></trkpt><trkpt lat="39.1741692" lon="8.6201852"><ele>150.5</ele><time>2026-04-18T14:49:03.224Z</time></trkpt><trkpt lat="39.1741671" lon="8.6202906"><ele>151.0</ele><time>2026-04-18T14:49:04.202Z</time></trkpt><trkpt lat="39.1741622" lon="8.6204071"><ele>151.5</ele><time>2026-04-18T14:49:05.213Z</time></trkpt><trkpt lat="39.1741521" lon="8.62053"><ele>152.0</ele><time>2026-04-18T14:49:06.213Z</time></trkpt><trkpt lat="39.1741456" lon="8.620658"><ele>152.75</ele><time>2026-04-18T14:49:07.212Z</time></trkpt><trkpt lat="39.1741406" lon="8.6207995"><ele>153.5</ele><time>2026-04-18T14:49:08.215Z</time></trkpt><trkpt lat="39.1741301" lon="8.6209483"><ele>154.25</ele><time>2026-04-18T14:49:09.217Z</time></trkpt><trkpt lat="39.1741201" lon="8.6211053"><ele>155.0</ele><time>2026-04-18T14:49:10.213Z</time></trkpt><trkpt lat="39.1741138" lon="8.6212584"><ele>155.75</ele><time>2026-04-18T14:49:11.218Z</time></trkpt><trkpt lat="39.1741059" lon="8.6214049"><ele>156.5</ele><time>2026-04-18T14:49:12.213Z</time></trkpt><trkpt lat="39.1741001" lon="8.6215508"><ele>157.25</ele><time>2026-04-18T14:49:13.218Z</time></trkpt><trkpt lat="39.1740979" lon="8.6217053"><ele>158.0</ele><time>2026-04-18T14:49:14.214Z</time></trkpt><trkpt lat="39.1741045" lon="8.621861"><ele>158.75</ele><time>2026-04-18T14:49:15.205Z</time></trkpt><trkpt lat="39.1741222" lon="8.6220114"><ele>159.5</ele><time>2026-04-18T14:49:16.217Z</time></trkpt><trkpt lat="39.1741498" lon="8.6221647"><ele>160.25</ele><time>2026-04-18T14:49:17.222Z</time></trkpt><trkpt lat="39.1741871" lon="8.6223136"><ele>161.0</ele><time>2026-04-18T14:49:18.218Z</time></trkpt><trkpt lat="39.1742288" lon="8.6224584"><ele>161.0</ele><time>2026-04-18T14:49:19.223Z</time></trkpt><trkpt lat="39.1742816" lon="8.6225991"><ele>161.0</ele><time>2026-04-18T14:49:20.219Z</time></trkpt><trkpt lat="39.1743387" lon="8.6227303"><ele>161.0</ele><time>2026-04-18T14:49:21.225Z</time></trkpt><trkpt lat="39.1744019" lon="8.6228507"><ele>161.0</ele><time>2026-04-18T14:49:22.223Z</time></trkpt><trkpt lat="39.1744792" lon="8.6229674"><ele>160.60000000000002</ele><time>2026-04-18T14:49:23.221Z</time></trkpt><trkpt lat="39.174561" lon="8.6230785"><ele>160.20000000000002</ele><time>2026-04-18T14:49:24.216Z</time></trkpt><trkpt lat="39.1746471" lon="8.6231788"><ele>159.8</ele><time>2026-04-18T14:49:25.22Z</time></trkpt><trkpt lat="39.1747327" lon="8.6232682"><ele>159.4</ele><time>2026-04-18T14:49:26.219Z</time></trkpt><trkpt lat="39.1748187" lon="8.6233446"><ele>159.0</ele><time>2026-04-18T14:49:27.23Z</time></trkpt><trkpt lat="39.1748979" lon="8.6234037"><ele>161.16666666666666</ele><time>2026-04-18T14:49:28.211Z</time></trkpt><trkpt lat="39.1749624" lon="8.6234505"><ele>163.33333333333334</ele><time>2026-04-18T14:49:29.213Z</time></trkpt><trkpt lat="39.1750245" lon="8.6234855"><ele>165.5</ele><time>2026-04-18T14:49:30.226Z</time></trkpt><trkpt lat="39.1750813" lon="8.6235216"><ele>167.66666666666669</ele><time>2026-04-18T14:49:31.216Z</time></trkpt><trkpt lat="39.175184" lon="8.6235724"><ele>169.83333333333334</ele><time>2026-04-18T14:49:33.2Z</time></trkpt><trkpt lat="39.1752559" lon="8.6235962"><ele>172.0</ele><time>2026-04-18T14:49:35.202Z</time></trkpt><trkpt lat="39.1753191" lon="8.6236214"><ele>171.83333333333334</ele><time>2026-04-18T14:49:38.209Z</time></trkpt><trkpt lat="39.1753628" lon="8.6237222"><ele>171.66666666666669</ele><time>2026-04-18T14:49:42.192Z</time></trkpt><trkpt lat="39.175346" lon="8.6238154"><ele>171.5</ele><time>2026-04-18T14:49:45.207Z</time></trkpt><trkpt lat="39.1752757" lon="8.6238885"><ele>171.33333333333334</ele><time>2026-04-18T14:49:47.221Z</time></trkpt><trkpt lat="39.1751932" lon="8.6240033"><ele>171.16666666666666</ele><time>2026-04-18T14:49:49.195Z</time></trkpt><trkpt lat="39.1751441" lon="8.6240736"><ele>171.0</ele><time>2026-04-18T14:49:50.221Z</time></trkpt><trkpt lat="39.1750892" lon="8.6241413"><ele>171.0</ele><time>2026-04-18T14:49:51.216Z</time></trkpt><trkpt lat="39.1750416" lon="8.6242119"><ele>171.0</ele><time>2026-04-18T14:49:52.222Z</time></trkpt><trkpt lat="39.1749999" lon="8.6242843"><ele>171.0</ele><time>2026-04-18T14:49:53.214Z</time></trkpt><trkpt lat="39.1749544" lon="8.6243599"><ele>171.0</ele><time>2026-04-18T14:49:54.203Z</time></trkpt><trkpt lat="39.1749119" lon="8.6244411"><ele>171.0</ele><time>2026-04-18T14:49:55.218Z</time></trkpt><trkpt lat="39.1748669" lon="8.6245295"><ele>171.0</ele><time>2026-04-18T14:49:56.219Z</time></trkpt><trkpt lat="39.1748285" lon="8.6246257"><ele>169.83333333333334</ele><time>2026-04-18T14:49:57.205Z</time></trkpt><trkpt lat="39.1747891" lon="8.6247177"><ele>168.66666666666666</ele><time>2026-04-18T14:49:58.226Z</time></trkpt><trkpt lat="39.1747514" lon="8.6248179"><ele>167.5</ele><time>2026-04-18T14:49:59.207Z</time></trkpt><trkpt lat="39.1747107" lon="8.6249277"><ele>166.33333333333331</ele><time>2026-04-18T14:50:00.207Z</time></trkpt><trkpt lat="39.1746806" lon="8.625036"><ele>165.16666666666666</ele><time>2026-04-18T14:50:01.199Z</time></trkpt><trkpt lat="39.1746646" lon="8.6251413"><ele>164.0</ele><time>2026-04-18T14:50:02.203Z</time></trkpt><trkpt lat="39.1746548" lon="8.6252492"><ele>164.6</ele><time>2026-04-18T14:50:03.215Z</time></trkpt><trkpt lat="39.1746477" lon="8.6253889"><ele>165.2</ele><time>2026-04-18T14:50:05.21Z</time></trkpt><trkpt lat="39.1746622" lon="8.6255077"><ele>165.79999999999998</ele><time>2026-04-18T14:50:07.214Z</time></trkpt><trkpt lat="39.174727" lon="8.6256012"><ele>166.39999999999998</ele><time>2026-04-18T14:50:09.215Z</time></trkpt><trkpt lat="39.1748141" lon="8.6256682"><ele>167.0</ele><time>2026-04-18T14:50:11.22Z</time></trkpt><trkpt lat="39.1749097" lon="8.6257262"><ele>169.16666666666666</ele><time>2026-04-18T14:50:13.198Z</time></trkpt><trkpt lat="39.1749703" lon="8.625767"><ele>171.33333333333331</ele><time>2026-04-18T14:50:14.213Z</time></trkpt><trkpt lat="39.1750445" lon="8.6258185"><ele>173.5</ele><time>2026-04-18T14:50:15.214Z</time></trkpt><trkpt lat="39.1751155" lon="8.625856"><ele>175.66666666666666</ele><time>2026-04-18T14:50:16.208Z</time></trkpt><trkpt lat="39.1751823" lon="8.6258918"><ele>177.83333333333334</ele><time>2026-04-18T14:50:17.21Z</time></trkpt><trkpt lat="39.1752522" lon="8.6259213"><ele>180.0</ele><time>2026-04-18T14:50:18.224Z</time></trkpt><trkpt lat="39.1753261" lon="8.6259559"><ele>180.0</ele><time>2026-04-18T14:50:19.207Z</time></trkpt><trkpt lat="39.1753933" lon="8.6259808"><ele>180.0</ele><time>2026-04-18T14:50:20.23Z</time></trkpt><trkpt lat="39.1754986" lon="8.6260236"><ele>180.0</ele><time>2026-04-18T14:50:22.236Z</time></trkpt><trkpt lat="39.1755853" lon="8.6260827"><ele>180.0</ele><time>2026-04-18T14:50:24.217Z</time></trkpt><trkpt lat="39.1756649" lon="8.626188"><ele>180.0</ele><time>2026-04-18T14:50:26.201Z</time></trkpt><trkpt lat="39.1757539" lon="8.6262875"><ele>183.8</ele><time>2026-04-18T14:50:28.206Z</time></trkpt><trkpt lat="39.1758409" lon="8.6263361"><ele>187.6</ele><time>2026-04-18T14:50:30.222Z</time></trkpt><trkpt lat="39.1759413" lon="8.6264094"><ele>191.39999999999998</ele><time>2026-04-18T14:50:32.215Z</time></trkpt><trkpt lat="39.1760072" lon="8.6265094"><ele>195.2</ele><time>2026-04-18T14:50:34.241Z</time></trkpt><trkpt lat="39.176015" lon="8.6266028"><ele>199.0</ele><time>2026-04-18T14:50:36.219Z</time></trkpt><trkpt lat="39.1760771" lon="8.6267164"><ele>198.99999999999997</ele><time>2026-04-18T14:50:38.204Z</time></trkpt><trkpt lat="39.1761725" lon="8.6267988"><ele>199.0</ele><time>2026-04-18T14:50:40.224Z</time></trkpt><trkpt lat="39.1762271" lon="8.6268484"><ele>199.0</ele><time>2026-04-18T14:50:41.207Z</time></trkpt><trkpt lat="39.1762854" lon="8.6268949"><ele>199.0</ele><time>2026-04-18T14:50:42.216Z</time></trkpt><trkpt lat="39.176342" lon="8.6269403"><ele>198.99999999999997</ele><time>2026-04-18T14:50:43.209Z</time></trkpt><trkpt lat="39.1764015" lon="8.6269904"><ele>199.0</ele><time>2026-04-18T14:50:44.215Z</time></trkpt><trkpt lat="39.1764607" lon="8.627036"><ele>200.99999999999997</ele><time>2026-04-18T14:50:45.223Z</time></trkpt><trkpt lat="39.176518" lon="8.6270804"><ele>203.0</ele><time>2026-04-18T14:50:46.218Z</time></trkpt><trkpt lat="39.1765757" lon="8.6271241"><ele>205.0</ele><time>2026-04-18T14:50:47.219Z</time></trkpt><trkpt lat="39.1766336" lon="8.6271664"><ele>207.0</ele><time>2026-04-18T14:50:48.203Z</time></trkpt><trkpt lat="39.1766913" lon="8.6272056"><ele>208.99999999999997</ele><time>2026-04-18T14:50:49.198Z</time></trkpt><trkpt lat="39.1767795" lon="8.6272727"><ele>211.0</ele><time>2026-04-18T14:50:51.193Z</time></trkpt><trkpt lat="39.1768769" lon="8.6273304"><ele>212.83333333333331</ele><time>2026-04-18T14:50:53.209Z</time></trkpt><trkpt lat="39.1769462" lon="8.6273326"><ele>214.66666666666666</ele><time>2026-04-18T14:50:55.211Z</time></trkpt><trkpt lat="39.1770231" lon="8.627279"><ele>216.5</ele><time>2026-04-18T14:50:57.222Z</time></trkpt><trkpt lat="39.1771188" lon="8.6272392"><ele>218.33333333333331</ele><time>2026-04-18T14:50:59.213Z</time></trkpt><trkpt lat="39.177234" lon="8.6272024"><ele>220.16666666666666</ele><time>2026-04-18T14:51:01.197Z</time></trkpt><trkpt lat="39.1773011" lon="8.627181"><ele>222.0</ele><time>2026-04-18T14:51:02.221Z</time></trkpt><trkpt lat="39.1774162" lon="8.6271881"><ele>225.5</ele><time>2026-04-18T14:51:04.21Z</time></trkpt><trkpt lat="39.1775402" lon="8.6272122"><ele>229.0</ele><time>2026-04-18T14:51:06.228Z</time></trkpt><trkpt lat="39.1776027" lon="8.6272322"><ele>232.5</ele><time>2026-04-18T14:51:07.212Z</time></trkpt><trkpt lat="39.1776643" lon="8.6272721"><ele>236.0</ele><time>2026-04-18T14:51:08.204Z</time></trkpt><trkpt lat="39.1777387" lon="8.62733"><ele>239.5</ele><time>2026-04-18T14:51:09.216Z</time></trkpt><trkpt lat="39.1778196" lon="8.6273999"><ele>243.0</ele><time>2026-04-18T14:51:10.208Z</time></trkpt><trkpt lat="39.1778991" lon="8.6274758"><ele>243.0</ele><time>2026-04-18T14:51:11.226Z</time></trkpt><trkpt lat="39.1779629" lon="8.6275309"><ele>243.0</ele><time>2026-04-18T14:51:12.211Z</time></trkpt><trkpt lat="39.1780821" lon="8.627562"><ele>243.0</ele><time>2026-04-18T14:51:14.201Z</time></trkpt><trkpt lat="39.1781525" lon="8.6275488"><ele>243.0</ele><time>2026-04-18T14:51:15.222Z</time></trkpt><trkpt lat="39.1782219" lon="8.6275426"><ele>243.0</ele><time>2026-04-18T14:51:16.208Z</time></trkpt><trkpt lat="39.1782853" lon="8.6275455"><ele>243.0</ele><time>2026-04-18T14:51:17.219Z</time></trkpt><trkpt lat="39.1784052" lon="8.6275299"><ele>244.16666666666666</ele><time>2026-04-18T14:51:19.204Z</time></trkpt><trkpt lat="39.1785291" lon="8.6275003"><ele>245.33333333333331</ele><time>2026-04-18T14:51:21.209Z</time></trkpt><trkpt lat="39.1785982" lon="8.6274858"><ele>246.5</ele><time>2026-04-18T14:51:22.194Z</time></trkpt><trkpt lat="39.1786696" lon="8.627474"><ele>247.66666666666666</ele><time>2026-04-18T14:51:23.207Z</time></trkpt><trkpt lat="39.1787406" lon="8.6274606"><ele>248.83333333333331</ele><time>2026-04-18T14:51:24.215Z</time></trkpt><trkpt lat="39.1788089" lon="8.6274449"><ele>250.0</ele><time>2026-04-18T14:51:25.207Z</time></trkpt><trkpt lat="39.1788823" lon="8.6274264"><ele>249.99999999999997</ele><time>2026-04-18T14:51:26.21Z</time></trkpt><trkpt lat="39.1789583" lon="8.6274144"><ele>250.0</ele><time>2026-04-18T14:51:27.215Z</time></trkpt><trkpt lat="39.179033" lon="8.6274089"><ele>250.0</ele><time>2026-04-18T14:51:28.222Z</time></trkpt><trkpt lat="39.179111" lon="8.6274209"><ele>250.0</ele><time>2026-04-18T14:51:29.216Z</time></trkpt><trkpt lat="39.179192" lon="8.6274426"><ele>249.99999999999997</ele><time>2026-04-18T14:51:30.235Z</time></trkpt><trkpt lat="39.1792689" lon="8.6274607"><ele>250.0</ele><time>2026-04-18T14:51:31.21Z</time></trkpt><trkpt lat="39.1793414" lon="8.6274739"><ele>250.16666666666666</ele><time>2026-04-18T14:51:32.218Z</time></trkpt><trkpt lat="39.1794089" lon="8.6274803"><ele>250.33333333333331</ele><time>2026-04-18T14:51:33.21Z</time></trkpt><trkpt lat="39.1794807" lon="8.6274806"><ele>250.5</ele><time>2026-04-18T14:51:34.203Z</time></trkpt><trkpt lat="39.1795613" lon="8.6274767"><ele>250.66666666666669</ele><time>2026-04-18T14:51:35.196Z</time></trkpt><trkpt lat="39.1796478" lon="8.6274569"><ele>250.83333333333334</ele><time>2026-04-18T14:51:36.221Z</time></trkpt><trkpt lat="39.1797309" lon="8.6274337"><ele>251.0</ele><time>2026-04-18T14:51:37.218Z</time></trkpt><trkpt lat="39.1798127" lon="8.6274347"><ele>253.33333333333334</ele><time>2026-04-18T14:51:38.209Z</time></trkpt><trkpt lat="39.1798942" lon="8.6274542"><ele>255.66666666666669</ele><time>2026-04-18T14:51:39.224Z</time></trkpt><trkpt lat="39.1799685" lon="8.6274736"><ele>258.0</ele><time>2026-04-18T14:51:40.213Z</time></trkpt><trkpt lat="39.1800333" lon="8.6275095"><ele>260.3333333333333</ele><time>2026-04-18T14:51:41.219Z</time></trkpt><trkpt lat="39.1801003" lon="8.6275529"><ele>262.66666666666663</ele><time>2026-04-18T14:51:42.218Z</time></trkpt><trkpt lat="39.1801753" lon="8.6276029"><ele>265.0</ele><time>2026-04-18T14:51:43.219Z</time></trkpt><trkpt lat="39.1802527" lon="8.6276601"><ele>265.0</ele><time>2026-04-18T14:51:44.227Z</time></trkpt><trkpt lat="39.1803206" lon="8.6277003"><ele>265.0</ele><time>2026-04-18T14:51:45.216Z</time></trkpt><trkpt lat="39.1803847" lon="8.6277271"><ele>265.0</ele><time>2026-04-18T14:51:46.245Z</time></trkpt><trkpt lat="39.180455" lon="8.6277491"><ele>265.0</ele><time>2026-04-18T14:51:47.215Z</time></trkpt><trkpt lat="39.1805383" lon="8.6277648"><ele>265.0</ele><time>2026-04-18T14:51:48.226Z</time></trkpt><trkpt lat="39.1806308" lon="8.6277781"><ele>265.0</ele><time>2026-04-18T14:51:49.217Z</time></trkpt><trkpt lat="39.1807328" lon="8.6277874"><ele>264.66666666666663</ele><time>2026-04-18T14:51:50.199Z</time></trkpt><trkpt lat="39.180828" lon="8.6277944"><ele>264.3333333333333</ele><time>2026-04-18T14:51:51.191Z</time></trkpt><trkpt lat="39.1809072" lon="8.6278156"><ele>264.0</ele><time>2026-04-18T14:51:52.21Z</time></trkpt><trkpt lat="39.1810064" lon="8.6278542"><ele>263.6666666666667</ele><time>2026-04-18T14:51:54.215Z</time></trkpt><trkpt lat="39.1810691" lon="8.6278907"><ele>263.33333333333337</ele><time>2026-04-18T14:51:57.197Z</time></trkpt><trkpt lat="39.181156" lon="8.62792"><ele>263.0</ele><time>2026-04-18T14:52:31.213Z</time></trkpt><trkpt lat="39.1812741" lon="8.6279131"><ele>263.0</ele><time>2026-04-18T14:52:33.199Z</time></trkpt><trkpt lat="39.1813612" lon="8.6279004"><ele>263.0</ele><time>2026-04-18T14:52:34.209Z</time></trkpt><trkpt lat="39.1814665" lon="8.627886"><ele>263.0</ele><time>2026-04-18T14:52:35.213Z</time></trkpt><trkpt lat="39.1815679" lon="8.6278759"><ele>263.0</ele><time>2026-04-18T14:52:36.207Z</time></trkpt><trkpt lat="39.1816542" lon="8.627857"><ele>263.0</ele><time>2026-04-18T14:52:37.196Z</time></trkpt><trkpt lat="39.1817313" lon="8.6278318"><ele>266.5</ele><time>2026-04-18T14:52:38.23Z</time></trkpt><trkpt lat="39.181798" lon="8.6278042"><ele>270.0</ele><time>2026-04-18T14:52:39.215Z</time></trkpt><trkpt lat="39.1818668" lon="8.6277759"><ele>273.5</ele><time>2026-04-18T14:52:40.222Z</time></trkpt><trkpt lat="39.1819316" lon="8.6277459"><ele>277.0</ele><time>2026-04-18T14:52:41.205Z</time></trkpt><trkpt lat="39.1820288" lon="8.6277126"><ele>280.5</ele><time>2026-04-18T14:52:43.219Z</time></trkpt><trkpt lat="39.1820898" lon="8.6277595"><ele>284.0</ele><time>2026-04-18T14:52:45.207Z</time></trkpt><trkpt lat="39.1821521" lon="8.6277922"><ele>284.0</ele><time>2026-04-18T14:54:40.224Z</time></trkpt><trkpt lat="39.1822185" lon="8.6277753"><ele>284.0</ele><time>2026-04-18T14:54:42.228Z</time></trkpt><trkpt lat="39.1822831" lon="8.6277659"><ele>284.0</ele><time>2026-04-18T14:54:43.216Z</time></trkpt><trkpt lat="39.1823601" lon="8.627756"><ele>284.0</ele><time>2026-04-18T14:54:44.213Z</time></trkpt><trkpt lat="39.1824466" lon="8.6277599"><ele>284.0</ele><time>2026-04-18T14:54:45.22Z</time></trkpt><trkpt lat="39.1825331" lon="8.6277836"><ele>284.0</ele><time>2026-04-18T14:54:46.201Z</time></trkpt><trkpt lat="39.1826103" lon="8.6278187"><ele>285.1666666666667</ele><time>2026-04-18T14:54:47.223Z</time></trkpt><trkpt lat="39.1826958" lon="8.6278435"><ele>286.33333333333337</ele><time>2026-04-18T14:54:48.213Z</time></trkpt><trkpt lat="39.1827854" lon="8.6278578"><ele>287.5</ele><time>2026-04-18T14:54:49.221Z</time></trkpt><trkpt lat="39.1828709" lon="8.6278755"><ele>288.6666666666667</ele><time>2026-04-18T14:54:50.194Z</time></trkpt><trkpt lat="39.1829536" lon="8.627885"><ele>289.8333333333333</ele><time>2026-04-18T14:54:51.22Z</time></trkpt><trkpt lat="39.1830422" lon="8.6278971"><ele>291.0</ele><time>2026-04-18T14:54:52.217Z</time></trkpt><trkpt lat="39.1831439" lon="8.6279272"><ele>294.40000000000003</ele><time>2026-04-18T14:54:53.219Z</time></trkpt><trkpt lat="39.1832409" lon="8.6279553"><ele>297.8</ele><time>2026-04-18T14:54:54.214Z</time></trkpt><trkpt lat="39.1833411" lon="8.6279881"><ele>301.20000000000005</ele><time>2026-04-18T14:54:55.208Z</time></trkpt><trkpt lat="39.183444" lon="8.6280327"><ele>304.6</ele><time>2026-04-18T14:54:56.22Z</time></trkpt><trkpt lat="39.183539" lon="8.6280748"><ele>308.0</ele><time>2026-04-18T14:54:57.21Z</time></trkpt><trkpt lat="39.1836254" lon="8.6281154"><ele>308.0</ele><time>2026-04-18T14:54:58.215Z</time></trkpt><trkpt lat="39.1837161" lon="8.6281521"><ele>308.0</ele><time>2026-04-18T14:54:59.217Z</time></trkpt><trkpt lat="39.1838075" lon="8.6281803"><ele>308.0</ele><time>2026-04-18T14:55:00.216Z</time></trkpt><trkpt lat="39.1839088" lon="8.6282046"><ele>308.0</ele><time>2026-04-18T14:55:01.204Z</time></trkpt><trkpt lat="39.1840129" lon="8.6282251"><ele>308.0</ele><time>2026-04-18T14:55:02.211Z</time></trkpt><trkpt lat="39.1841037" lon="8.6282443"><ele>310.33333333333337</ele><time>2026-04-18T14:55:03.217Z</time></trkpt><trkpt lat="39.1841866" lon="8.6282615"><ele>312.6666666666667</ele><time>2026-04-18T14:55:04.217Z</time></trkpt><trkpt lat="39.1842711" lon="8.6282753"><ele>315.0</ele><time>2026-04-18T14:55:05.214Z</time></trkpt><trkpt lat="39.1843541" lon="8.6282907"><ele>317.3333333333333</ele><time>2026-04-18T14:55:06.211Z</time></trkpt><trkpt lat="39.1844392" lon="8.6282976"><ele>319.66666666666663</ele><time>2026-04-18T14:55:07.223Z</time></trkpt><trkpt lat="39.184529" lon="8.6283217"><ele>322.0</ele><time>2026-04-18T14:55:08.206Z</time></trkpt><trkpt lat="39.1846114" lon="8.6283416"><ele>322.0</ele><time>2026-04-18T14:55:09.229Z</time></trkpt><trkpt lat="39.1846971" lon="8.6283727"><ele>322.0</ele><time>2026-04-18T14:55:10.194Z</time></trkpt><trkpt lat="39.1847796" lon="8.6284038"><ele>322.0</ele><time>2026-04-18T14:55:11.222Z</time></trkpt><trkpt lat="39.1848648" lon="8.6284237"><ele>322.0</ele><time>2026-04-18T14:55:12.231Z</time></trkpt><trkpt lat="39.1849486" lon="8.6284416"><ele>322.0</ele><time>2026-04-18T14:55:13.212Z</time></trkpt><trkpt lat="39.1850276" lon="8.6284509"><ele>322.0</ele><time>2026-04-18T14:55:14.216Z</time></trkpt><trkpt lat="39.1851087" lon="8.6284591"><ele>322.3333333333333</ele><time>2026-04-18T14:55:15.216Z</time></trkpt><trkpt lat="39.1851878" lon="8.6284709"><ele>322.66666666666663</ele><time>2026-04-18T14:55:16.22Z</time></trkpt><trkpt lat="39.185274" lon="8.6284736"><ele>323.0</ele><time>2026-04-18T14:55:17.234Z</time></trkpt><trkpt lat="39.1853643" lon="8.6284676"><ele>323.3333333333333</ele><time>2026-04-18T14:55:18.218Z</time></trkpt><trkpt lat="39.1854479" lon="8.6284675"><ele>323.6666666666667</ele><time>2026-04-18T14:55:19.217Z</time></trkpt><trkpt lat="39.1855361" lon="8.6284779"><ele>324.0</ele><time>2026-04-18T14:55:20.225Z</time></trkpt><trkpt lat="39.185624" lon="8.6284888"><ele>324.0</ele><time>2026-04-18T14:55:21.224Z</time></trkpt><trkpt lat="39.1857146" lon="8.6285123"><ele>324.0</ele><time>2026-04-18T14:55:22.213Z</time></trkpt><trkpt lat="39.1858048" lon="8.6285242"><ele>324.0</ele><time>2026-04-18T14:55:23.207Z</time></trkpt><trkpt lat="39.1858904" lon="8.6285383"><ele>324.0</ele><time>2026-04-18T14:55:24.225Z</time></trkpt><trkpt lat="39.1859724" lon="8.6285597"><ele>324.0</ele><time>2026-04-18T14:55:25.217Z</time></trkpt><trkpt lat="39.1860596" lon="8.6285785"><ele>324.0</ele><time>2026-04-18T14:55:26.205Z</time></trkpt><trkpt lat="39.1861487" lon="8.6285926"><ele>324.0</ele><time>2026-04-18T14:55:27.208Z</time></trkpt><trkpt lat="39.1862297" lon="8.6285974"><ele>324.0</ele><time>2026-04-18T14:55:28.224Z</time></trkpt><trkpt lat="39.1863085" lon="8.6286149"><ele>324.0</ele><time>2026-04-18T14:55:29.203Z</time></trkpt><trkpt lat="39.1863822" lon="8.6286297"><ele>324.0</ele><time>2026-04-18T14:55:30.193Z</time></trkpt><trkpt lat="39.1864467" lon="8.6286621"><ele>324.0</ele><time>2026-04-18T14:55:31.214Z</time></trkpt><trkpt lat="39.1865089" lon="8.628704"><ele>324.0</ele><time>2026-04-18T14:55:32.223Z</time></trkpt><trkpt lat="39.1865718" lon="8.6287609"><ele>323.4</ele><time>2026-04-18T14:55:33.209Z</time></trkpt><trkpt lat="39.1866404" lon="8.6288189"><ele>322.79999999999995</ele><time>2026-04-18T14:55:34.221Z</time></trkpt><trkpt lat="39.1867163" lon="8.6288778"><ele>322.20000000000005</ele><time>2026-04-18T14:55:35.216Z</time></trkpt><trkpt lat="39.1867956" lon="8.6289368"><ele>321.6</ele><time>2026-04-18T14:55:36.206Z</time></trkpt><trkpt lat="39.1868795" lon="8.6290076"><ele>321.0</ele><time>2026-04-18T14:55:37.222Z</time></trkpt><trkpt lat="39.1869658" lon="8.6290713"><ele>321.0</ele><time>2026-04-18T14:55:38.213Z</time></trkpt><trkpt lat="39.187055" lon="8.6291341"><ele>321.0</ele><time>2026-04-18T14:55:39.21Z</time></trkpt><trkpt lat="39.187146" lon="8.6291926"><ele>321.0</ele><time>2026-04-18T14:55:40.213Z</time></trkpt><trkpt lat="39.1872354" lon="8.629257"><ele>321.0</ele><time>2026-04-18T14:55:41.199Z</time></trkpt><trkpt lat="39.1873252" lon="8.6293354"><ele>321.0</ele><time>2026-04-18T14:55:42.189Z</time></trkpt><trkpt lat="39.1874135" lon="8.6294051"><ele>320.5</ele><time>2026-04-18T14:55:43.214Z</time></trkpt><trkpt lat="39.1874871" lon="8.6294638"><ele>320.0</ele><time>2026-04-18T14:55:44.21Z</time></trkpt><trkpt lat="39.1875579" lon="8.6295191"><ele>319.5</ele><time>2026-04-18T14:55:45.219Z</time></trkpt><trkpt lat="39.1876444" lon="8.629568"><ele>319.0</ele><time>2026-04-18T14:55:46.21Z</time></trkpt><trkpt lat="39.1877318" lon="8.6296091"><ele>318.5</ele><time>2026-04-18T14:55:47.213Z</time></trkpt><trkpt lat="39.1878141" lon="8.6296404"><ele>318.0</ele><time>2026-04-18T14:55:48.198Z</time></trkpt><trkpt lat="39.1878919" lon="8.6296778"><ele>318.0</ele><time>2026-04-18T14:55:49.206Z</time></trkpt><trkpt lat="39.1879702" lon="8.6297092"><ele>318.0</ele><time>2026-04-18T14:55:50.194Z</time></trkpt><trkpt lat="39.1880504" lon="8.6297369"><ele>318.0</ele><time>2026-04-18T14:55:51.215Z</time></trkpt><trkpt lat="39.1881338" lon="8.6297499"><ele>318.0</ele><time>2026-04-18T14:55:52.21Z</time></trkpt><trkpt lat="39.1882086" lon="8.6297591"><ele>318.0</ele><time>2026-04-18T14:55:53.204Z</time></trkpt><trkpt lat="39.1882802" lon="8.6297704"><ele>318.0</ele><time>2026-04-18T14:55:54.235Z</time></trkpt><trkpt lat="39.1883538" lon="8.6298006"><ele>320.1666666666667</ele><time>2026-04-18T14:55:56.206Z</time></trkpt><trkpt lat="39.1883941" lon="8.6298757"><ele>322.3333333333333</ele><time>2026-04-18T14:55:59.219Z</time></trkpt><trkpt lat="39.1884432" lon="8.6299618"><ele>324.5</ele><time>2026-04-18T14:56:02.202Z</time></trkpt><trkpt lat="39.1885111" lon="8.6299832"><ele>326.66666666666663</ele><time>2026-04-18T14:56:05.196Z</time></trkpt><trkpt lat="39.1885816" lon="8.629989"><ele>328.8333333333333</ele><time>2026-04-18T14:56:07.205Z</time></trkpt><trkpt lat="39.1887147" lon="8.6300068"><ele>331.0</ele><time>2026-04-18T14:56:09.222Z</time></trkpt><trkpt lat="39.1888017" lon="8.6300222"><ele>331.0</ele><time>2026-04-18T14:56:10.208Z</time></trkpt><trkpt lat="39.1888865" lon="8.6300381"><ele>331.0</ele><time>2026-04-18T14:56:11.203Z</time></trkpt><trkpt lat="39.1889792" lon="8.6300693"><ele>331.0</ele><time>2026-04-18T14:56:12.192Z</time></trkpt><trkpt lat="39.1890672" lon="8.630114"><ele>331.0</ele><time>2026-04-18T14:56:13.204Z</time></trkpt><trkpt lat="39.1891415" lon="8.630164"><ele>331.0</ele><time>2026-04-18T14:56:14.205Z</time></trkpt><trkpt lat="39.1892062" lon="8.630214"><ele>331.0</ele><time>2026-04-18T14:56:15.211Z</time></trkpt><trkpt lat="39.1892699" lon="8.630259"><ele>331.2857142857143</ele><time>2026-04-18T14:56:16.206Z</time></trkpt><trkpt lat="39.1893301" lon="8.6303025"><ele>331.57142857142856</ele><time>2026-04-18T14:56:17.209Z</time></trkpt><trkpt lat="39.18939" lon="8.6303424"><ele>331.8571428571429</ele><time>2026-04-18T14:56:18.194Z</time></trkpt><trkpt lat="39.1894522" lon="8.6303688"><ele>332.1428571428571</ele><time>2026-04-18T14:56:19.226Z</time></trkpt><trkpt lat="39.1895196" lon="8.6303926"><ele>332.4285714285714</ele><time>2026-04-18T14:56:20.207Z</time></trkpt><trkpt lat="39.1895875" lon="8.6304057"><ele>332.7142857142857</ele><time>2026-04-18T14:56:21.196Z</time></trkpt><trkpt lat="39.1896622" lon="8.6304315"><ele>333.0</ele><time>2026-04-18T14:56:22.207Z</time></trkpt><trkpt lat="39.1897338" lon="8.6304793"><ele>330.6666666666667</ele><time>2026-04-18T14:56:23.215Z</time></trkpt><trkpt lat="39.1898015" lon="8.6305356"><ele>328.3333333333333</ele><time>2026-04-18T14:56:24.217Z</time></trkpt><trkpt lat="39.1898595" lon="8.6306001"><ele>326.0</ele><time>2026-04-18T14:56:25.221Z</time></trkpt><trkpt lat="39.1899135" lon="8.630658"><ele>323.66666666666663</ele><time>2026-04-18T14:56:26.206Z</time></trkpt><trkpt lat="39.1899754" lon="8.6307132"><ele>321.3333333333333</ele><time>2026-04-18T14:56:27.204Z</time></trkpt><trkpt lat="39.1900799" lon="8.6307484"><ele>319.0</ele><time>2026-04-18T14:56:29.213Z</time></trkpt><trkpt lat="39.1901838" lon="8.6306769"><ele>319.0</ele><time>2026-04-18T14:56:31.222Z</time></trkpt><trkpt lat="39.1902336" lon="8.6306028"><ele>319.0</ele><time>2026-04-18T14:56:32.219Z</time></trkpt><trkpt lat="39.1902836" lon="8.6305251"><ele>319.0</ele><time>2026-04-18T14:56:33.22Z</time></trkpt><trkpt lat="39.1903647" lon="8.6304173"><ele>319.0</ele><time>2026-04-18T14:56:35.223Z</time></trkpt><trkpt lat="39.1904336" lon="8.6304186"><ele>319.0</ele><time>2026-04-18T14:56:36.211Z</time></trkpt><trkpt lat="39.1905073" lon="8.6304305"><ele>319.0</ele><time>2026-04-18T14:56:37.215Z</time></trkpt><trkpt lat="39.190602" lon="8.6304512"><ele>318.66666666666663</ele><time>2026-04-18T14:56:38.2Z</time></trkpt><trkpt lat="39.1906971" lon="8.6304704"><ele>318.3333333333333</ele><time>2026-04-18T14:56:39.215Z</time></trkpt><trkpt lat="39.1907881" lon="8.6304779"><ele>318.0</ele><time>2026-04-18T14:56:40.205Z</time></trkpt><trkpt lat="39.1908699" lon="8.6304861"><ele>317.6666666666667</ele><time>2026-04-18T14:56:41.21Z</time></trkpt><trkpt lat="39.1909534" lon="8.6305362"><ele>317.33333333333337</ele><time>2026-04-18T14:56:43.207Z</time></trkpt><trkpt lat="39.1909671" lon="8.630633"><ele>317.0</ele><time>2026-04-18T14:56:45.222Z</time></trkpt><trkpt lat="39.1909543" lon="8.6307263"><ele>317.0</ele><time>2026-04-18T14:56:46.209Z</time></trkpt><trkpt lat="39.1909536" lon="8.6308229"><ele>317.0</ele><time>2026-04-18T14:56:47.205Z</time></trkpt><trkpt lat="39.1909634" lon="8.6309379"><ele>317.0</ele><time>2026-04-18T14:56:48.214Z</time></trkpt><trkpt lat="39.1909772" lon="8.6310579"><ele>317.0</ele><time>2026-04-18T14:56:49.192Z</time></trkpt><trkpt lat="39.1909945" lon="8.6311689"><ele>317.0</ele><time>2026-04-18T14:56:50.193Z</time></trkpt><trkpt lat="39.191035" lon="8.6312797"><ele>317.0</ele><time>2026-04-18T14:56:51.208Z</time></trkpt><trkpt lat="39.1910864" lon="8.6313661"><ele>314.83333333333337</ele><time>2026-04-18T14:56:52.22Z</time></trkpt><trkpt lat="39.191152" lon="8.6314217"><ele>312.6666666666667</ele><time>2026-04-18T14:56:53.215Z</time></trkpt><trkpt lat="39.1912751" lon="8.6314135"><ele>310.5</ele><time>2026-04-18T14:56:55.201Z</time></trkpt><trkpt lat="39.1913412" lon="8.6314013"><ele>308.3333333333333</ele><time>2026-04-18T14:56:56.21Z</time></trkpt><trkpt lat="39.1914323" lon="8.6314413"><ele>306.16666666666663</ele><time>2026-04-18T14:56:58.204Z</time></trkpt><trkpt lat="39.19149" lon="8.6314782"><ele>304.0</ele><time>2026-04-18T14:58:06.205Z</time></trkpt><trkpt lat="39.1915955" lon="8.6314805"><ele>304.0</ele><time>2026-04-18T14:58:09.214Z</time></trkpt><trkpt lat="39.1916881" lon="8.6314039"><ele>304.0</ele><time>2026-04-18T14:58:11.189Z</time></trkpt><trkpt lat="39.1917472" lon="8.6313414"><ele>304.0</ele><time>2026-04-18T14:58:12.195Z</time></trkpt><trkpt lat="39.1918135" lon="8.6312771"><ele>304.0</ele><time>2026-04-18T14:58:13.197Z</time></trkpt><trkpt lat="39.1918881" lon="8.6312025"><ele>304.0</ele><time>2026-04-18T14:58:14.212Z</time></trkpt><trkpt lat="39.1919568" lon="8.6311314"><ele>306.4285714285714</ele><time>2026-04-18T14:58:15.205Z</time></trkpt><trkpt lat="39.1920184" lon="8.6310536"><ele>308.8571428571429</ele><time>2026-04-18T14:58:16.208Z</time></trkpt><trkpt lat="39.1920716" lon="8.6309689"><ele>311.2857142857143</ele><time>2026-04-18T14:58:17.202Z</time></trkpt><trkpt lat="39.1921147" lon="8.630898"><ele>313.71428571428567</ele><time>2026-04-18T14:58:18.209Z</time></trkpt><trkpt lat="39.1921485" lon="8.6308294"><ele>316.1428571428571</ele><time>2026-04-18T14:58:19.191Z</time></trkpt><trkpt lat="39.1921779" lon="8.6307494"><ele>318.57142857142856</ele><time>2026-04-18T14:58:20.198Z</time></trkpt><trkpt lat="39.1922076" lon="8.63066"><ele>321.0</ele><time>2026-04-18T14:58:21.207Z</time></trkpt><trkpt lat="39.1922414" lon="8.630568"><ele>321.0</ele><time>2026-04-18T14:58:22.199Z</time></trkpt><trkpt lat="39.1922736" lon="8.6304925"><ele>321.0</ele><time>2026-04-18T14:58:23.223Z</time></trkpt><trkpt lat="39.1923788" lon="8.6304222"><ele>321.0</ele><time>2026-04-18T14:58:25.219Z</time></trkpt><trkpt lat="39.1924885" lon="8.6304196"><ele>321.0</ele><time>2026-04-18T14:58:27.201Z</time></trkpt><trkpt lat="39.1925427" lon="8.6304774"><ele>321.0</ele><time>2026-04-18T14:58:28.197Z</time></trkpt><trkpt lat="39.1926118" lon="8.6305533"><ele>319.6666666666667</ele><time>2026-04-18T14:58:29.186Z</time></trkpt><trkpt lat="39.1926918" lon="8.6306192"><ele>318.3333333333333</ele><time>2026-04-18T14:58:30.197Z</time></trkpt><trkpt lat="39.1927581" lon="8.630659"><ele>317.0</ele><time>2026-04-18T14:58:31.206Z</time></trkpt><trkpt lat="39.1928629" lon="8.6306206"><ele>315.66666666666663</ele><time>2026-04-18T14:58:33.207Z</time></trkpt><trkpt lat="39.1929019" lon="8.6305523"><ele>314.3333333333333</ele><time>2026-04-18T14:58:34.205Z</time></trkpt><trkpt lat="39.1929407" lon="8.6304735"><ele>313.0</ele><time>2026-04-18T14:58:35.206Z</time></trkpt><trkpt lat="39.1929793" lon="8.6303956"><ele>313.0</ele><time>2026-04-18T14:58:36.189Z</time></trkpt><trkpt lat="39.1930156" lon="8.6303157"><ele>313.0</ele><time>2026-04-18T14:58:37.21Z</time></trkpt><trkpt lat="39.1930605" lon="8.6302031"><ele>313.0</ele><time>2026-04-18T14:58:39.206Z</time></trkpt><trkpt lat="39.1931471" lon="8.6301249"><ele>313.0</ele><time>2026-04-18T14:58:41.199Z</time></trkpt><trkpt lat="39.1932803" lon="8.6301279"><ele>313.0</ele><time>2026-04-18T14:58:43.192Z</time></trkpt><trkpt lat="39.1933681" lon="8.6301287"><ele>315.7142857142857</ele><time>2026-04-18T14:58:44.212Z</time></trkpt><trkpt lat="39.1934424" lon="8.6301207"><ele>318.42857142857144</ele><time>2026-04-18T14:58:45.195Z</time></trkpt><trkpt lat="39.1935173" lon="8.6300989"><ele>321.1428571428571</ele><time>2026-04-18T14:58:46.193Z</time></trkpt><trkpt lat="39.1935778" lon="8.6300586"><ele>323.8571428571429</ele><time>2026-04-18T14:58:47.205Z</time></trkpt><trkpt lat="39.1936453" lon="8.6300009"><ele>326.5714285714286</ele><time>2026-04-18T14:58:48.21Z</time></trkpt><trkpt lat="39.1937036" lon="8.6299416"><ele>329.2857142857143</ele><time>2026-04-18T14:58:49.203Z</time></trkpt><trkpt lat="39.1937554" lon="8.629884"><ele>332.0</ele><time>2026-04-18T14:58:50.199Z</time></trkpt><trkpt lat="39.1938529" lon="8.6297905"><ele>332.0</ele><time>2026-04-18T14:58:52.208Z</time></trkpt><trkpt lat="39.1939043" lon="8.6297431"><ele>332.0</ele><time>2026-04-18T14:58:53.211Z</time></trkpt><trkpt lat="39.193949" lon="8.6296834"><ele>332.0</ele><time>2026-04-18T14:58:54.22Z</time></trkpt><trkpt lat="39.1940205" lon="8.6295561"><ele>332.0</ele><time>2026-04-18T14:58:56.185Z</time></trkpt><trkpt lat="39.1941029" lon="8.6294714"><ele>332.0</ele><time>2026-04-18T14:58:58.213Z</time></trkpt><trkpt lat="39.194221" lon="8.6294603"><ele>330.0</ele><time>2026-04-18T14:59:00.199Z</time></trkpt><trkpt lat="39.1942984" lon="8.6294863"><ele>328.0</ele><time>2026-04-18T14:59:01.195Z</time></trkpt><trkpt lat="39.1943832" lon="8.6295229"><ele>326.0</ele><time>2026-04-18T14:59:02.204Z</time></trkpt><trkpt lat="39.1944931" lon="8.6295027"><ele>324.0</ele><time>2026-04-18T14:59:04.182Z</time></trkpt><trkpt lat="39.1946064" lon="8.6294258"><ele>322.0</ele><time>2026-04-18T14:59:06.199Z</time></trkpt><trkpt lat="39.1946955" lon="8.6293716"><ele>324.66666666666663</ele><time>2026-04-18T14:59:07.187Z</time></trkpt><trkpt lat="39.1947851" lon="8.629316"><ele>327.3333333333333</ele><time>2026-04-18T14:59:08.189Z</time></trkpt><trkpt lat="39.1948649" lon="8.6292665"><ele>330.0</ele><time>2026-04-18T14:59:09.218Z</time></trkpt><trkpt lat="39.1949421" lon="8.629216"><ele>332.6666666666667</ele><time>2026-04-18T14:59:10.207Z</time></trkpt><trkpt lat="39.1950183" lon="8.6291608"><ele>335.33333333333337</ele><time>2026-04-18T14:59:11.202Z</time></trkpt><trkpt lat="39.1950927" lon="8.6291112"><ele>338.0</ele><time>2026-04-18T14:59:12.197Z</time></trkpt><trkpt lat="39.1951684" lon="8.6290618"><ele>338.0</ele><time>2026-04-18T14:59:13.195Z</time></trkpt><trkpt lat="39.1952279" lon="8.6290034"><ele>338.0</ele><time>2026-04-18T14:59:14.212Z</time></trkpt><trkpt lat="39.1952959" lon="8.6289468"><ele>338.0</ele><time>2026-04-18T14:59:15.198Z</time></trkpt><trkpt lat="39.1953618" lon="8.6288904"><ele>338.0</ele><time>2026-04-18T14:59:16.207Z</time></trkpt><trkpt lat="39.1954349" lon="8.6288278"><ele>338.0</ele><time>2026-04-18T14:59:17.221Z</time></trkpt><trkpt lat="39.1955093" lon="8.6287564"><ele>338.0</ele><time>2026-04-18T14:59:18.207Z</time></trkpt><trkpt lat="39.1955824" lon="8.6286937"><ele>338.0</ele><time>2026-04-18T14:59:19.214Z</time></trkpt><trkpt lat="39.1956568" lon="8.6286485"><ele>338.0</ele><time>2026-04-18T14:59:20.223Z</time></trkpt><trkpt lat="39.1957575" lon="8.6286156"><ele>338.0</ele><time>2026-04-18T14:59:22.194Z</time></trkpt><trkpt lat="39.1958239" lon="8.6286071"><ele>338.0</ele><time>2026-04-18T14:59:24.206Z</time></trkpt><trkpt lat="39.1959134" lon="8.6285877"><ele>338.0</ele><time>2026-04-18T14:59:26.215Z</time></trkpt><trkpt lat="39.1960389" lon="8.628548"><ele>339.79999999999995</ele><time>2026-04-18T14:59:28.233Z</time></trkpt><trkpt lat="39.196097" lon="8.6285128"><ele>341.6</ele><time>2026-04-18T14:59:29.207Z</time></trkpt><trkpt lat="39.1962139" lon="8.628458"><ele>343.4</ele><time>2026-04-18T14:59:31.209Z</time></trkpt><trkpt lat="39.1962858" lon="8.6284418"><ele>345.20000000000005</ele><time>2026-04-18T14:59:33.198Z</time></trkpt><trkpt lat="39.1963615" lon="8.6284398"><ele>347.0</ele><time>2026-04-18T14:59:36.204Z</time></trkpt><trkpt lat="39.1964842" lon="8.6284105"><ele>347.6</ele><time>2026-04-18T14:59:39.2Z</time></trkpt><trkpt lat="39.1966092" lon="8.6283984"><ele>348.20000000000005</ele><time>2026-04-18T14:59:41.215Z</time></trkpt><trkpt lat="39.1967296" lon="8.6283832"><ele>348.8</ele><time>2026-04-18T14:59:43.21Z</time></trkpt><trkpt lat="39.1967924" lon="8.6283676"><ele>349.4</ele><time>2026-04-18T14:59:44.22Z</time></trkpt><trkpt lat="39.1968685" lon="8.6283886"><ele>350.0</ele><time>2026-04-18T14:59:45.214Z</time></trkpt><trkpt lat="39.196948" lon="8.6283886"><ele>350.0</ele><time>2026-04-18T14:59:46.215Z</time></trkpt><trkpt lat="39.1970467" lon="8.6283127"><ele>350.0</ele><time>2026-04-18T14:59:48.21Z</time></trkpt><trkpt lat="39.1970927" lon="8.6282253"><ele>350.0</ele><time>2026-04-18T14:59:50.214Z</time></trkpt><trkpt lat="39.1971736" lon="8.6282367"><ele>350.0</ele><time>2026-04-18T14:59:54.207Z</time></trkpt><trkpt lat="39.1972368" lon="8.6282191"><ele>350.0</ele><time>2026-04-18T14:59:56.204Z</time></trkpt><trkpt lat="39.1973101" lon="8.6281933"><ele>350.0</ele><time>2026-04-18T15:00:40.212Z</time></trkpt><trkpt lat="39.1973762" lon="8.6281472"><ele>351.1666666666667</ele><time>2026-04-18T15:00:42.211Z</time></trkpt><trkpt lat="39.197439" lon="8.6281238"><ele>352.33333333333337</ele><time>2026-04-18T15:00:44.206Z</time></trkpt><trkpt lat="39.1975175" lon="8.6280637"><ele>353.5</ele><time>2026-04-18T15:00:46.218Z</time></trkpt><trkpt lat="39.1975952" lon="8.6280175"><ele>354.6666666666667</ele><time>2026-04-18T15:00:47.217Z</time></trkpt><trkpt lat="39.197668" lon="8.6279817"><ele>355.8333333333333</ele><time>2026-04-18T15:00:48.2Z</time></trkpt><trkpt lat="39.1977438" lon="8.6279473"><ele>357.0</ele><time>2026-04-18T15:00:49.199Z</time></trkpt><trkpt lat="39.1978219" lon="8.6279054"><ele>357.0</ele><time>2026-04-18T15:00:50.208Z</time></trkpt><trkpt lat="39.1978936" lon="8.6278685"><ele>357.0</ele><time>2026-04-18T15:00:51.212Z</time></trkpt><trkpt lat="39.1979638" lon="8.6278276"><ele>357.0</ele><time>2026-04-18T15:00:52.212Z</time></trkpt><trkpt lat="39.1980556" lon="8.6277814"><ele>357.0</ele><time>2026-04-18T15:00:53.216Z</time></trkpt><trkpt lat="39.1981602" lon="8.627746"><ele>357.0</ele><time>2026-04-18T15:00:54.203Z</time></trkpt><trkpt lat="39.1982516" lon="8.6277047"><ele>356.5</ele><time>2026-04-18T15:00:55.214Z</time></trkpt><trkpt lat="39.1983399" lon="8.6276674"><ele>356.0</ele><time>2026-04-18T15:00:56.218Z</time></trkpt><trkpt lat="39.198425" lon="8.6276464"><ele>355.5</ele><time>2026-04-18T15:00:57.214Z</time></trkpt><trkpt lat="39.1985148" lon="8.6276169"><ele>355.0</ele><time>2026-04-18T15:00:58.227Z</time></trkpt><trkpt lat="39.1986052" lon="8.6275929"><ele>354.5</ele><time>2026-04-18T15:00:59.234Z</time></trkpt><trkpt lat="39.1986887" lon="8.6275738"><ele>354.0</ele><time>2026-04-18T15:01:00.223Z</time></trkpt><trkpt lat="39.1987671" lon="8.6275607"><ele>354.0</ele><time>2026-04-18T15:01:01.194Z</time></trkpt><trkpt lat="39.1988454" lon="8.6275445"><ele>354.0</ele><time>2026-04-18T15:01:02.213Z</time></trkpt><trkpt lat="39.1989296" lon="8.6275213"><ele>354.0</ele><time>2026-04-18T15:01:03.212Z</time></trkpt><trkpt lat="39.1990263" lon="8.6274866"><ele>354.0</ele><time>2026-04-18T15:01:04.213Z</time></trkpt><trkpt lat="39.1991271" lon="8.6274549"><ele>354.0</ele><time>2026-04-18T15:01:05.216Z</time></trkpt><trkpt lat="39.1992221" lon="8.6274354"><ele>355.1666666666667</ele><time>2026-04-18T15:01:06.222Z</time></trkpt><trkpt lat="39.1993121" lon="8.6274273"><ele>356.3333333333333</ele><time>2026-04-18T15:01:07.216Z</time></trkpt><trkpt lat="39.1993965" lon="8.6274243"><ele>357.5</ele><time>2026-04-18T15:01:08.201Z</time></trkpt><trkpt lat="39.1994805" lon="8.6274139"><ele>358.66666666666663</ele><time>2026-04-18T15:01:09.221Z</time></trkpt><trkpt lat="39.1995603" lon="8.6274038"><ele>359.8333333333333</ele><time>2026-04-18T15:01:10.219Z</time></trkpt><trkpt lat="39.1996383" lon="8.6273983"><ele>361.0</ele><time>2026-04-18T15:01:11.217Z</time></trkpt><trkpt lat="39.1997161" lon="8.6273894"><ele>361.0</ele><time>2026-04-18T15:01:12.225Z</time></trkpt><trkpt lat="39.199791" lon="8.6273758"><ele>361.0</ele><time>2026-04-18T15:01:13.216Z</time></trkpt><trkpt lat="39.1998594" lon="8.6273448"><ele>361.0</ele><time>2026-04-18T15:01:14.223Z</time></trkpt><trkpt lat="39.1999248" lon="8.6273226"><ele>361.0</ele><time>2026-04-18T15:01:15.212Z</time></trkpt><trkpt lat="39.1999978" lon="8.6273099"><ele>361.0</ele><time>2026-04-18T15:01:16.223Z</time></trkpt><trkpt lat="39.2000704" lon="8.6273049"><ele>361.0</ele><time>2026-04-18T15:01:17.213Z</time></trkpt><trkpt lat="39.200155" lon="8.6272942"><ele>361.0</ele><time>2026-04-18T15:01:18.214Z</time></trkpt><trkpt lat="39.2002469" lon="8.627282"><ele>360.8333333333333</ele><time>2026-04-18T15:01:19.219Z</time></trkpt><trkpt lat="39.2003351" lon="8.6272766"><ele>360.66666666666663</ele><time>2026-04-18T15:01:20.22Z</time></trkpt><trkpt lat="39.2004133" lon="8.6272837"><ele>360.5</ele><time>2026-04-18T15:01:21.203Z</time></trkpt><trkpt lat="39.200489" lon="8.6272885"><ele>360.3333333333333</ele><time>2026-04-18T15:01:22.213Z</time></trkpt><trkpt lat="39.2005543" lon="8.627298"><ele>360.1666666666667</ele><time>2026-04-18T15:01:23.211Z</time></trkpt><trkpt lat="39.2006183" lon="8.6273141"><ele>360.0</ele><time>2026-04-18T15:01:24.197Z</time></trkpt><trkpt lat="39.2007288" lon="8.6273541"><ele>358.0</ele><time>2026-04-18T15:01:26.208Z</time></trkpt><trkpt lat="39.2008525" lon="8.627403"><ele>356.0</ele><time>2026-04-18T15:01:28.224Z</time></trkpt><trkpt lat="39.2009215" lon="8.6274298"><ele>354.0</ele><time>2026-04-18T15:01:29.218Z</time></trkpt><trkpt lat="39.2009826" lon="8.6274571"><ele>352.0</ele><time>2026-04-18T15:01:30.215Z</time></trkpt><trkpt lat="39.2010896" lon="8.627489"><ele>350.0</ele><time>2026-04-18T15:01:32.212Z</time></trkpt><trkpt lat="39.2011566" lon="8.6274177"><ele>350.0</ele><time>2026-04-18T15:01:34.201Z</time></trkpt><trkpt lat="39.2011751" lon="8.6273231"><ele>350.0</ele><time>2026-04-18T15:01:36.202Z</time></trkpt><trkpt lat="39.20123" lon="8.627277"><ele>350.0</ele><time>2026-04-18T15:01:40.198Z</time></trkpt><trkpt lat="39.2012742" lon="8.6273463"><ele>350.0</ele><time>2026-04-18T15:02:00.217Z</time></trkpt><trkpt lat="39.2013491" lon="8.6274219"><ele>350.0</ele><time>2026-04-18T15:02:03.208Z</time></trkpt><trkpt lat="39.2013981" lon="8.6274881"><ele>350.0</ele><time>2026-04-18T15:02:06.21Z</time></trkpt><trkpt lat="39.201452" lon="8.6275302"><ele>350.0</ele><time>2026-04-18T15:02:09.22Z</time></trkpt><trkpt lat="39.2015232" lon="8.6275201"><ele>348.8</ele><time>2026-04-18T15:04:03.239Z</time></trkpt><trkpt lat="39.2016154" lon="8.6274685"><ele>347.6</ele><time>2026-04-18T15:04:05.203Z</time></trkpt><trkpt lat="39.2017062" lon="8.6274278"><ele>346.4</ele><time>2026-04-18T15:04:07.205Z</time></trkpt><trkpt lat="39.2018111" lon="8.6273991"><ele>345.2</ele><time>2026-04-18T15:04:09.206Z</time></trkpt><trkpt lat="39.2019333" lon="8.6274442"><ele>344.0</ele><time>2026-04-18T15:04:11.202Z</time></trkpt><trkpt lat="39.2020038" lon="8.6274813"><ele>344.0</ele><time>2026-04-18T15:04:12.215Z</time></trkpt><trkpt lat="39.2020724" lon="8.6275265"><ele>344.0</ele><time>2026-04-18T15:04:13.222Z</time></trkpt><trkpt lat="39.2021541" lon="8.62757"><ele>344.0</ele><time>2026-04-18T15:04:14.211Z</time></trkpt><trkpt lat="39.2022347" lon="8.6276019"><ele>344.0</ele><time>2026-04-18T15:04:15.23Z</time></trkpt><trkpt lat="39.202304" lon="8.627619"><ele>344.0</ele><time>2026-04-18T15:04:16.214Z</time></trkpt><trkpt lat="39.2023759" lon="8.6276249"><ele>344.0</ele><time>2026-04-18T15:04:17.21Z</time></trkpt><trkpt lat="39.2024467" lon="8.6276092"><ele>341.83333333333337</ele><time>2026-04-18T15:04:18.212Z</time></trkpt><trkpt lat="39.2025135" lon="8.6275815"><ele>339.6666666666667</ele><time>2026-04-18T15:04:19.227Z</time></trkpt><trkpt lat="39.2026298" lon="8.6275245"><ele>337.5</ele><time>2026-04-18T15:04:21.204Z</time></trkpt><trkpt lat="39.2026909" lon="8.6274891"><ele>335.3333333333333</ele><time>2026-04-18T15:04:22.221Z</time></trkpt><trkpt lat="39.2027514" lon="8.6274551"><ele>333.16666666666663</ele><time>2026-04-18T15:04:23.213Z</time></trkpt><trkpt lat="39.2028138" lon="8.6274086"><ele>331.0</ele><time>2026-04-18T15:04:24.223Z</time></trkpt><trkpt lat="39.2029066" lon="8.6273421"><ele>331.0</ele><time>2026-04-18T15:04:26.21Z</time></trkpt><trkpt lat="39.2029458" lon="8.6272736"><ele>331.0</ele><time>2026-04-18T15:04:28.246Z</time></trkpt><trkpt lat="39.2029802" lon="8.6271235"><ele>331.0</ele><time>2026-04-18T15:04:30.214Z</time></trkpt><trkpt lat="39.2029964" lon="8.6270251"><ele>331.0</ele><time>2026-04-18T15:04:31.22Z</time></trkpt><trkpt lat="39.2030148" lon="8.626922"><ele>331.0</ele><time>2026-04-18T15:04:32.215Z</time></trkpt><trkpt lat="39.203046" lon="8.6268205"><ele>331.0</ele><time>2026-04-18T15:04:33.211Z</time></trkpt><trkpt lat="39.2030855" lon="8.626731"><ele>330.8333333333333</ele><time>2026-04-18T15:04:34.213Z</time></trkpt><trkpt lat="39.2031242" lon="8.6266385"><ele>330.66666666666663</ele><time>2026-04-18T15:04:35.226Z</time></trkpt><trkpt lat="39.2031635" lon="8.6265501"><ele>330.5</ele><time>2026-04-18T15:04:36.222Z</time></trkpt><trkpt lat="39.2031957" lon="8.6264741"><ele>330.3333333333333</ele><time>2026-04-18T15:04:37.225Z</time></trkpt><trkpt lat="39.2032525" lon="8.6263494"><ele>330.1666666666667</ele><time>2026-04-18T15:04:39.221Z</time></trkpt><trkpt lat="39.2032923" lon="8.6262651"><ele>330.0</ele><time>2026-04-18T15:04:41.214Z</time></trkpt><trkpt lat="39.2033278" lon="8.6261753"><ele>330.0</ele><time>2026-04-18T15:04:44.21Z</time></trkpt></trkseg><trkseg><trkpt lat="39.203264" lon="8.6262354"><ele>330.0</ele><time>2026-04-18T15:23:25.194Z</time></trkpt><trkpt lat="39.2032512" lon="8.6263196"><ele>330.0</ele><time>2026-04-18T15:25:50.219Z</time></trkpt><trkpt lat="39.2031951" lon="8.6264102"><ele>330.0</ele><time>2026-04-18T15:26:20.209Z</time></trkpt><trkpt lat="39.2031625" lon="8.6264997"><ele>330.0</ele><time>2026-04-18T15:26:22.211Z</time></trkpt><trkpt lat="39.2031155" lon="8.6266185"><ele>330.0</ele><time>2026-04-18T15:26:24.201Z</time></trkpt><trkpt lat="39.2030804" lon="8.6267478"><ele>330.0</ele><time>2026-04-18T15:26:26.21Z</time></trkpt><trkpt lat="39.2030494" lon="8.6268619"><ele>330.2</ele><time>2026-04-18T15:26:28.217Z</time></trkpt><trkpt lat="39.203024" lon="8.6269852"><ele>330.4</ele><time>2026-04-18T15:26:30.211Z</time></trkpt><trkpt lat="39.2029964" lon="8.6271015"><ele>330.6</ele><time>2026-04-18T15:26:32.189Z</time></trkpt><trkpt lat="39.2029752" lon="8.6272063"><ele>330.8</ele><time>2026-04-18T15:26:34.2Z</time></trkpt><trkpt lat="39.2029606" lon="8.6272994"><ele>331.0</ele><time>2026-04-18T15:26:36.206Z</time></trkpt><trkpt lat="39.2029418" lon="8.6274716"><ele>331.0</ele><time>2026-04-18T15:26:38.223Z</time></trkpt><trkpt lat="39.2029345" lon="8.6275975"><ele>331.0</ele><time>2026-04-18T15:26:39.199Z</time></trkpt><trkpt lat="39.2029294" lon="8.6277244"><ele>331.0</ele><time>2026-04-18T15:26:40.211Z</time></trkpt><trkpt lat="39.2029243" lon="8.6278518"><ele>331.0</ele><time>2026-04-18T15:26:41.207Z</time></trkpt><trkpt lat="39.2029159" lon="8.6279658"><ele>331.0</ele><time>2026-04-18T15:26:42.207Z</time></trkpt><trkpt lat="39.2029133" lon="8.6280752"><ele>332.0</ele><time>2026-04-18T15:26:43.21Z</time></trkpt><trkpt lat="39.202912" lon="8.6281851"><ele>333.0</ele><time>2026-04-18T15:26:44.205Z</time></trkpt><trkpt lat="39.2029114" lon="8.6282996"><ele>334.0</ele><time>2026-04-18T15:26:45.22Z</time></trkpt><trkpt lat="39.2028993" lon="8.6284175"><ele>335.0</ele><time>2026-04-18T15:26:46.207Z</time></trkpt><trkpt lat="39.20288" lon="8.6285369"><ele>336.0</ele><time>2026-04-18T15:26:47.208Z</time></trkpt><trkpt lat="39.2028638" lon="8.6286572"><ele>336.8</ele><time>2026-04-18T15:26:48.219Z</time></trkpt><trkpt lat="39.2028505" lon="8.628781"><ele>337.6</ele><time>2026-04-18T15:26:49.207Z</time></trkpt><trkpt lat="39.2028547" lon="8.6289124"><ele>338.4</ele><time>2026-04-18T15:26:50.206Z</time></trkpt><trkpt lat="39.2028607" lon="8.6290448"><ele>339.2</ele><time>2026-04-18T15:26:51.219Z</time></trkpt><trkpt lat="39.2028667" lon="8.6291962"><ele>340.0</ele><time>2026-04-18T15:26:52.221Z</time></trkpt><trkpt lat="39.2028811" lon="8.629368"><ele>340.3333333333333</ele><time>2026-04-18T15:26:53.206Z</time></trkpt><trkpt lat="39.2029036" lon="8.6295739"><ele>340.6666666666667</ele><time>2026-04-18T15:26:54.205Z</time></trkpt><trkpt lat="39.2029278" lon="8.6297919"><ele>341.0</ele><time>2026-04-18T15:26:55.232Z</time></trkpt><trkpt lat="39.2029319" lon="8.6300446"><ele>341.0</ele><time>2026-04-18T15:26:56.193Z</time></trkpt><trkpt lat="39.2029272" lon="8.6303013"><ele>341.0</ele><time>2026-04-18T15:26:57.214Z</time></trkpt><trkpt lat="39.2029198" lon="8.6305328"><ele>341.0</ele><time>2026-04-18T15:26:58.213Z</time></trkpt><trkpt lat="39.2029164" lon="8.6307358"><ele>341.75</ele><time>2026-04-18T15:26:59.196Z</time></trkpt><trkpt lat="39.2029019" lon="8.6309167"><ele>342.5</ele><time>2026-04-18T15:27:00.204Z</time></trkpt><trkpt lat="39.2028937" lon="8.631093"><ele>343.25</ele><time>2026-04-18T15:27:01.207Z</time></trkpt><trkpt lat="39.2028845" lon="8.6312694"><ele>344.0</ele><time>2026-04-18T15:27:02.216Z</time></trkpt><trkpt lat="39.2028746" lon="8.6314467"><ele>345.0</ele><time>2026-04-18T15:27:03.208Z</time></trkpt><trkpt lat="39.2028634" lon="8.6316277"><ele>346.0</ele><time>2026-04-18T15:27:04.207Z</time></trkpt><trkpt lat="39.2028512" lon="8.631801"><ele>347.0</ele><time>2026-04-18T15:27:05.204Z</time></trkpt><trkpt lat="39.2028357" lon="8.6319631"><ele>348.0</ele><time>2026-04-18T15:27:06.207Z</time></trkpt><trkpt lat="39.2028286" lon="8.6321302"><ele>349.0</ele><time>2026-04-18T15:27:07.204Z</time></trkpt><trkpt lat="39.2028205" lon="8.6322952"><ele>350.0</ele><time>2026-04-18T15:27:08.206Z</time></trkpt><trkpt lat="39.2028235" lon="8.63247"><ele>351.0</ele><time>2026-04-18T15:27:09.21Z</time></trkpt><trkpt lat="39.2028353" lon="8.6326412"><ele>352.0</ele><time>2026-04-18T15:27:10.197Z</time></trkpt><trkpt lat="39.2028552" lon="8.6328212"><ele>352.25</ele><time>2026-04-18T15:27:11.207Z</time></trkpt><trkpt lat="39.2028764" lon="8.6329978"><ele>352.5</ele><time>2026-04-18T15:27:12.209Z</time></trkpt><trkpt lat="39.202899" lon="8.6331703"><ele>352.75</ele><time>2026-04-18T15:27:13.207Z</time></trkpt><trkpt lat="39.2029122" lon="8.6333335"><ele>353.0</ele><time>2026-04-18T15:27:14.208Z</time></trkpt><trkpt lat="39.2029142" lon="8.6335173"><ele>351.6666666666667</ele><time>2026-04-18T15:27:15.217Z</time></trkpt><trkpt lat="39.2029047" lon="8.6337048"><ele>350.3333333333333</ele><time>2026-04-18T15:27:16.217Z</time></trkpt><trkpt lat="39.2028841" lon="8.6339058"><ele>349.0</ele><time>2026-04-18T15:27:17.213Z</time></trkpt><trkpt lat="39.2028547" lon="8.6340999"><ele>349.0</ele><time>2026-04-18T15:27:18.246Z</time></trkpt><trkpt lat="39.2028205" lon="8.6342933"><ele>349.0</ele><time>2026-04-18T15:27:19.207Z</time></trkpt><trkpt lat="39.2027875" lon="8.6344784"><ele>349.0</ele><time>2026-04-18T15:27:20.207Z</time></trkpt><trkpt lat="39.2027604" lon="8.6346502"><ele>349.0</ele><time>2026-04-18T15:27:21.216Z</time></trkpt><trkpt lat="39.2027245" lon="8.6348165"><ele>347.5</ele><time>2026-04-18T15:27:22.212Z</time></trkpt><trkpt lat="39.2026954" lon="8.6349786"><ele>346.0</ele><time>2026-04-18T15:27:23.213Z</time></trkpt><trkpt lat="39.2026503" lon="8.6351428"><ele>344.5</ele><time>2026-04-18T15:27:24.262Z</time></trkpt><trkpt lat="39.2025966" lon="8.6353055"><ele>343.0</ele><time>2026-04-18T15:27:25.203Z</time></trkpt><trkpt lat="39.2025121" lon="8.6354555"><ele>340.66666666666663</ele><time>2026-04-18T15:27:26.193Z</time></trkpt><trkpt lat="39.2024182" lon="8.6356096"><ele>338.3333333333333</ele><time>2026-04-18T15:27:27.201Z</time></trkpt><trkpt lat="39.2023119" lon="8.635766"><ele>336.0</ele><time>2026-04-18T15:27:28.194Z</time></trkpt><trkpt lat="39.202205" lon="8.6359319"><ele>335.0</ele><time>2026-04-18T15:27:29.203Z</time></trkpt><trkpt lat="39.2021004" lon="8.6361121"><ele>334.0</ele><time>2026-04-18T15:27:30.198Z</time></trkpt><trkpt lat="39.202005" lon="8.6363375"><ele>333.0</ele><time>2026-04-18T15:27:31.246Z</time></trkpt><trkpt lat="39.2019155" lon="8.6365633"><ele>333.0</ele><time>2026-04-18T15:27:32.199Z</time></trkpt><trkpt lat="39.2018419" lon="8.6367754"><ele>333.0</ele><time>2026-04-18T15:27:33.194Z</time></trkpt><trkpt lat="39.2017738" lon="8.6369605"><ele>333.0</ele><time>2026-04-18T15:27:34.202Z</time></trkpt><trkpt lat="39.2017119" lon="8.63713"><ele>335.0</ele><time>2026-04-18T15:27:35.206Z</time></trkpt><trkpt lat="39.2016491" lon="8.6373047"><ele>337.0</ele><time>2026-04-18T15:27:36.208Z</time></trkpt><trkpt lat="39.2015975" lon="8.6374837"><ele>339.0</ele><time>2026-04-18T15:27:37.195Z</time></trkpt><trkpt lat="39.2015442" lon="8.6376702"><ele>345.0</ele><time>2026-04-18T15:27:38.212Z</time></trkpt><trkpt lat="39.2014936" lon="8.6378618"><ele>351.0</ele><time>2026-04-18T15:27:39.2Z</time></trkpt><trkpt lat="39.2014488" lon="8.6380467"><ele>357.0</ele><time>2026-04-18T15:27:40.242Z</time></trkpt><trkpt lat="39.2014076" lon="8.6382273"><ele>357.0</ele><time>2026-04-18T15:27:41.21Z</time></trkpt><trkpt lat="39.2013709" lon="8.6384053"><ele>357.0</ele><time>2026-04-18T15:27:42.207Z</time></trkpt><trkpt lat="39.2013272" lon="8.6385969"><ele>357.0</ele><time>2026-04-18T15:27:43.213Z</time></trkpt><trkpt lat="39.2012798" lon="8.638785"><ele>356.25</ele><time>2026-04-18T15:27:44.196Z</time></trkpt><trkpt lat="39.201227" lon="8.6389699"><ele>355.5</ele><time>2026-04-18T15:27:45.202Z</time></trkpt><trkpt lat="39.2011727" lon="8.6391461"><ele>354.75</ele><time>2026-04-18T15:27:46.191Z</time></trkpt><trkpt lat="39.2011147" lon="8.6393167"><ele>354.0</ele><time>2026-04-18T15:27:47.218Z</time></trkpt><trkpt lat="39.2010577" lon="8.6394909"><ele>353.6666666666667</ele><time>2026-04-18T15:27:48.219Z</time></trkpt><trkpt lat="39.2010043" lon="8.6396741"><ele>353.33333333333337</ele><time>2026-04-18T15:27:49.201Z</time></trkpt><trkpt lat="39.2009623" lon="8.6398686"><ele>353.0</ele><time>2026-04-18T15:27:50.204Z</time></trkpt><trkpt lat="39.2009336" lon="8.6400655"><ele>353.0</ele><time>2026-04-18T15:27:51.198Z</time></trkpt><trkpt lat="39.2009259" lon="8.6402526"><ele>353.0</ele><time>2026-04-18T15:27:52.207Z</time></trkpt><trkpt lat="39.2009282" lon="8.6404362"><ele>353.0</ele><time>2026-04-18T15:27:53.21Z</time></trkpt><trkpt lat="39.2009206" lon="8.6406188"><ele>353.0</ele><time>2026-04-18T15:27:54.208Z</time></trkpt><trkpt lat="39.2009153" lon="8.6408088"><ele>353.0</ele><time>2026-04-18T15:27:55.214Z</time></trkpt><trkpt lat="39.2009108" lon="8.6410083"><ele>353.0</ele><time>2026-04-18T15:27:56.206Z</time></trkpt><trkpt lat="39.2009104" lon="8.6412142"><ele>353.0</ele><time>2026-04-18T15:27:57.214Z</time></trkpt><trkpt lat="39.2009007" lon="8.6414127"><ele>351.6666666666667</ele><time>2026-04-18T15:27:58.21Z</time></trkpt><trkpt lat="39.2008709" lon="8.6416173"><ele>350.3333333333333</ele><time>2026-04-18T15:27:59.203Z</time></trkpt><trkpt lat="39.2008191" lon="8.6418298"><ele>349.0</ele><time>2026-04-18T15:28:00.209Z</time></trkpt><trkpt lat="39.2007673" lon="8.6420488"><ele>349.0</ele><time>2026-04-18T15:28:01.203Z</time></trkpt><trkpt lat="39.2007116" lon="8.6422678"><ele>349.0</ele><time>2026-04-18T15:28:02.185Z</time></trkpt><trkpt lat="39.2006523" lon="8.6424852"><ele>349.0</ele><time>2026-04-18T15:28:03.248Z</time></trkpt><trkpt lat="39.2005935" lon="8.6427068"><ele>347.3333333333333</ele><time>2026-04-18T15:28:04.209Z</time></trkpt><trkpt lat="39.2005322" lon="8.6429158"><ele>345.6666666666667</ele><time>2026-04-18T15:28:05.207Z</time></trkpt><trkpt lat="39.2004745" lon="8.6431227"><ele>344.0</ele><time>2026-04-18T15:28:06.204Z</time></trkpt><trkpt lat="39.2004227" lon="8.6433191"><ele>344.0</ele><time>2026-04-18T15:28:07.208Z</time></trkpt><trkpt lat="39.2003721" lon="8.6435064"><ele>344.0</ele><time>2026-04-18T15:28:08.202Z</time></trkpt><trkpt lat="39.2003239" lon="8.6436908"><ele>344.0</ele><time>2026-04-18T15:28:09.207Z</time></trkpt><trkpt lat="39.2002703" lon="8.6438727"><ele>343.33333333333337</ele><time>2026-04-18T15:28:10.212Z</time></trkpt><trkpt lat="39.200212" lon="8.6440687"><ele>342.6666666666667</ele><time>2026-04-18T15:28:11.2Z</time></trkpt><trkpt lat="39.2001533" lon="8.6442629"><ele>342.0</ele><time>2026-04-18T15:28:12.2Z</time></trkpt><trkpt lat="39.2000978" lon="8.6444555"><ele>341.6666666666667</ele><time>2026-04-18T15:28:13.194Z</time></trkpt><trkpt lat="39.2000438" lon="8.6446418"><ele>341.33333333333337</ele><time>2026-04-18T15:28:14.217Z</time></trkpt><trkpt lat="39.1999958" lon="8.6448232"><ele>341.0</ele><time>2026-04-18T15:28:15.211Z</time></trkpt><trkpt lat="39.1999481" lon="8.6450069"><ele>341.0</ele><time>2026-04-18T15:28:16.21Z</time></trkpt><trkpt lat="39.1998993" lon="8.645195"><ele>341.0</ele><time>2026-04-18T15:28:17.218Z</time></trkpt><trkpt lat="39.1998561" lon="8.6453891"><ele>341.0</ele><time>2026-04-18T15:28:18.213Z</time></trkpt><trkpt lat="39.199816" lon="8.6455829"><ele>341.6666666666667</ele><time>2026-04-18T15:28:19.204Z</time></trkpt><trkpt lat="39.1997823" lon="8.6457848"><ele>342.3333333333333</ele><time>2026-04-18T15:28:20.205Z</time></trkpt><trkpt lat="39.1997443" lon="8.6459814"><ele>343.0</ele><time>2026-04-18T15:28:21.214Z</time></trkpt><trkpt lat="39.1997003" lon="8.6461816"><ele>343.0</ele><time>2026-04-18T15:28:22.222Z</time></trkpt><trkpt lat="39.1996551" lon="8.6463854"><ele>343.0</ele><time>2026-04-18T15:28:23.207Z</time></trkpt><trkpt lat="39.1995986" lon="8.6465863"><ele>343.0</ele><time>2026-04-18T15:28:24.215Z</time></trkpt><trkpt lat="39.1995375" lon="8.6467959"><ele>341.0</ele><time>2026-04-18T15:28:25.208Z</time></trkpt><trkpt lat="39.1994759" lon="8.6469961"><ele>339.0</ele><time>2026-04-18T15:28:26.238Z</time></trkpt><trkpt lat="39.199412" lon="8.6471985"><ele>337.0</ele><time>2026-04-18T15:28:27.215Z</time></trkpt><trkpt lat="39.1993592" lon="8.6473862"><ele>337.0</ele><time>2026-04-18T15:28:28.208Z</time></trkpt><trkpt lat="39.1993038" lon="8.6475675"><ele>337.0</ele><time>2026-04-18T15:28:29.204Z</time></trkpt><trkpt lat="39.1992534" lon="8.6477519"><ele>337.0</ele><time>2026-04-18T15:28:30.207Z</time></trkpt><trkpt lat="39.1991957" lon="8.6479355"><ele>335.3333333333333</ele><time>2026-04-18T15:28:31.198Z</time></trkpt><trkpt lat="39.1991424" lon="8.6481224"><ele>333.6666666666667</ele><time>2026-04-18T15:28:32.212Z</time></trkpt><trkpt lat="39.199089" lon="8.6483148"><ele>332.0</ele><time>2026-04-18T15:28:33.214Z</time></trkpt><trkpt lat="39.1990279" lon="8.6485163"><ele>332.0</ele><time>2026-04-18T15:28:34.213Z</time></trkpt><trkpt lat="39.1989636" lon="8.648724"><ele>332.0</ele><time>2026-04-18T15:28:35.215Z</time></trkpt><trkpt lat="39.1988964" lon="8.6489315"><ele>332.0</ele><time>2026-04-18T15:28:36.203Z</time></trkpt><trkpt lat="39.198835" lon="8.6491335"><ele>332.0</ele><time>2026-04-18T15:28:37.215Z</time></trkpt><trkpt lat="39.1987784" lon="8.6493252"><ele>332.0</ele><time>2026-04-18T15:28:38.18Z</time></trkpt><trkpt lat="39.1987219" lon="8.6495109"><ele>332.0</ele><time>2026-04-18T15:28:39.2Z</time></trkpt><trkpt lat="39.1986628" lon="8.6496983"><ele>332.75</ele><time>2026-04-18T15:28:40.21Z</time></trkpt><trkpt lat="39.1986056" lon="8.6498844"><ele>333.5</ele><time>2026-04-18T15:28:41.205Z</time></trkpt><trkpt lat="39.1985465" lon="8.6500641"><ele>334.25</ele><time>2026-04-18T15:28:42.217Z</time></trkpt><trkpt lat="39.1984923" lon="8.6502342"><ele>335.0</ele><time>2026-04-18T15:28:43.215Z</time></trkpt><trkpt lat="39.1984373" lon="8.6504015"><ele>336.0</ele><time>2026-04-18T15:28:44.196Z</time></trkpt><trkpt lat="39.1983804" lon="8.6505732"><ele>337.0</ele><time>2026-04-18T15:28:45.203Z</time></trkpt><trkpt lat="39.1983239" lon="8.6507448"><ele>338.0</ele><time>2026-04-18T15:28:46.212Z</time></trkpt><trkpt lat="39.1982589" lon="8.6509307"><ele>339.0</ele><time>2026-04-18T15:28:47.224Z</time></trkpt><trkpt lat="39.1981924" lon="8.6511139"><ele>339.3333333333333</ele><time>2026-04-18T15:28:48.217Z</time></trkpt><trkpt lat="39.1981123" lon="8.6512996"><ele>339.66666666666663</ele><time>2026-04-18T15:28:49.207Z</time></trkpt><trkpt lat="39.1980277" lon="8.6514785"><ele>340.0</ele><time>2026-04-18T15:28:50.206Z</time></trkpt><trkpt lat="39.1979465" lon="8.6516573"><ele>340.0</ele><time>2026-04-18T15:28:51.215Z</time></trkpt><trkpt lat="39.1978599" lon="8.6518367"><ele>340.0</ele><time>2026-04-18T15:28:52.222Z</time></trkpt><trkpt lat="39.1977716" lon="8.6520195"><ele>340.0</ele><time>2026-04-18T15:28:53.201Z</time></trkpt><trkpt lat="39.1976805" lon="8.6522064"><ele>342.0</ele><time>2026-04-18T15:28:54.242Z</time></trkpt><trkpt lat="39.1975994" lon="8.6523825"><ele>344.0</ele><time>2026-04-18T15:28:55.227Z</time></trkpt><trkpt lat="39.1975161" lon="8.6525601"><ele>346.0</ele><time>2026-04-18T15:28:56.214Z</time></trkpt><trkpt lat="39.197435" lon="8.6527286"><ele>347.5</ele><time>2026-04-18T15:28:57.206Z</time></trkpt><trkpt lat="39.1973654" lon="8.6528826"><ele>349.0</ele><time>2026-04-18T15:28:58.204Z</time></trkpt><trkpt lat="39.1972972" lon="8.6530235"><ele>350.5</ele><time>2026-04-18T15:28:59.209Z</time></trkpt><trkpt lat="39.1972337" lon="8.6531526"><ele>352.0</ele><time>2026-04-18T15:29:00.191Z</time></trkpt><trkpt lat="39.1971776" lon="8.6532772"><ele>352.5</ele><time>2026-04-18T15:29:01.222Z</time></trkpt><trkpt lat="39.1971237" lon="8.6533918"><ele>353.0</ele><time>2026-04-18T15:29:02.201Z</time></trkpt><trkpt lat="39.1970743" lon="8.6534959"><ele>353.5</ele><time>2026-04-18T15:29:03.202Z</time></trkpt><trkpt lat="39.1970419" lon="8.6535792"><ele>354.0</ele><time>2026-04-18T15:29:04.184Z</time></trkpt><trkpt lat="39.1970126" lon="8.6537007"><ele>354.5</ele><time>2026-04-18T15:29:06.203Z</time></trkpt><trkpt lat="39.1970535" lon="8.6537891"><ele>355.0</ele><time>2026-04-18T15:29:08.219Z</time></trkpt><trkpt lat="39.1971358" lon="8.6538121"><ele>355.5</ele><time>2026-04-18T15:29:10.203Z</time></trkpt><trkpt lat="39.1972131" lon="8.6538337"><ele>356.0</ele><time>2026-04-18T15:29:12.212Z</time></trkpt><trkpt lat="39.1973243" lon="8.653886"><ele>356.5</ele><time>2026-04-18T15:29:14.201Z</time></trkpt><trkpt lat="39.1973876" lon="8.6539103"><ele>357.0</ele><time>2026-04-18T15:29:15.206Z</time></trkpt><trkpt lat="39.1974484" lon="8.6539329"><ele>357.5</ele><time>2026-04-18T15:29:16.205Z</time></trkpt><trkpt lat="39.197543" lon="8.653976"><ele>358.0</ele><time>2026-04-18T15:29:19.206Z</time></trkpt><trkpt lat="39.1976117" lon="8.6539764"><ele>358.5</ele><time>2026-04-18T15:29:20.206Z</time></trkpt><trkpt lat="39.1977027" lon="8.6539707"><ele>359.0</ele><time>2026-04-18T15:29:21.215Z</time></trkpt><trkpt lat="39.197802" lon="8.6539476"><ele>359.5</ele><time>2026-04-18T15:29:22.201Z</time></trkpt><trkpt lat="39.197933" lon="8.6539124"><ele>360.0</ele><time>2026-04-18T15:29:23.202Z</time></trkpt><trkpt lat="39.1980596" lon="8.6538764"><ele>360.0</ele><time>2026-04-18T15:29:24.203Z</time></trkpt><trkpt lat="39.1981651" lon="8.6538679"><ele>360.0</ele><time>2026-04-18T15:29:25.211Z</time></trkpt><trkpt lat="39.1982465" lon="8.6538507"><ele>360.0</ele><time>2026-04-18T15:29:26.213Z</time></trkpt><trkpt lat="39.1983213" lon="8.6538408"><ele>360.0</ele><time>2026-04-18T15:29:27.19Z</time></trkpt><trkpt lat="39.1983867" lon="8.6538232"><ele>360.0</ele><time>2026-04-18T15:29:28.198Z</time></trkpt><trkpt lat="39.1984572" lon="8.6537914"><ele>360.0</ele><time>2026-04-18T15:29:29.207Z</time></trkpt><trkpt lat="39.1985424" lon="8.6537487"><ele>360.2</ele><time>2026-04-18T15:29:30.203Z</time></trkpt><trkpt lat="39.1986412" lon="8.6536971"><ele>360.4</ele><time>2026-04-18T15:29:31.201Z</time></trkpt><trkpt lat="39.1987556" lon="8.65367"><ele>360.6</ele><time>2026-04-18T15:29:32.21Z</time></trkpt><trkpt lat="39.1988615" lon="8.6536421"><ele>360.8</ele><time>2026-04-18T15:29:33.19Z</time></trkpt><trkpt lat="39.1989582" lon="8.6536107"><ele>361.0</ele><time>2026-04-18T15:29:34.205Z</time></trkpt><trkpt lat="39.19905" lon="8.6535753"><ele>359.66666666666663</ele><time>2026-04-18T15:29:35.201Z</time></trkpt><trkpt lat="39.1991221" lon="8.6535264"><ele>358.3333333333333</ele><time>2026-04-18T15:29:36.189Z</time></trkpt><trkpt lat="39.1991935" lon="8.6534818"><ele>357.0</ele><time>2026-04-18T15:29:37.202Z</time></trkpt><trkpt lat="39.1993086" lon="8.6534332"><ele>355.6666666666667</ele><time>2026-04-18T15:29:39.234Z</time></trkpt><trkpt lat="39.1993763" lon="8.6534121"><ele>354.33333333333337</ele><time>2026-04-18T15:29:40.198Z</time></trkpt><trkpt lat="39.1994464" lon="8.6533887"><ele>353.0</ele><time>2026-04-18T15:29:41.198Z</time></trkpt><trkpt lat="39.1995207" lon="8.6533637"><ele>353.0</ele><time>2026-04-18T15:29:42.197Z</time></trkpt><trkpt lat="39.1996052" lon="8.6533318"><ele>353.0</ele><time>2026-04-18T15:29:43.194Z</time></trkpt><trkpt lat="39.1996894" lon="8.6532916"><ele>353.0</ele><time>2026-04-18T15:29:44.198Z</time></trkpt><trkpt lat="39.1997739" lon="8.6532411"><ele>353.0</ele><time>2026-04-18T15:29:45.21Z</time></trkpt><trkpt lat="39.1998541" lon="8.6531712"><ele>353.0</ele><time>2026-04-18T15:29:46.203Z</time></trkpt><trkpt lat="39.1999154" lon="8.6530975"><ele>353.0</ele><time>2026-04-18T15:29:47.197Z</time></trkpt><trkpt lat="39.1999642" lon="8.6530104"><ele>353.0</ele><time>2026-04-18T15:29:48.207Z</time></trkpt><trkpt lat="39.20001" lon="8.6529402"><ele>353.0</ele><time>2026-04-18T15:29:49.196Z</time></trkpt><trkpt lat="39.2000637" lon="8.6528754"><ele>353.0</ele><time>2026-04-18T15:29:50.204Z</time></trkpt><trkpt lat="39.2001197" lon="8.6528031"><ele>353.0</ele><time>2026-04-18T15:29:51.203Z</time></trkpt><trkpt lat="39.2001762" lon="8.652724"><ele>353.0</ele><time>2026-04-18T15:29:52.217Z</time></trkpt><trkpt lat="39.2002302" lon="8.6526418"><ele>353.0</ele><time>2026-04-18T15:29:53.217Z</time></trkpt><trkpt lat="39.2002698" lon="8.6525507"><ele>353.0</ele><time>2026-04-18T15:29:54.213Z</time></trkpt><trkpt lat="39.2003006" lon="8.6524669"><ele>353.0</ele><time>2026-04-18T15:29:55.186Z</time></trkpt><trkpt lat="39.2003275" lon="8.6523865"><ele>353.0</ele><time>2026-04-18T15:29:56.222Z</time></trkpt><trkpt lat="39.2003679" lon="8.6523153"><ele>353.0</ele><time>2026-04-18T15:29:57.207Z</time></trkpt><trkpt lat="39.2004848" lon="8.6522232"><ele>353.0</ele><time>2026-04-18T15:29:59.207Z</time></trkpt><trkpt lat="39.2005653" lon="8.6521832"><ele>353.0</ele><time>2026-04-18T15:30:00.205Z</time></trkpt><trkpt lat="39.2006568" lon="8.6521412"><ele>353.0</ele><time>2026-04-18T15:30:01.209Z</time></trkpt><trkpt lat="39.2007465" lon="8.652099"><ele>353.0</ele><time>2026-04-18T15:30:02.194Z</time></trkpt><trkpt lat="39.2008324" lon="8.652063"><ele>353.0</ele><time>2026-04-18T15:30:03.194Z</time></trkpt><trkpt lat="39.2009258" lon="8.6520318"><ele>353.0</ele><time>2026-04-18T15:30:04.195Z</time></trkpt><trkpt lat="39.2010158" lon="8.6519972"><ele>354.0</ele><time>2026-04-18T15:30:05.194Z</time></trkpt><trkpt lat="39.2011122" lon="8.6519635"><ele>355.0</ele><time>2026-04-18T15:30:06.202Z</time></trkpt><trkpt lat="39.2012152" lon="8.651944"><ele>356.0</ele><time>2026-04-18T15:30:07.193Z</time></trkpt><trkpt lat="39.2013119" lon="8.6519326"><ele>357.0</ele><time>2026-04-18T15:30:08.194Z</time></trkpt><trkpt lat="39.2014117" lon="8.6519083"><ele>358.0</ele><time>2026-04-18T15:30:09.194Z</time></trkpt><trkpt lat="39.2015143" lon="8.6518824"><ele>356.0</ele><time>2026-04-18T15:30:10.207Z</time></trkpt><trkpt lat="39.2016264" lon="8.6518693"><ele>354.0</ele><time>2026-04-18T15:30:11.209Z</time></trkpt><trkpt lat="39.2017446" lon="8.6518737"><ele>352.0</ele><time>2026-04-18T15:30:12.223Z</time></trkpt><trkpt lat="39.2018498" lon="8.6518768"><ele>350.0</ele><time>2026-04-18T15:30:13.202Z</time></trkpt><trkpt lat="39.2019396" lon="8.6518718"><ele>348.0</ele><time>2026-04-18T15:30:14.192Z</time></trkpt><trkpt lat="39.2020285" lon="8.6518642"><ele>348.0</ele><time>2026-04-18T15:30:15.209Z</time></trkpt><trkpt lat="39.2021129" lon="8.6518393"><ele>348.0</ele><time>2026-04-18T15:30:16.201Z</time></trkpt><trkpt lat="39.2022091" lon="8.6518054"><ele>348.0</ele><time>2026-04-18T15:30:17.223Z</time></trkpt><trkpt lat="39.202299" lon="8.6517633"><ele>348.0</ele><time>2026-04-18T15:30:18.222Z</time></trkpt><trkpt lat="39.2023887" lon="8.6517205"><ele>348.0</ele><time>2026-04-18T15:30:19.208Z</time></trkpt><trkpt lat="39.2024749" lon="8.6516733"><ele>348.0</ele><time>2026-04-18T15:30:20.218Z</time></trkpt><trkpt lat="39.2025602" lon="8.6516246"><ele>348.0</ele><time>2026-04-18T15:30:21.218Z</time></trkpt><trkpt lat="39.2026449" lon="8.6515526"><ele>348.0</ele><time>2026-04-18T15:30:22.198Z</time></trkpt><trkpt lat="39.2027305" lon="8.6514729"><ele>348.0</ele><time>2026-04-18T15:30:23.212Z</time></trkpt><trkpt lat="39.2028258" lon="8.6514012"><ele>348.0</ele><time>2026-04-18T15:30:24.21Z</time></trkpt><trkpt lat="39.2029266" lon="8.6513367"><ele>348.0</ele><time>2026-04-18T15:30:25.203Z</time></trkpt><trkpt lat="39.2030305" lon="8.6512635"><ele>348.0</ele><time>2026-04-18T15:30:26.239Z</time></trkpt><trkpt lat="39.2031226" lon="8.6512094"><ele>348.0</ele><time>2026-04-18T15:30:27.217Z</time></trkpt><trkpt lat="39.2032002" lon="8.6511648"><ele>348.0</ele><time>2026-04-18T15:30:28.19Z</time></trkpt><trkpt lat="39.2032657" lon="8.6511217"><ele>348.0</ele><time>2026-04-18T15:30:29.206Z</time></trkpt><trkpt lat="39.2033291" lon="8.6510982"><ele>348.0</ele><time>2026-04-18T15:30:30.187Z</time></trkpt><trkpt lat="39.2034071" lon="8.6510889"><ele>347.25</ele><time>2026-04-18T15:30:31.24Z</time></trkpt><trkpt lat="39.2035203" lon="8.6511066"><ele>346.5</ele><time>2026-04-18T15:30:32.205Z</time></trkpt><trkpt lat="39.2036586" lon="8.6511125"><ele>345.75</ele><time>2026-04-18T15:30:33.221Z</time></trkpt><trkpt lat="39.2037868" lon="8.6511074"><ele>345.0</ele><time>2026-04-18T15:30:34.204Z</time></trkpt><trkpt lat="39.2038963" lon="8.651076"><ele>345.0</ele><time>2026-04-18T15:30:35.198Z</time></trkpt><trkpt lat="39.2040034" lon="8.6510536"><ele>345.0</ele><time>2026-04-18T15:30:36.193Z</time></trkpt><trkpt lat="39.2041137" lon="8.6510295"><ele>345.0</ele><time>2026-04-18T15:30:37.205Z</time></trkpt><trkpt lat="39.2042176" lon="8.6509919"><ele>345.0</ele><time>2026-04-18T15:30:38.224Z</time></trkpt><trkpt lat="39.2043162" lon="8.6509546"><ele>345.0</ele><time>2026-04-18T15:30:39.208Z</time></trkpt><trkpt lat="39.2044195" lon="8.6509102"><ele>345.0</ele><time>2026-04-18T15:30:40.211Z</time></trkpt><trkpt lat="39.2045133" lon="8.6508665"><ele>345.0</ele><time>2026-04-18T15:30:41.176Z</time></trkpt><trkpt lat="39.2046036" lon="8.6508259"><ele>345.0</ele><time>2026-04-18T15:30:42.186Z</time></trkpt><trkpt lat="39.2046987" lon="8.6507791"><ele>345.0</ele><time>2026-04-18T15:30:43.227Z</time></trkpt><trkpt lat="39.2048055" lon="8.650718"><ele>345.0</ele><time>2026-04-18T15:30:44.207Z</time></trkpt><trkpt lat="39.2049169" lon="8.6506614"><ele>343.2</ele><time>2026-04-18T15:30:45.198Z</time></trkpt><trkpt lat="39.2050303" lon="8.6506034"><ele>341.4</ele><time>2026-04-18T15:30:46.211Z</time></trkpt><trkpt lat="39.2051331" lon="8.6505446"><ele>339.6</ele><time>2026-04-18T15:30:47.205Z</time></trkpt><trkpt lat="39.2052284" lon="8.6504859"><ele>337.8</ele><time>2026-04-18T15:30:48.195Z</time></trkpt><trkpt lat="39.2053157" lon="8.6504141"><ele>336.0</ele><time>2026-04-18T15:30:49.202Z</time></trkpt><trkpt lat="39.2054065" lon="8.6503298"><ele>338.0</ele><time>2026-04-18T15:30:50.223Z</time></trkpt><trkpt lat="39.2055067" lon="8.650251"><ele>340.0</ele><time>2026-04-18T15:30:51.188Z</time></trkpt><trkpt lat="39.2056052" lon="8.6501574"><ele>342.0</ele><time>2026-04-18T15:30:52.197Z</time></trkpt><trkpt lat="39.2057132" lon="8.6500385"><ele>344.0</ele><time>2026-04-18T15:30:53.194Z</time></trkpt><trkpt lat="39.205814" lon="8.6499392"><ele>340.4</ele><time>2026-04-18T15:30:54.2Z</time></trkpt><trkpt lat="39.2059115" lon="8.6498441"><ele>336.79999999999995</ele><time>2026-04-18T15:30:55.203Z</time></trkpt><trkpt lat="39.206002" lon="8.649755"><ele>333.20000000000005</ele><time>2026-04-18T15:30:56.185Z</time></trkpt><trkpt lat="39.2060802" lon="8.6496623"><ele>329.6</ele><time>2026-04-18T15:30:57.21Z</time></trkpt><trkpt lat="39.2061545" lon="8.6495627"><ele>326.0</ele><time>2026-04-18T15:30:58.198Z</time></trkpt><trkpt lat="39.2062347" lon="8.6494656"><ele>325.6</ele><time>2026-04-18T15:30:59.199Z</time></trkpt><trkpt lat="39.2063205" lon="8.6493769"><ele>325.20000000000005</ele><time>2026-04-18T15:31:00.19Z</time></trkpt><trkpt lat="39.2064078" lon="8.6493019"><ele>324.79999999999995</ele><time>2026-04-18T15:31:01.209Z</time></trkpt><trkpt lat="39.2065012" lon="8.6492391"><ele>324.4</ele><time>2026-04-18T15:31:02.246Z</time></trkpt><trkpt lat="39.2066018" lon="8.6491794"><ele>324.0</ele><time>2026-04-18T15:31:03.186Z</time></trkpt><trkpt lat="39.2067076" lon="8.6491122"><ele>324.0</ele><time>2026-04-18T15:31:04.206Z</time></trkpt><trkpt lat="39.2068096" lon="8.6490211"><ele>324.0</ele><time>2026-04-18T15:31:05.195Z</time></trkpt><trkpt lat="39.2068984" lon="8.6489415"><ele>324.0</ele><time>2026-04-18T15:31:06.214Z</time></trkpt><trkpt lat="39.20697" lon="8.6488792"><ele>324.0</ele><time>2026-04-18T15:31:07.2Z</time></trkpt><trkpt lat="39.2070391" lon="8.6488203"><ele>324.0</ele><time>2026-04-18T15:31:08.213Z</time></trkpt><trkpt lat="39.207103" lon="8.6487489"><ele>324.0</ele><time>2026-04-18T15:31:09.205Z</time></trkpt><trkpt lat="39.2071728" lon="8.648658"><ele>324.0</ele><time>2026-04-18T15:31:10.223Z</time></trkpt><trkpt lat="39.2072511" lon="8.6485841"><ele>324.0</ele><time>2026-04-18T15:31:11.211Z</time></trkpt><trkpt lat="39.2073372" lon="8.6485137"><ele>324.0</ele><time>2026-04-18T15:31:12.204Z</time></trkpt><trkpt lat="39.2074383" lon="8.6484561"><ele>324.0</ele><time>2026-04-18T15:31:13.198Z</time></trkpt><trkpt lat="39.2075424" lon="8.6483795"><ele>323.0</ele><time>2026-04-18T15:31:14.2Z</time></trkpt><trkpt lat="39.2076439" lon="8.648288"><ele>322.0</ele><time>2026-04-18T15:31:15.199Z</time></trkpt><trkpt lat="39.2077373" lon="8.6481773"><ele>321.0</ele><time>2026-04-18T15:31:16.204Z</time></trkpt><trkpt lat="39.2078298" lon="8.6480603"><ele>320.0</ele><time>2026-04-18T15:31:17.241Z</time></trkpt><trkpt lat="39.2079156" lon="8.6479302"><ele>320.0</ele><time>2026-04-18T15:31:18.201Z</time></trkpt><trkpt lat="39.2080116" lon="8.6478212"><ele>320.0</ele><time>2026-04-18T15:31:19.221Z</time></trkpt><trkpt lat="39.2081213" lon="8.6477283"><ele>320.0</ele><time>2026-04-18T15:31:20.209Z</time></trkpt><trkpt lat="39.2082377" lon="8.6476326"><ele>320.0</ele><time>2026-04-18T15:31:21.191Z</time></trkpt><trkpt lat="39.208345" lon="8.6475569"><ele>320.0</ele><time>2026-04-18T15:31:22.199Z</time></trkpt><trkpt lat="39.2084411" lon="8.6474948"><ele>320.0</ele><time>2026-04-18T15:31:23.195Z</time></trkpt><trkpt lat="39.2085297" lon="8.6474473"><ele>320.0</ele><time>2026-04-18T15:31:24.224Z</time></trkpt><trkpt lat="39.2086112" lon="8.6474084"><ele>320.0</ele><time>2026-04-18T15:31:25.194Z</time></trkpt><trkpt lat="39.2086877" lon="8.6473659"><ele>320.0</ele><time>2026-04-18T15:31:26.208Z</time></trkpt><trkpt lat="39.2087685" lon="8.6473043"><ele>320.0</ele><time>2026-04-18T15:31:27.212Z</time></trkpt><trkpt lat="39.2088483" lon="8.6472228"><ele>320.0</ele><time>2026-04-18T15:31:28.205Z</time></trkpt><trkpt lat="39.2089242" lon="8.6471359"><ele>320.0</ele><time>2026-04-18T15:31:29.189Z</time></trkpt><trkpt lat="39.2089905" lon="8.6470288"><ele>320.0</ele><time>2026-04-18T15:31:30.197Z</time></trkpt><trkpt lat="39.2090459" lon="8.6469154"><ele>320.0</ele><time>2026-04-18T15:31:31.186Z</time></trkpt><trkpt lat="39.2091011" lon="8.6468189"><ele>320.5</ele><time>2026-04-18T15:31:32.216Z</time></trkpt><trkpt lat="39.2091544" lon="8.6467355"><ele>321.0</ele><time>2026-04-18T15:31:33.194Z</time></trkpt><trkpt lat="39.2092116" lon="8.6466714"><ele>321.5</ele><time>2026-04-18T15:31:34.198Z</time></trkpt><trkpt lat="39.209283" lon="8.6466048"><ele>322.0</ele><time>2026-04-18T15:31:35.193Z</time></trkpt><trkpt lat="39.2093621" lon="8.6465708"><ele>322.5</ele><time>2026-04-18T15:31:36.176Z</time></trkpt><trkpt lat="39.2094648" lon="8.6465416"><ele>323.0</ele><time>2026-04-18T15:31:37.204Z</time></trkpt><trkpt lat="39.2095784" lon="8.6464974"><ele>323.0</ele><time>2026-04-18T15:31:38.192Z</time></trkpt><trkpt lat="39.2096841" lon="8.6464473"><ele>323.0</ele><time>2026-04-18T15:31:39.23Z</time></trkpt><trkpt lat="39.2097879" lon="8.6463897"><ele>323.0</ele><time>2026-04-18T15:31:40.199Z</time></trkpt><trkpt lat="39.2098809" lon="8.6463396"><ele>323.0</ele><time>2026-04-18T15:31:41.193Z</time></trkpt><trkpt lat="39.2099742" lon="8.646292"><ele>323.0</ele><time>2026-04-18T15:31:42.208Z</time></trkpt><trkpt lat="39.2100553" lon="8.6462442"><ele>323.6666666666667</ele><time>2026-04-18T15:31:43.188Z</time></trkpt><trkpt lat="39.2101308" lon="8.6461949"><ele>324.33333333333337</ele><time>2026-04-18T15:31:44.227Z</time></trkpt><trkpt lat="39.2102033" lon="8.6461495"><ele>325.0</ele><time>2026-04-18T15:31:45.197Z</time></trkpt><trkpt lat="39.2102799" lon="8.6460894"><ele>325.6666666666667</ele><time>2026-04-18T15:31:46.195Z</time></trkpt><trkpt lat="39.2103517" lon="8.6460252"><ele>326.3333333333333</ele><time>2026-04-18T15:31:47.194Z</time></trkpt><trkpt lat="39.2104165" lon="8.6459597"><ele>327.0</ele><time>2026-04-18T15:31:48.21Z</time></trkpt><trkpt lat="39.2104812" lon="8.6458977"><ele>327.3333333333333</ele><time>2026-04-18T15:31:49.191Z</time></trkpt><trkpt lat="39.2105538" lon="8.645858"><ele>327.6666666666667</ele><time>2026-04-18T15:31:50.212Z</time></trkpt><trkpt lat="39.2106202" lon="8.6458518"><ele>328.0</ele><time>2026-04-18T15:31:51.197Z</time></trkpt><trkpt lat="39.2106987" lon="8.6458543"><ele>328.33333333333337</ele><time>2026-04-18T15:31:52.2Z</time></trkpt><trkpt lat="39.2107837" lon="8.645847"><ele>328.6666666666667</ele><time>2026-04-18T15:31:53.193Z</time></trkpt><trkpt lat="39.2108649" lon="8.6458091"><ele>329.0</ele><time>2026-04-18T15:31:54.195Z</time></trkpt><trkpt lat="39.2109524" lon="8.6457337"><ele>329.0</ele><time>2026-04-18T15:31:55.208Z</time></trkpt><trkpt lat="39.2110571" lon="8.6456412"><ele>329.0</ele><time>2026-04-18T15:31:56.2Z</time></trkpt><trkpt lat="39.2111586" lon="8.6455655"><ele>329.0</ele><time>2026-04-18T15:31:57.189Z</time></trkpt><trkpt lat="39.2112556" lon="8.6454893"><ele>329.0</ele><time>2026-04-18T15:31:58.189Z</time></trkpt><trkpt lat="39.2113497" lon="8.6454171"><ele>329.0</ele><time>2026-04-18T15:31:59.189Z</time></trkpt><trkpt lat="39.2114481" lon="8.6453678"><ele>329.0</ele><time>2026-04-18T15:32:00.196Z</time></trkpt><trkpt lat="39.2115497" lon="8.6453361"><ele>329.0</ele><time>2026-04-18T15:32:01.228Z</time></trkpt><trkpt lat="39.211646" lon="8.6453142"><ele>329.0</ele><time>2026-04-18T15:32:02.193Z</time></trkpt><trkpt lat="39.2117382" lon="8.6452924"><ele>329.0</ele><time>2026-04-18T15:32:03.204Z</time></trkpt><trkpt lat="39.2118485" lon="8.6452769"><ele>329.0</ele><time>2026-04-18T15:32:04.203Z</time></trkpt><trkpt lat="39.2119609" lon="8.6452699"><ele>329.0</ele><time>2026-04-18T15:32:05.187Z</time></trkpt><trkpt lat="39.2120577" lon="8.6452699"><ele>329.0</ele><time>2026-04-18T15:32:06.194Z</time></trkpt><trkpt lat="39.212147" lon="8.6452803"><ele>329.0</ele><time>2026-04-18T15:32:07.205Z</time></trkpt><trkpt lat="39.2122216" lon="8.645293"><ele>329.0</ele><time>2026-04-18T15:32:08.221Z</time></trkpt><trkpt lat="39.2122939" lon="8.6453196"><ele>329.0</ele><time>2026-04-18T15:32:09.205Z</time></trkpt><trkpt lat="39.2123535" lon="8.6453824"><ele>330.33333333333337</ele><time>2026-04-18T15:32:10.201Z</time></trkpt><trkpt lat="39.2124108" lon="8.6454559"><ele>331.6666666666667</ele><time>2026-04-18T15:32:11.171Z</time></trkpt><trkpt lat="39.212484" lon="8.6454853"><ele>333.0</ele><time>2026-04-18T15:32:12.185Z</time></trkpt><trkpt lat="39.2125469" lon="8.6454691"><ele>334.3333333333333</ele><time>2026-04-18T15:32:13.213Z</time></trkpt><trkpt lat="39.2126254" lon="8.6454518"><ele>335.66666666666663</ele><time>2026-04-18T15:32:14.2Z</time></trkpt><trkpt lat="39.2127196" lon="8.6454205"><ele>337.0</ele><time>2026-04-18T15:32:15.19Z</time></trkpt><trkpt lat="39.2128093" lon="8.6453999"><ele>337.0</ele><time>2026-04-18T15:32:16.199Z</time></trkpt><trkpt lat="39.2128927" lon="8.6453968"><ele>337.0</ele><time>2026-04-18T15:32:17.206Z</time></trkpt><trkpt lat="39.2129825" lon="8.6453624"><ele>337.0</ele><time>2026-04-18T15:32:18.202Z</time></trkpt><trkpt lat="39.2130719" lon="8.6452885"><ele>337.0</ele><time>2026-04-18T15:32:19.204Z</time></trkpt><trkpt lat="39.2131825" lon="8.6452014"><ele>337.0</ele><time>2026-04-18T15:32:20.186Z</time></trkpt><trkpt lat="39.2132973" lon="8.6451286"><ele>337.16666666666663</ele><time>2026-04-18T15:32:21.217Z</time></trkpt><trkpt lat="39.2133897" lon="8.645084"><ele>337.3333333333333</ele><time>2026-04-18T15:32:22.195Z</time></trkpt><trkpt lat="39.2134513" lon="8.6450389"><ele>337.5</ele><time>2026-04-18T15:32:23.182Z</time></trkpt><trkpt lat="39.213504" lon="8.6449814"><ele>337.6666666666667</ele><time>2026-04-18T15:32:24.194Z</time></trkpt><trkpt lat="39.2135636" lon="8.6449134"><ele>337.83333333333337</ele><time>2026-04-18T15:32:25.173Z</time></trkpt><trkpt lat="39.2136184" lon="8.6448685"><ele>338.0</ele><time>2026-04-18T15:32:26.213Z</time></trkpt><trkpt lat="39.2136909" lon="8.6448573"><ele>338.0</ele><time>2026-04-18T15:32:27.199Z</time></trkpt><trkpt lat="39.2137847" lon="8.6448493"><ele>338.0</ele><time>2026-04-18T15:32:28.203Z</time></trkpt><trkpt lat="39.2138681" lon="8.6448433"><ele>338.0</ele><time>2026-04-18T15:32:29.203Z</time></trkpt><trkpt lat="39.2139497" lon="8.64483"><ele>338.0</ele><time>2026-04-18T15:32:30.184Z</time></trkpt><trkpt lat="39.2140347" lon="8.6447842"><ele>338.0</ele><time>2026-04-18T15:32:31.184Z</time></trkpt><trkpt lat="39.2141069" lon="8.6447149"><ele>338.0</ele><time>2026-04-18T15:32:32.199Z</time></trkpt><trkpt lat="39.2141769" lon="8.6446554"><ele>338.6666666666667</ele><time>2026-04-18T15:32:33.191Z</time></trkpt><trkpt lat="39.2142426" lon="8.6446217"><ele>339.33333333333337</ele><time>2026-04-18T15:32:34.21Z</time></trkpt><trkpt lat="39.2143357" lon="8.644688"><ele>340.0</ele><time>2026-04-18T15:32:36.197Z</time></trkpt><trkpt lat="39.2143595" lon="8.6447757"><ele>340.6666666666667</ele><time>2026-04-18T15:32:37.219Z</time></trkpt><trkpt lat="39.2143715" lon="8.6448856"><ele>341.3333333333333</ele><time>2026-04-18T15:32:38.196Z</time></trkpt><trkpt lat="39.2143781" lon="8.6449841"><ele>342.0</ele><time>2026-04-18T15:32:39.189Z</time></trkpt><trkpt lat="39.2143812" lon="8.6450881"><ele>342.0</ele><time>2026-04-18T15:32:40.205Z</time></trkpt><trkpt lat="39.2144112" lon="8.645171"><ele>342.0</ele><time>2026-04-18T15:32:41.193Z</time></trkpt><trkpt lat="39.2144728" lon="8.6452164"><ele>342.0</ele><time>2026-04-18T15:32:42.194Z</time></trkpt><trkpt lat="39.2145604" lon="8.6452439"><ele>342.0</ele><time>2026-04-18T15:32:43.198Z</time></trkpt><trkpt lat="39.2146667" lon="8.6452596"><ele>342.0</ele><time>2026-04-18T15:32:44.185Z</time></trkpt><trkpt lat="39.2147824" lon="8.6452455"><ele>343.75</ele><time>2026-04-18T15:32:45.182Z</time></trkpt><trkpt lat="39.2149344" lon="8.645223"><ele>345.5</ele><time>2026-04-18T15:32:46.193Z</time></trkpt><trkpt lat="39.2150877" lon="8.6452098"><ele>347.25</ele><time>2026-04-18T15:32:47.193Z</time></trkpt><trkpt lat="39.2152136" lon="8.645201"><ele>349.0</ele><time>2026-04-18T15:32:48.189Z</time></trkpt><trkpt lat="39.2153369" lon="8.6452032"><ele>349.0</ele><time>2026-04-18T15:32:49.194Z</time></trkpt><trkpt lat="39.2154616" lon="8.6452145"><ele>349.0</ele><time>2026-04-18T15:32:50.178Z</time></trkpt><trkpt lat="39.2155879" lon="8.6452245"><ele>349.0</ele><time>2026-04-18T15:32:51.191Z</time></trkpt><trkpt lat="39.2157076" lon="8.6452103"><ele>349.0</ele><time>2026-04-18T15:32:52.197Z</time></trkpt><trkpt lat="39.2158212" lon="8.6452069"><ele>349.4</ele><time>2026-04-18T15:32:53.192Z</time></trkpt><trkpt lat="39.2159338" lon="8.6452248"><ele>349.79999999999995</ele><time>2026-04-18T15:32:54.195Z</time></trkpt><trkpt lat="39.2160354" lon="8.6452434"><ele>350.20000000000005</ele><time>2026-04-18T15:32:55.232Z</time></trkpt><trkpt lat="39.2161296" lon="8.6452314"><ele>350.6</ele><time>2026-04-18T15:32:56.193Z</time></trkpt><trkpt lat="39.2162383" lon="8.6452041"><ele>351.0</ele><time>2026-04-18T15:32:57.201Z</time></trkpt><trkpt lat="39.2163323" lon="8.6451746"><ele>351.0</ele><time>2026-04-18T15:32:58.193Z</time></trkpt><trkpt lat="39.2164195" lon="8.6451383"><ele>351.0</ele><time>2026-04-18T15:32:59.212Z</time></trkpt><trkpt lat="39.2165197" lon="8.6450628"><ele>351.0</ele><time>2026-04-18T15:33:00.209Z</time></trkpt><trkpt lat="39.2166267" lon="8.6449957"><ele>351.0</ele><time>2026-04-18T15:33:01.202Z</time></trkpt><trkpt lat="39.2167149" lon="8.6449364"><ele>351.0</ele><time>2026-04-18T15:33:02.209Z</time></trkpt><trkpt lat="39.2168089" lon="8.6448912"><ele>352.0</ele><time>2026-04-18T15:33:03.2Z</time></trkpt><trkpt lat="39.2169153" lon="8.644856"><ele>353.0</ele><time>2026-04-18T15:33:04.223Z</time></trkpt><trkpt lat="39.2170244" lon="8.6447906"><ele>354.0</ele><time>2026-04-18T15:33:05.201Z</time></trkpt><trkpt lat="39.2171424" lon="8.6447565"><ele>355.0</ele><time>2026-04-18T15:33:06.203Z</time></trkpt><trkpt lat="39.2172589" lon="8.6447272"><ele>355.4</ele><time>2026-04-18T15:33:07.183Z</time></trkpt><trkpt lat="39.2173549" lon="8.6446958"><ele>355.8</ele><time>2026-04-18T15:33:08.201Z</time></trkpt><trkpt lat="39.2174327" lon="8.6447027"><ele>356.20000000000005</ele><time>2026-04-18T15:33:09.181Z</time></trkpt><trkpt lat="39.2175206" lon="8.6448322"><ele>356.6</ele><time>2026-04-18T15:33:11.186Z</time></trkpt><trkpt lat="39.217551" lon="8.6449143"><ele>357.0</ele><time>2026-04-18T15:33:12.189Z</time></trkpt><trkpt lat="39.2175809" lon="8.6450151"><ele>357.0</ele><time>2026-04-18T15:33:13.194Z</time></trkpt><trkpt lat="39.217607" lon="8.6451377"><ele>357.0</ele><time>2026-04-18T15:33:14.187Z</time></trkpt><trkpt lat="39.2176243" lon="8.6452672"><ele>357.0</ele><time>2026-04-18T15:33:15.191Z</time></trkpt><trkpt lat="39.2176444" lon="8.6453787"><ele>357.0</ele><time>2026-04-18T15:33:16.201Z</time></trkpt><trkpt lat="39.2176793" lon="8.6454822"><ele>357.0</ele><time>2026-04-18T15:33:17.198Z</time></trkpt><trkpt lat="39.2177383" lon="8.645567"><ele>360.40000000000003</ele><time>2026-04-18T15:33:18.205Z</time></trkpt><trkpt lat="39.2178145" lon="8.6456191"><ele>363.8</ele><time>2026-04-18T15:33:19.194Z</time></trkpt><trkpt lat="39.2178971" lon="8.6456516"><ele>367.2</ele><time>2026-04-18T15:33:20.192Z</time></trkpt><trkpt lat="39.2179799" lon="8.6456717"><ele>370.6</ele><time>2026-04-18T15:33:21.188Z</time></trkpt><trkpt lat="39.2180683" lon="8.6456347"><ele>374.0</ele><time>2026-04-18T15:33:22.195Z</time></trkpt><trkpt lat="39.2181499" lon="8.6455457"><ele>373.79999999999995</ele><time>2026-04-18T15:33:23.179Z</time></trkpt><trkpt lat="39.2182172" lon="8.6454355"><ele>373.59999999999997</ele><time>2026-04-18T15:33:24.201Z</time></trkpt><trkpt lat="39.2182728" lon="8.6453264"><ele>373.4</ele><time>2026-04-18T15:33:25.194Z</time></trkpt><trkpt lat="39.2183269" lon="8.6452267"><ele>373.2</ele><time>2026-04-18T15:33:26.18Z</time></trkpt><trkpt lat="39.2183842" lon="8.6451254"><ele>373.0</ele><time>2026-04-18T15:33:27.188Z</time></trkpt><trkpt lat="39.2184575" lon="8.6450504"><ele>372.2</ele><time>2026-04-18T15:33:28.189Z</time></trkpt><trkpt lat="39.2185469" lon="8.6449835"><ele>371.4</ele><time>2026-04-18T15:33:29.206Z</time></trkpt><trkpt lat="39.2186316" lon="8.644941"><ele>370.59999999999997</ele><time>2026-04-18T15:33:30.202Z</time></trkpt><trkpt lat="39.2187183" lon="8.6449337"><ele>369.79999999999995</ele><time>2026-04-18T15:33:31.185Z</time></trkpt><trkpt lat="39.2188099" lon="8.6449488"><ele>369.0</ele><time>2026-04-18T15:33:32.216Z</time></trkpt><trkpt lat="39.2188969" lon="8.6449905"><ele>369.0</ele><time>2026-04-18T15:33:33.189Z</time></trkpt><trkpt lat="39.218975" lon="8.6450494"><ele>369.0</ele><time>2026-04-18T15:33:34.189Z</time></trkpt><trkpt lat="39.2190451" lon="8.6451278"><ele>369.0</ele><time>2026-04-18T15:33:35.192Z</time></trkpt><trkpt lat="39.2191125" lon="8.645253"><ele>369.0</ele><time>2026-04-18T15:33:36.194Z</time></trkpt><trkpt lat="39.2191794" lon="8.6453903"><ele>369.0</ele><time>2026-04-18T15:33:37.192Z</time></trkpt><trkpt lat="39.2192385" lon="8.645507"><ele>370.6</ele><time>2026-04-18T15:33:38.197Z</time></trkpt><trkpt lat="39.2193105" lon="8.6455975"><ele>372.2</ele><time>2026-04-18T15:33:39.209Z</time></trkpt><trkpt lat="39.2193888" lon="8.6456688"><ele>373.8</ele><time>2026-04-18T15:33:40.199Z</time></trkpt><trkpt lat="39.2194587" lon="8.6456912"><ele>375.40000000000003</ele><time>2026-04-18T15:33:41.196Z</time></trkpt><trkpt lat="39.2195827" lon="8.6456418"><ele>377.0</ele><time>2026-04-18T15:33:43.211Z</time></trkpt><trkpt lat="39.2196476" lon="8.6456085"><ele>377.0</ele><time>2026-04-18T15:33:44.216Z</time></trkpt><trkpt lat="39.2197262" lon="8.6455766"><ele>377.0</ele><time>2026-04-18T15:33:45.189Z</time></trkpt><trkpt lat="39.2198241" lon="8.6455159"><ele>377.0</ele><time>2026-04-18T15:33:46.188Z</time></trkpt><trkpt lat="39.2199438" lon="8.6454253"><ele>377.0</ele><time>2026-04-18T15:33:47.178Z</time></trkpt><trkpt lat="39.2200648" lon="8.645341"><ele>380.20000000000005</ele><time>2026-04-18T15:33:48.181Z</time></trkpt><trkpt lat="39.2201707" lon="8.6452818"><ele>383.4</ele><time>2026-04-18T15:33:49.191Z</time></trkpt><trkpt lat="39.2202307" lon="8.6452393"><ele>386.6</ele><time>2026-04-18T15:33:50.195Z</time></trkpt><trkpt lat="39.220368" lon="8.6452639"><ele>389.79999999999995</ele><time>2026-04-18T15:33:52.194Z</time></trkpt><trkpt lat="39.2204485" lon="8.6453262"><ele>393.0</ele><time>2026-04-18T15:33:53.192Z</time></trkpt><trkpt lat="39.2205258" lon="8.6454097"><ele>394.0</ele><time>2026-04-18T15:33:54.201Z</time></trkpt><trkpt lat="39.2206016" lon="8.6454915"><ele>395.0</ele><time>2026-04-18T15:33:55.197Z</time></trkpt><trkpt lat="39.2206791" lon="8.6455586"><ele>396.0</ele><time>2026-04-18T15:33:56.202Z</time></trkpt><trkpt lat="39.2207489" lon="8.6456092"><ele>397.0</ele><time>2026-04-18T15:33:57.193Z</time></trkpt><trkpt lat="39.220826" lon="8.6456431"><ele>398.0</ele><time>2026-04-18T15:33:58.199Z</time></trkpt><trkpt lat="39.2209263" lon="8.6456555"><ele>401.0</ele><time>2026-04-18T15:33:59.191Z</time></trkpt><trkpt lat="39.2210529" lon="8.6456521"><ele>404.0</ele><time>2026-04-18T15:34:00.188Z</time></trkpt><trkpt lat="39.2211901" lon="8.6456549"><ele>407.0</ele><time>2026-04-18T15:34:01.195Z</time></trkpt><trkpt lat="39.2213322" lon="8.6456543"><ele>410.0</ele><time>2026-04-18T15:34:02.195Z</time></trkpt><trkpt lat="39.221451" lon="8.6456329"><ele>411.6</ele><time>2026-04-18T15:34:03.181Z</time></trkpt><trkpt lat="39.2215562" lon="8.6456076"><ele>413.2</ele><time>2026-04-18T15:34:04.203Z</time></trkpt><trkpt lat="39.2216535" lon="8.6455869"><ele>414.79999999999995</ele><time>2026-04-18T15:34:05.189Z</time></trkpt><trkpt lat="39.2217452" lon="8.6455745"><ele>416.4</ele><time>2026-04-18T15:34:06.207Z</time></trkpt><trkpt lat="39.2218295" lon="8.6455548"><ele>418.0</ele><time>2026-04-18T15:34:07.191Z</time></trkpt><trkpt lat="39.2219177" lon="8.6455575"><ele>418.00000000000006</ele><time>2026-04-18T15:34:08.182Z</time></trkpt><trkpt lat="39.2220016" lon="8.6455849"><ele>418.0</ele><time>2026-04-18T15:34:09.188Z</time></trkpt><trkpt lat="39.2220799" lon="8.6456284"><ele>418.0</ele><time>2026-04-18T15:34:10.201Z</time></trkpt><trkpt lat="39.2221459" lon="8.6456677"><ele>418.0</ele><time>2026-04-18T15:34:11.188Z</time></trkpt><trkpt lat="39.2222198" lon="8.6456812"><ele>418.00000000000006</ele><time>2026-04-18T15:34:12.198Z</time></trkpt><trkpt lat="39.2222921" lon="8.6456693"><ele>418.0</ele><time>2026-04-18T15:34:13.194Z</time></trkpt><trkpt lat="39.2223738" lon="8.6456802"><ele>419.33333333333337</ele><time>2026-04-18T15:34:14.197Z</time></trkpt><trkpt lat="39.2224608" lon="8.645709"><ele>420.6666666666667</ele><time>2026-04-18T15:34:15.196Z</time></trkpt><trkpt lat="39.2225425" lon="8.645731"><ele>422.0</ele><time>2026-04-18T15:34:16.184Z</time></trkpt><trkpt lat="39.2226246" lon="8.6457619"><ele>423.33333333333337</ele><time>2026-04-18T15:34:17.209Z</time></trkpt><trkpt lat="39.2226965" lon="8.6457924"><ele>424.6666666666667</ele><time>2026-04-18T15:34:18.185Z</time></trkpt><trkpt lat="39.2227653" lon="8.645839"><ele>426.0</ele><time>2026-04-18T15:34:19.183Z</time></trkpt><trkpt lat="39.2228328" lon="8.6459014"><ele>426.0</ele><time>2026-04-18T15:34:20.185Z</time></trkpt><trkpt lat="39.2228884" lon="8.6459617"><ele>426.0</ele><time>2026-04-18T15:34:21.174Z</time></trkpt><trkpt lat="39.2229393" lon="8.6460182"><ele>426.0</ele><time>2026-04-18T15:34:22.186Z</time></trkpt><trkpt lat="39.2229839" lon="8.6460811"><ele>426.0</ele><time>2026-04-18T15:34:23.205Z</time></trkpt><trkpt lat="39.223022" lon="8.6461673"><ele>426.0</ele><time>2026-04-18T15:34:24.216Z</time></trkpt><trkpt lat="39.2230713" lon="8.6462689"><ele>426.0</ele><time>2026-04-18T15:34:25.195Z</time></trkpt><trkpt lat="39.2231207" lon="8.6463665"><ele>428.6666666666667</ele><time>2026-04-18T15:34:26.187Z</time></trkpt><trkpt lat="39.2231687" lon="8.6464551"><ele>431.33333333333337</ele><time>2026-04-18T15:34:27.189Z</time></trkpt><trkpt lat="39.2232031" lon="8.6465413"><ele>434.0</ele><time>2026-04-18T15:34:28.195Z</time></trkpt><trkpt lat="39.2232304" lon="8.646623"><ele>436.6666666666667</ele><time>2026-04-18T15:34:29.202Z</time></trkpt><trkpt lat="39.2233029" lon="8.6467121"><ele>439.33333333333337</ele><time>2026-04-18T15:34:31.203Z</time></trkpt><trkpt lat="39.2233824" lon="8.6467713"><ele>442.0</ele><time>2026-04-18T15:34:33.199Z</time></trkpt><trkpt lat="39.2233839" lon="8.6468617"><ele>442.00000000000006</ele><time>2026-04-18T15:34:35.194Z</time></trkpt><trkpt lat="39.2233184" lon="8.6469465"><ele>442.0</ele><time>2026-04-18T15:34:37.192Z</time></trkpt><trkpt lat="39.2232435" lon="8.6469133"><ele>442.0</ele><time>2026-04-18T15:34:39.188Z</time></trkpt><trkpt lat="39.2231793" lon="8.6468545"><ele>442.0</ele><time>2026-04-18T15:34:40.192Z</time></trkpt><trkpt lat="39.2231036" lon="8.6467925"><ele>442.00000000000006</ele><time>2026-04-18T15:34:41.199Z</time></trkpt><trkpt lat="39.2230146" lon="8.6467205"><ele>442.0</ele><time>2026-04-18T15:34:42.227Z</time></trkpt><trkpt lat="39.2229233" lon="8.6466543"><ele>441.6</ele><time>2026-04-18T15:34:43.188Z</time></trkpt><trkpt lat="39.2228304" lon="8.6465835"><ele>441.20000000000005</ele><time>2026-04-18T15:34:44.191Z</time></trkpt><trkpt lat="39.2227254" lon="8.6465324"><ele>440.8</ele><time>2026-04-18T15:34:45.195Z</time></trkpt><trkpt lat="39.2226215" lon="8.6464886"><ele>440.4</ele><time>2026-04-18T15:34:46.184Z</time></trkpt><trkpt lat="39.2225229" lon="8.6464546"><ele>440.0</ele><time>2026-04-18T15:34:47.206Z</time></trkpt><trkpt lat="39.2224283" lon="8.646431"><ele>439.99999999999994</ele><time>2026-04-18T15:34:48.189Z</time></trkpt><trkpt lat="39.2223312" lon="8.6464351"><ele>440.0</ele><time>2026-04-18T15:34:49.2Z</time></trkpt><trkpt lat="39.22224" lon="8.6464654"><ele>440.0</ele><time>2026-04-18T15:34:50.179Z</time></trkpt><trkpt lat="39.222156" lon="8.6465151"><ele>440.0</ele><time>2026-04-18T15:34:51.193Z</time></trkpt><trkpt lat="39.2220828" lon="8.6465791"><ele>439.99999999999994</ele><time>2026-04-18T15:34:52.184Z</time></trkpt><trkpt lat="39.22203" lon="8.6466446"><ele>440.0</ele><time>2026-04-18T15:34:53.199Z</time></trkpt><trkpt lat="39.2220634" lon="8.6467723"><ele>439.4</ele><time>2026-04-18T15:34:55.199Z</time></trkpt><trkpt lat="39.2221737" lon="8.6468719"><ele>438.8</ele><time>2026-04-18T15:34:57.2Z</time></trkpt><trkpt lat="39.2222594" lon="8.6469251"><ele>438.20000000000005</ele><time>2026-04-18T15:34:58.215Z</time></trkpt><trkpt lat="39.2223572" lon="8.6470028"><ele>437.6</ele><time>2026-04-18T15:34:59.214Z</time></trkpt><trkpt lat="39.2224459" lon="8.647072"><ele>437.0</ele><time>2026-04-18T15:35:00.223Z</time></trkpt><trkpt lat="39.2225144" lon="8.6471207"><ele>436.99999999999994</ele><time>2026-04-18T15:35:01.195Z</time></trkpt><trkpt lat="39.2225799" lon="8.6471674"><ele>437.0</ele><time>2026-04-18T15:35:02.188Z</time></trkpt><trkpt lat="39.222642" lon="8.6472214"><ele>437.0</ele><time>2026-04-18T15:35:03.2Z</time></trkpt><trkpt lat="39.2226979" lon="8.647277"><ele>437.0</ele><time>2026-04-18T15:35:04.202Z</time></trkpt><trkpt lat="39.2227936" lon="8.6473102"><ele>436.99999999999994</ele><time>2026-04-18T15:35:06.229Z</time></trkpt><trkpt lat="39.2228861" lon="8.6473259"><ele>437.0</ele><time>2026-04-18T15:35:08.193Z</time></trkpt><trkpt lat="39.2229449" lon="8.6473661"><ele>437.0</ele><time>2026-04-18T15:35:09.206Z</time></trkpt><trkpt lat="39.2229976" lon="8.6474411"><ele>437.0</ele><time>2026-04-18T15:35:10.185Z</time></trkpt><trkpt lat="39.2230478" lon="8.6475193"><ele>437.0</ele><time>2026-04-18T15:35:11.202Z</time></trkpt><trkpt lat="39.2230986" lon="8.6475828"><ele>437.0</ele><time>2026-04-18T15:35:12.212Z</time></trkpt><trkpt lat="39.223164" lon="8.6476278"><ele>437.0</ele><time>2026-04-18T15:35:13.201Z</time></trkpt><trkpt lat="39.2232307" lon="8.6476637"><ele>437.0</ele><time>2026-04-18T15:35:14.193Z</time></trkpt><trkpt lat="39.2232884" lon="8.647702"><ele>437.0</ele><time>2026-04-18T15:35:15.227Z</time></trkpt><trkpt lat="39.2234013" lon="8.6477584"><ele>440.16666666666663</ele><time>2026-04-18T15:35:17.201Z</time></trkpt><trkpt lat="39.2234654" lon="8.6477775"><ele>443.3333333333333</ele><time>2026-04-18T15:35:18.191Z</time></trkpt><trkpt lat="39.2235299" lon="8.6477879"><ele>446.5</ele><time>2026-04-18T15:35:19.183Z</time></trkpt><trkpt lat="39.2236042" lon="8.6477886"><ele>449.66666666666663</ele><time>2026-04-18T15:35:20.2Z</time></trkpt><trkpt lat="39.2237264" lon="8.6478453"><ele>452.8333333333333</ele><time>2026-04-18T15:35:22.213Z</time></trkpt><trkpt lat="39.2237851" lon="8.6479017"><ele>456.0</ele><time>2026-04-18T15:35:23.217Z</time></trkpt><trkpt lat="39.2238372" lon="8.6479661"><ele>458.8</ele><time>2026-04-18T15:35:24.202Z</time></trkpt><trkpt lat="39.2238906" lon="8.6480414"><ele>461.6</ele><time>2026-04-18T15:35:25.191Z</time></trkpt><trkpt lat="39.2239648" lon="8.6481292"><ele>464.4</ele><time>2026-04-18T15:35:26.201Z</time></trkpt><trkpt lat="39.2240621" lon="8.648214"><ele>467.2</ele><time>2026-04-18T15:35:27.194Z</time></trkpt><trkpt lat="39.224166" lon="8.6482815"><ele>470.0</ele><time>2026-04-18T15:35:28.219Z</time></trkpt><trkpt lat="39.2242589" lon="8.6483452"><ele>471.4</ele><time>2026-04-18T15:35:29.207Z</time></trkpt><trkpt lat="39.2243475" lon="8.6484095"><ele>472.8</ele><time>2026-04-18T15:35:30.183Z</time></trkpt><trkpt lat="39.224434" lon="8.6484775"><ele>474.20000000000005</ele><time>2026-04-18T15:35:31.184Z</time></trkpt><trkpt lat="39.2245171" lon="8.6485357"><ele>475.6</ele><time>2026-04-18T15:35:32.192Z</time></trkpt><trkpt lat="39.2246116" lon="8.6485734"><ele>477.0</ele><time>2026-04-18T15:35:33.186Z</time></trkpt><trkpt lat="39.2247175" lon="8.6486018"><ele>481.8</ele><time>2026-04-18T15:35:34.185Z</time></trkpt><trkpt lat="39.224821" lon="8.6486349"><ele>486.6</ele><time>2026-04-18T15:35:35.197Z</time></trkpt><trkpt lat="39.2249237" lon="8.6486516"><ele>491.40000000000003</ele><time>2026-04-18T15:35:36.192Z</time></trkpt><trkpt lat="39.2250336" lon="8.6486559"><ele>496.20000000000005</ele><time>2026-04-18T15:35:37.199Z</time></trkpt><trkpt lat="39.2251422" lon="8.6486635"><ele>501.0</ele><time>2026-04-18T15:35:38.202Z</time></trkpt><trkpt lat="39.2252385" lon="8.6486659"><ele>501.0</ele><time>2026-04-18T15:35:39.209Z</time></trkpt><trkpt lat="39.2253173" lon="8.6486719"><ele>501.0</ele><time>2026-04-18T15:35:40.194Z</time></trkpt><trkpt lat="39.2254067" lon="8.6486962"><ele>501.0</ele><time>2026-04-18T15:35:42.21Z</time></trkpt><trkpt lat="39.225525" lon="8.6487477"><ele>501.0</ele><time>2026-04-18T15:36:42.2Z</time></trkpt><trkpt lat="39.2256053" lon="8.6487814"><ele>501.0</ele><time>2026-04-18T15:36:43.196Z</time></trkpt><trkpt lat="39.2256934" lon="8.6488063"><ele>500.5</ele><time>2026-04-18T15:36:44.189Z</time></trkpt><trkpt lat="39.2257819" lon="8.6488433"><ele>500.0</ele><time>2026-04-18T15:36:45.215Z</time></trkpt><trkpt lat="39.2258644" lon="8.6488783"><ele>499.5</ele><time>2026-04-18T15:36:46.203Z</time></trkpt><trkpt lat="39.2259426" lon="8.648908"><ele>499.0</ele><time>2026-04-18T15:36:47.21Z</time></trkpt><trkpt lat="39.2260125" lon="8.648921"><ele>498.5</ele><time>2026-04-18T15:36:48.211Z</time></trkpt><trkpt lat="39.2261142" lon="8.6488892"><ele>498.0</ele><time>2026-04-18T15:36:50.189Z</time></trkpt><trkpt lat="39.2261777" lon="8.6488482"><ele>498.0</ele><time>2026-04-18T15:36:52.188Z</time></trkpt><trkpt lat="39.2263081" lon="8.648819"><ele>497.99999999999994</ele><time>2026-04-18T15:36:54.176Z</time></trkpt><trkpt lat="39.2263777" lon="8.6487806"><ele>497.99999999999994</ele><time>2026-04-18T15:36:55.187Z</time></trkpt><trkpt lat="39.2264405" lon="8.6487361"><ele>498.0</ele><time>2026-04-18T15:36:56.205Z</time></trkpt><trkpt lat="39.226499" lon="8.648703"><ele>498.0</ele><time>2026-04-18T15:36:57.201Z</time></trkpt><trkpt lat="39.2266214" lon="8.6487503"><ele>498.6666666666667</ele><time>2026-04-18T15:36:59.196Z</time></trkpt><trkpt lat="39.226687" lon="8.6488032"><ele>499.33333333333337</ele><time>2026-04-18T15:37:00.191Z</time></trkpt><trkpt lat="39.2267532" lon="8.6488768"><ele>500.0</ele><time>2026-04-18T15:37:01.198Z</time></trkpt><trkpt lat="39.2268194" lon="8.6489516"><ele>500.6666666666667</ele><time>2026-04-18T15:37:02.195Z</time></trkpt><trkpt lat="39.2268797" lon="8.6490061"><ele>501.33333333333337</ele><time>2026-04-18T15:37:03.199Z</time></trkpt><trkpt lat="39.2269432" lon="8.6490592"><ele>502.0</ele><time>2026-04-18T15:37:04.206Z</time></trkpt><trkpt lat="39.2270118" lon="8.6491136"><ele>502.0</ele><time>2026-04-18T15:37:05.22Z</time></trkpt><trkpt lat="39.2271002" lon="8.6491902"><ele>502.00000000000006</ele><time>2026-04-18T15:37:06.213Z</time></trkpt><trkpt lat="39.2271635" lon="8.6492552"><ele>502.00000000000006</ele><time>2026-04-18T15:37:07.2Z</time></trkpt><trkpt lat="39.2272872" lon="8.6493419"><ele>502.0</ele><time>2026-04-18T15:37:09.192Z</time></trkpt><trkpt lat="39.2273606" lon="8.6493736"><ele>502.0</ele><time>2026-04-18T15:37:10.198Z</time></trkpt><trkpt lat="39.2274396" lon="8.649417"><ele>502.33333333333337</ele><time>2026-04-18T15:37:11.203Z</time></trkpt><trkpt lat="39.2275068" lon="8.6494804"><ele>502.6666666666667</ele><time>2026-04-18T15:37:12.185Z</time></trkpt><trkpt lat="39.2275681" lon="8.6495598"><ele>503.0</ele><time>2026-04-18T15:37:13.19Z</time></trkpt><trkpt lat="39.2276215" lon="8.6496564"><ele>503.33333333333337</ele><time>2026-04-18T15:37:14.212Z</time></trkpt><trkpt lat="39.2276704" lon="8.6497511"><ele>503.6666666666667</ele><time>2026-04-18T15:37:15.198Z</time></trkpt><trkpt lat="39.2277139" lon="8.6498467"><ele>504.0</ele><time>2026-04-18T15:37:16.215Z</time></trkpt><trkpt lat="39.2277542" lon="8.6499139"><ele>504.0</ele><time>2026-04-18T15:37:17.21Z</time></trkpt><trkpt lat="39.2278133" lon="8.649962"><ele>504.0</ele><time>2026-04-18T15:37:18.217Z</time></trkpt><trkpt lat="39.2278728" lon="8.6500164"><ele>504.0</ele><time>2026-04-18T15:37:19.197Z</time></trkpt><trkpt lat="39.227935" lon="8.650065"><ele>504.0</ele><time>2026-04-18T15:37:20.206Z</time></trkpt><trkpt lat="39.2279882" lon="8.6501102"><ele>504.0</ele><time>2026-04-18T15:37:21.201Z</time></trkpt><trkpt lat="39.2280679" lon="8.6501682"><ele>504.0</ele><time>2026-04-18T15:37:23.189Z</time></trkpt><trkpt lat="39.2281431" lon="8.6502093"><ele>503.3333333333333</ele><time>2026-04-18T15:37:26.19Z</time></trkpt><trkpt lat="39.2281622" lon="8.6503137"><ele>502.66666666666663</ele><time>2026-04-18T15:37:34.202Z</time></trkpt><trkpt lat="39.2281879" lon="8.6504215"><ele>502.0</ele><time>2026-04-18T15:37:36.244Z</time></trkpt><trkpt lat="39.2282141" lon="8.65051"><ele>501.3333333333333</ele><time>2026-04-18T15:37:37.19Z</time></trkpt><trkpt lat="39.2282443" lon="8.6506083"><ele>500.66666666666663</ele><time>2026-04-18T15:37:38.211Z</time></trkpt><trkpt lat="39.2282594" lon="8.6507109"><ele>500.0</ele><time>2026-04-18T15:37:39.198Z</time></trkpt><trkpt lat="39.228277" lon="8.6508068"><ele>499.99999999999994</ele><time>2026-04-18T15:37:40.188Z</time></trkpt><trkpt lat="39.2283" lon="8.6509061"><ele>500.0</ele><time>2026-04-18T15:37:41.194Z</time></trkpt><trkpt lat="39.2283262" lon="8.6510128"><ele>500.0</ele><time>2026-04-18T15:37:42.219Z</time></trkpt><trkpt lat="39.228353" lon="8.6511205"><ele>500.0</ele><time>2026-04-18T15:37:43.205Z</time></trkpt><trkpt lat="39.2283684" lon="8.651226"><ele>499.99999999999994</ele><time>2026-04-18T15:37:44.207Z</time></trkpt><trkpt lat="39.228354" lon="8.6513394"><ele>500.0</ele><time>2026-04-18T15:37:45.209Z</time></trkpt><trkpt lat="39.2283056" lon="8.6514437"><ele>499.6</ele><time>2026-04-18T15:37:46.201Z</time></trkpt><trkpt lat="39.2282602" lon="8.6515589"><ele>499.2</ele><time>2026-04-18T15:37:47.229Z</time></trkpt><trkpt lat="39.2282175" lon="8.6516758"><ele>498.79999999999995</ele><time>2026-04-18T15:37:48.201Z</time></trkpt><trkpt lat="39.2281752" lon="8.6517932"><ele>498.4</ele><time>2026-04-18T15:37:49.192Z</time></trkpt><trkpt lat="39.228125" lon="8.6519102"><ele>498.0</ele><time>2026-04-18T15:37:50.205Z</time></trkpt><trkpt lat="39.2280784" lon="8.6520344"><ele>496.25</ele><time>2026-04-18T15:37:51.215Z</time></trkpt><trkpt lat="39.2280347" lon="8.6521657"><ele>494.5</ele><time>2026-04-18T15:37:52.201Z</time></trkpt><trkpt lat="39.2279716" lon="8.6522936"><ele>492.75</ele><time>2026-04-18T15:37:53.204Z</time></trkpt><trkpt lat="39.2278868" lon="8.6524152"><ele>491.0</ele><time>2026-04-18T15:37:54.212Z</time></trkpt><trkpt lat="39.2277933" lon="8.652535"><ele>491.0</ele><time>2026-04-18T15:37:55.204Z</time></trkpt><trkpt lat="39.2277179" lon="8.6526508"><ele>491.0</ele><time>2026-04-18T15:37:56.203Z</time></trkpt><trkpt lat="39.2276468" lon="8.6527666"><ele>491.0</ele><time>2026-04-18T15:37:57.195Z</time></trkpt><trkpt lat="39.2275927" lon="8.6528912"><ele>491.0</ele><time>2026-04-18T15:37:58.197Z</time></trkpt><trkpt lat="39.2275621" lon="8.6530053"><ele>491.0</ele><time>2026-04-18T15:37:59.194Z</time></trkpt><trkpt lat="39.2275434" lon="8.6531138"><ele>490.99999999999994</ele><time>2026-04-18T15:38:00.193Z</time></trkpt><trkpt lat="39.2275307" lon="8.6532134"><ele>491.0</ele><time>2026-04-18T15:38:01.187Z</time></trkpt><trkpt lat="39.227512" lon="8.6533129"><ele>491.0</ele><time>2026-04-18T15:38:02.203Z</time></trkpt><trkpt lat="39.2275122" lon="8.6534387"><ele>491.0</ele><time>2026-04-18T15:38:03.194Z</time></trkpt><trkpt lat="39.2275227" lon="8.6535477"><ele>490.99999999999994</ele><time>2026-04-18T15:38:04.218Z</time></trkpt><trkpt lat="39.2275309" lon="8.6536506"><ele>491.0</ele><time>2026-04-18T15:38:05.193Z</time></trkpt><trkpt lat="39.2275396" lon="8.653767"><ele>491.0</ele><time>2026-04-18T15:38:06.217Z</time></trkpt><trkpt lat="39.2275531" lon="8.6539045"><ele>491.0</ele><time>2026-04-18T15:38:07.198Z</time></trkpt><trkpt lat="39.2275794" lon="8.6540439"><ele>491.0</ele><time>2026-04-18T15:38:08.202Z</time></trkpt><trkpt lat="39.2275977" lon="8.6541605"><ele>491.0</ele><time>2026-04-18T15:38:09.195Z</time></trkpt><trkpt lat="39.2276153" lon="8.6542554"><ele>491.0</ele><time>2026-04-18T15:38:10.192Z</time></trkpt><trkpt lat="39.2276267" lon="8.6543467"><ele>491.0</ele><time>2026-04-18T15:38:11.207Z</time></trkpt><trkpt lat="39.2276285" lon="8.6544354"><ele>491.0</ele><time>2026-04-18T15:38:12.209Z</time></trkpt><trkpt lat="39.2276316" lon="8.6545889"><ele>491.0</ele><time>2026-04-18T15:38:14.214Z</time></trkpt><trkpt lat="39.2276961" lon="8.6547521"><ele>491.0</ele><time>2026-04-18T15:38:16.185Z</time></trkpt><trkpt lat="39.2277321" lon="8.6548402"><ele>491.0</ele><time>2026-04-18T15:38:17.235Z</time></trkpt><trkpt lat="39.227759" lon="8.6549489"><ele>491.8333333333333</ele><time>2026-04-18T15:38:18.201Z</time></trkpt><trkpt lat="39.2277882" lon="8.6550361"><ele>492.66666666666663</ele><time>2026-04-18T15:38:19.201Z</time></trkpt><trkpt lat="39.2278252" lon="8.6551167"><ele>493.5</ele><time>2026-04-18T15:38:20.202Z</time></trkpt><trkpt lat="39.2278757" lon="8.6551952"><ele>494.33333333333337</ele><time>2026-04-18T15:38:21.195Z</time></trkpt><trkpt lat="39.2279345" lon="8.6552702"><ele>495.1666666666667</ele><time>2026-04-18T15:38:22.188Z</time></trkpt><trkpt lat="39.2279898" lon="8.6553499"><ele>496.0</ele><time>2026-04-18T15:38:23.23Z</time></trkpt><trkpt lat="39.2280268" lon="8.6554283"><ele>496.6666666666667</ele><time>2026-04-18T15:38:24.215Z</time></trkpt><trkpt lat="39.2280547" lon="8.6555232"><ele>497.33333333333337</ele><time>2026-04-18T15:38:25.199Z</time></trkpt><trkpt lat="39.2280765" lon="8.655631"><ele>498.0</ele><time>2026-04-18T15:38:26.219Z</time></trkpt><trkpt lat="39.2280892" lon="8.6557428"><ele>498.66666666666663</ele><time>2026-04-18T15:38:27.206Z</time></trkpt><trkpt lat="39.228102" lon="8.6558617"><ele>499.3333333333333</ele><time>2026-04-18T15:38:28.183Z</time></trkpt><trkpt lat="39.2281042" lon="8.6559836"><ele>500.0</ele><time>2026-04-18T15:38:29.198Z</time></trkpt><trkpt lat="39.2281094" lon="8.6560929"><ele>500.6</ele><time>2026-04-18T15:38:30.202Z</time></trkpt><trkpt lat="39.2281345" lon="8.6561982"><ele>501.2</ele><time>2026-04-18T15:38:31.214Z</time></trkpt><trkpt lat="39.2281903" lon="8.6562968"><ele>501.79999999999995</ele><time>2026-04-18T15:38:32.202Z</time></trkpt><trkpt lat="39.2282693" lon="8.6563933"><ele>502.4</ele><time>2026-04-18T15:38:33.228Z</time></trkpt><trkpt lat="39.2283288" lon="8.6564843"><ele>503.0</ele><time>2026-04-18T15:38:34.202Z</time></trkpt><trkpt lat="39.2283567" lon="8.6565836"><ele>502.0</ele><time>2026-04-18T15:38:35.21Z</time></trkpt><trkpt lat="39.2283581" lon="8.6567276"><ele>500.99999999999994</ele><time>2026-04-18T15:38:36.198Z</time></trkpt><trkpt lat="39.2283542" lon="8.6568766"><ele>499.99999999999994</ele><time>2026-04-18T15:38:37.183Z</time></trkpt><trkpt lat="39.2283625" lon="8.6570199"><ele>499.0</ele><time>2026-04-18T15:38:38.198Z</time></trkpt><trkpt lat="39.2283698" lon="8.6571566"><ele>498.0</ele><time>2026-04-18T15:38:39.198Z</time></trkpt><trkpt lat="39.2283566" lon="8.6572739"><ele>498.0</ele><time>2026-04-18T15:38:40.196Z</time></trkpt><trkpt lat="39.2283347" lon="8.6573991"><ele>497.99999999999994</ele><time>2026-04-18T15:38:41.205Z</time></trkpt><trkpt lat="39.228304" lon="8.6575251"><ele>497.99999999999994</ele><time>2026-04-18T15:38:42.219Z</time></trkpt><trkpt lat="39.2282687" lon="8.6576508"><ele>498.0</ele><time>2026-04-18T15:38:43.193Z</time></trkpt><trkpt lat="39.2282136" lon="8.6577723"><ele>498.0</ele><time>2026-04-18T15:38:44.206Z</time></trkpt><trkpt lat="39.2281273" lon="8.6578906"><ele>499.0</ele><time>2026-04-18T15:38:45.196Z</time></trkpt><trkpt lat="39.228032" lon="8.6580076"><ele>500.0</ele><time>2026-04-18T15:38:46.209Z</time></trkpt><trkpt lat="39.2279397" lon="8.6581289"><ele>501.0</ele><time>2026-04-18T15:38:47.192Z</time></trkpt><trkpt lat="39.2278717" lon="8.6582433"><ele>502.0</ele><time>2026-04-18T15:38:48.204Z</time></trkpt><trkpt lat="39.2277976" lon="8.6583409"><ele>502.0</ele><time>2026-04-18T15:38:49.216Z</time></trkpt><trkpt lat="39.2277365" lon="8.658438"><ele>502.00000000000006</ele><time>2026-04-18T15:38:50.201Z</time></trkpt><trkpt lat="39.2276875" lon="8.6585495"><ele>502.00000000000006</ele><time>2026-04-18T15:38:51.208Z</time></trkpt><trkpt lat="39.2276461" lon="8.6586692"><ele>502.0</ele><time>2026-04-18T15:38:52.209Z</time></trkpt><trkpt lat="39.2276152" lon="8.6587895"><ele>502.0</ele><time>2026-04-18T15:38:53.217Z</time></trkpt><trkpt lat="39.2276053" lon="8.6588895"><ele>503.40000000000003</ele><time>2026-04-18T15:38:54.201Z</time></trkpt><trkpt lat="39.22763" lon="8.6590157"><ele>504.80000000000007</ele><time>2026-04-18T15:38:55.204Z</time></trkpt><trkpt lat="39.2276725" lon="8.6591412"><ele>506.2</ele><time>2026-04-18T15:38:56.201Z</time></trkpt><trkpt lat="39.2277336" lon="8.6592818"><ele>507.6</ele><time>2026-04-18T15:38:57.182Z</time></trkpt><trkpt lat="39.2277748" lon="8.6593995"><ele>509.0</ele><time>2026-04-18T15:38:58.198Z</time></trkpt><trkpt lat="39.2278043" lon="8.6595093"><ele>511.4</ele><time>2026-04-18T15:38:59.202Z</time></trkpt><trkpt lat="39.2278013" lon="8.6596379"><ele>513.8</ele><time>2026-04-18T15:39:00.198Z</time></trkpt><trkpt lat="39.2277849" lon="8.6597839"><ele>516.2</ele><time>2026-04-18T15:39:01.197Z</time></trkpt><trkpt lat="39.2277585" lon="8.6599324"><ele>518.6</ele><time>2026-04-18T15:39:02.192Z</time></trkpt><trkpt lat="39.2277289" lon="8.6600708"><ele>521.0</ele><time>2026-04-18T15:39:03.193Z</time></trkpt><trkpt lat="39.2276962" lon="8.6601933"><ele>522.2</ele><time>2026-04-18T15:39:04.202Z</time></trkpt><trkpt lat="39.2276746" lon="8.6603184"><ele>523.4000000000001</ele><time>2026-04-18T15:39:05.201Z</time></trkpt><trkpt lat="39.2276557" lon="8.6604451"><ele>524.6</ele><time>2026-04-18T15:39:06.193Z</time></trkpt><trkpt lat="39.2276515" lon="8.6605756"><ele>525.8000000000001</ele><time>2026-04-18T15:39:07.202Z</time></trkpt><trkpt lat="39.2276586" lon="8.6607027"><ele>527.0</ele><time>2026-04-18T15:39:08.182Z</time></trkpt><trkpt lat="39.2276701" lon="8.6608029"><ele>527.0</ele><time>2026-04-18T15:39:09.191Z</time></trkpt><trkpt lat="39.227711" lon="8.6608826"><ele>527.0</ele><time>2026-04-18T15:39:10.209Z</time></trkpt><trkpt lat="39.2277713" lon="8.6609504"><ele>527.0</ele><time>2026-04-18T15:39:11.201Z</time></trkpt><trkpt lat="39.2278487" lon="8.6610242"><ele>527.0</ele><time>2026-04-18T15:39:12.203Z</time></trkpt><trkpt lat="39.2279128" lon="8.6610827"><ele>527.0</ele><time>2026-04-18T15:39:13.199Z</time></trkpt><trkpt lat="39.227972" lon="8.6611346"><ele>527.0</ele><time>2026-04-18T15:39:14.196Z</time></trkpt><trkpt lat="39.228038" lon="8.6612024"><ele>526.8000000000001</ele><time>2026-04-18T15:39:15.21Z</time></trkpt><trkpt lat="39.2281213" lon="8.6612744"><ele>526.6</ele><time>2026-04-18T15:39:16.204Z</time></trkpt><trkpt lat="39.2281804" lon="8.6613403"><ele>526.4000000000001</ele><time>2026-04-18T15:39:17.204Z</time></trkpt><trkpt lat="39.228245" lon="8.6613815"><ele>526.2</ele><time>2026-04-18T15:39:18.25Z</time></trkpt><trkpt lat="39.2283426" lon="8.6613864"><ele>526.0</ele><time>2026-04-18T15:39:19.209Z</time></trkpt><trkpt lat="39.2284539" lon="8.661398"><ele>525.2</ele><time>2026-04-18T15:39:20.202Z</time></trkpt><trkpt lat="39.228576" lon="8.6614151"><ele>524.4000000000001</ele><time>2026-04-18T15:39:21.186Z</time></trkpt><trkpt lat="39.2286942" lon="8.6614447"><ele>523.6</ele><time>2026-04-18T15:39:22.211Z</time></trkpt><trkpt lat="39.2288" lon="8.6614774"><ele>522.8000000000001</ele><time>2026-04-18T15:39:23.211Z</time></trkpt><trkpt lat="39.228879" lon="8.661523"><ele>522.0</ele><time>2026-04-18T15:39:24.206Z</time></trkpt><trkpt lat="39.2289506" lon="8.6616007"><ele>521.6666666666666</ele><time>2026-04-18T15:39:25.197Z</time></trkpt><trkpt lat="39.2290126" lon="8.6616769"><ele>521.3333333333334</ele><time>2026-04-18T15:39:26.192Z</time></trkpt><trkpt lat="39.2290708" lon="8.6617475"><ele>521.0</ele><time>2026-04-18T15:39:27.212Z</time></trkpt><trkpt lat="39.2291309" lon="8.6618196"><ele>520.6666666666667</ele><time>2026-04-18T15:39:28.187Z</time></trkpt><trkpt lat="39.2292071" lon="8.6618724"><ele>520.3333333333334</ele><time>2026-04-18T15:39:29.204Z</time></trkpt><trkpt lat="39.2293057" lon="8.6619177"><ele>520.0</ele><time>2026-04-18T15:39:30.192Z</time></trkpt><trkpt lat="39.229406" lon="8.6619544"><ele>520.4</ele><time>2026-04-18T15:39:31.194Z</time></trkpt><trkpt lat="39.2295046" lon="8.6619889"><ele>520.8</ele><time>2026-04-18T15:39:32.232Z</time></trkpt><trkpt lat="39.2296097" lon="8.6620282"><ele>521.2</ele><time>2026-04-18T15:39:33.217Z</time></trkpt><trkpt lat="39.2297232" lon="8.6620536"><ele>521.6</ele><time>2026-04-18T15:39:34.196Z</time></trkpt><trkpt lat="39.2298315" lon="8.6620585"><ele>522.0</ele><time>2026-04-18T15:39:35.195Z</time></trkpt><trkpt lat="39.2299271" lon="8.662061"><ele>522.0</ele><time>2026-04-18T15:39:36.202Z</time></trkpt><trkpt lat="39.2300181" lon="8.6620902"><ele>522.0</ele><time>2026-04-18T15:39:37.197Z</time></trkpt><trkpt lat="39.2301059" lon="8.6621507"><ele>522.0</ele><time>2026-04-18T15:39:38.192Z</time></trkpt><trkpt lat="39.2301986" lon="8.6622275"><ele>522.0</ele><time>2026-04-18T15:39:39.205Z</time></trkpt><trkpt lat="39.2302815" lon="8.6622875"><ele>522.0</ele><time>2026-04-18T15:39:40.19Z</time></trkpt><trkpt lat="39.2303627" lon="8.6623239"><ele>522.0</ele><time>2026-04-18T15:39:41.203Z</time></trkpt><trkpt lat="39.2304344" lon="8.6623451"><ele>522.0</ele><time>2026-04-18T15:39:42.192Z</time></trkpt><trkpt lat="39.2305007" lon="8.6623549"><ele>522.0</ele><time>2026-04-18T15:39:43.195Z</time></trkpt><trkpt lat="39.2305752" lon="8.6623777"><ele>522.0</ele><time>2026-04-18T15:39:44.211Z</time></trkpt><trkpt lat="39.2306601" lon="8.6624254"><ele>522.0</ele><time>2026-04-18T15:39:45.202Z</time></trkpt><trkpt lat="39.2307397" lon="8.662485"><ele>522.0</ele><time>2026-04-18T15:39:46.196Z</time></trkpt><trkpt lat="39.2308203" lon="8.6625495"><ele>522.5</ele><time>2026-04-18T15:39:47.19Z</time></trkpt><trkpt lat="39.230893" lon="8.6626042"><ele>523.0</ele><time>2026-04-18T15:39:48.224Z</time></trkpt><trkpt lat="39.2309614" lon="8.6626531"><ele>523.5</ele><time>2026-04-18T15:39:49.19Z</time></trkpt><trkpt lat="39.2310172" lon="8.6626975"><ele>524.0</ele><time>2026-04-18T15:39:50.198Z</time></trkpt><trkpt lat="39.2310927" lon="8.6627677"><ele>524.5</ele><time>2026-04-18T15:39:52.205Z</time></trkpt><trkpt lat="39.231151" lon="8.6628198"><ele>525.0</ele><time>2026-04-18T15:39:54.208Z</time></trkpt><trkpt lat="39.2312072" lon="8.6628636"><ele>525.1666666666666</ele><time>2026-04-18T15:39:57.196Z</time></trkpt><trkpt lat="39.2312391" lon="8.6629457"><ele>525.3333333333334</ele><time>2026-04-18T15:43:41.195Z</time></trkpt><trkpt lat="39.2312986" lon="8.6630676"><ele>525.5</ele><time>2026-04-18T15:43:43.21Z</time></trkpt><trkpt lat="39.2313328" lon="8.6631449"><ele>525.6666666666667</ele><time>2026-04-18T15:43:44.194Z</time></trkpt><trkpt lat="39.2313687" lon="8.6632387"><ele>525.8333333333334</ele><time>2026-04-18T15:43:45.207Z</time></trkpt><trkpt lat="39.2313828" lon="8.6633339"><ele>526.0</ele><time>2026-04-18T15:43:46.201Z</time></trkpt><trkpt lat="39.231382" lon="8.6634225"><ele>526.0</ele><time>2026-04-18T15:43:47.203Z</time></trkpt><trkpt lat="39.2313545" lon="8.6635801"><ele>526.0</ele><time>2026-04-18T15:43:49.192Z</time></trkpt><trkpt lat="39.2313183" lon="8.6636665"><ele>526.0</ele><time>2026-04-18T15:43:50.218Z</time></trkpt><trkpt lat="39.2312734" lon="8.6637609"><ele>526.0</ele><time>2026-04-18T15:43:51.205Z</time></trkpt><trkpt lat="39.2312132" lon="8.6638539"><ele>526.0</ele><time>2026-04-18T15:43:52.219Z</time></trkpt><trkpt lat="39.231143" lon="8.6639544"><ele>526.25</ele><time>2026-04-18T15:43:53.207Z</time></trkpt><trkpt lat="39.23107" lon="8.6640704"><ele>526.5</ele><time>2026-04-18T15:43:54.223Z</time></trkpt><trkpt lat="39.2309866" lon="8.6642194"><ele>526.75</ele><time>2026-04-18T15:43:55.214Z</time></trkpt><trkpt lat="39.2309016" lon="8.6643961"><ele>527.0</ele><time>2026-04-18T15:43:56.245Z</time></trkpt><trkpt lat="39.230826" lon="8.6645688"><ele>527.6</ele><time>2026-04-18T15:43:57.239Z</time></trkpt><trkpt lat="39.2307557" lon="8.6647138"><ele>528.2</ele><time>2026-04-18T15:43:58.204Z</time></trkpt><trkpt lat="39.2306882" lon="8.6648465"><ele>528.8</ele><time>2026-04-18T15:43:59.198Z</time></trkpt><trkpt lat="39.2306345" lon="8.6649455"><ele>529.4</ele><time>2026-04-18T15:44:00.203Z</time></trkpt><trkpt lat="39.2305702" lon="8.6650294"><ele>530.0</ele><time>2026-04-18T15:44:01.205Z</time></trkpt><trkpt lat="39.2305019" lon="8.6650883"><ele>530.0</ele><time>2026-04-18T15:44:02.199Z</time></trkpt><trkpt lat="39.2304276" lon="8.6651327"><ele>530.0</ele><time>2026-04-18T15:44:03.198Z</time></trkpt><trkpt lat="39.2303604" lon="8.6651408"><ele>530.0</ele><time>2026-04-18T15:44:04.206Z</time></trkpt><trkpt lat="39.230289" lon="8.6651308"><ele>530.0</ele><time>2026-04-18T15:44:05.191Z</time></trkpt><trkpt lat="39.2302147" lon="8.6651321"><ele>530.0</ele><time>2026-04-18T15:44:06.218Z</time></trkpt><trkpt lat="39.2301271" lon="8.6651542"><ele>530.0</ele><time>2026-04-18T15:44:07.216Z</time></trkpt><trkpt lat="39.2300414" lon="8.6652095"><ele>530.0</ele><time>2026-04-18T15:44:08.212Z</time></trkpt><trkpt lat="39.2299648" lon="8.6652731"><ele>530.0</ele><time>2026-04-18T15:44:09.194Z</time></trkpt><trkpt lat="39.2298929" lon="8.6653402"><ele>530.0</ele><time>2026-04-18T15:44:10.192Z</time></trkpt><trkpt lat="39.2298141" lon="8.6653965"><ele>530.0</ele><time>2026-04-18T15:44:11.206Z</time></trkpt><trkpt lat="39.2297229" lon="8.6654298"><ele>530.0</ele><time>2026-04-18T15:44:12.246Z</time></trkpt><trkpt lat="39.2296393" lon="8.6654758"><ele>530.4</ele><time>2026-04-18T15:44:13.226Z</time></trkpt><trkpt lat="39.229559" lon="8.6655455"><ele>530.8</ele><time>2026-04-18T15:44:14.207Z</time></trkpt><trkpt lat="39.2294823" lon="8.6656412"><ele>531.2</ele><time>2026-04-18T15:44:15.204Z</time></trkpt><trkpt lat="39.2294068" lon="8.6657479"><ele>531.6</ele><time>2026-04-18T15:44:16.19Z</time></trkpt><trkpt lat="39.22932" lon="8.6658352"><ele>532.0</ele><time>2026-04-18T15:44:17.209Z</time></trkpt><trkpt lat="39.2292377" lon="8.6659058"><ele>532.0</ele><time>2026-04-18T15:44:18.206Z</time></trkpt><trkpt lat="39.2291593" lon="8.6659706"><ele>532.0</ele><time>2026-04-18T15:44:19.183Z</time></trkpt><trkpt lat="39.2290777" lon="8.666055"><ele>532.0</ele><time>2026-04-18T15:44:20.217Z</time></trkpt><trkpt lat="39.2289827" lon="8.6661553"><ele>532.0</ele><time>2026-04-18T15:44:21.198Z</time></trkpt><trkpt lat="39.2288897" lon="8.6662634"><ele>532.0</ele><time>2026-04-18T15:44:22.204Z</time></trkpt><trkpt lat="39.2287922" lon="8.6663578"><ele>534.5</ele><time>2026-04-18T15:44:23.205Z</time></trkpt><trkpt lat="39.2286909" lon="8.6664518"><ele>537.0</ele><time>2026-04-18T15:44:24.198Z</time></trkpt><trkpt lat="39.2285739" lon="8.6665436"><ele>539.5</ele><time>2026-04-18T15:44:25.204Z</time></trkpt><trkpt lat="39.2284545" lon="8.6666274"><ele>542.0</ele><time>2026-04-18T15:44:26.203Z</time></trkpt><trkpt lat="39.2283317" lon="8.6666979"><ele>542.0</ele><time>2026-04-18T15:44:27.196Z</time></trkpt><trkpt lat="39.2282118" lon="8.6667605"><ele>542.0</ele><time>2026-04-18T15:44:28.202Z</time></trkpt><trkpt lat="39.2281131" lon="8.6668067"><ele>542.0</ele><time>2026-04-18T15:44:29.201Z</time></trkpt><trkpt lat="39.2280204" lon="8.666849"><ele>542.0</ele><time>2026-04-18T15:44:30.202Z</time></trkpt><trkpt lat="39.2279233" lon="8.6668968"><ele>542.0</ele><time>2026-04-18T15:44:31.192Z</time></trkpt><trkpt lat="39.2278288" lon="8.6669509"><ele>541.4</ele><time>2026-04-18T15:44:32.217Z</time></trkpt><trkpt lat="39.2277333" lon="8.6670151"><ele>540.8000000000001</ele><time>2026-04-18T15:44:33.201Z</time></trkpt><trkpt lat="39.2276575" lon="8.6671043"><ele>540.2</ele><time>2026-04-18T15:44:34.211Z</time></trkpt><trkpt lat="39.2276011" lon="8.6671867"><ele>539.6</ele><time>2026-04-18T15:44:35.2Z</time></trkpt><trkpt lat="39.2275489" lon="8.6672722"><ele>539.0</ele><time>2026-04-18T15:44:36.214Z</time></trkpt><trkpt lat="39.2274957" lon="8.6673342"><ele>539.0</ele><time>2026-04-18T15:44:37.212Z</time></trkpt><trkpt lat="39.2274477" lon="8.6673926"><ele>539.0</ele><time>2026-04-18T15:44:38.196Z</time></trkpt><trkpt lat="39.2273829" lon="8.667478"><ele>539.0</ele><time>2026-04-18T15:44:40.198Z</time></trkpt><trkpt lat="39.2273452" lon="8.6675549"><ele>539.0</ele><time>2026-04-18T15:44:43.193Z</time></trkpt><trkpt lat="39.227333" lon="8.6676433"><ele>539.0</ele><time>2026-04-18T15:44:54.216Z</time></trkpt><trkpt lat="39.2272986" lon="8.667755"><ele>539.0</ele><time>2026-04-18T15:44:57.195Z</time></trkpt><trkpt lat="39.2272772" lon="8.667863"><ele>538.0</ele><time>2026-04-18T15:45:00.204Z</time></trkpt><trkpt lat="39.2272694" lon="8.6679807"><ele>537.0</ele><time>2026-04-18T15:45:02.204Z</time></trkpt><trkpt lat="39.2272584" lon="8.6681147"><ele>536.0</ele><time>2026-04-18T15:45:04.208Z</time></trkpt><trkpt lat="39.227285" lon="8.6682252"><ele>535.0</ele><time>2026-04-18T15:45:06.212Z</time></trkpt><trkpt lat="39.2273358" lon="8.668347"><ele>534.0</ele><time>2026-04-18T15:45:08.197Z</time></trkpt><trkpt lat="39.2273931" lon="8.6684799"><ele>533.6666666666666</ele><time>2026-04-18T15:45:10.201Z</time></trkpt><trkpt lat="39.2274183" lon="8.6685669"><ele>533.3333333333334</ele><time>2026-04-18T15:45:11.21Z</time></trkpt><trkpt lat="39.2274401" lon="8.6687187"><ele>533.0</ele><time>2026-04-18T15:45:13.205Z</time></trkpt><trkpt lat="39.2274451" lon="8.6688055"><ele>532.6666666666667</ele><time>2026-04-18T15:45:14.191Z</time></trkpt><trkpt lat="39.2274531" lon="8.6688939"><ele>532.3333333333334</ele><time>2026-04-18T15:45:15.196Z</time></trkpt><trkpt lat="39.2274781" lon="8.6689715"><ele>532.0</ele><time>2026-04-18T15:45:16.203Z</time></trkpt><trkpt lat="39.2275322" lon="8.6691188"><ele>529.5</ele><time>2026-04-18T15:45:18.212Z</time></trkpt><trkpt lat="39.2275741" lon="8.6691877"><ele>527.0</ele><time>2026-04-18T15:45:19.195Z</time></trkpt><trkpt lat="39.2275986" lon="8.6692749"><ele>524.5</ele><time>2026-04-18T15:45:20.198Z</time></trkpt><trkpt lat="39.2276195" lon="8.6693722"><ele>522.0</ele><time>2026-04-18T15:45:21.198Z</time></trkpt><trkpt lat="39.2276433" lon="8.6694748"><ele>519.5</ele><time>2026-04-18T15:45:22.195Z</time></trkpt><trkpt lat="39.2276519" lon="8.6695843"><ele>517.0</ele><time>2026-04-18T15:45:23.2Z</time></trkpt><trkpt lat="39.2276538" lon="8.6696782"><ele>515.6666666666667</ele><time>2026-04-18T15:45:24.185Z</time></trkpt><trkpt lat="39.2276194" lon="8.6697644"><ele>514.3333333333334</ele><time>2026-04-18T15:45:25.194Z</time></trkpt><trkpt lat="39.2275755" lon="8.6698607"><ele>513.0</ele><time>2026-04-18T15:45:26.191Z</time></trkpt><trkpt lat="39.2275318" lon="8.6699576"><ele>511.66666666666663</ele><time>2026-04-18T15:45:27.205Z</time></trkpt><trkpt lat="39.227499" lon="8.6700423"><ele>510.3333333333333</ele><time>2026-04-18T15:45:28.188Z</time></trkpt><trkpt lat="39.227481" lon="8.6701318"><ele>509.0</ele><time>2026-04-18T15:45:29.196Z</time></trkpt><trkpt lat="39.2274982" lon="8.6702182"><ele>507.6</ele><time>2026-04-18T15:45:30.209Z</time></trkpt><trkpt lat="39.2275418" lon="8.6702988"><ele>506.2</ele><time>2026-04-18T15:45:31.201Z</time></trkpt><trkpt lat="39.2275922" lon="8.670393"><ele>504.80000000000007</ele><time>2026-04-18T15:45:32.207Z</time></trkpt><trkpt lat="39.2276356" lon="8.6705149"><ele>503.40000000000003</ele><time>2026-04-18T15:45:33.205Z</time></trkpt><trkpt lat="39.2276733" lon="8.6706361"><ele>502.0</ele><time>2026-04-18T15:45:34.212Z</time></trkpt><trkpt lat="39.2277055" lon="8.6707451"><ele>502.00000000000006</ele><time>2026-04-18T15:45:35.211Z</time></trkpt><trkpt lat="39.2277206" lon="8.6708554"><ele>502.0</ele><time>2026-04-18T15:45:36.206Z</time></trkpt><trkpt lat="39.2277131" lon="8.6709712"><ele>502.0</ele><time>2026-04-18T15:45:37.201Z</time></trkpt><trkpt lat="39.2276945" lon="8.6710813"><ele>502.0</ele><time>2026-04-18T15:45:38.207Z</time></trkpt><trkpt lat="39.2276709" lon="8.6711944"><ele>502.00000000000006</ele><time>2026-04-18T15:45:39.188Z</time></trkpt><trkpt lat="39.2276442" lon="8.6713018"><ele>502.0</ele><time>2026-04-18T15:45:40.193Z</time></trkpt><trkpt lat="39.2276107" lon="8.6713981"><ele>501.50000000000006</ele><time>2026-04-18T15:45:41.189Z</time></trkpt><trkpt lat="39.2275783" lon="8.6714803"><ele>501.0</ele><time>2026-04-18T15:45:42.186Z</time></trkpt><trkpt lat="39.2275316" lon="8.6715551"><ele>500.5</ele><time>2026-04-18T15:45:43.212Z</time></trkpt><trkpt lat="39.227476" lon="8.6716387"><ele>500.0</ele><time>2026-04-18T15:45:44.209Z</time></trkpt><trkpt lat="39.227426" lon="8.6717258"><ele>499.50000000000006</ele><time>2026-04-18T15:45:45.195Z</time></trkpt><trkpt lat="39.2273835" lon="8.671809"><ele>499.0</ele><time>2026-04-18T15:45:46.199Z</time></trkpt><trkpt lat="39.227339" lon="8.6718861"><ele>496.7142857142858</ele><time>2026-04-18T15:45:47.21Z</time></trkpt><trkpt lat="39.2272962" lon="8.6719614"><ele>494.42857142857144</ele><time>2026-04-18T15:45:48.198Z</time></trkpt><trkpt lat="39.2272377" lon="8.6720215"><ele>492.14285714285717</ele><time>2026-04-18T15:45:49.215Z</time></trkpt><trkpt lat="39.2271846" lon="8.6720801"><ele>489.8571428571429</ele><time>2026-04-18T15:45:50.202Z</time></trkpt><trkpt lat="39.2271354" lon="8.6721483"><ele>487.57142857142856</ele><time>2026-04-18T15:45:51.201Z</time></trkpt><trkpt lat="39.2271008" lon="8.6722211"><ele>485.2857142857143</ele><time>2026-04-18T15:45:52.193Z</time></trkpt><trkpt lat="39.2270757" lon="8.6723121"><ele>483.0</ele><time>2026-04-18T15:45:53.197Z</time></trkpt><trkpt lat="39.227058" lon="8.6724065"><ele>483.0</ele><time>2026-04-18T15:45:54.208Z</time></trkpt><trkpt lat="39.2270362" lon="8.6725072"><ele>483.0</ele><time>2026-04-18T15:45:55.22Z</time></trkpt><trkpt lat="39.2270052" lon="8.6726129"><ele>483.0</ele><time>2026-04-18T15:45:56.194Z</time></trkpt><trkpt lat="39.2269618" lon="8.67271"><ele>483.0</ele><time>2026-04-18T15:45:57.19Z</time></trkpt><trkpt lat="39.2269339" lon="8.6727949"><ele>483.0</ele><time>2026-04-18T15:45:58.197Z</time></trkpt><trkpt lat="39.2269545" lon="8.6729207"><ele>483.0</ele><time>2026-04-18T15:46:00.2Z</time></trkpt><trkpt lat="39.227028" lon="8.6730344"><ele>482.1666666666667</ele><time>2026-04-18T15:46:02.197Z</time></trkpt><trkpt lat="39.2270659" lon="8.6731283"><ele>481.33333333333337</ele><time>2026-04-18T15:46:03.202Z</time></trkpt><trkpt lat="39.2271045" lon="8.6732274"><ele>480.5</ele><time>2026-04-18T15:46:04.205Z</time></trkpt><trkpt lat="39.2271403" lon="8.6733159"><ele>479.6666666666667</ele><time>2026-04-18T15:46:05.192Z</time></trkpt><trkpt lat="39.227183" lon="8.6733787"><ele>478.83333333333337</ele><time>2026-04-18T15:46:06.229Z</time></trkpt><trkpt lat="39.2273039" lon="8.6734558"><ele>478.0</ele><time>2026-04-18T15:46:08.21Z</time></trkpt><trkpt lat="39.227365" lon="8.6734998"><ele>478.50000000000006</ele><time>2026-04-18T15:46:09.206Z</time></trkpt><trkpt lat="39.227418" lon="8.6735574"><ele>479.0</ele><time>2026-04-18T15:46:10.21Z</time></trkpt><trkpt lat="39.2274466" lon="8.6736475"><ele>479.5</ele><time>2026-04-18T15:46:11.192Z</time></trkpt><trkpt lat="39.2274624" lon="8.6737417"><ele>480.0</ele><time>2026-04-18T15:46:12.184Z</time></trkpt><trkpt lat="39.2274718" lon="8.6738508"><ele>480.50000000000006</ele><time>2026-04-18T15:46:13.185Z</time></trkpt><trkpt lat="39.2274688" lon="8.6739532"><ele>481.0</ele><time>2026-04-18T15:46:14.2Z</time></trkpt><trkpt lat="39.2274508" lon="8.6740399"><ele>481.0</ele><time>2026-04-18T15:46:15.206Z</time></trkpt><trkpt lat="39.2274316" lon="8.6741256"><ele>481.0</ele><time>2026-04-18T15:46:16.195Z</time></trkpt><trkpt lat="39.2274977" lon="8.6742765"><ele>481.0</ele><time>2026-04-18T15:46:18.201Z</time></trkpt><trkpt lat="39.2275522" lon="8.6743464"><ele>481.0</ele><time>2026-04-18T15:46:19.203Z</time></trkpt><trkpt lat="39.2276434" lon="8.6744349"><ele>481.0</ele><time>2026-04-18T15:46:21.187Z</time></trkpt><trkpt lat="39.2277128" lon="8.6744225"><ele>481.00000000000006</ele><time>2026-04-18T15:46:48.212Z</time></trkpt><trkpt lat="39.2277975" lon="8.6744295"><ele>481.0</ele><time>2026-04-18T15:46:51.247Z</time></trkpt><trkpt lat="39.2278753" lon="8.6744002"><ele>481.0</ele><time>2026-04-18T15:46:54.193Z</time></trkpt><trkpt lat="39.2278616" lon="8.6743048"><ele>481.0</ele><time>2026-04-18T15:46:57.19Z</time></trkpt><trkpt lat="39.227849" lon="8.6741951"><ele>481.00000000000006</ele><time>2026-04-18T15:47:00.203Z</time></trkpt><trkpt lat="39.2279293" lon="8.6741618"><ele>481.0</ele><time>2026-04-18T15:47:03.186Z</time></trkpt><trkpt lat="39.2280467" lon="8.6741973"><ele>481.00000000000006</ele><time>2026-04-18T15:47:05.202Z</time></trkpt><trkpt lat="39.2281217" lon="8.6741973"><ele>481.0</ele><time>2026-04-18T15:47:06.187Z</time></trkpt><trkpt lat="39.2282019" lon="8.6741754"><ele>481.0</ele><time>2026-04-18T15:47:07.19Z</time></trkpt><trkpt lat="39.2282783" lon="8.6741551"><ele>481.0</ele><time>2026-04-18T15:47:08.208Z</time></trkpt><trkpt lat="39.2283481" lon="8.6741332"><ele>481.00000000000006</ele><time>2026-04-18T15:47:09.184Z</time></trkpt><trkpt lat="39.2284729" lon="8.6740946"><ele>481.0</ele><time>2026-04-18T15:47:11.195Z</time></trkpt><trkpt lat="39.2285542" lon="8.6740729"><ele>480.1666666666667</ele><time>2026-04-18T15:47:12.199Z</time></trkpt><trkpt lat="39.2286295" lon="8.6740537"><ele>479.33333333333337</ele><time>2026-04-18T15:47:13.19Z</time></trkpt><trkpt lat="39.2287089" lon="8.6740341"><ele>478.5</ele><time>2026-04-18T15:47:14.193Z</time></trkpt><trkpt lat="39.2287862" lon="8.6740273"><ele>477.66666666666663</ele><time>2026-04-18T15:47:15.213Z</time></trkpt><trkpt lat="39.2288677" lon="8.6740114"><ele>476.8333333333333</ele><time>2026-04-18T15:47:16.2Z</time></trkpt><trkpt lat="39.2289475" lon="8.6740117"><ele>476.0</ele><time>2026-04-18T15:47:17.223Z</time></trkpt><trkpt lat="39.2290277" lon="8.6740214"><ele>473.99999999999994</ele><time>2026-04-18T15:47:18.197Z</time></trkpt><trkpt lat="39.229105" lon="8.6740427"><ele>472.0</ele><time>2026-04-18T15:47:19.211Z</time></trkpt><trkpt lat="39.2291771" lon="8.6740609"><ele>470.0</ele><time>2026-04-18T15:47:20.199Z</time></trkpt><trkpt lat="39.2292386" lon="8.6740795"><ele>468.0</ele><time>2026-04-18T15:47:21.185Z</time></trkpt><trkpt lat="39.2293592" lon="8.6741271"><ele>465.99999999999994</ele><time>2026-04-18T15:47:23.18Z</time></trkpt><trkpt lat="39.2294128" lon="8.6741752"><ele>464.0</ele><time>2026-04-18T15:47:24.191Z</time></trkpt><trkpt lat="39.2294644" lon="8.6742319"><ele>463.99999999999994</ele><time>2026-04-18T15:47:25.19Z</time></trkpt><trkpt lat="39.2295109" lon="8.6742943"><ele>464.0</ele><time>2026-04-18T15:47:26.179Z</time></trkpt><trkpt lat="39.2295723" lon="8.6743531"><ele>464.0</ele><time>2026-04-18T15:47:27.189Z</time></trkpt><trkpt lat="39.2296339" lon="8.6743959"><ele>464.0</ele><time>2026-04-18T15:47:28.216Z</time></trkpt><trkpt lat="39.229757" lon="8.6744485"><ele>463.99999999999994</ele><time>2026-04-18T15:47:30.182Z</time></trkpt><trkpt lat="39.2298345" lon="8.6744687"><ele>464.0</ele><time>2026-04-18T15:47:31.197Z</time></trkpt><trkpt lat="39.229899" lon="8.6744994"><ele>464.7142857142858</ele><time>2026-04-18T15:47:32.194Z</time></trkpt><trkpt lat="39.2299642" lon="8.6745274"><ele>465.42857142857144</ele><time>2026-04-18T15:47:33.182Z</time></trkpt><trkpt lat="39.2300284" lon="8.6745588"><ele>466.14285714285717</ele><time>2026-04-18T15:47:34.201Z</time></trkpt><trkpt lat="39.2300941" lon="8.6745841"><ele>466.8571428571429</ele><time>2026-04-18T15:47:35.19Z</time></trkpt><trkpt lat="39.2301637" lon="8.6746003"><ele>467.57142857142856</ele><time>2026-04-18T15:47:36.179Z</time></trkpt><trkpt lat="39.2302459" lon="8.6746136"><ele>468.2857142857143</ele><time>2026-04-18T15:47:37.207Z</time></trkpt><trkpt lat="39.2303267" lon="8.6746261"><ele>469.0</ele><time>2026-04-18T15:47:38.203Z</time></trkpt><trkpt lat="39.2303984" lon="8.6746478"><ele>469.0</ele><time>2026-04-18T15:47:39.199Z</time></trkpt><trkpt lat="39.2304742" lon="8.6746709"><ele>469.0</ele><time>2026-04-18T15:47:40.208Z</time></trkpt><trkpt lat="39.2305462" lon="8.6747002"><ele>469.0</ele><time>2026-04-18T15:47:41.197Z</time></trkpt><trkpt lat="39.2306104" lon="8.6747369"><ele>469.0</ele><time>2026-04-18T15:47:42.189Z</time></trkpt><trkpt lat="39.2307311" lon="8.6747944"><ele>469.0</ele><time>2026-04-18T15:47:44.178Z</time></trkpt><trkpt lat="39.2308161" lon="8.6749239"><ele>465.57142857142856</ele><time>2026-04-18T15:47:46.187Z</time></trkpt><trkpt lat="39.2308575" lon="8.674998"><ele>462.1428571428571</ele><time>2026-04-18T15:47:47.194Z</time></trkpt><trkpt lat="39.2309044" lon="8.6750709"><ele>458.7142857142857</ele><time>2026-04-18T15:47:48.185Z</time></trkpt><trkpt lat="39.2309465" lon="8.6751482"><ele>455.2857142857143</ele><time>2026-04-18T15:47:49.186Z</time></trkpt><trkpt lat="39.2309826" lon="8.6752364"><ele>451.85714285714283</ele><time>2026-04-18T15:47:50.184Z</time></trkpt><trkpt lat="39.2310145" lon="8.6753157"><ele>448.42857142857144</ele><time>2026-04-18T15:47:51.192Z</time></trkpt><trkpt lat="39.2310334" lon="8.6753988"><ele>445.0</ele><time>2026-04-18T15:47:52.187Z</time></trkpt><trkpt lat="39.2310546" lon="8.6755284"><ele>445.00000000000006</ele><time>2026-04-18T15:47:54.193Z</time></trkpt><trkpt lat="39.2310615" lon="8.6756491"><ele>445.0</ele><time>2026-04-18T15:47:56.196Z</time></trkpt><trkpt lat="39.2310754" lon="8.6758139"><ele>445.0</ele><time>2026-04-18T15:47:58.18Z</time></trkpt><trkpt lat="39.2310872" lon="8.6759006"><ele>445.0</ele><time>2026-04-18T15:47:59.183Z</time></trkpt><trkpt lat="39.2310929" lon="8.675986"><ele>445.00000000000006</ele><time>2026-04-18T15:48:00.195Z</time></trkpt><trkpt lat="39.2310941" lon="8.6760853"><ele>445.0</ele><time>2026-04-18T15:48:01.193Z</time></trkpt><trkpt lat="39.231077" lon="8.6761768"><ele>444.2</ele><time>2026-04-18T15:48:02.171Z</time></trkpt><trkpt lat="39.2310704" lon="8.6762698"><ele>443.4</ele><time>2026-04-18T15:48:03.183Z</time></trkpt><trkpt lat="39.2310613" lon="8.6763817"><ele>442.6</ele><time>2026-04-18T15:48:04.189Z</time></trkpt><trkpt lat="39.2310436" lon="8.6764921"><ele>441.8</ele><time>2026-04-18T15:48:05.194Z</time></trkpt><trkpt lat="39.2310399" lon="8.6766437"><ele>441.0</ele><time>2026-04-18T15:48:06.171Z</time></trkpt><trkpt lat="39.2310361" lon="8.676804"><ele>440.0</ele><time>2026-04-18T15:48:07.201Z</time></trkpt><trkpt lat="39.2310258" lon="8.6769392"><ele>439.0</ele><time>2026-04-18T15:48:08.182Z</time></trkpt><trkpt lat="39.2310316" lon="8.6770663"><ele>438.0</ele><time>2026-04-18T15:48:09.216Z</time></trkpt><trkpt lat="39.231033" lon="8.6771931"><ele>437.0</ele><time>2026-04-18T15:48:10.21Z</time></trkpt><trkpt lat="39.2310301" lon="8.677332"><ele>436.0</ele><time>2026-04-18T15:48:11.177Z</time></trkpt><trkpt lat="39.2310406" lon="8.6774563"><ele>436.00000000000006</ele><time>2026-04-18T15:48:12.19Z</time></trkpt><trkpt lat="39.2310476" lon="8.6775587"><ele>436.0</ele><time>2026-04-18T15:48:13.2Z</time></trkpt><trkpt lat="39.2310591" lon="8.6776577"><ele>436.0</ele><time>2026-04-18T15:48:14.197Z</time></trkpt><trkpt lat="39.2310528" lon="8.6777656"><ele>436.0</ele><time>2026-04-18T15:48:15.195Z</time></trkpt><trkpt lat="39.2310394" lon="8.6778698"><ele>436.00000000000006</ele><time>2026-04-18T15:48:16.168Z</time></trkpt><trkpt lat="39.2310309" lon="8.6779616"><ele>436.0</ele><time>2026-04-18T15:48:17.172Z</time></trkpt><trkpt lat="39.2310136" lon="8.6780812"><ele>435.20000000000005</ele><time>2026-04-18T15:48:18.191Z</time></trkpt><trkpt lat="39.2310016" lon="8.6781926"><ele>434.40000000000003</ele><time>2026-04-18T15:48:19.18Z</time></trkpt><trkpt lat="39.2309951" lon="8.6783282"><ele>433.6</ele><time>2026-04-18T15:48:20.226Z</time></trkpt><trkpt lat="39.2310008" lon="8.6784628"><ele>432.8</ele><time>2026-04-18T15:48:21.205Z</time></trkpt><trkpt lat="39.2310015" lon="8.6785878"><ele>432.0</ele><time>2026-04-18T15:48:22.213Z</time></trkpt><trkpt lat="39.2310026" lon="8.6787033"><ele>431.0</ele><time>2026-04-18T15:48:23.197Z</time></trkpt><trkpt lat="39.2310022" lon="8.6788183"><ele>430.0</ele><time>2026-04-18T15:48:24.19Z</time></trkpt><trkpt lat="39.231" lon="8.6789394"><ele>429.0</ele><time>2026-04-18T15:48:25.19Z</time></trkpt><trkpt lat="39.2309941" lon="8.6790581"><ele>428.0</ele><time>2026-04-18T15:48:26.182Z</time></trkpt><trkpt lat="39.2310145" lon="8.6791555"><ele>427.0</ele><time>2026-04-18T15:48:27.176Z</time></trkpt><trkpt lat="39.2310469" lon="8.6792472"><ele>426.0</ele><time>2026-04-18T15:48:28.177Z</time></trkpt><trkpt lat="39.2310787" lon="8.6793493"><ele>426.0</ele><time>2026-04-18T15:48:29.197Z</time></trkpt><trkpt lat="39.2310931" lon="8.6794589"><ele>426.0</ele><time>2026-04-18T15:48:30.19Z</time></trkpt><trkpt lat="39.2311039" lon="8.6795835"><ele>426.0</ele><time>2026-04-18T15:48:31.217Z</time></trkpt><trkpt lat="39.2311034" lon="8.6796916"><ele>426.0</ele><time>2026-04-18T15:48:32.179Z</time></trkpt><trkpt lat="39.2311176" lon="8.6797866"><ele>426.0</ele><time>2026-04-18T15:48:33.191Z</time></trkpt><trkpt lat="39.2311362" lon="8.679904"><ele>426.0</ele><time>2026-04-18T15:48:34.2Z</time></trkpt><trkpt lat="39.2311615" lon="8.6800391"><ele>426.0</ele><time>2026-04-18T15:48:35.205Z</time></trkpt><trkpt lat="39.2311804" lon="8.680163"><ele>426.0</ele><time>2026-04-18T15:48:36.2Z</time></trkpt><trkpt lat="39.2311917" lon="8.6802841"><ele>426.0</ele><time>2026-04-18T15:48:37.189Z</time></trkpt><trkpt lat="39.2312311" lon="8.6804147"><ele>426.0</ele><time>2026-04-18T15:48:38.196Z</time></trkpt><trkpt lat="39.2312688" lon="8.6805406"><ele>426.0</ele><time>2026-04-18T15:48:39.189Z</time></trkpt><trkpt lat="39.2312834" lon="8.680677"><ele>426.20000000000005</ele><time>2026-04-18T15:48:40.192Z</time></trkpt><trkpt lat="39.2312985" lon="8.6808056"><ele>426.40000000000003</ele><time>2026-04-18T15:48:41.185Z</time></trkpt><trkpt lat="39.2313134" lon="8.6809333"><ele>426.6</ele><time>2026-04-18T15:48:42.18Z</time></trkpt><trkpt lat="39.2313266" lon="8.6810416"><ele>426.8</ele><time>2026-04-18T15:48:43.181Z</time></trkpt><trkpt lat="39.2313552" lon="8.6811559"><ele>427.0</ele><time>2026-04-18T15:48:44.172Z</time></trkpt><trkpt lat="39.2313786" lon="8.6812873"><ele>427.0</ele><time>2026-04-18T15:48:45.178Z</time></trkpt><trkpt lat="39.2314017" lon="8.6814115"><ele>427.00000000000006</ele><time>2026-04-18T15:48:46.179Z</time></trkpt><trkpt lat="39.2314349" lon="8.6815424"><ele>427.00000000000006</ele><time>2026-04-18T15:48:47.204Z</time></trkpt><trkpt lat="39.2314606" lon="8.6816658"><ele>427.0</ele><time>2026-04-18T15:48:48.195Z</time></trkpt><trkpt lat="39.2314845" lon="8.6817917"><ele>427.0</ele><time>2026-04-18T15:48:49.185Z</time></trkpt><trkpt lat="39.2315255" lon="8.6819197"><ele>420.8</ele><time>2026-04-18T15:48:50.188Z</time></trkpt><trkpt lat="39.2315639" lon="8.6820434"><ele>414.6</ele><time>2026-04-18T15:48:51.175Z</time></trkpt><trkpt lat="39.2315976" lon="8.6821776"><ele>408.40000000000003</ele><time>2026-04-18T15:48:52.181Z</time></trkpt><trkpt lat="39.2316464" lon="8.6823038"><ele>402.20000000000005</ele><time>2026-04-18T15:48:53.177Z</time></trkpt><trkpt lat="39.2316933" lon="8.6824309"><ele>396.0</ele><time>2026-04-18T15:48:54.19Z</time></trkpt><trkpt lat="39.2317411" lon="8.6825639"><ele>396.0</ele><time>2026-04-18T15:48:55.234Z</time></trkpt><trkpt lat="39.2317847" lon="8.6826925"><ele>396.0</ele><time>2026-04-18T15:48:56.2Z</time></trkpt><trkpt lat="39.2318327" lon="8.6828314"><ele>396.0</ele><time>2026-04-18T15:48:57.185Z</time></trkpt><trkpt lat="39.2318784" lon="8.6829419"><ele>396.0</ele><time>2026-04-18T15:48:58.191Z</time></trkpt><trkpt lat="39.2319233" lon="8.6830564"><ele>396.0</ele><time>2026-04-18T15:48:59.207Z</time></trkpt><trkpt lat="39.2319608" lon="8.6831655"><ele>396.0</ele><time>2026-04-18T15:49:00.177Z</time></trkpt><trkpt lat="39.2319953" lon="8.6832703"><ele>396.0</ele><time>2026-04-18T15:49:01.188Z</time></trkpt><trkpt lat="39.232035" lon="8.6833623"><ele>396.0</ele><time>2026-04-18T15:49:02.193Z</time></trkpt><trkpt lat="39.2320737" lon="8.6834492"><ele>396.0</ele><time>2026-04-18T15:49:03.198Z</time></trkpt><trkpt lat="39.2321152" lon="8.683515"><ele>396.0</ele><time>2026-04-18T15:49:04.191Z</time></trkpt><trkpt lat="39.2321668" lon="8.6836043"><ele>396.0</ele><time>2026-04-18T15:49:06.202Z</time></trkpt><trkpt lat="39.2322185" lon="8.6836685"><ele>396.0</ele><time>2026-04-18T15:51:05.184Z</time></trkpt><trkpt lat="39.2322634" lon="8.683567"><ele>396.0</ele><time>2026-04-18T15:51:08.194Z</time></trkpt><trkpt lat="39.2322854" lon="8.6834646"><ele>396.0</ele><time>2026-04-18T15:51:09.205Z</time></trkpt><trkpt lat="39.2323055" lon="8.6833408"><ele>396.0</ele><time>2026-04-18T15:51:10.197Z</time></trkpt><trkpt lat="39.2323241" lon="8.6832187"><ele>396.0</ele><time>2026-04-18T15:51:11.213Z</time></trkpt><trkpt lat="39.2323368" lon="8.6830917"><ele>396.0</ele><time>2026-04-18T15:51:12.206Z</time></trkpt><trkpt lat="39.2323394" lon="8.6829572"><ele>396.0</ele><time>2026-04-18T15:51:13.237Z</time></trkpt><trkpt lat="39.2323333" lon="8.6828186"><ele>396.0</ele><time>2026-04-18T15:51:14.211Z</time></trkpt><trkpt lat="39.23232" lon="8.6826739"><ele>396.0</ele><time>2026-04-18T15:51:15.208Z</time></trkpt><trkpt lat="39.2322922" lon="8.6825232"><ele>396.0</ele><time>2026-04-18T15:51:16.196Z</time></trkpt><trkpt lat="39.2322609" lon="8.6823707"><ele>396.0</ele><time>2026-04-18T15:51:17.21Z</time></trkpt><trkpt lat="39.2322204" lon="8.6822172"><ele>396.0</ele><time>2026-04-18T15:51:18.206Z</time></trkpt><trkpt lat="39.2321868" lon="8.682068"><ele>396.0</ele><time>2026-04-18T15:51:19.219Z</time></trkpt><trkpt lat="39.232153" lon="8.6819112"><ele>396.0</ele><time>2026-04-18T15:51:20.203Z</time></trkpt><trkpt lat="39.2321216" lon="8.6817565"><ele>394.8</ele><time>2026-04-18T15:51:21.188Z</time></trkpt><trkpt lat="39.2321084" lon="8.6816125"><ele>393.6</ele><time>2026-04-18T15:51:22.201Z</time></trkpt><trkpt lat="39.2321022" lon="8.681482"><ele>392.4</ele><time>2026-04-18T15:51:23.209Z</time></trkpt><trkpt lat="39.2321076" lon="8.6813379"><ele>391.2</ele><time>2026-04-18T15:51:24.209Z</time></trkpt><trkpt lat="39.2321192" lon="8.6811995"><ele>390.0</ele><time>2026-04-18T15:51:25.193Z</time></trkpt><trkpt lat="39.232131" lon="8.6810639"><ele>389.4</ele><time>2026-04-18T15:51:26.216Z</time></trkpt><trkpt lat="39.2321476" lon="8.6809286"><ele>388.8</ele><time>2026-04-18T15:51:27.199Z</time></trkpt><trkpt lat="39.2321668" lon="8.6807925"><ele>388.20000000000005</ele><time>2026-04-18T15:51:28.195Z</time></trkpt><trkpt lat="39.2321808" lon="8.6806697"><ele>387.6</ele><time>2026-04-18T15:51:29.191Z</time></trkpt><trkpt lat="39.2321842" lon="8.6805386"><ele>387.0</ele><time>2026-04-18T15:51:30.201Z</time></trkpt><trkpt lat="39.2321821" lon="8.6804315"><ele>387.0</ele><time>2026-04-18T15:51:31.201Z</time></trkpt><trkpt lat="39.2321727" lon="8.6803316"><ele>387.0</ele><time>2026-04-18T15:51:32.203Z</time></trkpt><trkpt lat="39.2321514" lon="8.6801977"><ele>387.0</ele><time>2026-04-18T15:51:34.202Z</time></trkpt><trkpt lat="39.2321797" lon="8.6802779"><ele>387.0</ele><time>2026-04-18T15:52:29.175Z</time></trkpt><trkpt lat="39.2322325" lon="8.6803406"><ele>387.0</ele><time>2026-04-18T15:52:33.218Z</time></trkpt><trkpt lat="39.2322942" lon="8.6803723"><ele>387.0</ele><time>2026-04-18T15:52:35.186Z</time></trkpt><trkpt lat="39.2323581" lon="8.6804112"><ele>384.3333333333333</ele><time>2026-04-18T15:52:37.178Z</time></trkpt><trkpt lat="39.2324178" lon="8.6804547"><ele>381.6666666666667</ele><time>2026-04-18T15:52:39.174Z</time></trkpt><trkpt lat="39.2324761" lon="8.6805029"><ele>379.0</ele><time>2026-04-18T15:52:43.207Z</time></trkpt><trkpt lat="39.2325218" lon="8.680581"><ele>376.33333333333337</ele><time>2026-04-18T15:52:46.216Z</time></trkpt><trkpt lat="39.2325599" lon="8.6806826"><ele>373.6666666666667</ele><time>2026-04-18T15:52:48.206Z</time></trkpt><trkpt lat="39.2325866" lon="8.6807716"><ele>371.0</ele><time>2026-04-18T15:52:49.203Z</time></trkpt><trkpt lat="39.2326224" lon="8.6808596"><ele>371.0</ele><time>2026-04-18T15:52:50.195Z</time></trkpt><trkpt lat="39.2326775" lon="8.6810021"><ele>371.0</ele><time>2026-04-18T15:52:52.188Z</time></trkpt><trkpt lat="39.2327117" lon="8.6810888"><ele>371.0</ele><time>2026-04-18T15:52:53.193Z</time></trkpt><trkpt lat="39.2327569" lon="8.6812077"><ele>371.0</ele><time>2026-04-18T15:52:55.198Z</time></trkpt><trkpt lat="39.2328145" lon="8.6813014"><ele>371.0</ele><time>2026-04-18T15:52:57.195Z</time></trkpt><trkpt lat="39.2328821" lon="8.6813827"><ele>370.83333333333337</ele><time>2026-04-18T15:52:58.229Z</time></trkpt><trkpt lat="39.2329378" lon="8.6814388"><ele>370.6666666666667</ele><time>2026-04-18T15:52:59.197Z</time></trkpt><trkpt lat="39.2329862" lon="8.6814985"><ele>370.5</ele><time>2026-04-18T15:53:00.187Z</time></trkpt><trkpt lat="39.233032" lon="8.6815643"><ele>370.3333333333333</ele><time>2026-04-18T15:53:01.188Z</time></trkpt><trkpt lat="39.2330744" lon="8.6816369"><ele>370.16666666666663</ele><time>2026-04-18T15:53:02.186Z</time></trkpt><trkpt lat="39.2331573" lon="8.6817626"><ele>370.0</ele><time>2026-04-18T15:53:04.197Z</time></trkpt><trkpt lat="39.2332015" lon="8.6818257"><ele>368.4</ele><time>2026-04-18T15:53:05.195Z</time></trkpt><trkpt lat="39.2332753" lon="8.6819316"><ele>366.8</ele><time>2026-04-18T15:53:07.205Z</time></trkpt><trkpt lat="39.233345" lon="8.6820352"><ele>365.20000000000005</ele><time>2026-04-18T15:53:09.196Z</time></trkpt><trkpt lat="39.2334204" lon="8.6821537"><ele>363.6</ele><time>2026-04-18T15:53:11.187Z</time></trkpt><trkpt lat="39.2334647" lon="8.6822146"><ele>362.0</ele><time>2026-04-18T15:53:12.189Z</time></trkpt><trkpt lat="39.2335085" lon="8.6822806"><ele>362.0</ele><time>2026-04-18T15:53:13.197Z</time></trkpt><trkpt lat="39.2335521" lon="8.6823491"><ele>362.0</ele><time>2026-04-18T15:53:14.232Z</time></trkpt><trkpt lat="39.233593" lon="8.6824295"><ele>362.0</ele><time>2026-04-18T15:53:15.208Z</time></trkpt><trkpt lat="39.2336276" lon="8.6825248"><ele>362.0</ele><time>2026-04-18T15:53:16.201Z</time></trkpt><trkpt lat="39.2336462" lon="8.682623"><ele>362.0</ele><time>2026-04-18T15:53:17.227Z</time></trkpt><trkpt lat="39.23366" lon="8.6827082"><ele>362.0</ele><time>2026-04-18T15:53:18.18Z</time></trkpt><trkpt lat="39.2337046" lon="8.6827909"><ele>362.0</ele><time>2026-04-18T15:53:20.186Z</time></trkpt><trkpt lat="39.2337956" lon="8.6827849"><ele>362.0</ele><time>2026-04-18T15:53:22.191Z</time></trkpt><trkpt lat="39.2338678" lon="8.682728"><ele>362.0</ele><time>2026-04-18T15:53:24.194Z</time></trkpt><trkpt lat="39.2339628" lon="8.6826666"><ele>362.0</ele><time>2026-04-18T15:53:26.195Z</time></trkpt><trkpt lat="39.2340143" lon="8.6825915"><ele>362.0</ele><time>2026-04-18T15:53:32.189Z</time></trkpt><trkpt lat="39.2340496" lon="8.6824636"><ele>362.0</ele><time>2026-04-18T15:53:34.194Z</time></trkpt><trkpt lat="39.2340881" lon="8.6823328"><ele>360.6666666666667</ele><time>2026-04-18T15:53:36.187Z</time></trkpt><trkpt lat="39.2341253" lon="8.6822472"><ele>359.33333333333337</ele><time>2026-04-18T15:53:39.192Z</time></trkpt><trkpt lat="39.2342069" lon="8.6822291"><ele>358.0</ele><time>2026-04-18T15:53:44.176Z</time></trkpt><trkpt lat="39.2342745" lon="8.6822474"><ele>356.6666666666667</ele><time>2026-04-18T15:53:46.177Z</time></trkpt><trkpt lat="39.2343515" lon="8.6822821"><ele>355.3333333333333</ele><time>2026-04-18T15:53:48.181Z</time></trkpt><trkpt lat="39.2344283" lon="8.6823323"><ele>354.0</ele><time>2026-04-18T15:53:50.203Z</time></trkpt><trkpt lat="39.2345077" lon="8.6823949"><ele>354.0</ele><time>2026-04-18T15:53:52.192Z</time></trkpt><trkpt lat="39.234589" lon="8.6824629"><ele>354.0</ele><time>2026-04-18T15:53:54.191Z</time></trkpt><trkpt lat="39.2346558" lon="8.6825109"><ele>354.0</ele><time>2026-04-18T15:53:56.191Z</time></trkpt><trkpt lat="39.234718" lon="8.6825755"><ele>354.0</ele><time>2026-04-18T15:53:58.192Z</time></trkpt><trkpt lat="39.2348211" lon="8.6826687"><ele>354.0</ele><time>2026-04-18T15:54:00.2Z</time></trkpt><trkpt lat="39.2348973" lon="8.6827403"><ele>352.6666666666667</ele><time>2026-04-18T15:54:02.194Z</time></trkpt><trkpt lat="39.2349676" lon="8.6828044"><ele>351.3333333333333</ele><time>2026-04-18T15:54:04.196Z</time></trkpt><trkpt lat="39.2350223" lon="8.6828759"><ele>350.0</ele><time>2026-04-18T15:54:06.193Z</time></trkpt><trkpt lat="39.2350595" lon="8.6829511"><ele>348.66666666666663</ele><time>2026-04-18T15:54:08.188Z</time></trkpt><trkpt lat="39.2350948" lon="8.683029"><ele>347.3333333333333</ele><time>2026-04-18T15:54:10.188Z</time></trkpt><trkpt lat="39.2351481" lon="8.6831223"><ele>346.0</ele><time>2026-04-18T15:54:13.198Z</time></trkpt><trkpt lat="39.2352106" lon="8.6831876"><ele>346.0</ele><time>2026-04-18T15:54:15.187Z</time></trkpt><trkpt lat="39.2352836" lon="8.6831937"><ele>346.0</ele><time>2026-04-18T15:54:17.19Z</time></trkpt><trkpt lat="39.235352" lon="8.6832071"><ele>346.0</ele><time>2026-04-18T15:54:19.211Z</time></trkpt><trkpt lat="39.2354274" lon="8.6832442"><ele>346.0</ele><time>2026-04-18T15:54:21.187Z</time></trkpt><trkpt lat="39.2354938" lon="8.6833014"><ele>346.0</ele><time>2026-04-18T15:54:23.188Z</time></trkpt><trkpt lat="39.2355537" lon="8.6833784"><ele>346.0</ele><time>2026-04-18T15:54:25.178Z</time></trkpt><trkpt lat="39.2356195" lon="8.6834329"><ele>344.8333333333333</ele><time>2026-04-18T15:54:27.19Z</time></trkpt><trkpt lat="39.2356882" lon="8.6834991"><ele>343.66666666666663</ele><time>2026-04-18T15:54:29.19Z</time></trkpt><trkpt lat="39.2357432" lon="8.6835672"><ele>342.5</ele><time>2026-04-18T15:54:32.2Z</time></trkpt><trkpt lat="39.235818" lon="8.6836358"><ele>341.3333333333333</ele><time>2026-04-18T15:54:35.191Z</time></trkpt><trkpt lat="39.2358585" lon="8.6837246"><ele>340.1666666666667</ele><time>2026-04-18T15:59:54.193Z</time></trkpt><trkpt lat="39.2358196" lon="8.6838476"><ele>339.0</ele><time>2026-04-18T15:59:57.231Z</time></trkpt><trkpt lat="39.2358112" lon="8.6839337"><ele>339.0</ele><time>2026-04-18T15:59:58.191Z</time></trkpt><trkpt lat="39.2357988" lon="8.6841008"><ele>339.0</ele><time>2026-04-18T16:00:00.196Z</time></trkpt><trkpt lat="39.2358024" lon="8.6841854"><ele>339.0</ele><time>2026-04-18T16:00:01.196Z</time></trkpt><trkpt lat="39.2358035" lon="8.6842697"><ele>339.0</ele><time>2026-04-18T16:00:02.206Z</time></trkpt><trkpt lat="39.2358112" lon="8.6843706"><ele>339.0</ele><time>2026-04-18T16:00:03.181Z</time></trkpt><trkpt lat="39.2358384" lon="8.6844749"><ele>339.0</ele><time>2026-04-18T16:00:04.203Z</time></trkpt><trkpt lat="39.2358699" lon="8.6845674"><ele>339.0</ele><time>2026-04-18T16:00:05.201Z</time></trkpt><trkpt lat="39.2359086" lon="8.6846663"><ele>339.0</ele><time>2026-04-18T16:00:06.201Z</time></trkpt><trkpt lat="39.2359495" lon="8.6847571"><ele>339.0</ele><time>2026-04-18T16:00:07.195Z</time></trkpt><trkpt lat="39.235998" lon="8.6848417"><ele>339.0</ele><time>2026-04-18T16:00:08.191Z</time></trkpt><trkpt lat="39.2360631" lon="8.6849101"><ele>339.0</ele><time>2026-04-18T16:00:09.191Z</time></trkpt><trkpt lat="39.2361609" lon="8.6849823"><ele>339.0</ele><time>2026-04-18T16:00:10.175Z</time></trkpt><trkpt lat="39.2362641" lon="8.6850643"><ele>339.0</ele><time>2026-04-18T16:00:11.223Z</time></trkpt><trkpt lat="39.2363616" lon="8.6851472"><ele>339.0</ele><time>2026-04-18T16:00:12.191Z</time></trkpt><trkpt lat="39.236455" lon="8.6852322"><ele>339.0</ele><time>2026-04-18T16:00:13.196Z</time></trkpt><trkpt lat="39.2365435" lon="8.6853183"><ele>339.0</ele><time>2026-04-18T16:00:14.196Z</time></trkpt><trkpt lat="39.2366254" lon="8.6854098"><ele>338.0</ele><time>2026-04-18T16:00:15.2Z</time></trkpt><trkpt lat="39.2366915" lon="8.68549"><ele>337.0</ele><time>2026-04-18T16:00:16.225Z</time></trkpt><trkpt lat="39.2367286" lon="8.6855636"><ele>336.0</ele><time>2026-04-18T16:00:17.186Z</time></trkpt><trkpt lat="39.2367597" lon="8.6856512"><ele>335.0</ele><time>2026-04-18T16:00:18.193Z</time></trkpt><trkpt lat="39.2367868" lon="8.6857279"><ele>334.0</ele><time>2026-04-18T16:00:19.188Z</time></trkpt><trkpt lat="39.2368497" lon="8.6857878"><ele>333.0</ele><time>2026-04-18T16:00:21.192Z</time></trkpt><trkpt lat="39.2369697" lon="8.6858164"><ele>333.0</ele><time>2026-04-18T16:00:23.193Z</time></trkpt><trkpt lat="39.237049" lon="8.6858466"><ele>333.0</ele><time>2026-04-18T16:00:24.195Z</time></trkpt><trkpt lat="39.2371442" lon="8.6858851"><ele>333.0</ele><time>2026-04-18T16:00:25.182Z</time></trkpt><trkpt lat="39.2372347" lon="8.6859254"><ele>333.0</ele><time>2026-04-18T16:00:26.199Z</time></trkpt><trkpt lat="39.2373183" lon="8.6859726"><ele>333.0</ele><time>2026-04-18T16:00:27.179Z</time></trkpt><trkpt lat="39.2373949" lon="8.6860279"><ele>336.0</ele><time>2026-04-18T16:00:28.174Z</time></trkpt><trkpt lat="39.2374572" lon="8.6860926"><ele>339.0</ele><time>2026-04-18T16:00:29.173Z</time></trkpt><trkpt lat="39.237517" lon="8.686163"><ele>342.0</ele><time>2026-04-18T16:00:30.202Z</time></trkpt><trkpt lat="39.2375816" lon="8.6862481"><ele>345.0</ele><time>2026-04-18T16:00:31.19Z</time></trkpt><trkpt lat="39.2376636" lon="8.6863324"><ele>348.0</ele><time>2026-04-18T16:00:32.194Z</time></trkpt><trkpt lat="39.2377369" lon="8.6864037"><ele>348.5</ele><time>2026-04-18T16:00:33.199Z</time></trkpt><trkpt lat="39.2378001" lon="8.6864538"><ele>349.0</ele><time>2026-04-18T16:00:34.183Z</time></trkpt><trkpt lat="39.2378664" lon="8.686496"><ele>349.5</ele><time>2026-04-18T16:00:35.196Z</time></trkpt><trkpt lat="39.2379203" lon="8.6865428"><ele>350.0</ele><time>2026-04-18T16:00:36.186Z</time></trkpt><trkpt lat="39.2379841" lon="8.6866083"><ele>350.5</ele><time>2026-04-18T16:00:37.186Z</time></trkpt><trkpt lat="39.2380376" lon="8.6867011"><ele>351.0</ele><time>2026-04-18T16:00:38.169Z</time></trkpt><trkpt lat="39.2380843" lon="8.686797"><ele>351.0</ele><time>2026-04-18T16:00:39.206Z</time></trkpt><trkpt lat="39.2381172" lon="8.6868964"><ele>351.0</ele><time>2026-04-18T16:00:40.194Z</time></trkpt><trkpt lat="39.2381563" lon="8.6869768"><ele>351.0</ele><time>2026-04-18T16:00:41.212Z</time></trkpt><trkpt lat="39.2381989" lon="8.6870516"><ele>351.0</ele><time>2026-04-18T16:00:42.228Z</time></trkpt><trkpt lat="39.2382486" lon="8.6871179"><ele>351.0</ele><time>2026-04-18T16:00:43.19Z</time></trkpt><trkpt lat="39.2383168" lon="8.6871967"><ele>351.0</ele><time>2026-04-18T16:00:44.2Z</time></trkpt><trkpt lat="39.2383946" lon="8.6872667"><ele>353.8571428571429</ele><time>2026-04-18T16:00:45.196Z</time></trkpt><trkpt lat="39.2384587" lon="8.6873305"><ele>356.7142857142857</ele><time>2026-04-18T16:00:46.185Z</time></trkpt><trkpt lat="39.2385127" lon="8.6873855"><ele>359.57142857142856</ele><time>2026-04-18T16:00:47.184Z</time></trkpt><trkpt lat="39.2385243" lon="8.6874681"><ele>362.42857142857144</ele><time>2026-04-18T16:00:49.195Z</time></trkpt><trkpt lat="39.2384747" lon="8.6875411"><ele>365.2857142857143</ele><time>2026-04-18T16:00:51.191Z</time></trkpt><trkpt lat="39.238423" lon="8.6875925"><ele>368.14285714285717</ele><time>2026-04-18T16:00:52.192Z</time></trkpt><trkpt lat="39.2383691" lon="8.6876504"><ele>371.0</ele><time>2026-04-18T16:00:53.199Z</time></trkpt><trkpt lat="39.2383052" lon="8.6877076"><ele>372.6666666666667</ele><time>2026-04-18T16:00:54.213Z</time></trkpt><trkpt lat="39.2382363" lon="8.6877752"><ele>374.33333333333337</ele><time>2026-04-18T16:00:55.2Z</time></trkpt><trkpt lat="39.2381772" lon="8.6878248"><ele>376.0</ele><time>2026-04-18T16:00:56.18Z</time></trkpt><trkpt lat="39.2381105" lon="8.6878796"><ele>377.6666666666667</ele><time>2026-04-18T16:00:57.201Z</time></trkpt><trkpt lat="39.2380463" lon="8.6879286"><ele>379.3333333333333</ele><time>2026-04-18T16:00:58.195Z</time></trkpt><trkpt lat="39.2379861" lon="8.6880407"><ele>381.0</ele><time>2026-04-18T16:01:00.191Z</time></trkpt><trkpt lat="39.2379978" lon="8.688183"><ele>383.4</ele><time>2026-04-18T16:01:02.22Z</time></trkpt><trkpt lat="39.2379616" lon="8.6883005"><ele>385.8</ele><time>2026-04-18T16:01:04.189Z</time></trkpt><trkpt lat="39.2378688" lon="8.6883647"><ele>388.2</ele><time>2026-04-18T16:01:06.185Z</time></trkpt><trkpt lat="39.2377421" lon="8.6883998"><ele>390.59999999999997</ele><time>2026-04-18T16:01:08.193Z</time></trkpt><trkpt lat="39.2376762" lon="8.6884372"><ele>393.0</ele><time>2026-04-18T16:01:09.176Z</time></trkpt><trkpt lat="39.2375598" lon="8.6884663"><ele>393.0</ele><time>2026-04-18T16:01:11.196Z</time></trkpt><trkpt lat="39.2374485" lon="8.6884802"><ele>393.0</ele><time>2026-04-18T16:01:13.2Z</time></trkpt><trkpt lat="39.2373603" lon="8.68851"><ele>393.0</ele><time>2026-04-18T16:01:15.187Z</time></trkpt><trkpt lat="39.2372971" lon="8.6885191"><ele>393.0</ele><time>2026-04-18T16:01:16.188Z</time></trkpt><trkpt lat="39.2372125" lon="8.6885903"><ele>393.0</ele><time>2026-04-18T16:01:18.2Z</time></trkpt><trkpt lat="39.2371685" lon="8.6886802"><ele>392.0</ele><time>2026-04-18T16:01:20.21Z</time></trkpt><trkpt lat="39.2371564" lon="8.6888174"><ele>391.0</ele><time>2026-04-18T16:01:22.203Z</time></trkpt><trkpt lat="39.2371385" lon="8.6889722"><ele>390.0</ele><time>2026-04-18T16:01:24.196Z</time></trkpt><trkpt lat="39.2371195" lon="8.6890502"><ele>389.0</ele><time>2026-04-18T16:01:25.206Z</time></trkpt><trkpt lat="39.2371106" lon="8.6891355"><ele>388.0</ele><time>2026-04-18T16:01:26.194Z</time></trkpt><trkpt lat="39.237138" lon="8.689282"><ele>388.0</ele><time>2026-04-18T16:01:28.201Z</time></trkpt><trkpt lat="39.2372076" lon="8.6894097"><ele>388.0</ele><time>2026-04-18T16:01:30.192Z</time></trkpt><trkpt lat="39.2372926" lon="8.6895269"><ele>388.0</ele><time>2026-04-18T16:01:32.2Z</time></trkpt><trkpt lat="39.2373313" lon="8.6895993"><ele>388.0</ele><time>2026-04-18T16:01:33.196Z</time></trkpt><trkpt lat="39.2373599" lon="8.6896863"><ele>388.0</ele><time>2026-04-18T16:01:34.194Z</time></trkpt><trkpt lat="39.2373889" lon="8.689761"><ele>392.33333333333337</ele><time>2026-04-18T16:01:35.195Z</time></trkpt><trkpt lat="39.2374075" lon="8.6898475"><ele>396.6666666666667</ele><time>2026-04-18T16:01:36.199Z</time></trkpt><trkpt lat="39.2374225" lon="8.6899381"><ele>401.0</ele><time>2026-04-18T16:01:37.199Z</time></trkpt><trkpt lat="39.2374457" lon="8.6900163"><ele>405.33333333333337</ele><time>2026-04-18T16:01:38.229Z</time></trkpt><trkpt lat="39.2374952" lon="8.6901262"><ele>409.6666666666667</ele><time>2026-04-18T16:01:40.2Z</time></trkpt><trkpt lat="39.2375613" lon="8.6901616"><ele>414.0</ele><time>2026-04-18T16:01:43.203Z</time></trkpt><trkpt lat="39.2376588" lon="8.69018"><ele>414.0</ele><time>2026-04-18T16:01:45.214Z</time></trkpt><trkpt lat="39.2377584" lon="8.6902462"><ele>414.0</ele><time>2026-04-18T16:01:47.182Z</time></trkpt><trkpt lat="39.2378104" lon="8.6902944"><ele>414.0</ele><time>2026-04-18T16:01:48.2Z</time></trkpt><trkpt lat="39.2378648" lon="8.6903577"><ele>414.0</ele><time>2026-04-18T16:01:49.191Z</time></trkpt><trkpt lat="39.2379115" lon="8.690429"><ele>414.0</ele><time>2026-04-18T16:01:50.175Z</time></trkpt><trkpt lat="39.23795" lon="8.6904952"><ele>414.0</ele><time>2026-04-18T16:01:51.222Z</time></trkpt><trkpt lat="39.2379931" lon="8.690568"><ele>414.00000000000006</ele><time>2026-04-18T16:01:52.186Z</time></trkpt><trkpt lat="39.2380132" lon="8.6906473"><ele>414.0</ele><time>2026-04-18T16:01:53.206Z</time></trkpt><trkpt lat="39.2380379" lon="8.6907309"><ele>414.0</ele><time>2026-04-18T16:01:54.197Z</time></trkpt><trkpt lat="39.2380696" lon="8.6908142"><ele>414.0</ele><time>2026-04-18T16:01:55.202Z</time></trkpt><trkpt lat="39.2381136" lon="8.6908981"><ele>414.0</ele><time>2026-04-18T16:01:56.198Z</time></trkpt><trkpt lat="39.2381643" lon="8.6909618"><ele>414.00000000000006</ele><time>2026-04-18T16:01:57.188Z</time></trkpt><trkpt lat="39.2382229" lon="8.6910123"><ele>414.0</ele><time>2026-04-18T16:01:58.23Z</time></trkpt><trkpt lat="39.2382833" lon="8.6910659"><ele>413.8333333333333</ele><time>2026-04-18T16:01:59.2Z</time></trkpt><trkpt lat="39.2383391" lon="8.6911248"><ele>413.66666666666663</ele><time>2026-04-18T16:02:00.197Z</time></trkpt><trkpt lat="39.2383847" lon="8.6911946"><ele>413.5</ele><time>2026-04-18T16:02:01.19Z</time></trkpt><trkpt lat="39.2384279" lon="8.6912672"><ele>413.3333333333333</ele><time>2026-04-18T16:02:02.191Z</time></trkpt><trkpt lat="39.2384371" lon="8.69135"><ele>413.16666666666663</ele><time>2026-04-18T16:02:03.217Z</time></trkpt><trkpt lat="39.238447" lon="8.6914374"><ele>413.0</ele><time>2026-04-18T16:02:04.176Z</time></trkpt><trkpt lat="39.2384919" lon="8.6916081"><ele>412.99999999999994</ele><time>2026-04-18T16:02:06.221Z</time></trkpt><trkpt lat="39.2385358" lon="8.6916825"><ele>413.0</ele><time>2026-04-18T16:02:07.206Z</time></trkpt><trkpt lat="39.2385951" lon="8.6917574"><ele>413.0</ele><time>2026-04-18T16:02:08.196Z</time></trkpt><trkpt lat="39.238649" lon="8.6918359"><ele>413.0</ele><time>2026-04-18T16:02:09.205Z</time></trkpt><trkpt lat="39.2386828" lon="8.6919069"><ele>412.99999999999994</ele><time>2026-04-18T16:02:10.233Z</time></trkpt><trkpt lat="39.2387002" lon="8.6920581"><ele>413.0</ele><time>2026-04-18T16:02:12.21Z</time></trkpt><trkpt lat="39.2386816" lon="8.692203"><ele>410.59999999999997</ele><time>2026-04-18T16:02:14.195Z</time></trkpt><trkpt lat="39.2387155" lon="8.6922923"><ele>408.2</ele><time>2026-04-18T16:02:30.192Z</time></trkpt><trkpt lat="39.2387606" lon="8.6923586"><ele>405.8</ele><time>2026-04-18T16:02:32.2Z</time></trkpt><trkpt lat="39.2388387" lon="8.6924902"><ele>403.4</ele><time>2026-04-18T16:02:34.194Z</time></trkpt><trkpt lat="39.2388919" lon="8.6926191"><ele>401.0</ele><time>2026-04-18T16:02:36.194Z</time></trkpt><trkpt lat="39.238944" lon="8.6927091"><ele>399.66666666666663</ele><time>2026-04-18T16:02:38.19Z</time></trkpt><trkpt lat="39.2389697" lon="8.6927992"><ele>398.3333333333333</ele><time>2026-04-18T16:02:40.195Z</time></trkpt><trkpt lat="39.2389654" lon="8.692941"><ele>397.0</ele><time>2026-04-18T16:02:42.187Z</time></trkpt><trkpt lat="39.2389631" lon="8.6930584"><ele>395.66666666666663</ele><time>2026-04-18T16:02:43.208Z</time></trkpt><trkpt lat="39.2389625" lon="8.6931529"><ele>394.3333333333333</ele><time>2026-04-18T16:02:44.19Z</time></trkpt><trkpt lat="39.2389605" lon="8.693245"><ele>393.0</ele><time>2026-04-18T16:02:45.22Z</time></trkpt><trkpt lat="39.2389541" lon="8.6933324"><ele>391.8333333333333</ele><time>2026-04-18T16:02:46.188Z</time></trkpt><trkpt lat="39.2389566" lon="8.6934264"><ele>390.66666666666663</ele><time>2026-04-18T16:02:47.197Z</time></trkpt><trkpt lat="39.2389538" lon="8.6935263"><ele>389.5</ele><time>2026-04-18T16:02:48.197Z</time></trkpt><trkpt lat="39.2389525" lon="8.6936257"><ele>388.3333333333333</ele><time>2026-04-18T16:02:49.202Z</time></trkpt><trkpt lat="39.2389482" lon="8.693713"><ele>387.16666666666663</ele><time>2026-04-18T16:02:50.19Z</time></trkpt><trkpt lat="39.2389002" lon="8.6938302"><ele>386.0</ele><time>2026-04-18T16:02:52.19Z</time></trkpt><trkpt lat="39.2388363" lon="8.6939216"><ele>385.99999999999994</ele><time>2026-04-18T16:02:54.191Z</time></trkpt><trkpt lat="39.2387829" lon="8.6939738"><ele>386.0</ele><time>2026-04-18T16:02:56.218Z</time></trkpt><trkpt lat="39.2387266" lon="8.6939346"><ele>386.0</ele><time>2026-04-18T16:03:20.19Z</time></trkpt><trkpt lat="39.2386849" lon="8.6938389"><ele>386.0</ele><time>2026-04-18T16:03:25.186Z</time></trkpt><trkpt lat="39.2386592" lon="8.6937344"><ele>385.99999999999994</ele><time>2026-04-18T16:03:27.195Z</time></trkpt><trkpt lat="39.2385874" lon="8.6936063"><ele>386.0</ele><time>2026-04-18T16:03:29.196Z</time></trkpt><trkpt lat="39.2385369" lon="8.6935435"><ele>386.00000000000006</ele><time>2026-04-18T16:03:30.181Z</time></trkpt><trkpt lat="39.2384747" lon="8.6934887"><ele>386.0</ele><time>2026-04-18T16:03:32.196Z</time></trkpt><trkpt lat="39.2384137" lon="8.693453"><ele>386.0</ele><time>2026-04-18T16:03:34.201Z</time></trkpt><trkpt lat="39.2383472" lon="8.693481"><ele>386.0</ele><time>2026-04-18T16:03:39.195Z</time></trkpt><trkpt lat="39.2383244" lon="8.6935661"><ele>386.0</ele><time>2026-04-18T16:03:43.185Z</time></trkpt><trkpt lat="39.2383207" lon="8.6936756"><ele>386.00000000000006</ele><time>2026-04-18T16:03:46.198Z</time></trkpt><trkpt lat="39.2383116" lon="8.6937698"><ele>386.0</ele><time>2026-04-18T16:03:48.187Z</time></trkpt><trkpt lat="39.2382884" lon="8.6939349"><ele>383.20000000000005</ele><time>2026-04-18T16:03:50.184Z</time></trkpt><trkpt lat="39.2382801" lon="8.6940204"><ele>380.40000000000003</ele><time>2026-04-18T16:03:51.187Z</time></trkpt><trkpt lat="39.2382672" lon="8.6941124"><ele>377.6</ele><time>2026-04-18T16:03:52.186Z</time></trkpt><trkpt lat="39.2382337" lon="8.6942562"><ele>374.8</ele><time>2026-04-18T16:03:54.203Z</time></trkpt><trkpt lat="39.2381941" lon="8.694372"><ele>372.0</ele><time>2026-04-18T16:03:56.192Z</time></trkpt><trkpt lat="39.2381623" lon="8.6944964"><ele>366.5</ele><time>2026-04-18T16:03:58.189Z</time></trkpt><trkpt lat="39.2381337" lon="8.6946085"><ele>361.0</ele><time>2026-04-18T16:04:00.187Z</time></trkpt><trkpt lat="39.238086" lon="8.6947036"><ele>355.5</ele><time>2026-04-18T16:04:02.191Z</time></trkpt><trkpt lat="39.2380213" lon="8.694772"><ele>350.0</ele><time>2026-04-18T16:04:04.186Z</time></trkpt><trkpt lat="39.2379631" lon="8.69484"><ele>344.5</ele><time>2026-04-18T16:04:06.171Z</time></trkpt><trkpt lat="39.2379177" lon="8.6949339"><ele>339.0</ele><time>2026-04-18T16:04:08.192Z</time></trkpt><trkpt lat="39.2378431" lon="8.6950169"><ele>339.0</ele><time>2026-04-18T16:04:10.191Z</time></trkpt><trkpt lat="39.2377617" lon="8.6950935"><ele>339.0</ele><time>2026-04-18T16:04:12.184Z</time></trkpt><trkpt lat="39.2377375" lon="8.6951746"><ele>339.0</ele><time>2026-04-18T16:04:13.177Z</time></trkpt><trkpt lat="39.2377349" lon="8.6953239"><ele>339.0</ele><time>2026-04-18T16:04:15.169Z</time></trkpt><trkpt lat="39.2377419" lon="8.6954547"><ele>339.0</ele><time>2026-04-18T16:04:17.18Z</time></trkpt><trkpt lat="39.2377195" lon="8.6955326"><ele>338.79999999999995</ele><time>2026-04-18T16:04:18.189Z</time></trkpt><trkpt lat="39.2376933" lon="8.6956598"><ele>338.59999999999997</ele><time>2026-04-18T16:04:20.197Z</time></trkpt><trkpt lat="39.2377152" lon="8.695783"><ele>338.4</ele><time>2026-04-18T16:04:22.192Z</time></trkpt><trkpt lat="39.2377531" lon="8.6958992"><ele>338.2</ele><time>2026-04-18T16:04:24.203Z</time></trkpt><trkpt lat="39.2377815" lon="8.6960123"><ele>338.0</ele><time>2026-04-18T16:04:26.209Z</time></trkpt><trkpt lat="39.23781" lon="8.69613"><ele>338.33333333333337</ele><time>2026-04-18T16:04:28.19Z</time></trkpt><trkpt lat="39.2378199" lon="8.6962606"><ele>338.6666666666667</ele><time>2026-04-18T16:04:30.188Z</time></trkpt><trkpt lat="39.2378231" lon="8.6963571"><ele>339.0</ele><time>2026-04-18T16:04:31.179Z</time></trkpt><trkpt lat="39.2378294" lon="8.6964535"><ele>339.3333333333333</ele><time>2026-04-18T16:04:32.184Z</time></trkpt><trkpt lat="39.2378269" lon="8.6965383"><ele>339.66666666666663</ele><time>2026-04-18T16:04:33.185Z</time></trkpt><trkpt lat="39.2378216" lon="8.6966235"><ele>340.0</ele><time>2026-04-18T16:04:34.186Z</time></trkpt><trkpt lat="39.2378166" lon="8.69675"><ele>340.0</ele><time>2026-04-18T16:04:36.202Z</time></trkpt><trkpt lat="39.2377944" lon="8.6969145"><ele>340.0</ele><time>2026-04-18T16:04:38.178Z</time></trkpt><trkpt lat="39.2377802" lon="8.697001"><ele>340.0</ele><time>2026-04-18T16:04:39.185Z</time></trkpt><trkpt lat="39.2377326" lon="8.697173"><ele>340.0</ele><time>2026-04-18T16:04:41.198Z</time></trkpt><trkpt lat="39.2376717" lon="8.6973153"><ele>338.8</ele><time>2026-04-18T16:04:43.193Z</time></trkpt><trkpt lat="39.2376446" lon="8.6973954"><ele>337.6</ele><time>2026-04-18T16:04:44.179Z</time></trkpt><trkpt lat="39.2376075" lon="8.6975676"><ele>336.4</ele><time>2026-04-18T16:04:46.186Z</time></trkpt><trkpt lat="39.2375872" lon="8.6976468"><ele>335.2</ele><time>2026-04-18T16:04:47.191Z</time></trkpt><trkpt lat="39.2375723" lon="8.6977834"><ele>334.0</ele><time>2026-04-18T16:04:49.186Z</time></trkpt><trkpt lat="39.2376132" lon="8.6978796"><ele>332.2</ele><time>2026-04-18T16:04:52.202Z</time></trkpt><trkpt lat="39.2377042" lon="8.697912"><ele>330.4</ele><time>2026-04-18T16:04:55.19Z</time></trkpt><trkpt lat="39.237794" lon="8.6979668"><ele>328.6</ele><time>2026-04-18T16:04:57.192Z</time></trkpt><trkpt lat="39.2378772" lon="8.6980397"><ele>326.8</ele><time>2026-04-18T16:04:59.19Z</time></trkpt><trkpt lat="39.2379251" lon="8.6981713"><ele>325.0</ele><time>2026-04-18T16:05:01.185Z</time></trkpt><trkpt lat="39.2379423" lon="8.6982702"><ele>325.0</ele><time>2026-04-18T16:05:02.182Z</time></trkpt><trkpt lat="39.2379414" lon="8.6983604"><ele>325.0</ele><time>2026-04-18T16:05:03.192Z</time></trkpt><trkpt lat="39.2379259" lon="8.6984532"><ele>325.0</ele><time>2026-04-18T16:05:04.182Z</time></trkpt><trkpt lat="39.237897" lon="8.6985435"><ele>325.0</ele><time>2026-04-18T16:05:05.181Z</time></trkpt><trkpt lat="39.2378678" lon="8.6986232"><ele>325.0</ele><time>2026-04-18T16:05:06.195Z</time></trkpt><trkpt lat="39.2378333" lon="8.6987513"><ele>325.0</ele><time>2026-04-18T16:05:08.176Z</time></trkpt><trkpt lat="39.2377863" lon="8.6988706"><ele>323.25</ele><time>2026-04-18T16:05:10.179Z</time></trkpt><trkpt lat="39.2377057" lon="8.6989565"><ele>321.5</ele><time>2026-04-18T16:05:12.188Z</time></trkpt><trkpt lat="39.237626" lon="8.6990522"><ele>319.75</ele><time>2026-04-18T16:05:14.188Z</time></trkpt><trkpt lat="39.2375581" lon="8.6991838"><ele>318.0</ele><time>2026-04-18T16:05:16.194Z</time></trkpt><trkpt lat="39.2374804" lon="8.6993209"><ele>318.0</ele><time>2026-04-18T16:05:18.193Z</time></trkpt><trkpt lat="39.2374334" lon="8.6993905"><ele>318.0</ele><time>2026-04-18T16:05:19.177Z</time></trkpt><trkpt lat="39.2373914" lon="8.6994604"><ele>318.0</ele><time>2026-04-18T16:05:20.185Z</time></trkpt><trkpt lat="39.2373491" lon="8.6995238"><ele>318.0</ele><time>2026-04-18T16:05:21.179Z</time></trkpt><trkpt lat="39.2373082" lon="8.6995992"><ele>318.0</ele><time>2026-04-18T16:05:22.178Z</time></trkpt><trkpt lat="39.2372774" lon="8.699677"><ele>318.0</ele><time>2026-04-18T16:05:23.198Z</time></trkpt><trkpt lat="39.23725" lon="8.6997533"><ele>318.0</ele><time>2026-04-18T16:05:24.188Z</time></trkpt><trkpt lat="39.2372222" lon="8.699831"><ele>319.1666666666667</ele><time>2026-04-18T16:05:25.199Z</time></trkpt><trkpt lat="39.2371936" lon="8.6999267"><ele>320.3333333333333</ele><time>2026-04-18T16:05:26.177Z</time></trkpt><trkpt lat="39.237147" lon="8.7000313"><ele>321.5</ele><time>2026-04-18T16:05:28.198Z</time></trkpt><trkpt lat="39.237111" lon="8.7001085"><ele>322.66666666666663</ele><time>2026-04-18T16:05:30.215Z</time></trkpt><trkpt lat="39.2370712" lon="8.7001932"><ele>323.8333333333333</ele><time>2026-04-18T16:05:32.203Z</time></trkpt><trkpt lat="39.2370235" lon="8.7002805"><ele>325.0</ele><time>2026-04-18T16:05:34.177Z</time></trkpt><trkpt lat="39.2369635" lon="8.7003794"><ele>321.8</ele><time>2026-04-18T16:05:36.174Z</time></trkpt><trkpt lat="39.2369016" lon="8.7004822"><ele>318.6</ele><time>2026-04-18T16:05:38.189Z</time></trkpt><trkpt lat="39.2368351" lon="8.7005908"><ele>315.4</ele><time>2026-04-18T16:05:40.229Z</time></trkpt><trkpt lat="39.2367406" lon="8.7006864"><ele>312.2</ele><time>2026-04-18T16:05:42.179Z</time></trkpt><trkpt lat="39.2366697" lon="8.7007457"><ele>309.0</ele><time>2026-04-18T16:05:43.189Z</time></trkpt><trkpt lat="39.2365943" lon="8.7008053"><ele>309.0</ele><time>2026-04-18T16:05:44.178Z</time></trkpt><trkpt lat="39.2365002" lon="8.7008444"><ele>309.0</ele><time>2026-04-18T16:05:45.169Z</time></trkpt><trkpt lat="39.2364031" lon="8.7008508"><ele>309.0</ele><time>2026-04-18T16:05:46.207Z</time></trkpt><trkpt lat="39.2363194" lon="8.7008482"><ele>309.0</ele><time>2026-04-18T16:05:47.193Z</time></trkpt><trkpt lat="39.2362387" lon="8.7008581"><ele>309.0</ele><time>2026-04-18T16:05:48.209Z</time></trkpt><trkpt lat="39.2361679" lon="8.7008682"><ele>309.0</ele><time>2026-04-18T16:05:49.188Z</time></trkpt><trkpt lat="39.236105" lon="8.7008759"><ele>308.14285714285717</ele><time>2026-04-18T16:05:50.169Z</time></trkpt><trkpt lat="39.2360371" lon="8.7008868"><ele>307.2857142857143</ele><time>2026-04-18T16:05:51.177Z</time></trkpt><trkpt lat="39.2359651" lon="8.7009061"><ele>306.42857142857144</ele><time>2026-04-18T16:05:52.184Z</time></trkpt><trkpt lat="39.2359055" lon="8.7009346"><ele>305.57142857142856</ele><time>2026-04-18T16:05:53.195Z</time></trkpt><trkpt lat="39.2358382" lon="8.700998"><ele>304.7142857142857</ele><time>2026-04-18T16:05:55.173Z</time></trkpt><trkpt lat="39.2358295" lon="8.7010813"><ele>303.8571428571429</ele><time>2026-04-18T16:05:57.2Z</time></trkpt><trkpt lat="39.235854" lon="8.7011617"><ele>303.0</ele><time>2026-04-18T16:05:59.189Z</time></trkpt><trkpt lat="39.2359218" lon="8.7012196"><ele>299.8333333333333</ele><time>2026-04-18T16:06:02.201Z</time></trkpt><trkpt lat="39.2359962" lon="8.7012562"><ele>296.6666666666667</ele><time>2026-04-18T16:06:05.191Z</time></trkpt><trkpt lat="39.2360529" lon="8.7013064"><ele>293.5</ele><time>2026-04-18T16:06:08.186Z</time></trkpt><trkpt lat="39.2361222" lon="8.701344"><ele>290.33333333333337</ele><time>2026-04-18T16:06:12.183Z</time></trkpt><trkpt lat="39.236202" lon="8.701352"><ele>287.1666666666667</ele><time>2026-04-18T16:06:17.127Z</time></trkpt><trkpt lat="39.2362829" lon="8.70138"><ele>284.0</ele><time>2026-04-18T16:06:21.143Z</time></trkpt><trkpt lat="39.2363657" lon="8.7014099"><ele>284.0</ele><time>2026-04-18T16:06:24.205Z</time></trkpt><trkpt lat="39.2364429" lon="8.7014411"><ele>284.0</ele><time>2026-04-18T16:06:27.19Z</time></trkpt><trkpt lat="39.2364828" lon="8.7015197"><ele>284.0</ele><time>2026-04-18T16:06:31.185Z</time></trkpt><trkpt lat="39.2364727" lon="8.7016107"><ele>284.0</ele><time>2026-04-18T16:06:35.171Z</time></trkpt><trkpt lat="39.2364416" lon="8.7016934"><ele>284.0</ele><time>2026-04-18T16:06:38.002Z</time></trkpt><trkpt lat="39.2364067" lon="8.7017777"><ele>284.0</ele><time>2026-04-18T16:06:40.203Z</time></trkpt><trkpt lat="39.2363563" lon="8.7018623"><ele>282.1428571428571</ele><time>2026-04-18T16:06:42.21Z</time></trkpt><trkpt lat="39.2363125" lon="8.701963"><ele>280.2857142857143</ele><time>2026-04-18T16:06:45.207Z</time></trkpt><trkpt lat="39.2362619" lon="8.7020285"><ele>278.42857142857144</ele><time>2026-04-18T16:06:47.191Z</time></trkpt><trkpt lat="39.2362102" lon="8.7020851"><ele>276.57142857142856</ele><time>2026-04-18T16:06:49.173Z</time></trkpt><trkpt lat="39.2361646" lon="8.7021447"><ele>274.7142857142857</ele><time>2026-04-18T16:06:51.185Z</time></trkpt><trkpt lat="39.2361251" lon="8.7022217"><ele>272.85714285714283</ele><time>2026-04-18T16:06:53.208Z</time></trkpt><trkpt lat="39.2360944" lon="8.7023112"><ele>271.0</ele><time>2026-04-18T16:06:56.188Z</time></trkpt><trkpt lat="39.2360105" lon="8.7023555"><ele>271.0</ele><time>2026-04-18T16:12:27.185Z</time></trkpt><trkpt lat="39.2358889" lon="8.7023822"><ele>271.0</ele><time>2026-04-18T16:12:29.165Z</time></trkpt><trkpt lat="39.2358113" lon="8.7023876"><ele>271.0</ele><time>2026-04-18T16:12:30.186Z</time></trkpt><trkpt lat="39.2357269" lon="8.7023913"><ele>271.0</ele><time>2026-04-18T16:12:31.19Z</time></trkpt><trkpt lat="39.2356389" lon="8.7023846"><ele>271.0</ele><time>2026-04-18T16:12:32.194Z</time></trkpt><trkpt lat="39.2355439" lon="8.7023715"><ele>272.8</ele><time>2026-04-18T16:12:33.192Z</time></trkpt><trkpt lat="39.2354494" lon="8.7023415"><ele>274.6</ele><time>2026-04-18T16:12:34.197Z</time></trkpt><trkpt lat="39.2353568" lon="8.7022871"><ele>276.4</ele><time>2026-04-18T16:12:35.188Z</time></trkpt><trkpt lat="39.2352625" lon="8.7022307"><ele>278.2</ele><time>2026-04-18T16:12:36.202Z</time></trkpt><trkpt lat="39.2351721" lon="8.7021658"><ele>280.0</ele><time>2026-04-18T16:12:37.183Z</time></trkpt><trkpt lat="39.2351026" lon="8.7020996"><ele>280.0</ele><time>2026-04-18T16:12:38.176Z</time></trkpt><trkpt lat="39.2350353" lon="8.7020169"><ele>280.0</ele><time>2026-04-18T16:12:39.184Z</time></trkpt><trkpt lat="39.2349842" lon="8.7019128"><ele>280.0</ele><time>2026-04-18T16:12:40.193Z</time></trkpt><trkpt lat="39.2349552" lon="8.7018004"><ele>280.0</ele><time>2026-04-18T16:12:41.178Z</time></trkpt><trkpt lat="39.2349401" lon="8.7017022"><ele>280.0</ele><time>2026-04-18T16:12:42.199Z</time></trkpt><trkpt lat="39.2349473" lon="8.7015915"><ele>280.0</ele><time>2026-04-18T16:12:43.182Z</time></trkpt><trkpt lat="39.2349958" lon="8.7014688"><ele>279.66666666666663</ele><time>2026-04-18T16:12:44.184Z</time></trkpt><trkpt lat="39.2350561" lon="8.7013584"><ele>279.3333333333333</ele><time>2026-04-18T16:12:45.18Z</time></trkpt><trkpt lat="39.2351012" lon="8.7012593"><ele>279.0</ele><time>2026-04-18T16:12:46.184Z</time></trkpt><trkpt lat="39.235141" lon="8.7011661"><ele>278.6666666666667</ele><time>2026-04-18T16:12:47.191Z</time></trkpt><trkpt lat="39.2351637" lon="8.7010733"><ele>278.33333333333337</ele><time>2026-04-18T16:12:48.198Z</time></trkpt><trkpt lat="39.23518" lon="8.7009741"><ele>278.0</ele><time>2026-04-18T16:12:49.178Z</time></trkpt><trkpt lat="39.2351959" lon="8.7008728"><ele>278.0</ele><time>2026-04-18T16:12:50.187Z</time></trkpt><trkpt lat="39.2351984" lon="8.7007619"><ele>278.0</ele><time>2026-04-18T16:12:51.194Z</time></trkpt><trkpt lat="39.2351749" lon="8.7006402"><ele>278.0</ele><time>2026-04-18T16:12:52.194Z</time></trkpt><trkpt lat="39.2351352" lon="8.7005083"><ele>278.0</ele><time>2026-04-18T16:12:53.182Z</time></trkpt><trkpt lat="39.2350873" lon="8.7003678"><ele>278.0</ele><time>2026-04-18T16:12:54.173Z</time></trkpt><trkpt lat="39.2350315" lon="8.7002395"><ele>279.2</ele><time>2026-04-18T16:12:55.19Z</time></trkpt><trkpt lat="39.2349731" lon="8.7001156"><ele>280.4</ele><time>2026-04-18T16:12:56.215Z</time></trkpt><trkpt lat="39.234918" lon="8.6999806"><ele>281.59999999999997</ele><time>2026-04-18T16:12:57.182Z</time></trkpt><trkpt lat="39.2348735" lon="8.6998498"><ele>282.8</ele><time>2026-04-18T16:12:58.178Z</time></trkpt><trkpt lat="39.2348505" lon="8.6997488"><ele>284.0</ele><time>2026-04-18T16:12:59.176Z</time></trkpt><trkpt lat="39.2348221" lon="8.6996333"><ele>284.1428571428571</ele><time>2026-04-18T16:13:01.181Z</time></trkpt><trkpt lat="39.2347658" lon="8.6995671"><ele>284.2857142857143</ele><time>2026-04-18T16:13:04.196Z</time></trkpt><trkpt lat="39.2347009" lon="8.6995754"><ele>284.42857142857144</ele><time>2026-04-18T16:13:09.173Z</time></trkpt><trkpt lat="39.2346549" lon="8.699641"><ele>284.57142857142856</ele><time>2026-04-18T16:13:19.202Z</time></trkpt><trkpt lat="39.2346049" lon="8.699695"><ele>284.7142857142857</ele><time>2026-04-18T16:13:27.192Z</time></trkpt><trkpt lat="39.2345573" lon="8.6997486"><ele>284.85714285714283</ele><time>2026-04-18T16:13:39.203Z</time></trkpt><trkpt lat="39.2345052" lon="8.6998116"><ele>285.0</ele><time>2026-04-18T16:13:48.182Z</time></trkpt><trkpt lat="39.2344339" lon="8.6998572"><ele>285.0</ele><time>2026-04-18T16:13:52.17Z</time></trkpt><trkpt lat="39.2343679" lon="8.6998853"><ele>285.0</ele><time>2026-04-18T16:13:55.185Z</time></trkpt><trkpt lat="39.2342873" lon="8.6999009"><ele>285.0</ele><time>2026-04-18T16:13:58.185Z</time></trkpt><trkpt lat="39.2342248" lon="8.6999252"><ele>285.0</ele><time>2026-04-18T16:14:00.178Z</time></trkpt><trkpt lat="39.2341294" lon="8.699928"><ele>285.0</ele><time>2026-04-18T16:14:03.179Z</time></trkpt><trkpt lat="39.2340588" lon="8.699913"><ele>285.0</ele><time>2026-04-18T16:14:05.191Z</time></trkpt><trkpt lat="39.23399" lon="8.6999069"><ele>288.4</ele><time>2026-04-18T16:14:07.178Z</time></trkpt><trkpt lat="39.2339244" lon="8.6998973"><ele>291.8</ele><time>2026-04-18T16:14:09.175Z</time></trkpt><trkpt lat="39.2338501" lon="8.6998739"><ele>295.2</ele><time>2026-04-18T16:14:12.208Z</time></trkpt><trkpt lat="39.2337798" lon="8.6998536"><ele>298.6</ele><time>2026-04-18T16:14:14.173Z</time></trkpt><trkpt lat="39.2336996" lon="8.6998175"><ele>302.0</ele><time>2026-04-18T16:14:16.16Z</time></trkpt><trkpt lat="39.2335661" lon="8.699706"><ele>302.0</ele><time>2026-04-18T16:14:18.165Z</time></trkpt><trkpt lat="39.2335152" lon="8.6996537"><ele>302.0</ele><time>2026-04-18T16:14:19.201Z</time></trkpt><trkpt lat="39.2334462" lon="8.6995517"><ele>302.0</ele><time>2026-04-18T16:14:21.174Z</time></trkpt><trkpt lat="39.2333975" lon="8.6994727"><ele>302.0</ele><time>2026-04-18T16:14:23.161Z</time></trkpt><trkpt lat="39.2333495" lon="8.6994124"><ele>302.0</ele><time>2026-04-18T16:14:26.182Z</time></trkpt><trkpt lat="39.2332884" lon="8.6993551"><ele>302.0</ele><time>2026-04-18T16:14:29.189Z</time></trkpt><trkpt lat="39.2332322" lon="8.6992976"><ele>301.0</ele><time>2026-04-18T16:14:31.198Z</time></trkpt><trkpt lat="39.2331669" lon="8.699238"><ele>300.0</ele><time>2026-04-18T16:14:33.172Z</time></trkpt><trkpt lat="39.2330913" lon="8.6992042"><ele>299.0</ele><time>2026-04-18T16:14:35.188Z</time></trkpt><trkpt lat="39.2330274" lon="8.6991783"><ele>298.0</ele><time>2026-04-18T16:14:37.168Z</time></trkpt><trkpt lat="39.2329638" lon="8.6991528"><ele>297.0</ele><time>2026-04-18T16:14:39.201Z</time></trkpt><trkpt lat="39.2328938" lon="8.6991235"><ele>296.0</ele><time>2026-04-18T16:14:41.179Z</time></trkpt><trkpt lat="39.232812" lon="8.6990761"><ele>295.6666666666667</ele><time>2026-04-18T16:14:44.169Z</time></trkpt><trkpt lat="39.2327215" lon="8.699034"><ele>295.33333333333337</ele><time>2026-04-18T16:14:47.184Z</time></trkpt><trkpt lat="39.232655" lon="8.6990007"><ele>295.0</ele><time>2026-04-18T16:14:49.186Z</time></trkpt><trkpt lat="39.2325956" lon="8.6989632"><ele>294.6666666666667</ele><time>2026-04-18T16:14:51.176Z</time></trkpt><trkpt lat="39.2325288" lon="8.6989509"><ele>294.3333333333333</ele><time>2026-04-18T16:14:54.188Z</time></trkpt><trkpt lat="39.2324656" lon="8.698937"><ele>294.0</ele><time>2026-04-18T16:14:57.198Z</time></trkpt><trkpt lat="39.232372" lon="8.6989114"><ele>294.3333333333333</ele><time>2026-04-18T16:15:00.202Z</time></trkpt><trkpt lat="39.2322949" lon="8.6989125"><ele>294.6666666666667</ele><time>2026-04-18T16:15:02.183Z</time></trkpt><trkpt lat="39.2322239" lon="8.6989305"><ele>295.0</ele><time>2026-04-18T16:15:04.199Z</time></trkpt><trkpt lat="39.2321567" lon="8.698964"><ele>295.33333333333337</ele><time>2026-04-18T16:15:06.185Z</time></trkpt><trkpt lat="39.2320851" lon="8.6990222"><ele>295.6666666666667</ele><time>2026-04-18T16:15:08.179Z</time></trkpt><trkpt lat="39.2320064" lon="8.699112"><ele>296.0</ele><time>2026-04-18T16:15:10.177Z</time></trkpt><trkpt lat="39.2319242" lon="8.6992108"><ele>296.0</ele><time>2026-04-18T16:15:12.184Z</time></trkpt><trkpt lat="39.231825" lon="8.6993117"><ele>296.0</ele><time>2026-04-18T16:15:14.187Z</time></trkpt><trkpt lat="39.2317497" lon="8.6993577"><ele>296.0</ele><time>2026-04-18T16:15:15.183Z</time></trkpt><trkpt lat="39.2316812" lon="8.6993905"><ele>296.0</ele><time>2026-04-18T16:15:16.19Z</time></trkpt><trkpt lat="39.231612" lon="8.6994091"><ele>296.0</ele><time>2026-04-18T16:15:17.193Z</time></trkpt><trkpt lat="39.2315404" lon="8.6994233"><ele>296.0</ele><time>2026-04-18T16:15:18.195Z</time></trkpt><trkpt lat="39.2314215" lon="8.6994436"><ele>299.33333333333337</ele><time>2026-04-18T16:15:20.177Z</time></trkpt><trkpt lat="39.231355" lon="8.6994463"><ele>302.6666666666667</ele><time>2026-04-18T16:15:21.2Z</time></trkpt><trkpt lat="39.2312776" lon="8.6994584"><ele>306.0</ele><time>2026-04-18T16:15:22.181Z</time></trkpt><trkpt lat="39.2311953" lon="8.6994596"><ele>309.3333333333333</ele><time>2026-04-18T16:15:23.177Z</time></trkpt><trkpt lat="39.2311127" lon="8.6994579"><ele>312.66666666666663</ele><time>2026-04-18T16:15:24.182Z</time></trkpt><trkpt lat="39.2310368" lon="8.6994473"><ele>316.0</ele><time>2026-04-18T16:15:25.179Z</time></trkpt><trkpt lat="39.2309663" lon="8.6994442"><ele>316.0</ele><time>2026-04-18T16:15:26.172Z</time></trkpt><trkpt lat="39.2308971" lon="8.6994581"><ele>316.0</ele><time>2026-04-18T16:15:27.179Z</time></trkpt><trkpt lat="39.2308167" lon="8.6995505"><ele>316.0</ele><time>2026-04-18T16:15:29.181Z</time></trkpt><trkpt lat="39.2307878" lon="8.6997042"><ele>316.0</ele><time>2026-04-18T16:15:31.178Z</time></trkpt><trkpt lat="39.2307728" lon="8.699786"><ele>316.0</ele><time>2026-04-18T16:15:32.181Z</time></trkpt><trkpt lat="39.2307013" lon="8.6998485"><ele>318.66666666666663</ele><time>2026-04-18T16:15:34.186Z</time></trkpt><trkpt lat="39.2306352" lon="8.6997983"><ele>321.3333333333333</ele><time>2026-04-18T16:15:36.187Z</time></trkpt><trkpt lat="39.2305677" lon="8.6996977"><ele>324.0</ele><time>2026-04-18T16:15:38.182Z</time></trkpt><trkpt lat="39.2304891" lon="8.6995883"><ele>326.6666666666667</ele><time>2026-04-18T16:15:40.179Z</time></trkpt><trkpt lat="39.2304357" lon="8.6995286"><ele>329.33333333333337</ele><time>2026-04-18T16:15:41.184Z</time></trkpt><trkpt lat="39.2303756" lon="8.6994749"><ele>332.0</ele><time>2026-04-18T16:15:42.186Z</time></trkpt><trkpt lat="39.2303119" lon="8.6994304"><ele>332.0</ele><time>2026-04-18T16:15:43.187Z</time></trkpt><trkpt lat="39.230252" lon="8.6994027"><ele>332.0</ele><time>2026-04-18T16:15:44.181Z</time></trkpt><trkpt lat="39.2301605" lon="8.6994086"><ele>332.0</ele><time>2026-04-18T16:15:46.185Z</time></trkpt><trkpt lat="39.2300842" lon="8.6994815"><ele>332.0</ele><time>2026-04-18T16:15:48.191Z</time></trkpt><trkpt lat="39.2301042" lon="8.699596"><ele>332.0</ele><time>2026-04-18T16:15:50.177Z</time></trkpt><trkpt lat="39.2301298" lon="8.6996738"><ele>332.0</ele><time>2026-04-18T16:15:51.182Z</time></trkpt><trkpt lat="39.2301531" lon="8.6998231"><ele>332.0</ele><time>2026-04-18T16:15:53.184Z</time></trkpt><trkpt lat="39.2301671" lon="8.6999617"><ele>332.0</ele><time>2026-04-18T16:15:55.179Z</time></trkpt><trkpt lat="39.2301726" lon="8.7000991"><ele>332.0</ele><time>2026-04-18T16:15:57.192Z</time></trkpt><trkpt lat="39.2301742" lon="8.700249"><ele>332.0</ele><time>2026-04-18T16:15:59.195Z</time></trkpt><trkpt lat="39.2301843" lon="8.7003296"><ele>332.0</ele><time>2026-04-18T16:16:00.195Z</time></trkpt><trkpt lat="39.2301895" lon="8.700413"><ele>336.0</ele><time>2026-04-18T16:16:01.175Z</time></trkpt><trkpt lat="39.2301458" lon="8.7005096"><ele>340.0</ele><time>2026-04-18T16:16:03.178Z</time></trkpt><trkpt lat="39.2300649" lon="8.700517"><ele>344.0</ele><time>2026-04-18T16:16:05.19Z</time></trkpt><trkpt lat="39.2299494" lon="8.7004845"><ele>348.0</ele><time>2026-04-18T16:16:07.182Z</time></trkpt><trkpt lat="39.2298547" lon="8.7005219"><ele>352.0</ele><time>2026-04-18T16:16:09.175Z</time></trkpt><trkpt lat="39.2298259" lon="8.7006159"><ele>352.0</ele><time>2026-04-18T16:16:12.188Z</time></trkpt><trkpt lat="39.229906" lon="8.7006744"><ele>352.0</ele><time>2026-04-18T16:16:14.189Z</time></trkpt><trkpt lat="39.230004" lon="8.7007116"><ele>352.0</ele><time>2026-04-18T16:16:16.172Z</time></trkpt><trkpt lat="39.2301377" lon="8.7007451"><ele>352.0</ele><time>2026-04-18T16:16:18.182Z</time></trkpt><trkpt lat="39.2302143" lon="8.7007664"><ele>352.0</ele><time>2026-04-18T16:16:19.17Z</time></trkpt><trkpt lat="39.2302837" lon="8.7007837"><ele>352.0</ele><time>2026-04-18T16:16:20.172Z</time></trkpt><trkpt lat="39.2303724" lon="8.7008416"><ele>352.0</ele><time>2026-04-18T16:16:22.212Z</time></trkpt><trkpt lat="39.2304669" lon="8.7009803"><ele>352.0</ele><time>2026-04-18T16:16:24.176Z</time></trkpt><trkpt lat="39.2305178" lon="8.7010764"><ele>352.0</ele><time>2026-04-18T16:16:25.187Z</time></trkpt><trkpt lat="39.2305655" lon="8.7011837"><ele>352.0</ele><time>2026-04-18T16:16:26.192Z</time></trkpt><trkpt lat="39.2306118" lon="8.7012911"><ele>352.16666666666663</ele><time>2026-04-18T16:16:27.182Z</time></trkpt><trkpt lat="39.2306597" lon="8.7013921"><ele>352.3333333333333</ele><time>2026-04-18T16:16:28.179Z</time></trkpt><trkpt lat="39.2306951" lon="8.7014822"><ele>352.5</ele><time>2026-04-18T16:16:29.189Z</time></trkpt><trkpt lat="39.2307851" lon="8.7015924"><ele>352.6666666666667</ele><time>2026-04-18T16:16:31.2Z</time></trkpt><trkpt lat="39.2308483" lon="8.7016393"><ele>352.83333333333337</ele><time>2026-04-18T16:16:32.188Z</time></trkpt><trkpt lat="39.2309091" lon="8.7016791"><ele>353.0</ele><time>2026-04-18T16:16:33.17Z</time></trkpt><trkpt lat="39.2309652" lon="8.7017251"><ele>353.0</ele><time>2026-04-18T16:16:34.196Z</time></trkpt><trkpt lat="39.2310249" lon="8.7017739"><ele>353.0</ele><time>2026-04-18T16:16:35.195Z</time></trkpt><trkpt lat="39.2310856" lon="8.7018349"><ele>353.0</ele><time>2026-04-18T16:16:36.208Z</time></trkpt><trkpt lat="39.231148" lon="8.7019009"><ele>353.0</ele><time>2026-04-18T16:16:37.182Z</time></trkpt><trkpt lat="39.2312028" lon="8.7019692"><ele>353.0</ele><time>2026-04-18T16:16:38.171Z</time></trkpt><trkpt lat="39.2312725" lon="8.7020577"><ele>353.0</ele><time>2026-04-18T16:16:39.19Z</time></trkpt><trkpt lat="39.2313471" lon="8.7021441"><ele>354.83333333333337</ele><time>2026-04-18T16:16:40.187Z</time></trkpt><trkpt lat="39.2314131" lon="8.7022184"><ele>356.6666666666667</ele><time>2026-04-18T16:16:41.19Z</time></trkpt><trkpt lat="39.2314736" lon="8.7022992"><ele>358.5</ele><time>2026-04-18T16:16:42.178Z</time></trkpt><trkpt lat="39.2315405" lon="8.7023632"><ele>360.3333333333333</ele><time>2026-04-18T16:16:43.182Z</time></trkpt><trkpt lat="39.231607" lon="8.7024108"><ele>362.16666666666663</ele><time>2026-04-18T16:16:44.172Z</time></trkpt><trkpt lat="39.2316701" lon="8.7024435"><ele>364.0</ele><time>2026-04-18T16:16:45.22Z</time></trkpt><trkpt lat="39.2317404" lon="8.7024639"><ele>364.0</ele><time>2026-04-18T16:16:46.188Z</time></trkpt><trkpt lat="39.2318047" lon="8.702479"><ele>364.0</ele><time>2026-04-18T16:16:47.186Z</time></trkpt><trkpt lat="39.231873" lon="8.7025035"><ele>364.0</ele><time>2026-04-18T16:16:48.197Z</time></trkpt><trkpt lat="39.2319373" lon="8.7025541"><ele>364.0</ele><time>2026-04-18T16:16:49.187Z</time></trkpt><trkpt lat="39.2319909" lon="8.702681"><ele>364.0</ele><time>2026-04-18T16:16:51.195Z</time></trkpt><trkpt lat="39.2320333" lon="8.7028176"><ele>364.0</ele><time>2026-04-18T16:16:53.193Z</time></trkpt><trkpt lat="39.2320751" lon="8.702922"><ele>366.4</ele><time>2026-04-18T16:16:55.2Z</time></trkpt><trkpt lat="39.2321085" lon="8.7029985"><ele>368.79999999999995</ele><time>2026-04-18T16:17:03.185Z</time></trkpt><trkpt lat="39.2321506" lon="8.7030867"><ele>371.20000000000005</ele><time>2026-04-18T16:19:53.182Z</time></trkpt><trkpt lat="39.2321849" lon="8.7031868"><ele>373.6</ele><time>2026-04-18T16:19:55.196Z</time></trkpt><trkpt lat="39.2322074" lon="8.7033227"><ele>376.0</ele><time>2026-04-18T16:19:57.226Z</time></trkpt><trkpt lat="39.2321953" lon="8.7034679"><ele>376.0</ele><time>2026-04-18T16:19:59.188Z</time></trkpt><trkpt lat="39.2321601" lon="8.7035696"><ele>376.0</ele><time>2026-04-18T16:20:01.18Z</time></trkpt><trkpt lat="39.2321011" lon="8.7036081"><ele>376.0</ele><time>2026-04-18T16:20:03.192Z</time></trkpt><trkpt lat="39.2320182" lon="8.7036258"><ele>376.0</ele><time>2026-04-18T16:20:05.19Z</time></trkpt><trkpt lat="39.2319028" lon="8.7036556"><ele>376.0</ele><time>2026-04-18T16:20:07.182Z</time></trkpt><trkpt lat="39.2318315" lon="8.703692"><ele>376.0</ele><time>2026-04-18T16:20:08.187Z</time></trkpt><trkpt lat="39.2317645" lon="8.7037191"><ele>376.6</ele><time>2026-04-18T16:20:09.185Z</time></trkpt><trkpt lat="39.2316999" lon="8.7037707"><ele>377.20000000000005</ele><time>2026-04-18T16:20:11.214Z</time></trkpt><trkpt lat="39.2316245" lon="8.703826"><ele>377.79999999999995</ele><time>2026-04-18T16:20:14.184Z</time></trkpt><trkpt lat="39.23152" lon="8.7038439"><ele>378.4</ele><time>2026-04-18T16:20:16.184Z</time></trkpt><trkpt lat="39.2314208" lon="8.7038395"><ele>379.0</ele><time>2026-04-18T16:20:18.186Z</time></trkpt><trkpt lat="39.2312998" lon="8.7038456"><ele>382.6</ele><time>2026-04-18T16:20:20.2Z</time></trkpt><trkpt lat="39.2311762" lon="8.7038386"><ele>386.2</ele><time>2026-04-18T16:20:22.183Z</time></trkpt><trkpt lat="39.2310521" lon="8.7038113"><ele>389.8</ele><time>2026-04-18T16:20:24.191Z</time></trkpt><trkpt lat="39.2309435" lon="8.7037642"><ele>393.40000000000003</ele><time>2026-04-18T16:20:26.212Z</time></trkpt><trkpt lat="39.2308802" lon="8.7037398"><ele>397.0</ele><time>2026-04-18T16:20:27.177Z</time></trkpt><trkpt lat="39.2307536" lon="8.7036926"><ele>399.6666666666667</ele><time>2026-04-18T16:20:29.184Z</time></trkpt><trkpt lat="39.2306374" lon="8.7036385"><ele>402.33333333333337</ele><time>2026-04-18T16:20:31.187Z</time></trkpt><trkpt lat="39.2305658" lon="8.7035864"><ele>405.0</ele><time>2026-04-18T16:20:32.187Z</time></trkpt><trkpt lat="39.230496" lon="8.7035361"><ele>407.66666666666663</ele><time>2026-04-18T16:20:33.187Z</time></trkpt><trkpt lat="39.2304326" lon="8.703484"><ele>410.3333333333333</ele><time>2026-04-18T16:20:34.179Z</time></trkpt><trkpt lat="39.2303713" lon="8.7034368"><ele>413.0</ele><time>2026-04-18T16:20:35.185Z</time></trkpt><trkpt lat="39.2303135" lon="8.7034026"><ele>412.99999999999994</ele><time>2026-04-18T16:20:36.191Z</time></trkpt><trkpt lat="39.2302354" lon="8.7033727"><ele>413.0</ele><time>2026-04-18T16:20:37.176Z</time></trkpt><trkpt lat="39.2301713" lon="8.7033561"><ele>413.0</ele><time>2026-04-18T16:20:38.185Z</time></trkpt><trkpt lat="39.2301064" lon="8.7033318"><ele>413.0</ele><time>2026-04-18T16:20:39.175Z</time></trkpt><trkpt lat="39.2300446" lon="8.7032891"><ele>412.99999999999994</ele><time>2026-04-18T16:20:40.188Z</time></trkpt><trkpt lat="39.2299944" lon="8.7032385"><ele>413.0</ele><time>2026-04-18T16:20:41.184Z</time></trkpt><trkpt lat="39.2299093" lon="8.7031418"><ele>412.99999999999994</ele><time>2026-04-18T16:20:43.18Z</time></trkpt><trkpt lat="39.2298518" lon="8.7030933"><ele>413.0</ele><time>2026-04-18T16:20:44.186Z</time></trkpt><trkpt lat="39.2297753" lon="8.7030382"><ele>413.0</ele><time>2026-04-18T16:20:45.183Z</time></trkpt><trkpt lat="39.2297126" lon="8.7029892"><ele>413.0</ele><time>2026-04-18T16:20:46.197Z</time></trkpt><trkpt lat="39.2296412" lon="8.7029214"><ele>412.99999999999994</ele><time>2026-04-18T16:20:47.182Z</time></trkpt><trkpt lat="39.2295845" lon="8.702879"><ele>413.0</ele><time>2026-04-18T16:20:48.178Z</time></trkpt><trkpt lat="39.2295212" lon="8.7028416"><ele>412.3333333333333</ele><time>2026-04-18T16:20:49.182Z</time></trkpt><trkpt lat="39.2294665" lon="8.7027837"><ele>411.66666666666663</ele><time>2026-04-18T16:20:50.181Z</time></trkpt><trkpt lat="39.2294133" lon="8.702723"><ele>411.0</ele><time>2026-04-18T16:20:51.189Z</time></trkpt><trkpt lat="39.2293246" lon="8.702676"><ele>410.33333333333337</ele><time>2026-04-18T16:20:53.174Z</time></trkpt><trkpt lat="39.2292536" lon="8.7026621"><ele>409.6666666666667</ele><time>2026-04-18T16:20:54.185Z</time></trkpt><trkpt lat="39.2291731" lon="8.7026458"><ele>409.0</ele><time>2026-04-18T16:20:55.188Z</time></trkpt><trkpt lat="39.2291014" lon="8.7026334"><ele>409.00000000000006</ele><time>2026-04-18T16:20:56.181Z</time></trkpt><trkpt lat="39.2290333" lon="8.7026188"><ele>409.0</ele><time>2026-04-18T16:20:57.187Z</time></trkpt><trkpt lat="39.2289463" lon="8.7025939"><ele>409.0</ele><time>2026-04-18T16:20:58.167Z</time></trkpt><trkpt lat="39.228862" lon="8.7025728"><ele>409.0</ele><time>2026-04-18T16:20:59.184Z</time></trkpt><trkpt lat="39.2287749" lon="8.702551"><ele>409.00000000000006</ele><time>2026-04-18T16:21:00.18Z</time></trkpt><trkpt lat="39.2287029" lon="8.7025309"><ele>409.0</ele><time>2026-04-18T16:21:01.171Z</time></trkpt><trkpt lat="39.2285847" lon="8.7025062"><ele>412.0</ele><time>2026-04-18T16:21:03.19Z</time></trkpt><trkpt lat="39.2284687" lon="8.702491"><ele>415.0</ele><time>2026-04-18T16:21:05.177Z</time></trkpt><trkpt lat="39.2283478" lon="8.7024453"><ele>418.0</ele><time>2026-04-18T16:21:07.176Z</time></trkpt><trkpt lat="39.2282402" lon="8.7024385"><ele>421.0</ele><time>2026-04-18T16:21:09.17Z</time></trkpt><trkpt lat="39.2281763" lon="8.702438"><ele>424.0</ele><time>2026-04-18T16:21:10.181Z</time></trkpt><trkpt lat="39.2281102" lon="8.7024345"><ele>425.1666666666667</ele><time>2026-04-18T16:21:11.181Z</time></trkpt><trkpt lat="39.2280321" lon="8.7024361"><ele>426.33333333333337</ele><time>2026-04-18T16:21:12.175Z</time></trkpt><trkpt lat="39.2279526" lon="8.7024392"><ele>427.5</ele><time>2026-04-18T16:21:13.188Z</time></trkpt><trkpt lat="39.2278135" lon="8.7024313"><ele>428.66666666666663</ele><time>2026-04-18T16:21:15.175Z</time></trkpt><trkpt lat="39.2277413" lon="8.7024348"><ele>429.8333333333333</ele><time>2026-04-18T16:21:16.202Z</time></trkpt><trkpt lat="39.2276654" lon="8.7024489"><ele>431.0</ele><time>2026-04-18T16:21:17.2Z</time></trkpt><trkpt lat="39.2275906" lon="8.7024628"><ele>430.99999999999994</ele><time>2026-04-18T16:21:18.176Z</time></trkpt><trkpt lat="39.2275219" lon="8.7024802"><ele>431.0</ele><time>2026-04-18T16:21:19.178Z</time></trkpt><trkpt lat="39.2274489" lon="8.7024934"><ele>431.0</ele><time>2026-04-18T16:21:20.219Z</time></trkpt><trkpt lat="39.2273714" lon="8.7025165"><ele>431.0</ele><time>2026-04-18T16:21:21.183Z</time></trkpt><trkpt lat="39.2273005" lon="8.7025479"><ele>430.99999999999994</ele><time>2026-04-18T16:21:22.188Z</time></trkpt><trkpt lat="39.227199" lon="8.7026294"><ele>431.0</ele><time>2026-04-18T16:21:24.183Z</time></trkpt><trkpt lat="39.2271649" lon="8.7027007"><ele>435.3333333333333</ele><time>2026-04-18T16:21:25.178Z</time></trkpt><trkpt lat="39.2271231" lon="8.7027835"><ele>439.66666666666663</ele><time>2026-04-18T16:21:26.189Z</time></trkpt><trkpt lat="39.2270717" lon="8.7028776"><ele>444.0</ele><time>2026-04-18T16:21:27.235Z</time></trkpt><trkpt lat="39.2270146" lon="8.7029597"><ele>448.33333333333337</ele><time>2026-04-18T16:21:28.178Z</time></trkpt><trkpt lat="39.2269515" lon="8.703017"><ele>452.6666666666667</ele><time>2026-04-18T16:21:29.177Z</time></trkpt><trkpt lat="39.2268828" lon="8.7030509"><ele>457.0</ele><time>2026-04-18T16:21:30.169Z</time></trkpt><trkpt lat="39.2268187" lon="8.7030743"><ele>457.0</ele><time>2026-04-18T16:21:31.174Z</time></trkpt><trkpt lat="39.2267275" lon="8.7031389"><ele>457.00000000000006</ele><time>2026-04-18T16:21:33.175Z</time></trkpt><trkpt lat="39.2266646" lon="8.7032368"><ele>457.00000000000006</ele><time>2026-04-18T16:21:35.181Z</time></trkpt><trkpt lat="39.2265677" lon="8.7033092"><ele>457.0</ele><time>2026-04-18T16:21:37.183Z</time></trkpt><trkpt lat="39.2264868" lon="8.7033465"><ele>457.0</ele><time>2026-04-18T16:21:38.182Z</time></trkpt><trkpt lat="39.2263851" lon="8.7033804"><ele>456.33333333333337</ele><time>2026-04-18T16:21:39.188Z</time></trkpt><trkpt lat="39.2262891" lon="8.703406"><ele>455.6666666666667</ele><time>2026-04-18T16:21:40.168Z</time></trkpt><trkpt lat="39.2262086" lon="8.703428"><ele>455.0</ele><time>2026-04-18T16:21:41.186Z</time></trkpt><trkpt lat="39.2261467" lon="8.7034528"><ele>454.33333333333337</ele><time>2026-04-18T16:21:42.175Z</time></trkpt><trkpt lat="39.2260462" lon="8.7035104"><ele>453.6666666666667</ele><time>2026-04-18T16:21:44.184Z</time></trkpt><trkpt lat="39.2259735" lon="8.7035748"><ele>453.0</ele><time>2026-04-18T16:21:46.173Z</time></trkpt><trkpt lat="39.2258952" lon="8.7036422"><ele>457.0</ele><time>2026-04-18T16:21:48.185Z</time></trkpt><trkpt lat="39.2257927" lon="8.7037219"><ele>460.99999999999994</ele><time>2026-04-18T16:21:50.186Z</time></trkpt><trkpt lat="39.2257126" lon="8.7038127"><ele>464.99999999999994</ele><time>2026-04-18T16:21:52.179Z</time></trkpt><trkpt lat="39.225624" lon="8.703933"><ele>469.0</ele><time>2026-04-18T16:21:54.176Z</time></trkpt><trkpt lat="39.2255734" lon="8.704006"><ele>473.0</ele><time>2026-04-18T16:21:55.186Z</time></trkpt><trkpt lat="39.22551" lon="8.7040707"><ele>473.3333333333333</ele><time>2026-04-18T16:21:56.175Z</time></trkpt><trkpt lat="39.2254502" lon="8.704136"><ele>473.66666666666663</ele><time>2026-04-18T16:21:57.185Z</time></trkpt><trkpt lat="39.2253834" lon="8.7041885"><ele>474.0</ele><time>2026-04-18T16:21:58.175Z</time></trkpt><trkpt lat="39.2253142" lon="8.7042295"><ele>474.33333333333337</ele><time>2026-04-18T16:21:59.165Z</time></trkpt><trkpt lat="39.2252465" lon="8.704272"><ele>474.6666666666667</ele><time>2026-04-18T16:22:00.163Z</time></trkpt><trkpt lat="39.2251824" lon="8.7043197"><ele>475.0</ele><time>2026-04-18T16:22:01.166Z</time></trkpt><trkpt lat="39.2251226" lon="8.7043686"><ele>475.50000000000006</ele><time>2026-04-18T16:22:02.18Z</time></trkpt><trkpt lat="39.2250711" lon="8.7044248"><ele>476.0</ele><time>2026-04-18T16:22:03.194Z</time></trkpt><trkpt lat="39.2250221" lon="8.7044791"><ele>476.5</ele><time>2026-04-18T16:22:04.185Z</time></trkpt><trkpt lat="39.2249245" lon="8.7045115"><ele>477.0</ele><time>2026-04-18T16:22:06.173Z</time></trkpt><trkpt lat="39.2248532" lon="8.7045507"><ele>477.50000000000006</ele><time>2026-04-18T16:22:09.175Z</time></trkpt><trkpt lat="39.2247549" lon="8.7045811"><ele>478.0</ele><time>2026-04-18T16:22:46.202Z</time></trkpt><trkpt lat="39.2246883" lon="8.7046092"><ele>476.00000000000006</ele><time>2026-04-18T16:22:47.183Z</time></trkpt><trkpt lat="39.2246102" lon="8.704646"><ele>474.0</ele><time>2026-04-18T16:22:48.179Z</time></trkpt><trkpt lat="39.2245222" lon="8.7046786"><ele>472.0</ele><time>2026-04-18T16:22:49.186Z</time></trkpt><trkpt lat="39.2244435" lon="8.7047142"><ele>470.0</ele><time>2026-04-18T16:22:50.187Z</time></trkpt><trkpt lat="39.2243645" lon="8.7047349"><ele>468.00000000000006</ele><time>2026-04-18T16:22:51.169Z</time></trkpt><trkpt lat="39.2242891" lon="8.7047223"><ele>466.0</ele><time>2026-04-18T16:22:52.193Z</time></trkpt><trkpt lat="39.2242129" lon="8.7047054"><ele>466.0</ele><time>2026-04-18T16:22:53.18Z</time></trkpt><trkpt lat="39.2241255" lon="8.7046901"><ele>466.0</ele><time>2026-04-18T16:22:54.177Z</time></trkpt><trkpt lat="39.2240264" lon="8.7046825"><ele>466.0</ele><time>2026-04-18T16:22:55.19Z</time></trkpt><trkpt lat="39.2239281" lon="8.7046789"><ele>466.0</ele><time>2026-04-18T16:22:56.208Z</time></trkpt><trkpt lat="39.2238253" lon="8.7046735"><ele>466.0</ele><time>2026-04-18T16:22:57.182Z</time></trkpt><trkpt lat="39.2237359" lon="8.7046811"><ele>468.0</ele><time>2026-04-18T16:22:58.174Z</time></trkpt><trkpt lat="39.2236509" lon="8.7047048"><ele>470.0</ele><time>2026-04-18T16:22:59.167Z</time></trkpt><trkpt lat="39.2235652" lon="8.704763"><ele>472.0</ele><time>2026-04-18T16:23:00.185Z</time></trkpt><trkpt lat="39.223474" lon="8.7048486"><ele>474.0</ele><time>2026-04-18T16:23:01.161Z</time></trkpt><trkpt lat="39.2233802" lon="8.7049381"><ele>476.0</ele><time>2026-04-18T16:23:02.172Z</time></trkpt><trkpt lat="39.2232854" lon="8.7050256"><ele>476.0</ele><time>2026-04-18T16:23:03.17Z</time></trkpt><trkpt lat="39.2231908" lon="8.7050872"><ele>476.0</ele><time>2026-04-18T16:23:04.18Z</time></trkpt><trkpt lat="39.2230954" lon="8.7051255"><ele>476.0</ele><time>2026-04-18T16:23:05.195Z</time></trkpt><trkpt lat="39.2230015" lon="8.7051275"><ele>476.0</ele><time>2026-04-18T16:23:06.195Z</time></trkpt><trkpt lat="39.2228836" lon="8.7051128"><ele>476.0</ele><time>2026-04-18T16:23:07.179Z</time></trkpt><trkpt lat="39.222785" lon="8.7050886"><ele>477.8</ele><time>2026-04-18T16:23:08.165Z</time></trkpt><trkpt lat="39.2227047" lon="8.705075"><ele>479.6</ele><time>2026-04-18T16:23:09.191Z</time></trkpt><trkpt lat="39.2225567" lon="8.7051359"><ele>481.4</ele><time>2026-04-18T16:23:11.182Z</time></trkpt><trkpt lat="39.2224678" lon="8.7052053"><ele>483.2</ele><time>2026-04-18T16:23:12.197Z</time></trkpt><trkpt lat="39.22238" lon="8.7052841"><ele>485.0</ele><time>2026-04-18T16:23:13.176Z</time></trkpt><trkpt lat="39.2222972" lon="8.7053633"><ele>478.8</ele><time>2026-04-18T16:23:14.183Z</time></trkpt><trkpt lat="39.2222262" lon="8.7054412"><ele>472.6</ele><time>2026-04-18T16:23:15.186Z</time></trkpt><trkpt lat="39.2221713" lon="8.7054865"><ele>466.4</ele><time>2026-04-18T16:23:16.189Z</time></trkpt><trkpt lat="39.2220663" lon="8.7054622"><ele>460.2</ele><time>2026-04-18T16:23:18.178Z</time></trkpt><trkpt lat="39.2220083" lon="8.7053967"><ele>454.0</ele><time>2026-04-18T16:23:19.173Z</time></trkpt><trkpt lat="39.2219247" lon="8.7052964"><ele>458.79999999999995</ele><time>2026-04-18T16:23:20.207Z</time></trkpt><trkpt lat="39.2218411" lon="8.705194"><ele>463.59999999999997</ele><time>2026-04-18T16:23:21.187Z</time></trkpt><trkpt lat="39.2217582" lon="8.7051129"><ele>468.4</ele><time>2026-04-18T16:23:22.202Z</time></trkpt><trkpt lat="39.2216806" lon="8.7050366"><ele>473.2</ele><time>2026-04-18T16:23:23.169Z</time></trkpt><trkpt lat="39.2216359" lon="8.7049668"><ele>478.0</ele><time>2026-04-18T16:23:24.177Z</time></trkpt><trkpt lat="39.2215468" lon="8.704865"><ele>479.50000000000006</ele><time>2026-04-18T16:23:26.174Z</time></trkpt><trkpt lat="39.2214382" lon="8.7048218"><ele>481.0</ele><time>2026-04-18T16:23:28.185Z</time></trkpt><trkpt lat="39.221364" lon="8.7048333"><ele>482.5</ele><time>2026-04-18T16:23:29.163Z</time></trkpt><trkpt lat="39.2212948" lon="8.7048342"><ele>484.0</ele><time>2026-04-18T16:23:30.18Z</time></trkpt><trkpt lat="39.2212213" lon="8.7048407"><ele>485.50000000000006</ele><time>2026-04-18T16:23:31.18Z</time></trkpt><trkpt lat="39.2211487" lon="8.7048774"><ele>487.0</ele><time>2026-04-18T16:23:32.188Z</time></trkpt><trkpt lat="39.2210639" lon="8.7049385"><ele>487.00000000000006</ele><time>2026-04-18T16:23:33.187Z</time></trkpt><trkpt lat="39.2209837" lon="8.7050151"><ele>487.0</ele><time>2026-04-18T16:23:34.176Z</time></trkpt><trkpt lat="39.2209101" lon="8.7050788"><ele>487.0</ele><time>2026-04-18T16:23:35.179Z</time></trkpt><trkpt lat="39.2208462" lon="8.7051446"><ele>487.0</ele><time>2026-04-18T16:23:36.175Z</time></trkpt><trkpt lat="39.2207901" lon="8.7052073"><ele>487.00000000000006</ele><time>2026-04-18T16:23:37.192Z</time></trkpt><trkpt lat="39.2207527" lon="8.7052886"><ele>487.0</ele><time>2026-04-18T16:23:38.188Z</time></trkpt><trkpt lat="39.2207599" lon="8.7053802"><ele>483.75</ele><time>2026-04-18T16:23:39.203Z</time></trkpt><trkpt lat="39.2207736" lon="8.7054739"><ele>480.5</ele><time>2026-04-18T16:23:40.174Z</time></trkpt><trkpt lat="39.2207724" lon="8.7056433"><ele>477.25</ele><time>2026-04-18T16:23:41.178Z</time></trkpt><trkpt lat="39.2207778" lon="8.7057989"><ele>474.0</ele><time>2026-04-18T16:23:42.182Z</time></trkpt><trkpt lat="39.2207813" lon="8.7059621"><ele>472.2</ele><time>2026-04-18T16:23:43.174Z</time></trkpt><trkpt lat="39.2207769" lon="8.7061057"><ele>470.4</ele><time>2026-04-18T16:23:44.19Z</time></trkpt><trkpt lat="39.220749" lon="8.7062361"><ele>468.6</ele><time>2026-04-18T16:23:45.173Z</time></trkpt><trkpt lat="39.2207252" lon="8.7063391"><ele>466.8</ele><time>2026-04-18T16:23:46.17Z</time></trkpt><trkpt lat="39.2206923" lon="8.7064302"><ele>465.0</ele><time>2026-04-18T16:23:47.183Z</time></trkpt><trkpt lat="39.2206391" lon="8.7065105"><ele>469.1666666666667</ele><time>2026-04-18T16:23:48.177Z</time></trkpt><trkpt lat="39.2205716" lon="8.7065838"><ele>473.33333333333337</ele><time>2026-04-18T16:23:49.176Z</time></trkpt><trkpt lat="39.2205238" lon="8.7066452"><ele>477.5</ele><time>2026-04-18T16:23:50.183Z</time></trkpt><trkpt lat="39.2204808" lon="8.7067226"><ele>481.6666666666667</ele><time>2026-04-18T16:23:51.18Z</time></trkpt><trkpt lat="39.2204601" lon="8.7068316"><ele>485.83333333333337</ele><time>2026-04-18T16:23:52.183Z</time></trkpt><trkpt lat="39.2204613" lon="8.706964"><ele>490.0</ele><time>2026-04-18T16:23:53.184Z</time></trkpt><trkpt lat="39.2204629" lon="8.7071086"><ele>490.0</ele><time>2026-04-18T16:23:54.178Z</time></trkpt><trkpt lat="39.2204636" lon="8.7072547"><ele>490.0</ele><time>2026-04-18T16:23:55.183Z</time></trkpt><trkpt lat="39.2204537" lon="8.7073916"><ele>490.0</ele><time>2026-04-18T16:23:56.18Z</time></trkpt><trkpt lat="39.2204053" lon="8.7074866"><ele>490.0</ele><time>2026-04-18T16:23:57.182Z</time></trkpt><trkpt lat="39.2203421" lon="8.7075637"><ele>490.0</ele><time>2026-04-18T16:23:58.174Z</time></trkpt><trkpt lat="39.2202552" lon="8.7076359"><ele>490.0</ele><time>2026-04-18T16:23:59.176Z</time></trkpt><trkpt lat="39.2201727" lon="8.707723"><ele>490.0</ele><time>2026-04-18T16:24:00.175Z</time></trkpt><trkpt lat="39.2201223" lon="8.7078271"><ele>490.0</ele><time>2026-04-18T16:24:01.177Z</time></trkpt><trkpt lat="39.2200857" lon="8.7079483"><ele>490.0</ele><time>2026-04-18T16:24:02.183Z</time></trkpt><trkpt lat="39.2200653" lon="8.7080827"><ele>490.0</ele><time>2026-04-18T16:24:03.179Z</time></trkpt><trkpt lat="39.2200547" lon="8.708247"><ele>488.4</ele><time>2026-04-18T16:24:04.195Z</time></trkpt><trkpt lat="39.2200399" lon="8.7083981"><ele>486.8</ele><time>2026-04-18T16:24:05.177Z</time></trkpt><trkpt lat="39.2200253" lon="8.7085521"><ele>485.20000000000005</ele><time>2026-04-18T16:24:06.182Z</time></trkpt><trkpt lat="39.2200306" lon="8.7086697"><ele>483.6</ele><time>2026-04-18T16:24:07.178Z</time></trkpt><trkpt lat="39.2200171" lon="8.7087743"><ele>482.0</ele><time>2026-04-18T16:24:08.183Z</time></trkpt><trkpt lat="39.2199779" lon="8.7088758"><ele>478.75</ele><time>2026-04-18T16:24:09.178Z</time></trkpt><trkpt lat="39.2199068" lon="8.7089546"><ele>475.5</ele><time>2026-04-18T16:24:10.192Z</time></trkpt><trkpt lat="39.219816" lon="8.709051"><ele>472.25</ele><time>2026-04-18T16:24:11.178Z</time></trkpt><trkpt lat="39.2197111" lon="8.7091573"><ele>469.0</ele><time>2026-04-18T16:24:12.181Z</time></trkpt><trkpt lat="39.2196181" lon="8.7092809"><ele>470.75</ele><time>2026-04-18T16:24:13.178Z</time></trkpt><trkpt lat="39.2195299" lon="8.7094084"><ele>472.5</ele><time>2026-04-18T16:24:14.183Z</time></trkpt><trkpt lat="39.2194539" lon="8.7095293"><ele>474.25</ele><time>2026-04-18T16:24:15.181Z</time></trkpt><trkpt lat="39.2193854" lon="8.7096537"><ele>476.0</ele><time>2026-04-18T16:24:16.198Z</time></trkpt><trkpt lat="39.2193114" lon="8.7097767"><ele>476.0</ele><time>2026-04-18T16:24:17.173Z</time></trkpt><trkpt lat="39.2192061" lon="8.7099031"><ele>476.0</ele><time>2026-04-18T16:24:18.184Z</time></trkpt><trkpt lat="39.2191049" lon="8.7100286"><ele>476.0</ele><time>2026-04-18T16:24:19.178Z</time></trkpt><trkpt lat="39.219009" lon="8.7101509"><ele>476.0</ele><time>2026-04-18T16:24:20.186Z</time></trkpt><trkpt lat="39.218917" lon="8.7102559"><ele>475.25</ele><time>2026-04-18T16:24:21.192Z</time></trkpt><trkpt lat="39.2188125" lon="8.7103459"><ele>474.5</ele><time>2026-04-18T16:24:22.185Z</time></trkpt><trkpt lat="39.2187024" lon="8.7104325"><ele>473.75</ele><time>2026-04-18T16:24:23.181Z</time></trkpt><trkpt lat="39.2185911" lon="8.7105157"><ele>473.0</ele><time>2026-04-18T16:24:24.183Z</time></trkpt><trkpt lat="39.2184794" lon="8.7105936"><ele>473.0</ele><time>2026-04-18T16:24:25.182Z</time></trkpt><trkpt lat="39.218381" lon="8.7106776"><ele>472.99999999999994</ele><time>2026-04-18T16:24:26.186Z</time></trkpt><trkpt lat="39.2182866" lon="8.7107692"><ele>472.99999999999994</ele><time>2026-04-18T16:24:27.177Z</time></trkpt><trkpt lat="39.2182085" lon="8.7108462"><ele>473.0</ele><time>2026-04-18T16:24:28.178Z</time></trkpt><trkpt lat="39.2181299" lon="8.7109124"><ele>473.0</ele><time>2026-04-18T16:24:29.174Z</time></trkpt><trkpt lat="39.2180409" lon="8.7109709"><ele>475.5</ele><time>2026-04-18T16:24:30.178Z</time></trkpt><trkpt lat="39.2179259" lon="8.7110198"><ele>478.0</ele><time>2026-04-18T16:24:31.192Z</time></trkpt><trkpt lat="39.2177991" lon="8.7110631"><ele>480.5</ele><time>2026-04-18T16:24:32.181Z</time></trkpt><trkpt lat="39.2176722" lon="8.7111047"><ele>483.0</ele><time>2026-04-18T16:24:33.187Z</time></trkpt><trkpt lat="39.2175496" lon="8.7111541"><ele>477.59999999999997</ele><time>2026-04-18T16:24:34.165Z</time></trkpt><trkpt lat="39.2174373" lon="8.7111972"><ele>472.19999999999993</ele><time>2026-04-18T16:24:35.185Z</time></trkpt><trkpt lat="39.2173252" lon="8.7112443"><ele>466.8</ele><time>2026-04-18T16:24:36.182Z</time></trkpt><trkpt lat="39.2172132" lon="8.7112908"><ele>461.4</ele><time>2026-04-18T16:24:37.185Z</time></trkpt><trkpt lat="39.2171304" lon="8.7113343"><ele>456.0</ele><time>2026-04-18T16:24:38.183Z</time></trkpt><trkpt lat="39.2170458" lon="8.7113637"><ele>456.0</ele><time>2026-04-18T16:24:39.19Z</time></trkpt><trkpt lat="39.2169575" lon="8.7113907"><ele>456.0</ele><time>2026-04-18T16:24:40.178Z</time></trkpt><trkpt lat="39.216857" lon="8.7114025"><ele>456.0</ele><time>2026-04-18T16:24:41.178Z</time></trkpt><trkpt lat="39.2167464" lon="8.7114027"><ele>456.0</ele><time>2026-04-18T16:24:42.186Z</time></trkpt><trkpt lat="39.2166375" lon="8.7113908"><ele>456.0</ele><time>2026-04-18T16:24:43.178Z</time></trkpt><trkpt lat="39.216532" lon="8.7114018"><ele>456.0</ele><time>2026-04-18T16:24:44.201Z</time></trkpt><trkpt lat="39.2164461" lon="8.711418"><ele>456.0</ele><time>2026-04-18T16:24:45.182Z</time></trkpt><trkpt lat="39.2163642" lon="8.7114655"><ele>456.0</ele><time>2026-04-18T16:24:46.19Z</time></trkpt><trkpt lat="39.216277" lon="8.7115363"><ele>456.0</ele><time>2026-04-18T16:24:47.183Z</time></trkpt><trkpt lat="39.2161827" lon="8.7116114"><ele>456.0</ele><time>2026-04-18T16:24:48.184Z</time></trkpt><trkpt lat="39.2160758" lon="8.7116855"><ele>456.0</ele><time>2026-04-18T16:24:49.185Z</time></trkpt><trkpt lat="39.2159712" lon="8.7117521"><ele>456.0</ele><time>2026-04-18T16:24:50.18Z</time></trkpt><trkpt lat="39.2158649" lon="8.7118157"><ele>456.0</ele><time>2026-04-18T16:24:51.173Z</time></trkpt><trkpt lat="39.2157676" lon="8.7118779"><ele>456.0</ele><time>2026-04-18T16:24:52.189Z</time></trkpt><trkpt lat="39.2156899" lon="8.711946"><ele>456.0</ele><time>2026-04-18T16:24:53.187Z</time></trkpt><trkpt lat="39.2156124" lon="8.7120378"><ele>453.20000000000005</ele><time>2026-04-18T16:24:54.178Z</time></trkpt><trkpt lat="39.2155427" lon="8.7121501"><ele>450.40000000000003</ele><time>2026-04-18T16:24:55.183Z</time></trkpt><trkpt lat="39.2154713" lon="8.7122597"><ele>447.6</ele><time>2026-04-18T16:24:56.201Z</time></trkpt><trkpt lat="39.2153971" lon="8.7123742"><ele>444.8</ele><time>2026-04-18T16:24:57.191Z</time></trkpt><trkpt lat="39.2153294" lon="8.7124745"><ele>442.0</ele><time>2026-04-18T16:24:58.208Z</time></trkpt><trkpt lat="39.2152641" lon="8.7125718"><ele>442.0</ele><time>2026-04-18T16:24:59.166Z</time></trkpt><trkpt lat="39.2152166" lon="8.7126824"><ele>442.0</ele><time>2026-04-18T16:25:00.194Z</time></trkpt><trkpt lat="39.2151636" lon="8.7128186"><ele>442.0</ele><time>2026-04-18T16:25:01.173Z</time></trkpt><trkpt lat="39.2151083" lon="8.7129551"><ele>442.0</ele><time>2026-04-18T16:25:02.195Z</time></trkpt><trkpt lat="39.2150602" lon="8.7130915"><ele>441.25</ele><time>2026-04-18T16:25:03.195Z</time></trkpt><trkpt lat="39.2150023" lon="8.7132227"><ele>440.5</ele><time>2026-04-18T16:25:04.195Z</time></trkpt><trkpt lat="39.2149425" lon="8.7133448"><ele>439.75</ele><time>2026-04-18T16:25:05.183Z</time></trkpt><trkpt lat="39.2148736" lon="8.7134628"><ele>439.0</ele><time>2026-04-18T16:25:06.189Z</time></trkpt><trkpt lat="39.2148026" lon="8.7135782"><ele>439.0</ele><time>2026-04-18T16:25:07.188Z</time></trkpt><trkpt lat="39.21473" lon="8.7136894"><ele>439.0</ele><time>2026-04-18T16:25:08.186Z</time></trkpt><trkpt lat="39.214665" lon="8.7138091"><ele>439.0</ele><time>2026-04-18T16:25:09.196Z</time></trkpt><trkpt lat="39.2146174" lon="8.7139101"><ele>439.0</ele><time>2026-04-18T16:25:10.184Z</time></trkpt><trkpt lat="39.2145714" lon="8.7140023"><ele>439.0</ele><time>2026-04-18T16:25:11.189Z</time></trkpt><trkpt lat="39.2145202" lon="8.7140835"><ele>439.0</ele><time>2026-04-18T16:25:12.189Z</time></trkpt><trkpt lat="39.21445" lon="8.714154"><ele>439.0</ele><time>2026-04-18T16:25:13.199Z</time></trkpt><trkpt lat="39.2143606" lon="8.7142261"><ele>439.0</ele><time>2026-04-18T16:25:14.229Z</time></trkpt><trkpt lat="39.2142568" lon="8.7143019"><ele>439.0</ele><time>2026-04-18T16:25:15.219Z</time></trkpt><trkpt lat="39.2141582" lon="8.7143726"><ele>439.0</ele><time>2026-04-18T16:25:16.188Z</time></trkpt><trkpt lat="39.2140485" lon="8.7144234"><ele>439.79999999999995</ele><time>2026-04-18T16:25:17.172Z</time></trkpt><trkpt lat="39.213931" lon="8.7144652"><ele>440.59999999999997</ele><time>2026-04-18T16:25:18.197Z</time></trkpt><trkpt lat="39.2138328" lon="8.7144921"><ele>441.4</ele><time>2026-04-18T16:25:19.204Z</time></trkpt><trkpt lat="39.2137637" lon="8.7145159"><ele>442.2</ele><time>2026-04-18T16:25:20.18Z</time></trkpt><trkpt lat="39.213696" lon="8.7145289"><ele>443.0</ele><time>2026-04-18T16:25:21.188Z</time></trkpt><trkpt lat="39.2135554" lon="8.7144752"><ele>443.0</ele><time>2026-04-18T16:25:23.213Z</time></trkpt><trkpt lat="39.2134648" lon="8.7144279"><ele>442.99999999999994</ele><time>2026-04-18T16:25:24.172Z</time></trkpt><trkpt lat="39.2133709" lon="8.7143717"><ele>442.99999999999994</ele><time>2026-04-18T16:25:25.18Z</time></trkpt><trkpt lat="39.2132677" lon="8.7143279"><ele>443.0</ele><time>2026-04-18T16:25:26.19Z</time></trkpt><trkpt lat="39.2131755" lon="8.7142931"><ele>443.0</ele><time>2026-04-18T16:25:27.174Z</time></trkpt><trkpt lat="39.2131013" lon="8.7142223"><ele>440.16666666666663</ele><time>2026-04-18T16:25:28.22Z</time></trkpt><trkpt lat="39.2130356" lon="8.7141488"><ele>437.3333333333333</ele><time>2026-04-18T16:25:29.199Z</time></trkpt><trkpt lat="39.212997" lon="8.7140768"><ele>434.5</ele><time>2026-04-18T16:25:30.18Z</time></trkpt><trkpt lat="39.2129609" lon="8.7140066"><ele>431.66666666666663</ele><time>2026-04-18T16:25:31.185Z</time></trkpt><trkpt lat="39.2128804" lon="8.7138983"><ele>428.8333333333333</ele><time>2026-04-18T16:25:33.211Z</time></trkpt><trkpt lat="39.2128199" lon="8.7138524"><ele>426.0</ele><time>2026-04-18T16:25:34.171Z</time></trkpt><trkpt lat="39.212743" lon="8.7138302"><ele>426.0</ele><time>2026-04-18T16:25:35.171Z</time></trkpt><trkpt lat="39.2126614" lon="8.7138099"><ele>426.0</ele><time>2026-04-18T16:25:36.167Z</time></trkpt><trkpt lat="39.2125856" lon="8.7137968"><ele>426.0</ele><time>2026-04-18T16:25:37.218Z</time></trkpt><trkpt lat="39.2125093" lon="8.7137861"><ele>426.0</ele><time>2026-04-18T16:25:38.186Z</time></trkpt><trkpt lat="39.2124306" lon="8.7137747"><ele>426.0</ele><time>2026-04-18T16:25:39.182Z</time></trkpt><trkpt lat="39.2123549" lon="8.7137573"><ele>426.0</ele><time>2026-04-18T16:25:40.182Z</time></trkpt><trkpt lat="39.2122875" lon="8.7137415"><ele>424.3333333333333</ele><time>2026-04-18T16:25:41.177Z</time></trkpt><trkpt lat="39.2122234" lon="8.71373"><ele>422.66666666666663</ele><time>2026-04-18T16:25:42.188Z</time></trkpt><trkpt lat="39.2121384" lon="8.7137622"><ele>421.0</ele><time>2026-04-18T16:25:44.183Z</time></trkpt><trkpt lat="39.212099" lon="8.7138586"><ele>419.3333333333333</ele><time>2026-04-18T16:25:46.182Z</time></trkpt><trkpt lat="39.2120737" lon="8.7139567"><ele>417.66666666666663</ele><time>2026-04-18T16:25:47.177Z</time></trkpt><trkpt lat="39.2120111" lon="8.7140358"><ele>416.0</ele><time>2026-04-18T16:25:48.184Z</time></trkpt><trkpt lat="39.2119503" lon="8.714083"><ele>416.0</ele><time>2026-04-18T16:25:49.188Z</time></trkpt><trkpt lat="39.2118796" lon="8.7141062"><ele>416.0</ele><time>2026-04-18T16:25:50.191Z</time></trkpt><trkpt lat="39.21178" lon="8.7140921"><ele>416.0</ele><time>2026-04-18T16:25:51.201Z</time></trkpt><trkpt lat="39.2116888" lon="8.714098"><ele>416.0</ele><time>2026-04-18T16:25:52.182Z</time></trkpt><trkpt lat="39.2115963" lon="8.7141241"><ele>416.0</ele><time>2026-04-18T16:25:53.213Z</time></trkpt><trkpt lat="39.2114911" lon="8.7141626"><ele>415.20000000000005</ele><time>2026-04-18T16:25:54.184Z</time></trkpt><trkpt lat="39.2113964" lon="8.7142119"><ele>414.40000000000003</ele><time>2026-04-18T16:25:55.19Z</time></trkpt><trkpt lat="39.2113213" lon="8.7142394"><ele>413.6</ele><time>2026-04-18T16:25:56.18Z</time></trkpt><trkpt lat="39.2112509" lon="8.7142461"><ele>412.8</ele><time>2026-04-18T16:25:57.181Z</time></trkpt><trkpt lat="39.2111672" lon="8.714201"><ele>412.0</ele><time>2026-04-18T16:25:58.187Z</time></trkpt><trkpt lat="39.211062" lon="8.7141178"><ele>412.0</ele><time>2026-04-18T16:25:59.197Z</time></trkpt><trkpt lat="39.2109527" lon="8.7140226"><ele>412.0</ele><time>2026-04-18T16:26:00.188Z</time></trkpt><trkpt lat="39.2108592" lon="8.7139525"><ele>412.0</ele><time>2026-04-18T16:26:01.203Z</time></trkpt><trkpt lat="39.2107719" lon="8.7139066"><ele>412.0</ele><time>2026-04-18T16:26:02.174Z</time></trkpt><trkpt lat="39.2106913" lon="8.7138814"><ele>412.0</ele><time>2026-04-18T16:26:03.187Z</time></trkpt><trkpt lat="39.2106082" lon="8.7138729"><ele>409.00000000000006</ele><time>2026-04-18T16:26:04.177Z</time></trkpt><trkpt lat="39.2105363" lon="8.7138555"><ele>406.0</ele><time>2026-04-18T16:26:05.188Z</time></trkpt><trkpt lat="39.2104704" lon="8.7138465"><ele>403.0</ele><time>2026-04-18T16:26:06.185Z</time></trkpt><trkpt lat="39.2103772" lon="8.7137978"><ele>400.0</ele><time>2026-04-18T16:26:08.179Z</time></trkpt><trkpt lat="39.2103064" lon="8.7137835"><ele>397.00000000000006</ele><time>2026-04-18T16:26:10.185Z</time></trkpt><trkpt lat="39.2102768" lon="8.7138938"><ele>394.0</ele><time>2026-04-18T16:26:14.169Z</time></trkpt><trkpt lat="39.2103235" lon="8.7139499"><ele>394.00000000000006</ele><time>2026-04-18T16:26:15.191Z</time></trkpt><trkpt lat="39.2103845" lon="8.7140192"><ele>394.0</ele><time>2026-04-18T16:26:16.192Z</time></trkpt><trkpt lat="39.2104523" lon="8.7141051"><ele>394.0</ele><time>2026-04-18T16:26:17.181Z</time></trkpt><trkpt lat="39.2105004" lon="8.7141713"><ele>394.0</ele><time>2026-04-18T16:26:18.19Z</time></trkpt><trkpt lat="39.21054" lon="8.7142382"><ele>394.00000000000006</ele><time>2026-04-18T16:26:19.201Z</time></trkpt><trkpt lat="39.2105505" lon="8.7144109"><ele>394.0</ele><time>2026-04-18T16:26:21.179Z</time></trkpt><trkpt lat="39.2105356" lon="8.7145046"><ele>392.83333333333337</ele><time>2026-04-18T16:26:22.188Z</time></trkpt><trkpt lat="39.2105018" lon="8.7145892"><ele>391.6666666666667</ele><time>2026-04-18T16:26:23.182Z</time></trkpt><trkpt lat="39.2104653" lon="8.7146976"><ele>390.5</ele><time>2026-04-18T16:26:25.184Z</time></trkpt><trkpt lat="39.2104321" lon="8.7148079"><ele>389.33333333333337</ele><time>2026-04-18T16:26:27.174Z</time></trkpt><trkpt lat="39.2104087" lon="8.7148848"><ele>388.1666666666667</ele><time>2026-04-18T16:26:28.175Z</time></trkpt><trkpt lat="39.2103832" lon="8.7149886"><ele>387.0</ele><time>2026-04-18T16:26:29.187Z</time></trkpt><trkpt lat="39.2103561" lon="8.715099"><ele>387.0</ele><time>2026-04-18T16:26:30.187Z</time></trkpt><trkpt lat="39.2103308" lon="8.7152084"><ele>387.0</ele><time>2026-04-18T16:26:31.19Z</time></trkpt><trkpt lat="39.2103057" lon="8.7153026"><ele>387.0</ele><time>2026-04-18T16:26:32.176Z</time></trkpt><trkpt lat="39.2102872" lon="8.7153976"><ele>387.0</ele><time>2026-04-18T16:26:33.181Z</time></trkpt><trkpt lat="39.2102521" lon="8.7155405"><ele>387.0</ele><time>2026-04-18T16:26:35.166Z</time></trkpt><trkpt lat="39.2101908" lon="8.7156012"><ele>387.0</ele><time>2026-04-18T16:26:37.184Z</time></trkpt><trkpt lat="39.2101213" lon="8.7155447"><ele>387.0</ele><time>2026-04-18T16:26:39.181Z</time></trkpt><trkpt lat="39.2100996" lon="8.7154574"><ele>387.0</ele><time>2026-04-18T16:26:40.191Z</time></trkpt><trkpt lat="39.210101" lon="8.7153667"><ele>387.0</ele><time>2026-04-18T16:26:41.175Z</time></trkpt><trkpt lat="39.2101059" lon="8.7152494"><ele>387.0</ele><time>2026-04-18T16:26:42.198Z</time></trkpt><trkpt lat="39.210104" lon="8.7151322"><ele>387.0</ele><time>2026-04-18T16:26:43.197Z</time></trkpt><trkpt lat="39.2100928" lon="8.7150231"><ele>387.0</ele><time>2026-04-18T16:26:44.181Z</time></trkpt><trkpt lat="39.2100819" lon="8.7149008"><ele>387.0</ele><time>2026-04-18T16:26:45.186Z</time></trkpt><trkpt lat="39.210069" lon="8.7147933"><ele>387.0</ele><time>2026-04-18T16:26:46.188Z</time></trkpt><trkpt lat="39.2100559" lon="8.714694"><ele>387.0</ele><time>2026-04-18T16:26:47.182Z</time></trkpt><trkpt lat="39.2100362" lon="8.7146009"><ele>387.0</ele><time>2026-04-18T16:26:48.18Z</time></trkpt><trkpt lat="39.2100048" lon="8.7145121"><ele>387.0</ele><time>2026-04-18T16:26:49.192Z</time></trkpt><trkpt lat="39.2099522" lon="8.7144336"><ele>387.0</ele><time>2026-04-18T16:26:50.181Z</time></trkpt><trkpt lat="39.209889" lon="8.7143606"><ele>387.8333333333333</ele><time>2026-04-18T16:26:51.191Z</time></trkpt><trkpt lat="39.2098097" lon="8.7143064"><ele>388.66666666666663</ele><time>2026-04-18T16:26:52.177Z</time></trkpt><trkpt lat="39.2097242" lon="8.7142784"><ele>389.5</ele><time>2026-04-18T16:26:53.165Z</time></trkpt><trkpt lat="39.2096423" lon="8.7142787"><ele>390.3333333333333</ele><time>2026-04-18T16:26:54.194Z</time></trkpt><trkpt lat="39.2095505" lon="8.7143302"><ele>391.16666666666663</ele><time>2026-04-18T16:26:55.184Z</time></trkpt><trkpt lat="39.2094791" lon="8.7143947"><ele>392.0</ele><time>2026-04-18T16:26:56.181Z</time></trkpt><trkpt lat="39.2094122" lon="8.7144658"><ele>388.66666666666663</ele><time>2026-04-18T16:26:57.173Z</time></trkpt><trkpt lat="39.209353" lon="8.7145373"><ele>385.3333333333333</ele><time>2026-04-18T16:26:58.165Z</time></trkpt><trkpt lat="39.2092969" lon="8.7146014"><ele>382.0</ele><time>2026-04-18T16:26:59.201Z</time></trkpt><trkpt lat="39.2092397" lon="8.714662"><ele>378.66666666666663</ele><time>2026-04-18T16:27:00.18Z</time></trkpt><trkpt lat="39.2091822" lon="8.7147097"><ele>375.3333333333333</ele><time>2026-04-18T16:27:01.161Z</time></trkpt><trkpt lat="39.2090862" lon="8.7147738"><ele>372.0</ele><time>2026-04-18T16:27:03.176Z</time></trkpt><trkpt lat="39.2090633" lon="8.7148674"><ele>372.0</ele><time>2026-04-18T16:27:05.194Z</time></trkpt><trkpt lat="39.2091451" lon="8.7149268"><ele>372.0</ele><time>2026-04-18T16:27:07.172Z</time></trkpt><trkpt lat="39.2092321" lon="8.714859"><ele>372.0</ele><time>2026-04-18T16:27:09.196Z</time></trkpt><trkpt lat="39.2092871" lon="8.7148097"><ele>372.0</ele><time>2026-04-18T16:27:10.196Z</time></trkpt><trkpt lat="39.2093479" lon="8.7147733"><ele>372.0</ele><time>2026-04-18T16:27:11.177Z</time></trkpt><trkpt lat="39.2094625" lon="8.7147522"><ele>372.0</ele><time>2026-04-18T16:27:13.172Z</time></trkpt><trkpt lat="39.2095134" lon="8.7148029"><ele>372.0</ele><time>2026-04-18T16:27:14.188Z</time></trkpt><trkpt lat="39.2095346" lon="8.7149409"><ele>372.0</ele><time>2026-04-18T16:27:16.185Z</time></trkpt><trkpt lat="39.2095077" lon="8.715043"><ele>372.0</ele><time>2026-04-18T16:27:17.182Z</time></trkpt><trkpt lat="39.2094651" lon="8.7151575"><ele>372.0</ele><time>2026-04-18T16:27:18.168Z</time></trkpt><trkpt lat="39.2094266" lon="8.7152712"><ele>372.0</ele><time>2026-04-18T16:27:19.197Z</time></trkpt><trkpt lat="39.2093951" lon="8.7153833"><ele>370.1666666666667</ele><time>2026-04-18T16:27:20.179Z</time></trkpt><trkpt lat="39.2093761" lon="8.7154856"><ele>368.3333333333333</ele><time>2026-04-18T16:27:21.188Z</time></trkpt><trkpt lat="39.209364" lon="8.7155825"><ele>366.5</ele><time>2026-04-18T16:27:22.191Z</time></trkpt><trkpt lat="39.2093316" lon="8.7156799"><ele>364.66666666666663</ele><time>2026-04-18T16:27:23.187Z</time></trkpt><trkpt lat="39.2092771" lon="8.7157727"><ele>362.8333333333333</ele><time>2026-04-18T16:27:24.174Z</time></trkpt><trkpt lat="39.209221" lon="8.7158476"><ele>361.0</ele><time>2026-04-18T16:27:25.19Z</time></trkpt><trkpt lat="39.2091712" lon="8.7159091"><ele>361.0</ele><time>2026-04-18T16:27:26.193Z</time></trkpt><trkpt lat="39.2091164" lon="8.7159689"><ele>361.0</ele><time>2026-04-18T16:27:27.167Z</time></trkpt><trkpt lat="39.2090524" lon="8.7160348"><ele>361.0</ele><time>2026-04-18T16:27:28.176Z</time></trkpt><trkpt lat="39.2089794" lon="8.7160803"><ele>361.0</ele><time>2026-04-18T16:27:29.18Z</time></trkpt><trkpt lat="39.2089206" lon="8.7161104"><ele>361.0</ele><time>2026-04-18T16:27:30.173Z</time></trkpt><trkpt lat="39.2088032" lon="8.7161821"><ele>361.0</ele><time>2026-04-18T16:27:32.186Z</time></trkpt><trkpt lat="39.2087468" lon="8.7162749"><ele>358.66666666666663</ele><time>2026-04-18T16:27:33.171Z</time></trkpt><trkpt lat="39.2086898" lon="8.7163838"><ele>356.3333333333333</ele><time>2026-04-18T16:27:34.179Z</time></trkpt><trkpt lat="39.2086282" lon="8.7164764"><ele>354.0</ele><time>2026-04-18T16:27:35.176Z</time></trkpt><trkpt lat="39.208564" lon="8.7165575"><ele>351.6666666666667</ele><time>2026-04-18T16:27:36.177Z</time></trkpt><trkpt lat="39.2085079" lon="8.7166279"><ele>349.33333333333337</ele><time>2026-04-18T16:27:37.188Z</time></trkpt><trkpt lat="39.2084444" lon="8.7166892"><ele>347.0</ele><time>2026-04-18T16:27:38.201Z</time></trkpt><trkpt lat="39.2083695" lon="8.7167512"><ele>347.0</ele><time>2026-04-18T16:27:39.186Z</time></trkpt><trkpt lat="39.2082854" lon="8.7168135"><ele>347.0</ele><time>2026-04-18T16:27:40.178Z</time></trkpt><trkpt lat="39.2082006" lon="8.7168792"><ele>347.0</ele><time>2026-04-18T16:27:41.172Z</time></trkpt><trkpt lat="39.2081104" lon="8.7169629"><ele>347.0</ele><time>2026-04-18T16:27:42.161Z</time></trkpt><trkpt lat="39.2080393" lon="8.7170276"><ele>347.0</ele><time>2026-04-18T16:27:43.196Z</time></trkpt><trkpt lat="39.2079823" lon="8.7170992"><ele>345.5</ele><time>2026-04-18T16:27:44.185Z</time></trkpt><trkpt lat="39.207919" lon="8.7171836"><ele>344.0</ele><time>2026-04-18T16:27:45.201Z</time></trkpt><trkpt lat="39.2078666" lon="8.7172727"><ele>342.5</ele><time>2026-04-18T16:27:46.17Z</time></trkpt><trkpt lat="39.2078361" lon="8.7173745"><ele>341.0</ele><time>2026-04-18T16:27:47.182Z</time></trkpt><trkpt lat="39.2078307" lon="8.7174917"><ele>339.5</ele><time>2026-04-18T16:27:48.188Z</time></trkpt><trkpt lat="39.207838" lon="8.7176152"><ele>338.0</ele><time>2026-04-18T16:27:49.187Z</time></trkpt><trkpt lat="39.2078514" lon="8.7177358"><ele>336.59999999999997</ele><time>2026-04-18T16:27:50.184Z</time></trkpt><trkpt lat="39.2078433" lon="8.7178499"><ele>335.2</ele><time>2026-04-18T16:27:51.182Z</time></trkpt><trkpt lat="39.2078204" lon="8.7179435"><ele>333.8</ele><time>2026-04-18T16:27:52.174Z</time></trkpt><trkpt lat="39.2077833" lon="8.7180228"><ele>332.4</ele><time>2026-04-18T16:27:53.179Z</time></trkpt><trkpt lat="39.2076727" lon="8.7180832"><ele>331.0</ele><time>2026-04-18T16:27:55.183Z</time></trkpt><trkpt lat="39.2075441" lon="8.7181177"><ele>331.0</ele><time>2026-04-18T16:27:57.19Z</time></trkpt><trkpt lat="39.2074772" lon="8.7181536"><ele>331.0</ele><time>2026-04-18T16:27:58.172Z</time></trkpt><trkpt lat="39.2074148" lon="8.7181923"><ele>331.0</ele><time>2026-04-18T16:27:59.183Z</time></trkpt><trkpt lat="39.2073476" lon="8.718227"><ele>331.0</ele><time>2026-04-18T16:28:00.201Z</time></trkpt><trkpt lat="39.207282" lon="8.7182602"><ele>331.0</ele><time>2026-04-18T16:28:01.185Z</time></trkpt><trkpt lat="39.2072185" lon="8.7182908"><ele>331.0</ele><time>2026-04-18T16:28:02.179Z</time></trkpt><trkpt lat="39.2071589" lon="8.7183233"><ele>331.0</ele><time>2026-04-18T16:28:03.196Z</time></trkpt><trkpt lat="39.2070433" lon="8.7183985"><ele>330.5</ele><time>2026-04-18T16:28:05.187Z</time></trkpt><trkpt lat="39.2069785" lon="8.7184202"><ele>330.0</ele><time>2026-04-18T16:28:06.185Z</time></trkpt><trkpt lat="39.2069061" lon="8.7184416"><ele>329.5</ele><time>2026-04-18T16:28:07.185Z</time></trkpt><trkpt lat="39.2068257" lon="8.7184527"><ele>329.0</ele><time>2026-04-18T16:28:08.187Z</time></trkpt><trkpt lat="39.2067472" lon="8.7184587"><ele>328.5</ele><time>2026-04-18T16:28:09.171Z</time></trkpt><trkpt lat="39.2066583" lon="8.7184292"><ele>328.0</ele><time>2026-04-18T16:28:10.185Z</time></trkpt><trkpt lat="39.2065677" lon="8.7183789"><ele>326.8333333333333</ele><time>2026-04-18T16:28:11.182Z</time></trkpt><trkpt lat="39.206479" lon="8.7183292"><ele>325.66666666666663</ele><time>2026-04-18T16:28:12.205Z</time></trkpt><trkpt lat="39.2064086" lon="8.7182731"><ele>324.5</ele><time>2026-04-18T16:28:13.179Z</time></trkpt><trkpt lat="39.2063629" lon="8.7182151"><ele>323.3333333333333</ele><time>2026-04-18T16:28:14.178Z</time></trkpt><trkpt lat="39.2063251" lon="8.7181392"><ele>322.1666666666667</ele><time>2026-04-18T16:28:15.182Z</time></trkpt><trkpt lat="39.2063084" lon="8.7180286"><ele>321.0</ele><time>2026-04-18T16:28:16.172Z</time></trkpt><trkpt lat="39.206306" lon="8.7179103"><ele>321.0</ele><time>2026-04-18T16:28:17.185Z</time></trkpt><trkpt lat="39.2062883" lon="8.7177967"><ele>321.0</ele><time>2026-04-18T16:28:18.194Z</time></trkpt><trkpt lat="39.2062616" lon="8.7176824"><ele>321.0</ele><time>2026-04-18T16:28:19.178Z</time></trkpt><trkpt lat="39.2062336" lon="8.7175804"><ele>321.0</ele><time>2026-04-18T16:28:20.189Z</time></trkpt><trkpt lat="39.2062232" lon="8.7174728"><ele>321.0</ele><time>2026-04-18T16:28:21.179Z</time></trkpt><trkpt lat="39.2062328" lon="8.7173759"><ele>321.0</ele><time>2026-04-18T16:28:22.175Z</time></trkpt><trkpt lat="39.2062584" lon="8.7172667"><ele>317.0</ele><time>2026-04-18T16:28:23.177Z</time></trkpt><trkpt lat="39.2062487" lon="8.7171379"><ele>313.0</ele><time>2026-04-18T16:28:25.183Z</time></trkpt><trkpt lat="39.206131" lon="8.7170541"><ele>309.0</ele><time>2026-04-18T16:28:27.187Z</time></trkpt><trkpt lat="39.2060566" lon="8.7170505"><ele>305.0</ele><time>2026-04-18T16:28:28.172Z</time></trkpt><trkpt lat="39.2059941" lon="8.7170806"><ele>301.0</ele><time>2026-04-18T16:28:29.189Z</time></trkpt><trkpt lat="39.2059773" lon="8.7172116"><ele>301.0</ele><time>2026-04-18T16:28:31.201Z</time></trkpt><trkpt lat="39.2060001" lon="8.717292"><ele>301.0</ele><time>2026-04-18T16:28:32.186Z</time></trkpt><trkpt lat="39.2059904" lon="8.7173768"><ele>301.0</ele><time>2026-04-18T16:28:33.208Z</time></trkpt><trkpt lat="39.2059516" lon="8.7174621"><ele>301.0</ele><time>2026-04-18T16:28:34.159Z</time></trkpt><trkpt lat="39.2058881" lon="8.7175137"><ele>301.0</ele><time>2026-04-18T16:28:35.174Z</time></trkpt><trkpt lat="39.2058081" lon="8.7175231"><ele>301.0</ele><time>2026-04-18T16:28:36.173Z</time></trkpt><trkpt lat="39.2057253" lon="8.7175089"><ele>301.0</ele><time>2026-04-18T16:28:37.173Z</time></trkpt><trkpt lat="39.2056423" lon="8.7175"><ele>299.5</ele><time>2026-04-18T16:28:38.179Z</time></trkpt><trkpt lat="39.2055575" lon="8.7174949"><ele>298.0</ele><time>2026-04-18T16:28:39.167Z</time></trkpt><trkpt lat="39.2054694" lon="8.7174889"><ele>296.5</ele><time>2026-04-18T16:28:40.165Z</time></trkpt><trkpt lat="39.2053825" lon="8.7174948"><ele>295.0</ele><time>2026-04-18T16:28:41.184Z</time></trkpt><trkpt lat="39.2052943" lon="8.7174948"><ele>293.5</ele><time>2026-04-18T16:28:42.184Z</time></trkpt><trkpt lat="39.2051998" lon="8.7175027"><ele>292.0</ele><time>2026-04-18T16:28:43.186Z</time></trkpt><trkpt lat="39.2051085" lon="8.7175118"><ele>292.0</ele><time>2026-04-18T16:28:44.197Z</time></trkpt><trkpt lat="39.2050172" lon="8.7174949"><ele>292.0</ele><time>2026-04-18T16:28:45.184Z</time></trkpt><trkpt lat="39.204924" lon="8.7174981"><ele>292.0</ele><time>2026-04-18T16:28:46.176Z</time></trkpt><trkpt lat="39.2048438" lon="8.7175153"><ele>292.0</ele><time>2026-04-18T16:28:47.189Z</time></trkpt><trkpt lat="39.2047675" lon="8.7175374"><ele>292.0</ele><time>2026-04-18T16:28:48.161Z</time></trkpt><trkpt lat="39.2046913" lon="8.7175709"><ele>292.0</ele><time>2026-04-18T16:28:49.195Z</time></trkpt><trkpt lat="39.2046128" lon="8.7176154"><ele>291.4</ele><time>2026-04-18T16:28:50.161Z</time></trkpt><trkpt lat="39.2045312" lon="8.7176675"><ele>290.79999999999995</ele><time>2026-04-18T16:28:51.18Z</time></trkpt><trkpt lat="39.2044506" lon="8.7177639"><ele>290.2</ele><time>2026-04-18T16:28:52.182Z</time></trkpt><trkpt lat="39.2043796" lon="8.7178747"><ele>289.59999999999997</ele><time>2026-04-18T16:28:53.168Z</time></trkpt><trkpt lat="39.204309" lon="8.7179674"><ele>289.0</ele><time>2026-04-18T16:28:54.178Z</time></trkpt><trkpt lat="39.2042353" lon="8.7180529"><ele>287.59999999999997</ele><time>2026-04-18T16:28:55.166Z</time></trkpt><trkpt lat="39.2041442" lon="8.7181112"><ele>286.2</ele><time>2026-04-18T16:28:56.193Z</time></trkpt><trkpt lat="39.2040456" lon="8.7181557"><ele>284.79999999999995</ele><time>2026-04-18T16:28:57.174Z</time></trkpt><trkpt lat="39.203943" lon="8.7181994"><ele>283.4</ele><time>2026-04-18T16:28:58.182Z</time></trkpt><trkpt lat="39.2038438" lon="8.7182367"><ele>282.0</ele><time>2026-04-18T16:28:59.173Z</time></trkpt><trkpt lat="39.2037557" lon="8.7182683"><ele>280.0</ele><time>2026-04-18T16:29:00.186Z</time></trkpt><trkpt lat="39.2036822" lon="8.7183114"><ele>278.0</ele><time>2026-04-18T16:29:01.178Z</time></trkpt><trkpt lat="39.2036288" lon="8.7183934"><ele>276.0</ele><time>2026-04-18T16:29:02.172Z</time></trkpt><trkpt lat="39.2035897" lon="8.7185137"><ele>274.0</ele><time>2026-04-18T16:29:03.188Z</time></trkpt><trkpt lat="39.2035551" lon="8.7186196"><ele>272.0</ele><time>2026-04-18T16:29:04.18Z</time></trkpt><trkpt lat="39.2035035" lon="8.7187241"><ele>270.2</ele><time>2026-04-18T16:29:05.176Z</time></trkpt><trkpt lat="39.203434" lon="8.7188385"><ele>268.4</ele><time>2026-04-18T16:29:06.185Z</time></trkpt><trkpt lat="39.2033585" lon="8.7189352"><ele>266.6</ele><time>2026-04-18T16:29:07.164Z</time></trkpt><trkpt lat="39.2032801" lon="8.7190252"><ele>264.8</ele><time>2026-04-18T16:29:08.178Z</time></trkpt><trkpt lat="39.2032019" lon="8.7190985"><ele>263.0</ele><time>2026-04-18T16:29:09.177Z</time></trkpt><trkpt lat="39.2031323" lon="8.7191601"><ele>261.83333333333337</ele><time>2026-04-18T16:29:10.162Z</time></trkpt><trkpt lat="39.2030724" lon="8.7192403"><ele>260.6666666666667</ele><time>2026-04-18T16:29:11.172Z</time></trkpt><trkpt lat="39.2030233" lon="8.7193262"><ele>259.5</ele><time>2026-04-18T16:29:12.201Z</time></trkpt><trkpt lat="39.2029887" lon="8.7194234"><ele>258.3333333333333</ele><time>2026-04-18T16:29:13.17Z</time></trkpt><trkpt lat="39.2029746" lon="8.7195342"><ele>257.16666666666663</ele><time>2026-04-18T16:29:14.18Z</time></trkpt><trkpt lat="39.2029812" lon="8.719665"><ele>256.0</ele><time>2026-04-18T16:29:15.188Z</time></trkpt><trkpt lat="39.2029904" lon="8.7197888"><ele>256.0</ele><time>2026-04-18T16:29:16.181Z</time></trkpt><trkpt lat="39.2029868" lon="8.7199064"><ele>256.0</ele><time>2026-04-18T16:29:17.188Z</time></trkpt><trkpt lat="39.2029849" lon="8.7200171"><ele>256.0</ele><time>2026-04-18T16:29:18.176Z</time></trkpt><trkpt lat="39.2029675" lon="8.7201379"><ele>256.0</ele><time>2026-04-18T16:29:19.179Z</time></trkpt><trkpt lat="39.2029427" lon="8.7202641"><ele>256.0</ele><time>2026-04-18T16:29:20.208Z</time></trkpt><trkpt lat="39.2029077" lon="8.7203897"><ele>256.6</ele><time>2026-04-18T16:29:21.172Z</time></trkpt><trkpt lat="39.2028531" lon="8.7205091"><ele>257.20000000000005</ele><time>2026-04-18T16:29:22.175Z</time></trkpt><trkpt lat="39.2027961" lon="8.7206122"><ele>257.79999999999995</ele><time>2026-04-18T16:29:23.171Z</time></trkpt><trkpt lat="39.2027413" lon="8.7206975"><ele>258.4</ele><time>2026-04-18T16:29:24.176Z</time></trkpt><trkpt lat="39.2026977" lon="8.7207734"><ele>259.0</ele><time>2026-04-18T16:29:25.179Z</time></trkpt><trkpt lat="39.2026424" lon="8.720884"><ele>259.0</ele><time>2026-04-18T16:29:27.187Z</time></trkpt><trkpt lat="39.2025775" lon="8.7208981"><ele>259.0</ele><time>2026-04-18T16:29:29.187Z</time></trkpt><trkpt lat="39.2025758" lon="8.7207768"><ele>259.0</ele><time>2026-04-18T16:29:31.192Z</time></trkpt><trkpt lat="39.2026465" lon="8.7206395"><ele>259.0</ele><time>2026-04-18T16:29:33.166Z</time></trkpt><trkpt lat="39.2026902" lon="8.7205684"><ele>259.0</ele><time>2026-04-18T16:29:34.185Z</time></trkpt><trkpt lat="39.2027485" lon="8.7204257"><ele>259.0</ele><time>2026-04-18T16:29:36.197Z</time></trkpt><trkpt lat="39.2027969" lon="8.7202665"><ele>259.0</ele><time>2026-04-18T16:29:38.201Z</time></trkpt><trkpt lat="39.2028161" lon="8.7201799"><ele>259.0</ele><time>2026-04-18T16:29:39.188Z</time></trkpt><trkpt lat="39.2028235" lon="8.7200934"><ele>259.0</ele><time>2026-04-18T16:29:40.185Z</time></trkpt><trkpt lat="39.2028251" lon="8.7200079"><ele>259.0</ele><time>2026-04-18T16:29:41.191Z</time></trkpt><trkpt lat="39.2028218" lon="8.7198574"><ele>258.4</ele><time>2026-04-18T16:29:43.182Z</time></trkpt><trkpt lat="39.2028007" lon="8.7197806"><ele>257.79999999999995</ele><time>2026-04-18T16:29:44.183Z</time></trkpt><trkpt lat="39.2027259" lon="8.7196519"><ele>257.20000000000005</ele><time>2026-04-18T16:29:46.187Z</time></trkpt><trkpt lat="39.2026557" lon="8.7195344"><ele>256.6</ele><time>2026-04-18T16:29:48.179Z</time></trkpt><trkpt lat="39.2025872" lon="8.7194436"><ele>256.0</ele><time>2026-04-18T16:29:50.188Z</time></trkpt><trkpt lat="39.2025138" lon="8.7193713"><ele>254.4</ele><time>2026-04-18T16:29:52.189Z</time></trkpt><trkpt lat="39.2024699" lon="8.7193021"><ele>252.8</ele><time>2026-04-18T16:29:54.176Z</time></trkpt><trkpt lat="39.2023993" lon="8.7192317"><ele>251.20000000000002</ele><time>2026-04-18T16:29:56.177Z</time></trkpt><trkpt lat="39.2023294" lon="8.7191459"><ele>249.60000000000002</ele><time>2026-04-18T16:29:58.173Z</time></trkpt><trkpt lat="39.2022604" lon="8.719085"><ele>248.0</ele><time>2026-04-18T16:30:00.182Z</time></trkpt><trkpt lat="39.202136" lon="8.719087"><ele>248.0</ele><time>2026-04-18T16:31:09.178Z</time></trkpt><trkpt lat="39.202064" lon="8.7190994"><ele>248.0</ele><time>2026-04-18T16:31:10.185Z</time></trkpt><trkpt lat="39.2019888" lon="8.7191052"><ele>248.0</ele><time>2026-04-18T16:31:11.195Z</time></trkpt><trkpt lat="39.2018825" lon="8.7190966"><ele>248.0</ele><time>2026-04-18T16:31:12.189Z</time></trkpt><trkpt lat="39.2017591" lon="8.7190613"><ele>248.0</ele><time>2026-04-18T16:31:13.178Z</time></trkpt><trkpt lat="39.2016396" lon="8.7189853"><ele>248.0</ele><time>2026-04-18T16:31:14.168Z</time></trkpt><trkpt lat="39.2015393" lon="8.7188903"><ele>248.0</ele><time>2026-04-18T16:31:15.184Z</time></trkpt><trkpt lat="39.2014518" lon="8.7187801"><ele>248.0</ele><time>2026-04-18T16:31:16.193Z</time></trkpt><trkpt lat="39.2013695" lon="8.7186781"><ele>248.0</ele><time>2026-04-18T16:31:17.164Z</time></trkpt><trkpt lat="39.2012744" lon="8.7185979"><ele>246.75</ele><time>2026-04-18T16:31:18.16Z</time></trkpt><trkpt lat="39.2011687" lon="8.7185309"><ele>245.5</ele><time>2026-04-18T16:31:19.189Z</time></trkpt><trkpt lat="39.2010627" lon="8.7184704"><ele>244.25</ele><time>2026-04-18T16:31:20.195Z</time></trkpt><trkpt lat="39.2009519" lon="8.7184322"><ele>243.0</ele><time>2026-04-18T16:31:21.171Z</time></trkpt><trkpt lat="39.2008537" lon="8.7183977"><ele>243.0</ele><time>2026-04-18T16:31:22.216Z</time></trkpt><trkpt lat="39.2007642" lon="8.7183799"><ele>243.0</ele><time>2026-04-18T16:31:23.171Z</time></trkpt><trkpt lat="39.2006689" lon="8.7183776"><ele>243.0</ele><time>2026-04-18T16:31:24.191Z</time></trkpt><trkpt lat="39.2005875" lon="8.7184154"><ele>243.0</ele><time>2026-04-18T16:31:25.185Z</time></trkpt><trkpt lat="39.2005189" lon="8.7184901"><ele>243.0</ele><time>2026-04-18T16:31:26.185Z</time></trkpt><trkpt lat="39.2004557" lon="8.7185766"><ele>243.5</ele><time>2026-04-18T16:31:27.186Z</time></trkpt><trkpt lat="39.2004146" lon="8.7186784"><ele>244.0</ele><time>2026-04-18T16:31:28.187Z</time></trkpt><trkpt lat="39.2003885" lon="8.7187711"><ele>244.5</ele><time>2026-04-18T16:31:29.184Z</time></trkpt><trkpt lat="39.2003555" lon="8.7188498"><ele>245.0</ele><time>2026-04-18T16:31:30.19Z</time></trkpt><trkpt lat="39.2003171" lon="8.718932"><ele>245.5</ele><time>2026-04-18T16:31:31.198Z</time></trkpt><trkpt lat="39.2002603" lon="8.7190118"><ele>246.0</ele><time>2026-04-18T16:31:32.183Z</time></trkpt><trkpt lat="39.2001972" lon="8.7190616"><ele>246.0</ele><time>2026-04-18T16:31:33.191Z</time></trkpt><trkpt lat="39.2001191" lon="8.7190795"><ele>246.0</ele><time>2026-04-18T16:31:34.185Z</time></trkpt><trkpt lat="39.2000393" lon="8.7190635"><ele>246.0</ele><time>2026-04-18T16:31:35.189Z</time></trkpt><trkpt lat="39.1999711" lon="8.7190206"><ele>246.0</ele><time>2026-04-18T16:31:36.173Z</time></trkpt><trkpt lat="39.1999271" lon="8.7189387"><ele>246.0</ele><time>2026-04-18T16:31:37.189Z</time></trkpt><trkpt lat="39.1999167" lon="8.7188486"><ele>246.0</ele><time>2026-04-18T16:31:38.198Z</time></trkpt><trkpt lat="39.1999271" lon="8.7187641"><ele>246.0</ele><time>2026-04-18T16:31:39.17Z</time></trkpt><trkpt lat="39.1999621" lon="8.7186521"><ele>246.00000000000003</ele><time>2026-04-18T16:31:40.181Z</time></trkpt><trkpt lat="39.1999784" lon="8.7185251"><ele>246.00000000000003</ele><time>2026-04-18T16:31:41.181Z</time></trkpt><trkpt lat="39.1999766" lon="8.7183874"><ele>246.0</ele><time>2026-04-18T16:31:42.174Z</time></trkpt><trkpt lat="39.1999538" lon="8.7182348"><ele>246.0</ele><time>2026-04-18T16:31:43.18Z</time></trkpt><trkpt lat="39.1999205" lon="8.7180962"><ele>245.0</ele><time>2026-04-18T16:31:44.158Z</time></trkpt><trkpt lat="39.1998872" lon="8.7179597"><ele>244.0</ele><time>2026-04-18T16:31:45.178Z</time></trkpt><trkpt lat="39.1998548" lon="8.7178546"><ele>243.0</ele><time>2026-04-18T16:31:46.183Z</time></trkpt><trkpt lat="39.1998259" lon="8.7177721"><ele>242.0</ele><time>2026-04-18T16:31:47.185Z</time></trkpt><trkpt lat="39.199764" lon="8.717721"><ele>241.0</ele><time>2026-04-18T16:31:48.193Z</time></trkpt><trkpt lat="39.1996762" lon="8.7177006"><ele>240.0</ele><time>2026-04-18T16:31:49.179Z</time></trkpt><trkpt lat="39.1995862" lon="8.7176964"><ele>237.4</ele><time>2026-04-18T16:31:50.167Z</time></trkpt><trkpt lat="39.1994985" lon="8.7176545"><ele>234.8</ele><time>2026-04-18T16:31:51.187Z</time></trkpt><trkpt lat="39.1994139" lon="8.7175627"><ele>232.2</ele><time>2026-04-18T16:31:52.165Z</time></trkpt><trkpt lat="39.1993295" lon="8.7174874"><ele>229.6</ele><time>2026-04-18T16:31:53.177Z</time></trkpt><trkpt lat="39.199238" lon="8.7174479"><ele>227.0</ele><time>2026-04-18T16:31:54.177Z</time></trkpt><trkpt lat="39.1991404" lon="8.7174387"><ele>227.0</ele><time>2026-04-18T16:31:55.187Z</time></trkpt><trkpt lat="39.1990385" lon="8.7174883"><ele>227.0</ele><time>2026-04-18T16:31:56.183Z</time></trkpt><trkpt lat="39.1989673" lon="8.7175639"><ele>227.0</ele><time>2026-04-18T16:31:57.199Z</time></trkpt><trkpt lat="39.1988938" lon="8.7176193"><ele>227.0</ele><time>2026-04-18T16:31:58.173Z</time></trkpt><trkpt lat="39.1987982" lon="8.7176349"><ele>227.0</ele><time>2026-04-18T16:31:59.175Z</time></trkpt><trkpt lat="39.1986937" lon="8.717614"><ele>225.75</ele><time>2026-04-18T16:32:00.171Z</time></trkpt><trkpt lat="39.1985768" lon="8.7175929"><ele>224.5</ele><time>2026-04-18T16:32:01.178Z</time></trkpt><trkpt lat="39.1984568" lon="8.717604"><ele>223.25</ele><time>2026-04-18T16:32:02.184Z</time></trkpt><trkpt lat="39.198321" lon="8.717636"><ele>222.0</ele><time>2026-04-18T16:32:03.172Z</time></trkpt><trkpt lat="39.1981991" lon="8.7176915"><ele>218.75</ele><time>2026-04-18T16:32:04.196Z</time></trkpt><trkpt lat="39.1980907" lon="8.7177738"><ele>215.5</ele><time>2026-04-18T16:32:05.163Z</time></trkpt><trkpt lat="39.1979972" lon="8.717873"><ele>212.25</ele><time>2026-04-18T16:32:06.185Z</time></trkpt><trkpt lat="39.1979141" lon="8.7179894"><ele>209.0</ele><time>2026-04-18T16:32:07.182Z</time></trkpt><trkpt lat="39.1978471" lon="8.7181066"><ele>209.0</ele><time>2026-04-18T16:32:08.18Z</time></trkpt><trkpt lat="39.1977815" lon="8.7182146"><ele>209.0</ele><time>2026-04-18T16:32:09.176Z</time></trkpt><trkpt lat="39.197702" lon="8.7182908"><ele>209.0</ele><time>2026-04-18T16:32:10.167Z</time></trkpt><trkpt lat="39.1976172" lon="8.7183282"><ele>209.0</ele><time>2026-04-18T16:32:11.177Z</time></trkpt><trkpt lat="39.1975224" lon="8.7183197"><ele>209.0</ele><time>2026-04-18T16:32:12.174Z</time></trkpt><trkpt lat="39.1974393" lon="8.7182829"><ele>209.0</ele><time>2026-04-18T16:32:13.166Z</time></trkpt><trkpt lat="39.1973809" lon="8.7182029"><ele>209.0</ele><time>2026-04-18T16:32:14.167Z</time></trkpt><trkpt lat="39.1973351" lon="8.7180937"><ele>209.0</ele><time>2026-04-18T16:32:15.16Z</time></trkpt><trkpt lat="39.1972873" lon="8.717981"><ele>209.0</ele><time>2026-04-18T16:32:16.156Z</time></trkpt><trkpt lat="39.1972402" lon="8.7178539"><ele>209.0</ele><time>2026-04-18T16:32:17.168Z</time></trkpt><trkpt lat="39.1971922" lon="8.7177328"><ele>207.39999999999998</ele><time>2026-04-18T16:32:18.168Z</time></trkpt><trkpt lat="39.1971379" lon="8.71761"><ele>205.8</ele><time>2026-04-18T16:32:19.178Z</time></trkpt><trkpt lat="39.1970976" lon="8.7174937"><ele>204.2</ele><time>2026-04-18T16:32:20.172Z</time></trkpt><trkpt lat="39.1970699" lon="8.7173812"><ele>202.60000000000002</ele><time>2026-04-18T16:32:21.166Z</time></trkpt><trkpt lat="39.1970404" lon="8.7172717"><ele>201.0</ele><time>2026-04-18T16:32:22.184Z</time></trkpt><trkpt lat="39.1970063" lon="8.7171694"><ele>201.0</ele><time>2026-04-18T16:32:23.176Z</time></trkpt><trkpt lat="39.1969578" lon="8.7170828"><ele>201.0</ele><time>2026-04-18T16:32:24.202Z</time></trkpt><trkpt lat="39.1969014" lon="8.7170297"><ele>201.0</ele><time>2026-04-18T16:32:25.176Z</time></trkpt><trkpt lat="39.1968323" lon="8.7170239"><ele>201.0</ele><time>2026-04-18T16:32:26.168Z</time></trkpt><trkpt lat="39.1967635" lon="8.7170566"><ele>201.0</ele><time>2026-04-18T16:32:27.174Z</time></trkpt><trkpt lat="39.1966971" lon="8.7171262"><ele>201.0</ele><time>2026-04-18T16:32:28.169Z</time></trkpt><trkpt lat="39.1966383" lon="8.7172394"><ele>201.0</ele><time>2026-04-18T16:32:29.178Z</time></trkpt><trkpt lat="39.1965783" lon="8.7173785"><ele>201.0</ele><time>2026-04-18T16:32:30.181Z</time></trkpt><trkpt lat="39.1965005" lon="8.7175354"><ele>201.0</ele><time>2026-04-18T16:32:31.177Z</time></trkpt><trkpt lat="39.1964163" lon="8.7176866"><ele>201.0</ele><time>2026-04-18T16:32:32.159Z</time></trkpt><trkpt lat="39.1963408" lon="8.7178251"><ele>200.25</ele><time>2026-04-18T16:32:33.177Z</time></trkpt><trkpt lat="39.1962534" lon="8.7179442"><ele>199.5</ele><time>2026-04-18T16:32:34.18Z</time></trkpt><trkpt lat="39.1961427" lon="8.71805"><ele>198.75</ele><time>2026-04-18T16:32:35.181Z</time></trkpt><trkpt lat="39.1960283" lon="8.7181321"><ele>198.0</ele><time>2026-04-18T16:32:36.168Z</time></trkpt><trkpt lat="39.1959265" lon="8.7182039"><ele>198.0</ele><time>2026-04-18T16:32:37.179Z</time></trkpt><trkpt lat="39.1958351" lon="8.7182832"><ele>198.0</ele><time>2026-04-18T16:32:38.204Z</time></trkpt><trkpt lat="39.1957403" lon="8.7183884"><ele>198.0</ele><time>2026-04-18T16:32:39.171Z</time></trkpt><trkpt lat="39.1956602" lon="8.7184881"><ele>198.0</ele><time>2026-04-18T16:32:40.189Z</time></trkpt><trkpt lat="39.1955865" lon="8.7185717"><ele>198.0</ele><time>2026-04-18T16:32:41.192Z</time></trkpt><trkpt lat="39.1955091" lon="8.7186131"><ele>197.2</ele><time>2026-04-18T16:32:42.177Z</time></trkpt><trkpt lat="39.1954058" lon="8.7186139"><ele>196.4</ele><time>2026-04-18T16:32:43.172Z</time></trkpt><trkpt lat="39.1953077" lon="8.7185721"><ele>195.6</ele><time>2026-04-18T16:32:44.169Z</time></trkpt><trkpt lat="39.1952264" lon="8.7185032"><ele>194.79999999999998</ele><time>2026-04-18T16:32:45.172Z</time></trkpt><trkpt lat="39.1951577" lon="8.718425"><ele>194.0</ele><time>2026-04-18T16:32:46.178Z</time></trkpt><trkpt lat="39.1950696" lon="8.7183636"><ele>194.0</ele><time>2026-04-18T16:32:47.173Z</time></trkpt><trkpt lat="39.1949708" lon="8.7183484"><ele>194.0</ele><time>2026-04-18T16:32:48.19Z</time></trkpt><trkpt lat="39.1948505" lon="8.7183879"><ele>194.0</ele><time>2026-04-18T16:32:49.156Z</time></trkpt><trkpt lat="39.1947155" lon="8.7184418"><ele>194.0</ele><time>2026-04-18T16:32:50.168Z</time></trkpt><trkpt lat="39.1945915" lon="8.7184879"><ele>194.2</ele><time>2026-04-18T16:32:51.17Z</time></trkpt><trkpt lat="39.1944779" lon="8.7185538"><ele>194.39999999999998</ele><time>2026-04-18T16:32:52.188Z</time></trkpt><trkpt lat="39.1943774" lon="8.7186401"><ele>194.6</ele><time>2026-04-18T16:32:53.17Z</time></trkpt><trkpt lat="39.1942987" lon="8.7187269"><ele>194.8</ele><time>2026-04-18T16:32:54.177Z</time></trkpt><trkpt lat="39.1942111" lon="8.7187905"><ele>195.0</ele><time>2026-04-18T16:32:55.17Z</time></trkpt><trkpt lat="39.1940998" lon="8.7187973"><ele>195.0</ele><time>2026-04-18T16:32:56.18Z</time></trkpt><trkpt lat="39.1939838" lon="8.7187724"><ele>195.0</ele><time>2026-04-18T16:32:57.17Z</time></trkpt><trkpt lat="39.1938627" lon="8.7187523"><ele>195.0</ele><time>2026-04-18T16:32:58.173Z</time></trkpt><trkpt lat="39.1937296" lon="8.7187591"><ele>195.0</ele><time>2026-04-18T16:32:59.161Z</time></trkpt><trkpt lat="39.1935972" lon="8.7187891"><ele>195.0</ele><time>2026-04-18T16:33:00.173Z</time></trkpt><trkpt lat="39.193471" lon="8.7187867"><ele>195.0</ele><time>2026-04-18T16:33:01.173Z</time></trkpt><trkpt lat="39.1933489" lon="8.7187786"><ele>195.0</ele><time>2026-04-18T16:33:02.179Z</time></trkpt><trkpt lat="39.1932349" lon="8.7187482"><ele>195.0</ele><time>2026-04-18T16:33:03.157Z</time></trkpt><trkpt lat="39.1931341" lon="8.7187013"><ele>192.8</ele><time>2026-04-18T16:33:04.192Z</time></trkpt><trkpt lat="39.1930407" lon="8.7186394"><ele>190.6</ele><time>2026-04-18T16:33:05.175Z</time></trkpt><trkpt lat="39.1929485" lon="8.7185868"><ele>188.39999999999998</ele><time>2026-04-18T16:33:06.176Z</time></trkpt><trkpt lat="39.1928572" lon="8.7186009"><ele>186.2</ele><time>2026-04-18T16:33:07.177Z</time></trkpt><trkpt lat="39.1927597" lon="8.7186648"><ele>184.0</ele><time>2026-04-18T16:33:08.176Z</time></trkpt><trkpt lat="39.1926646" lon="8.7187445"><ele>184.0</ele><time>2026-04-18T16:33:09.174Z</time></trkpt><trkpt lat="39.1925732" lon="8.7188144"><ele>184.0</ele><time>2026-04-18T16:33:10.165Z</time></trkpt><trkpt lat="39.1924894" lon="8.718875"><ele>184.0</ele><time>2026-04-18T16:33:11.158Z</time></trkpt><trkpt lat="39.1923832" lon="8.7188751"><ele>184.0</ele><time>2026-04-18T16:33:12.168Z</time></trkpt><trkpt lat="39.1922605" lon="8.718838"><ele>184.0</ele><time>2026-04-18T16:33:13.189Z</time></trkpt><trkpt lat="39.1921315" lon="8.7187715"><ele>184.0</ele><time>2026-04-18T16:33:14.18Z</time></trkpt><trkpt lat="39.1919937" lon="8.7187075"><ele>184.0</ele><time>2026-04-18T16:33:15.167Z</time></trkpt><trkpt lat="39.1918532" lon="8.7186477"><ele>184.0</ele><time>2026-04-18T16:33:16.165Z</time></trkpt><trkpt lat="39.1917263" lon="8.7185933"><ele>184.0</ele><time>2026-04-18T16:33:17.162Z</time></trkpt><trkpt lat="39.1916078" lon="8.7185499"><ele>182.5</ele><time>2026-04-18T16:33:18.166Z</time></trkpt><trkpt lat="39.1915187" lon="8.7185077"><ele>181.0</ele><time>2026-04-18T16:33:19.211Z</time></trkpt><trkpt lat="39.1914331" lon="8.7184772"><ele>179.5</ele><time>2026-04-18T16:33:21.194Z</time></trkpt><trkpt lat="39.1913648" lon="8.7184244"><ele>178.0</ele><time>2026-04-18T16:33:28.193Z</time></trkpt><trkpt lat="39.1913113" lon="8.7183796"><ele>176.5</ele><time>2026-04-18T16:33:29.19Z</time></trkpt><trkpt lat="39.1912567" lon="8.7183193"><ele>175.0</ele><time>2026-04-18T16:33:30.188Z</time></trkpt><trkpt lat="39.1912075" lon="8.7182596"><ele>174.0</ele><time>2026-04-18T16:33:31.175Z</time></trkpt><trkpt lat="39.1910937" lon="8.7182529"><ele>173.0</ele><time>2026-04-18T16:33:33.185Z</time></trkpt><trkpt lat="39.1910098" lon="8.7183104"><ele>172.0</ele><time>2026-04-18T16:33:34.18Z</time></trkpt><trkpt lat="39.1909081" lon="8.7183802"><ele>171.0</ele><time>2026-04-18T16:33:35.186Z</time></trkpt><trkpt lat="39.190807" lon="8.7184462"><ele>170.0</ele><time>2026-04-18T16:33:36.169Z</time></trkpt><trkpt lat="39.1907145" lon="8.7184989"><ele>169.8</ele><time>2026-04-18T16:33:37.179Z</time></trkpt><trkpt lat="39.1906396" lon="8.7185611"><ele>169.6</ele><time>2026-04-18T16:33:38.177Z</time></trkpt><trkpt lat="39.1905743" lon="8.7185747"><ele>169.39999999999998</ele><time>2026-04-18T16:33:39.178Z</time></trkpt><trkpt lat="39.1904823" lon="8.7185491"><ele>169.2</ele><time>2026-04-18T16:33:40.186Z</time></trkpt><trkpt lat="39.190374" lon="8.7185127"><ele>169.0</ele><time>2026-04-18T16:33:41.193Z</time></trkpt><trkpt lat="39.1902389" lon="8.718455"><ele>169.0</ele><time>2026-04-18T16:33:42.184Z</time></trkpt><trkpt lat="39.1901031" lon="8.7183909"><ele>169.0</ele><time>2026-04-18T16:33:43.189Z</time></trkpt><trkpt lat="39.1899787" lon="8.7183419"><ele>169.0</ele><time>2026-04-18T16:33:44.182Z</time></trkpt><trkpt lat="39.1898781" lon="8.7182965"><ele>169.0</ele><time>2026-04-18T16:33:45.174Z</time></trkpt><trkpt lat="39.1897896" lon="8.7182549"><ele>168.83333333333334</ele><time>2026-04-18T16:33:46.223Z</time></trkpt><trkpt lat="39.1897151" lon="8.718249"><ele>168.66666666666669</ele><time>2026-04-18T16:33:47.194Z</time></trkpt><trkpt lat="39.1896366" lon="8.7182609"><ele>168.5</ele><time>2026-04-18T16:33:48.186Z</time></trkpt><trkpt lat="39.1895553" lon="8.7182941"><ele>168.33333333333334</ele><time>2026-04-18T16:33:49.183Z</time></trkpt><trkpt lat="39.1894769" lon="8.718349"><ele>168.16666666666666</ele><time>2026-04-18T16:33:50.2Z</time></trkpt><trkpt lat="39.1893897" lon="8.7184001"><ele>168.0</ele><time>2026-04-18T16:33:51.179Z</time></trkpt><trkpt lat="39.1892963" lon="8.7184404"><ele>168.0</ele><time>2026-04-18T16:33:52.202Z</time></trkpt><trkpt lat="39.1891986" lon="8.7184625"><ele>168.0</ele><time>2026-04-18T16:33:53.179Z</time></trkpt><trkpt lat="39.1890989" lon="8.7184728"><ele>168.0</ele><time>2026-04-18T16:33:54.186Z</time></trkpt><trkpt lat="39.1890013" lon="8.7184603"><ele>168.0</ele><time>2026-04-18T16:33:55.199Z</time></trkpt><trkpt lat="39.1889048" lon="8.7184229"><ele>168.0</ele><time>2026-04-18T16:33:56.182Z</time></trkpt><trkpt lat="39.1888175" lon="8.7184052"><ele>167.16666666666666</ele><time>2026-04-18T16:33:57.186Z</time></trkpt><trkpt lat="39.1887374" lon="8.7183956"><ele>166.33333333333334</ele><time>2026-04-18T16:33:58.17Z</time></trkpt><trkpt lat="39.1886593" lon="8.7183858"><ele>165.5</ele><time>2026-04-18T16:33:59.211Z</time></trkpt><trkpt lat="39.188591" lon="8.7183781"><ele>164.66666666666669</ele><time>2026-04-18T16:34:00.173Z</time></trkpt><trkpt lat="39.1884804" lon="8.718344"><ele>163.83333333333334</ele><time>2026-04-18T16:34:02.181Z</time></trkpt><trkpt lat="39.1884144" lon="8.7183176"><ele>163.0</ele><time>2026-04-18T16:34:04.189Z</time></trkpt><trkpt lat="39.1883316" lon="8.7182703"><ele>163.0</ele><time>2026-04-18T16:38:00.22Z</time></trkpt><trkpt lat="39.1882192" lon="8.7181446"><ele>163.0</ele><time>2026-04-18T16:38:02.215Z</time></trkpt><trkpt lat="39.1881317" lon="8.7180901"><ele>163.0</ele><time>2026-04-18T16:38:03.218Z</time></trkpt><trkpt lat="39.1880361" lon="8.7180389"><ele>163.0</ele><time>2026-04-18T16:38:04.172Z</time></trkpt><trkpt lat="39.1879464" lon="8.7180073"><ele>163.0</ele><time>2026-04-18T16:38:05.211Z</time></trkpt><trkpt lat="39.1878589" lon="8.7179859"><ele>162.4</ele><time>2026-04-18T16:38:06.208Z</time></trkpt><trkpt lat="39.1877645" lon="8.7179817"><ele>161.8</ele><time>2026-04-18T16:38:07.207Z</time></trkpt><trkpt lat="39.1876628" lon="8.7180138"><ele>161.2</ele><time>2026-04-18T16:38:08.223Z</time></trkpt><trkpt lat="39.1875597" lon="8.7180509"><ele>160.6</ele><time>2026-04-18T16:38:09.222Z</time></trkpt><trkpt lat="39.187455" lon="8.71809"><ele>160.0</ele><time>2026-04-18T16:38:10.228Z</time></trkpt><trkpt lat="39.1873476" lon="8.7181226"><ele>159.25</ele><time>2026-04-18T16:38:11.201Z</time></trkpt><trkpt lat="39.1872312" lon="8.7181453"><ele>158.5</ele><time>2026-04-18T16:38:12.211Z</time></trkpt><trkpt lat="39.1871104" lon="8.7181574"><ele>157.75</ele><time>2026-04-18T16:38:13.228Z</time></trkpt><trkpt lat="39.1869916" lon="8.7181758"><ele>157.0</ele><time>2026-04-18T16:38:14.202Z</time></trkpt><trkpt lat="39.1868852" lon="8.7181977"><ele>157.0</ele><time>2026-04-18T16:38:15.187Z</time></trkpt><trkpt lat="39.1867689" lon="8.7182081"><ele>157.0</ele><time>2026-04-18T16:38:16.212Z</time></trkpt><trkpt lat="39.1866515" lon="8.718217"><ele>157.0</ele><time>2026-04-18T16:38:17.232Z</time></trkpt><trkpt lat="39.1865358" lon="8.7182239"><ele>157.0</ele><time>2026-04-18T16:38:18.22Z</time></trkpt><trkpt lat="39.1864208" lon="8.7182252"><ele>156.5</ele><time>2026-04-18T16:38:19.221Z</time></trkpt><trkpt lat="39.1863056" lon="8.7182082"><ele>156.0</ele><time>2026-04-18T16:38:20.211Z</time></trkpt><trkpt lat="39.186189" lon="8.7181852"><ele>155.5</ele><time>2026-04-18T16:38:21.221Z</time></trkpt><trkpt lat="39.1860619" lon="8.7181411"><ele>155.0</ele><time>2026-04-18T16:38:22.215Z</time></trkpt><trkpt lat="39.1859222" lon="8.7180756"><ele>155.0</ele><time>2026-04-18T16:38:23.216Z</time></trkpt><trkpt lat="39.1857893" lon="8.7179831"><ele>155.0</ele><time>2026-04-18T16:38:24.177Z</time></trkpt><trkpt lat="39.1856624" lon="8.7178736"><ele>155.0</ele><time>2026-04-18T16:38:25.185Z</time></trkpt><trkpt lat="39.1855382" lon="8.7177468"><ele>155.0</ele><time>2026-04-18T16:38:26.217Z</time></trkpt><trkpt lat="39.1854197" lon="8.7176055"><ele>155.0</ele><time>2026-04-18T16:38:27.207Z</time></trkpt><trkpt lat="39.1853094" lon="8.717454"><ele>155.0</ele><time>2026-04-18T16:38:28.218Z</time></trkpt><trkpt lat="39.1852197" lon="8.7172982"><ele>155.0</ele><time>2026-04-18T16:38:29.217Z</time></trkpt><trkpt lat="39.1851408" lon="8.7171404"><ele>155.0</ele><time>2026-04-18T16:38:30.219Z</time></trkpt><trkpt lat="39.1850807" lon="8.7169749"><ele>155.0</ele><time>2026-04-18T16:38:31.242Z</time></trkpt><trkpt lat="39.1850323" lon="8.716807"><ele>155.0</ele><time>2026-04-18T16:38:32.222Z</time></trkpt><trkpt lat="39.1849729" lon="8.7166186"><ele>154.66666666666666</ele><time>2026-04-18T16:38:33.206Z</time></trkpt><trkpt lat="39.1848981" lon="8.7164222"><ele>154.33333333333334</ele><time>2026-04-18T16:38:34.221Z</time></trkpt><trkpt lat="39.1848344" lon="8.716227"><ele>154.0</ele><time>2026-04-18T16:38:35.226Z</time></trkpt><trkpt lat="39.184771" lon="8.7160364"><ele>153.66666666666669</ele><time>2026-04-18T16:38:36.225Z</time></trkpt><trkpt lat="39.1847114" lon="8.7158455"><ele>153.33333333333334</ele><time>2026-04-18T16:38:37.215Z</time></trkpt><trkpt lat="39.1846573" lon="8.7156583"><ele>153.0</ele><time>2026-04-18T16:38:38.208Z</time></trkpt><trkpt lat="39.1846049" lon="8.7154779"><ele>153.0</ele><time>2026-04-18T16:38:39.24Z</time></trkpt><trkpt lat="39.184543" lon="8.7153018"><ele>153.0</ele><time>2026-04-18T16:38:40.227Z</time></trkpt><trkpt lat="39.1844724" lon="8.715136"><ele>153.0</ele><time>2026-04-18T16:38:41.2Z</time></trkpt><trkpt lat="39.1843831" lon="8.714993"><ele>153.0</ele><time>2026-04-18T16:38:42.232Z</time></trkpt><trkpt lat="39.1842765" lon="8.7148687"><ele>152.0</ele><time>2026-04-18T16:38:43.203Z</time></trkpt><trkpt lat="39.1841515" lon="8.7147672"><ele>151.0</ele><time>2026-04-18T16:38:44.215Z</time></trkpt><trkpt lat="39.1840123" lon="8.7146833"><ele>150.0</ele><time>2026-04-18T16:38:45.218Z</time></trkpt><trkpt lat="39.1838549" lon="8.7145924"><ele>149.66666666666666</ele><time>2026-04-18T16:38:46.216Z</time></trkpt><trkpt lat="39.1836965" lon="8.7144982"><ele>149.33333333333331</ele><time>2026-04-18T16:38:47.236Z</time></trkpt><trkpt lat="39.1835487" lon="8.7144044"><ele>149.0</ele><time>2026-04-18T16:38:48.235Z</time></trkpt><trkpt lat="39.1834025" lon="8.7143267"><ele>149.0</ele><time>2026-04-18T16:38:49.227Z</time></trkpt><trkpt lat="39.1832624" lon="8.7142647"><ele>149.0</ele><time>2026-04-18T16:38:50.231Z</time></trkpt><trkpt lat="39.1831293" lon="8.7142122"><ele>149.0</ele><time>2026-04-18T16:38:51.215Z</time></trkpt><trkpt lat="39.1830097" lon="8.7141519"><ele>149.0</ele><time>2026-04-18T16:38:52.218Z</time></trkpt><trkpt lat="39.1829069" lon="8.7140949"><ele>148.4</ele><time>2026-04-18T16:38:53.19Z</time></trkpt><trkpt lat="39.1828131" lon="8.7140371"><ele>147.8</ele><time>2026-04-18T16:38:54.197Z</time></trkpt><trkpt lat="39.1827297" lon="8.7139912"><ele>147.2</ele><time>2026-04-18T16:38:55.212Z</time></trkpt><trkpt lat="39.1826429" lon="8.713954"><ele>146.6</ele><time>2026-04-18T16:38:56.219Z</time></trkpt><trkpt lat="39.1825572" lon="8.7139259"><ele>146.0</ele><time>2026-04-18T16:38:57.21Z</time></trkpt><trkpt lat="39.1824671" lon="8.7138977"><ele>146.0</ele><time>2026-04-18T16:38:58.217Z</time></trkpt><trkpt lat="39.1823907" lon="8.7138803"><ele>146.0</ele><time>2026-04-18T16:38:59.193Z</time></trkpt><trkpt lat="39.1822838" lon="8.7138652"><ele>146.0</ele><time>2026-04-18T16:39:01.219Z</time></trkpt><trkpt lat="39.1822175" lon="8.7138439"><ele>146.0</ele><time>2026-04-18T16:39:03.222Z</time></trkpt><trkpt lat="39.1821499" lon="8.7138007"><ele>146.0</ele><time>2026-04-18T16:39:34.201Z</time></trkpt><trkpt lat="39.1820926" lon="8.7136964"><ele>146.0</ele><time>2026-04-18T16:39:36.225Z</time></trkpt><trkpt lat="39.1820592" lon="8.7136065"><ele>145.8</ele><time>2026-04-18T16:39:37.203Z</time></trkpt><trkpt lat="39.1820247" lon="8.7135043"><ele>145.6</ele><time>2026-04-18T16:39:38.214Z</time></trkpt><trkpt lat="39.1819862" lon="8.7134017"><ele>145.4</ele><time>2026-04-18T16:39:39.216Z</time></trkpt><trkpt lat="39.18194" lon="8.713298"><ele>145.2</ele><time>2026-04-18T16:39:40.214Z</time></trkpt><trkpt lat="39.18189" lon="8.7132049"><ele>145.0</ele><time>2026-04-18T16:39:41.214Z</time></trkpt><trkpt lat="39.181826" lon="8.7131063"><ele>145.0</ele><time>2026-04-18T16:39:42.205Z</time></trkpt><trkpt lat="39.1817469" lon="8.712999"><ele>145.0</ele><time>2026-04-18T16:39:43.211Z</time></trkpt><trkpt lat="39.181668" lon="8.7128814"><ele>145.0</ele><time>2026-04-18T16:39:44.209Z</time></trkpt><trkpt lat="39.1815896" lon="8.7127634"><ele>145.0</ele><time>2026-04-18T16:39:45.218Z</time></trkpt><trkpt lat="39.1815039" lon="8.7126325"><ele>145.75</ele><time>2026-04-18T16:39:46.214Z</time></trkpt><trkpt lat="39.1814159" lon="8.712497"><ele>146.5</ele><time>2026-04-18T16:39:47.225Z</time></trkpt><trkpt lat="39.1813266" lon="8.7123681"><ele>147.25</ele><time>2026-04-18T16:39:48.227Z</time></trkpt><trkpt lat="39.1812377" lon="8.7122426"><ele>148.0</ele><time>2026-04-18T16:39:49.211Z</time></trkpt><trkpt lat="39.181153" lon="8.7121216"><ele>148.0</ele><time>2026-04-18T16:39:50.234Z</time></trkpt><trkpt lat="39.1810685" lon="8.712002"><ele>148.0</ele><time>2026-04-18T16:39:51.231Z</time></trkpt><trkpt lat="39.180981" lon="8.7118759"><ele>148.0</ele><time>2026-04-18T16:39:52.219Z</time></trkpt><trkpt lat="39.1808991" lon="8.711756"><ele>148.0</ele><time>2026-04-18T16:39:53.234Z</time></trkpt><trkpt lat="39.1808134" lon="8.7116518"><ele>148.6</ele><time>2026-04-18T16:39:54.218Z</time></trkpt><trkpt lat="39.1807338" lon="8.711561"><ele>149.20000000000002</ele><time>2026-04-18T16:39:55.217Z</time></trkpt><trkpt lat="39.1806495" lon="8.7114794"><ele>149.8</ele><time>2026-04-18T16:39:56.227Z</time></trkpt><trkpt lat="39.1805708" lon="8.7114093"><ele>150.4</ele><time>2026-04-18T16:39:57.203Z</time></trkpt><trkpt lat="39.180501" lon="8.7113582"><ele>151.0</ele><time>2026-04-18T16:39:58.213Z</time></trkpt><trkpt lat="39.1804327" lon="8.7113294"><ele>151.0</ele><time>2026-04-18T16:39:59.238Z</time></trkpt><trkpt lat="39.1803543" lon="8.7113315"><ele>151.0</ele><time>2026-04-18T16:40:00.22Z</time></trkpt><trkpt lat="39.1802587" lon="8.7113316"><ele>151.0</ele><time>2026-04-18T16:40:01.221Z</time></trkpt><trkpt lat="39.1801474" lon="8.7113234"><ele>151.0</ele><time>2026-04-18T16:40:02.206Z</time></trkpt><trkpt lat="39.1800174" lon="8.7112976"><ele>151.0</ele><time>2026-04-18T16:40:03.179Z</time></trkpt><trkpt lat="39.1798777" lon="8.7112654"><ele>150.25</ele><time>2026-04-18T16:40:04.217Z</time></trkpt><trkpt lat="39.1797338" lon="8.7112527"><ele>149.5</ele><time>2026-04-18T16:40:05.206Z</time></trkpt><trkpt lat="39.1795857" lon="8.7112395"><ele>148.75</ele><time>2026-04-18T16:40:06.218Z</time></trkpt><trkpt lat="39.1794434" lon="8.7112392"><ele>148.0</ele><time>2026-04-18T16:40:07.199Z</time></trkpt><trkpt lat="39.1793072" lon="8.7112496"><ele>148.0</ele><time>2026-04-18T16:40:08.202Z</time></trkpt><trkpt lat="39.1791766" lon="8.7112751"><ele>148.0</ele><time>2026-04-18T16:40:09.213Z</time></trkpt><trkpt lat="39.1790503" lon="8.7113026"><ele>148.0</ele><time>2026-04-18T16:40:10.215Z</time></trkpt><trkpt lat="39.1789249" lon="8.7113299"><ele>148.0</ele><time>2026-04-18T16:40:11.233Z</time></trkpt><trkpt lat="39.178796" lon="8.7113496"><ele>146.66666666666669</ele><time>2026-04-18T16:40:12.202Z</time></trkpt><trkpt lat="39.1786533" lon="8.7113593"><ele>145.33333333333334</ele><time>2026-04-18T16:40:13.213Z</time></trkpt><trkpt lat="39.1785023" lon="8.7113693"><ele>144.0</ele><time>2026-04-18T16:40:14.21Z</time></trkpt><trkpt lat="39.1783346" lon="8.7113773"><ele>143.33333333333334</ele><time>2026-04-18T16:40:15.218Z</time></trkpt><trkpt lat="39.1781728" lon="8.7113842"><ele>142.66666666666669</ele><time>2026-04-18T16:40:16.207Z</time></trkpt><trkpt lat="39.1780182" lon="8.7113896"><ele>142.0</ele><time>2026-04-18T16:40:17.205Z</time></trkpt><trkpt lat="39.177865" lon="8.7113983"><ele>142.0</ele><time>2026-04-18T16:40:18.212Z</time></trkpt><trkpt lat="39.1777141" lon="8.7114052"><ele>142.0</ele><time>2026-04-18T16:40:19.235Z</time></trkpt><trkpt lat="39.1775742" lon="8.7114112"><ele>142.0</ele><time>2026-04-18T16:40:20.201Z</time></trkpt><trkpt lat="39.1774336" lon="8.7114239"><ele>142.0</ele><time>2026-04-18T16:40:21.193Z</time></trkpt><trkpt lat="39.1772971" lon="8.7114342"><ele>140.0</ele><time>2026-04-18T16:40:22.171Z</time></trkpt><trkpt lat="39.1771679" lon="8.7114188"><ele>140.0</ele><time>2026-04-18T16:40:23.194Z</time></trkpt></trkseg></trk></gpx>